<?xml version='1.0' encoding='UTF-8'?><gpx version="1.1" creator="JPX - https://github.com/jenetics/jpx" xmlns="http://www.topografix.com/GPX/1/1"><trk><trkseg><trkpt lat="42.978613" lon="13.8330212"><ele>28.0</ele><time>2026-04-12T07:46:27.067Z</time></trkpt><trkpt lat="42.9786644" lon="13.8328457"><ele>28.0</ele><time>2026-04-12T07:46:29.072Z</time></trkpt><trkpt lat="42.9786881" lon="13.8327236"><ele>28.0</ele><time>2026-04-12T07:46:30.067Z</time></trkpt><trkpt lat="42.9787115" lon="13.8325915"><ele>28.0</ele><time>2026-04-12T07:46:31.062Z</time></trkpt><trkpt lat="42.97876" lon="13.8323111"><ele>28.25</ele><time>2026-04-12T07:46:33.061Z</time></trkpt><trkpt lat="42.9787881" lon="13.8321643"><ele>28.5</ele><time>2026-04-12T07:46:34.064Z</time></trkpt><trkpt lat="42.978818" lon="13.832015"><ele>28.75</ele><time>2026-04-12T07:46:35.062Z</time></trkpt><trkpt lat="42.9788496" lon="13.831861"><ele>29.0</ele><time>2026-04-12T07:46:36.097Z</time></trkpt><trkpt lat="42.9788833" lon="13.831705"><ele>29.0</ele><time>2026-04-12T07:46:37.061Z</time></trkpt><trkpt lat="42.9789165" lon="13.8315387"><ele>29.0</ele><time>2026-04-12T07:46:38.094Z</time></trkpt><trkpt lat="42.9789482" lon="13.8313731"><ele>29.0</ele><time>2026-04-12T07:46:39.067Z</time></trkpt><trkpt lat="42.9789798" lon="13.8312024"><ele>29.0</ele><time>2026-04-12T07:46:40.062Z</time></trkpt><trkpt lat="42.9790164" lon="13.8310302"><ele>29.0</ele><time>2026-04-12T07:46:41.065Z</time></trkpt><trkpt lat="42.9790511" lon="13.8308572"><ele>29.0</ele><time>2026-04-12T07:46:42.062Z</time></trkpt><trkpt lat="42.9790819" lon="13.8306847"><ele>29.0</ele><time>2026-04-12T07:46:43.063Z</time></trkpt><trkpt lat="42.9791138" lon="13.8305084"><ele>29.0</ele><time>2026-04-12T07:46:44.063Z</time></trkpt><trkpt lat="42.9791457" lon="13.830331"><ele>29.0</ele><time>2026-04-12T07:46:45.065Z</time></trkpt><trkpt lat="42.9791772" lon="13.8301535"><ele>29.0</ele><time>2026-04-12T07:46:46.062Z</time></trkpt><trkpt lat="42.9792096" lon="13.8299748"><ele>29.0</ele><time>2026-04-12T07:46:47.065Z</time></trkpt><trkpt lat="42.9792415" lon="13.8297984"><ele>29.0</ele><time>2026-04-12T07:46:48.062Z</time></trkpt><trkpt lat="42.9792748" lon="13.8296234"><ele>30.0</ele><time>2026-04-12T07:46:49.067Z</time></trkpt><trkpt lat="42.9793077" lon="13.8294471"><ele>31.0</ele><time>2026-04-12T07:46:50.07Z</time></trkpt><trkpt lat="42.9793403" lon="13.8292654"><ele>32.0</ele><time>2026-04-12T07:46:51.061Z</time></trkpt><trkpt lat="42.9793739" lon="13.8290734"><ele>33.0</ele><time>2026-04-12T07:46:52.063Z</time></trkpt><trkpt lat="42.9794501" lon="13.8286645"><ele>32.666666666666664</ele><time>2026-04-12T07:46:54.095Z</time></trkpt><trkpt lat="42.9794961" lon="13.8284562"><ele>32.33333333333333</ele><time>2026-04-12T07:46:55.063Z</time></trkpt><trkpt lat="42.9795466" lon="13.8282454"><ele>32.0</ele><time>2026-04-12T07:46:56.065Z</time></trkpt><trkpt lat="42.9795979" lon="13.828038"><ele>32.0</ele><time>2026-04-12T07:46:57.068Z</time></trkpt><trkpt lat="42.9796512" lon="13.8278368"><ele>32.0</ele><time>2026-04-12T07:46:58.063Z</time></trkpt><trkpt lat="42.9797051" lon="13.8276443"><ele>32.0</ele><time>2026-04-12T07:46:59.068Z</time></trkpt><trkpt lat="42.9797577" lon="13.8274629"><ele>32.0</ele><time>2026-04-12T07:47:00.075Z</time></trkpt><trkpt lat="42.9798082" lon="13.8272938"><ele>32.0</ele><time>2026-04-12T07:47:01.106Z</time></trkpt><trkpt lat="42.9798548" lon="13.8271386"><ele>32.0</ele><time>2026-04-12T07:47:02.065Z</time></trkpt><trkpt lat="42.9798982" lon="13.8269889"><ele>32.0</ele><time>2026-04-12T07:47:03.061Z</time></trkpt><trkpt lat="42.9799366" lon="13.8268437"><ele>32.5</ele><time>2026-04-12T07:47:04.063Z</time></trkpt><trkpt lat="42.9799735" lon="13.8266982"><ele>33.0</ele><time>2026-04-12T07:47:05.06Z</time></trkpt><trkpt lat="42.9800089" lon="13.8265502"><ele>33.5</ele><time>2026-04-12T07:47:06.061Z</time></trkpt><trkpt lat="42.9800408" lon="13.826397"><ele>34.0</ele><time>2026-04-12T07:47:07.065Z</time></trkpt><trkpt lat="42.9800724" lon="13.8262407"><ele>34.0</ele><time>2026-04-12T07:47:08.065Z</time></trkpt><trkpt lat="42.9801037" lon="13.8260822"><ele>34.0</ele><time>2026-04-12T07:47:09.067Z</time></trkpt><trkpt lat="42.9801369" lon="13.8259228"><ele>34.0</ele><time>2026-04-12T07:47:10.067Z</time></trkpt><trkpt lat="42.9801733" lon="13.825762"><ele>34.0</ele><time>2026-04-12T07:47:11.069Z</time></trkpt><trkpt lat="42.9802115" lon="13.8255974"><ele>34.333333333333336</ele><time>2026-04-12T07:47:12.089Z</time></trkpt><trkpt lat="42.9802496" lon="13.8254322"><ele>34.666666666666664</ele><time>2026-04-12T07:47:13.061Z</time></trkpt><trkpt lat="42.9803162" lon="13.8250991"><ele>35.0</ele><time>2026-04-12T07:47:15.059Z</time></trkpt><trkpt lat="42.98035" lon="13.8249349"><ele>35.25</ele><time>2026-04-12T07:47:16.062Z</time></trkpt><trkpt lat="42.9803836" lon="13.8247755"><ele>35.5</ele><time>2026-04-12T07:47:17.066Z</time></trkpt><trkpt lat="42.9804133" lon="13.8246137"><ele>35.75</ele><time>2026-04-12T07:47:18.063Z</time></trkpt><trkpt lat="42.9804355" lon="13.8244432"><ele>36.0</ele><time>2026-04-12T07:47:19.07Z</time></trkpt><trkpt lat="42.9804531" lon="13.8242706"><ele>36.0</ele><time>2026-04-12T07:47:20.063Z</time></trkpt><trkpt lat="42.9804676" lon="13.824097"><ele>36.0</ele><time>2026-04-12T07:47:21.061Z</time></trkpt><trkpt lat="42.9804817" lon="13.823923"><ele>36.0</ele><time>2026-04-12T07:47:22.071Z</time></trkpt><trkpt lat="42.9804952" lon="13.8237428"><ele>36.0</ele><time>2026-04-12T07:47:23.091Z</time></trkpt><trkpt lat="42.980503" lon="13.8235525"><ele>36.333333333333336</ele><time>2026-04-12T07:47:24.069Z</time></trkpt><trkpt lat="42.9805049" lon="13.8233466"><ele>36.66666666666667</ele><time>2026-04-12T07:47:25.064Z</time></trkpt><trkpt lat="42.9805013" lon="13.8231359"><ele>37.0</ele><time>2026-04-12T07:47:26.065Z</time></trkpt><trkpt lat="42.9804866" lon="13.8229241"><ele>37.0</ele><time>2026-04-12T07:47:27.09Z</time></trkpt><trkpt lat="42.9804646" lon="13.8227236"><ele>37.0</ele><time>2026-04-12T07:47:28.069Z</time></trkpt><trkpt lat="42.9804373" lon="13.8225212"><ele>37.0</ele><time>2026-04-12T07:47:29.073Z</time></trkpt><trkpt lat="42.9804083" lon="13.8223236"><ele>37.0</ele><time>2026-04-12T07:47:30.065Z</time></trkpt><trkpt lat="42.9803794" lon="13.8221299"><ele>37.0</ele><time>2026-04-12T07:47:31.064Z</time></trkpt><trkpt lat="42.9803512" lon="13.8219297"><ele>37.0</ele><time>2026-04-12T07:47:32.072Z</time></trkpt><trkpt lat="42.9803204" lon="13.8217178"><ele>37.0</ele><time>2026-04-12T07:47:33.061Z</time></trkpt><trkpt lat="42.9802846" lon="13.8214884"><ele>37.0</ele><time>2026-04-12T07:47:34.095Z</time></trkpt><trkpt lat="42.980204" lon="13.8210212"><ele>37.0</ele><time>2026-04-12T07:47:36.061Z</time></trkpt><trkpt lat="42.9801641" lon="13.8207877"><ele>37.0</ele><time>2026-04-12T07:47:37.067Z</time></trkpt><trkpt lat="42.9801229" lon="13.8205625"><ele>37.0</ele><time>2026-04-12T07:47:38.068Z</time></trkpt><trkpt lat="42.9800839" lon="13.8203472"><ele>37.0</ele><time>2026-04-12T07:47:39.067Z</time></trkpt><trkpt lat="42.9800502" lon="13.8201423"><ele>37.66666666666667</ele><time>2026-04-12T07:47:40.09Z</time></trkpt><trkpt lat="42.9800168" lon="13.8199507"><ele>38.333333333333336</ele><time>2026-04-12T07:47:41.074Z</time></trkpt><trkpt lat="42.9799839" lon="13.8197519"><ele>39.0</ele><time>2026-04-12T07:47:42.067Z</time></trkpt><trkpt lat="42.979947" lon="13.81954"><ele>39.0</ele><time>2026-04-12T07:47:43.066Z</time></trkpt><trkpt lat="42.97991" lon="13.8193222"><ele>39.0</ele><time>2026-04-12T07:47:44.068Z</time></trkpt><trkpt lat="42.9798744" lon="13.8191095"><ele>39.0</ele><time>2026-04-12T07:47:45.069Z</time></trkpt><trkpt lat="42.9798432" lon="13.8189071"><ele>39.0</ele><time>2026-04-12T07:47:46.063Z</time></trkpt><trkpt lat="42.9798183" lon="13.8187253"><ele>39.0</ele><time>2026-04-12T07:47:47.07Z</time></trkpt><trkpt lat="42.9797957" lon="13.8185638"><ele>39.0</ele><time>2026-04-12T07:47:48.065Z</time></trkpt><trkpt lat="42.9797769" lon="13.8184214"><ele>39.0</ele><time>2026-04-12T07:47:49.067Z</time></trkpt><trkpt lat="42.9797587" lon="13.8182906"><ele>39.0</ele><time>2026-04-12T07:47:50.061Z</time></trkpt><trkpt lat="42.9797381" lon="13.8181633"><ele>39.0</ele><time>2026-04-12T07:47:51.062Z</time></trkpt><trkpt lat="42.9797275" lon="13.8180449"><ele>39.0</ele><time>2026-04-12T07:47:52.094Z</time></trkpt><trkpt lat="42.9797306" lon="13.8179434"><ele>39.0</ele><time>2026-04-12T07:47:53.07Z</time></trkpt><trkpt lat="42.9797379" lon="13.8178523"><ele>39.0</ele><time>2026-04-12T07:47:54.063Z</time></trkpt><trkpt lat="42.9797314" lon="13.8177524"><ele>39.0</ele><time>2026-04-12T07:47:55.061Z</time></trkpt><trkpt lat="42.979676" lon="13.8174907"><ele>39.5</ele><time>2026-04-12T07:47:57.063Z</time></trkpt><trkpt lat="42.9796519" lon="13.8173232"><ele>40.0</ele><time>2026-04-12T07:47:58.062Z</time></trkpt><trkpt lat="42.97963" lon="13.8171397"><ele>40.5</ele><time>2026-04-12T07:47:59.073Z</time></trkpt><trkpt lat="42.9795993" lon="13.8169581"><ele>41.0</ele><time>2026-04-12T07:48:00.067Z</time></trkpt><trkpt lat="42.9795651" lon="13.8167784"><ele>41.0</ele><time>2026-04-12T07:48:01.065Z</time></trkpt><trkpt lat="42.9795304" lon="13.8165951"><ele>41.0</ele><time>2026-04-12T07:48:02.064Z</time></trkpt><trkpt lat="42.9794956" lon="13.8164107"><ele>41.0</ele><time>2026-04-12T07:48:03.094Z</time></trkpt><trkpt lat="42.979459" lon="13.8162379"><ele>41.0</ele><time>2026-04-12T07:48:04.066Z</time></trkpt><trkpt lat="42.9794226" lon="13.8160672"><ele>41.25</ele><time>2026-04-12T07:48:05.058Z</time></trkpt><trkpt lat="42.9793886" lon="13.8158911"><ele>41.5</ele><time>2026-04-12T07:48:06.06Z</time></trkpt><trkpt lat="42.9793637" lon="13.8157092"><ele>41.75</ele><time>2026-04-12T07:48:07.061Z</time></trkpt><trkpt lat="42.979351" lon="13.815528"><ele>42.0</ele><time>2026-04-12T07:48:08.058Z</time></trkpt><trkpt lat="42.9793544" lon="13.8153465"><ele>42.0</ele><time>2026-04-12T07:48:09.074Z</time></trkpt><trkpt lat="42.9793656" lon="13.8151573"><ele>42.0</ele><time>2026-04-12T07:48:10.062Z</time></trkpt><trkpt lat="42.9793837" lon="13.8149582"><ele>42.0</ele><time>2026-04-12T07:48:11.066Z</time></trkpt><trkpt lat="42.9794039" lon="13.8147527"><ele>42.0</ele><time>2026-04-12T07:48:12.062Z</time></trkpt><trkpt lat="42.9794215" lon="13.8145537"><ele>42.25</ele><time>2026-04-12T07:48:13.063Z</time></trkpt><trkpt lat="42.9794331" lon="13.8143693"><ele>42.5</ele><time>2026-04-12T07:48:14.063Z</time></trkpt><trkpt lat="42.9794438" lon="13.814193"><ele>42.75</ele><time>2026-04-12T07:48:15.062Z</time></trkpt><trkpt lat="42.979455" lon="13.8140147"><ele>43.0</ele><time>2026-04-12T07:48:16.064Z</time></trkpt><trkpt lat="42.9794747" lon="13.8136449"><ele>43.25</ele><time>2026-04-12T07:48:18.092Z</time></trkpt><trkpt lat="42.9794807" lon="13.8134614"><ele>43.5</ele><time>2026-04-12T07:48:19.065Z</time></trkpt><trkpt lat="42.9794866" lon="13.8132751"><ele>43.75</ele><time>2026-04-12T07:48:20.059Z</time></trkpt><trkpt lat="42.9794951" lon="13.8130929"><ele>44.0</ele><time>2026-04-12T07:48:21.073Z</time></trkpt><trkpt lat="42.9795071" lon="13.8129134"><ele>44.0</ele><time>2026-04-12T07:48:22.066Z</time></trkpt><trkpt lat="42.9795226" lon="13.8127321"><ele>44.0</ele><time>2026-04-12T07:48:23.059Z</time></trkpt><trkpt lat="42.9795408" lon="13.8125472"><ele>44.0</ele><time>2026-04-12T07:48:24.104Z</time></trkpt><trkpt lat="42.9795588" lon="13.8123635"><ele>44.0</ele><time>2026-04-12T07:48:25.074Z</time></trkpt><trkpt lat="42.979578" lon="13.8121704"><ele>44.0</ele><time>2026-04-12T07:48:26.065Z</time></trkpt><trkpt lat="42.9795974" lon="13.8119735"><ele>44.0</ele><time>2026-04-12T07:48:27.071Z</time></trkpt><trkpt lat="42.9796194" lon="13.8117776"><ele>44.0</ele><time>2026-04-12T07:48:28.064Z</time></trkpt><trkpt lat="42.9796427" lon="13.8115834"><ele>44.0</ele><time>2026-04-12T07:48:29.065Z</time></trkpt><trkpt lat="42.979667" lon="13.8113888"><ele>44.25</ele><time>2026-04-12T07:48:30.064Z</time></trkpt><trkpt lat="42.9796901" lon="13.8111931"><ele>44.5</ele><time>2026-04-12T07:48:31.062Z</time></trkpt><trkpt lat="42.9797118" lon="13.8109958"><ele>44.75</ele><time>2026-04-12T07:48:32.068Z</time></trkpt><trkpt lat="42.9797336" lon="13.8107985"><ele>45.0</ele><time>2026-04-12T07:48:33.06Z</time></trkpt><trkpt lat="42.9797542" lon="13.8105978"><ele>45.0</ele><time>2026-04-12T07:48:34.072Z</time></trkpt><trkpt lat="42.9797748" lon="13.8104025"><ele>45.0</ele><time>2026-04-12T07:48:35.089Z</time></trkpt><trkpt lat="42.9797964" lon="13.8102141"><ele>45.0</ele><time>2026-04-12T07:48:36.059Z</time></trkpt><trkpt lat="42.9798186" lon="13.810023"><ele>45.0</ele><time>2026-04-12T07:48:37.067Z</time></trkpt><trkpt lat="42.979862" lon="13.8096433"><ele>45.5</ele><time>2026-04-12T07:48:39.096Z</time></trkpt><trkpt lat="42.9798813" lon="13.8094541"><ele>46.0</ele><time>2026-04-12T07:48:40.06Z</time></trkpt><trkpt lat="42.9799015" lon="13.8092513"><ele>46.5</ele><time>2026-04-12T07:48:41.065Z</time></trkpt><trkpt lat="42.9799203" lon="13.8090394"><ele>47.0</ele><time>2026-04-12T07:48:42.068Z</time></trkpt><trkpt lat="42.9799371" lon="13.8088198"><ele>47.0</ele><time>2026-04-12T07:48:43.064Z</time></trkpt><trkpt lat="42.9799527" lon="13.8085938"><ele>47.0</ele><time>2026-04-12T07:48:44.062Z</time></trkpt><trkpt lat="42.979968" lon="13.8083662"><ele>47.0</ele><time>2026-04-12T07:48:45.065Z</time></trkpt><trkpt lat="42.979986" lon="13.8081379"><ele>47.33333333333333</ele><time>2026-04-12T07:48:46.104Z</time></trkpt><trkpt lat="42.9800036" lon="13.8079162"><ele>47.666666666666664</ele><time>2026-04-12T07:48:47.069Z</time></trkpt><trkpt lat="42.9800144" lon="13.8076933"><ele>48.0</ele><time>2026-04-12T07:48:48.061Z</time></trkpt><trkpt lat="42.9800164" lon="13.8074726"><ele>48.0</ele><time>2026-04-12T07:48:49.063Z</time></trkpt><trkpt lat="42.9800126" lon="13.8072526"><ele>48.0</ele><time>2026-04-12T07:48:50.069Z</time></trkpt><trkpt lat="42.9800043" lon="13.807036"><ele>48.0</ele><time>2026-04-12T07:48:51.068Z</time></trkpt><trkpt lat="42.9799935" lon="13.8068288"><ele>48.5</ele><time>2026-04-12T07:48:52.09Z</time></trkpt><trkpt lat="42.9799794" lon="13.806634"><ele>49.0</ele><time>2026-04-12T07:48:53.062Z</time></trkpt><trkpt lat="42.9799606" lon="13.8064353"><ele>49.5</ele><time>2026-04-12T07:48:54.069Z</time></trkpt><trkpt lat="42.9799401" lon="13.8062333"><ele>50.0</ele><time>2026-04-12T07:48:55.066Z</time></trkpt><trkpt lat="42.9799209" lon="13.8060256"><ele>50.0</ele><time>2026-04-12T07:48:56.061Z</time></trkpt><trkpt lat="42.9799055" lon="13.8058153"><ele>50.0</ele><time>2026-04-12T07:48:57.066Z</time></trkpt><trkpt lat="42.9798933" lon="13.8056098"><ele>50.0</ele><time>2026-04-12T07:48:58.064Z</time></trkpt><trkpt lat="42.9798609" lon="13.8051995"><ele>50.0</ele><time>2026-04-12T07:49:00.06Z</time></trkpt><trkpt lat="42.9798335" lon="13.8049929"><ele>50.0</ele><time>2026-04-12T07:49:01.062Z</time></trkpt><trkpt lat="42.9797971" lon="13.8047884"><ele>50.0</ele><time>2026-04-12T07:49:02.066Z</time></trkpt><trkpt lat="42.979756" lon="13.8045833"><ele>50.0</ele><time>2026-04-12T07:49:03.07Z</time></trkpt><trkpt lat="42.9797159" lon="13.8043774"><ele>50.0</ele><time>2026-04-12T07:49:04.068Z</time></trkpt><trkpt lat="42.9796759" lon="13.8041692"><ele>50.0</ele><time>2026-04-12T07:49:05.062Z</time></trkpt><trkpt lat="42.9796361" lon="13.803963"><ele>50.25</ele><time>2026-04-12T07:49:06.06Z</time></trkpt><trkpt lat="42.9796015" lon="13.8037634"><ele>50.5</ele><time>2026-04-12T07:49:07.064Z</time></trkpt><trkpt lat="42.9795721" lon="13.8035713"><ele>50.75</ele><time>2026-04-12T07:49:08.062Z</time></trkpt><trkpt lat="42.9795449" lon="13.8033791"><ele>51.0</ele><time>2026-04-12T07:49:09.104Z</time></trkpt><trkpt lat="42.979514" lon="13.8031927"><ele>51.25</ele><time>2026-04-12T07:49:10.092Z</time></trkpt><trkpt lat="42.9794799" lon="13.8030127"><ele>51.5</ele><time>2026-04-12T07:49:11.074Z</time></trkpt><trkpt lat="42.9794436" lon="13.8028382"><ele>51.75</ele><time>2026-04-12T07:49:12.064Z</time></trkpt><trkpt lat="42.979414" lon="13.8026706"><ele>52.0</ele><time>2026-04-12T07:49:13.063Z</time></trkpt><trkpt lat="42.9793868" lon="13.8025052"><ele>52.25</ele><time>2026-04-12T07:49:14.066Z</time></trkpt><trkpt lat="42.979352" lon="13.8023324"><ele>52.5</ele><time>2026-04-12T07:49:15.068Z</time></trkpt><trkpt lat="42.9793108" lon="13.8021535"><ele>52.75</ele><time>2026-04-12T07:49:16.065Z</time></trkpt><trkpt lat="42.9792725" lon="13.8019734"><ele>53.0</ele><time>2026-04-12T07:49:17.06Z</time></trkpt><trkpt lat="42.9792382" lon="13.8017897"><ele>53.0</ele><time>2026-04-12T07:49:18.065Z</time></trkpt><trkpt lat="42.9792064" lon="13.8016018"><ele>53.0</ele><time>2026-04-12T07:49:19.062Z</time></trkpt><trkpt lat="42.9791426" lon="13.8012156"><ele>53.0</ele><time>2026-04-12T07:49:21.062Z</time></trkpt><trkpt lat="42.9791083" lon="13.8010197"><ele>54.0</ele><time>2026-04-12T07:49:22.061Z</time></trkpt><trkpt lat="42.9790745" lon="13.8008166"><ele>55.0</ele><time>2026-04-12T07:49:23.064Z</time></trkpt><trkpt lat="42.9790424" lon="13.8005989"><ele>56.0</ele><time>2026-04-12T07:49:24.075Z</time></trkpt><trkpt lat="42.9790086" lon="13.8003655"><ele>55.66666666666667</ele><time>2026-04-12T07:49:25.079Z</time></trkpt><trkpt lat="42.9789717" lon="13.8001215"><ele>55.33333333333333</ele><time>2026-04-12T07:49:26.065Z</time></trkpt><trkpt lat="42.9789332" lon="13.799877"><ele>55.0</ele><time>2026-04-12T07:49:27.06Z</time></trkpt><trkpt lat="42.9788951" lon="13.799636"><ele>55.0</ele><time>2026-04-12T07:49:28.07Z</time></trkpt><trkpt lat="42.9788583" lon="13.7994013"><ele>55.0</ele><time>2026-04-12T07:49:29.06Z</time></trkpt><trkpt lat="42.9788227" lon="13.7991675"><ele>55.0</ele><time>2026-04-12T07:49:30.062Z</time></trkpt><trkpt lat="42.9787911" lon="13.7989334"><ele>54.666666666666664</ele><time>2026-04-12T07:49:31.103Z</time></trkpt><trkpt lat="42.9787602" lon="13.7987075"><ele>54.33333333333333</ele><time>2026-04-12T07:49:32.07Z</time></trkpt><trkpt lat="42.9787253" lon="13.7984801"><ele>54.0</ele><time>2026-04-12T07:49:33.064Z</time></trkpt><trkpt lat="42.9786831" lon="13.7982558"><ele>54.0</ele><time>2026-04-12T07:49:34.071Z</time></trkpt><trkpt lat="42.9786298" lon="13.7980361"><ele>54.0</ele><time>2026-04-12T07:49:35.067Z</time></trkpt><trkpt lat="42.9785647" lon="13.7978138"><ele>54.0</ele><time>2026-04-12T07:49:36.066Z</time></trkpt><trkpt lat="42.9784933" lon="13.797588"><ele>54.0</ele><time>2026-04-12T07:49:37.067Z</time></trkpt><trkpt lat="42.9784197" lon="13.7973583"><ele>54.0</ele><time>2026-04-12T07:49:38.092Z</time></trkpt><trkpt lat="42.9783481" lon="13.7971314"><ele>54.0</ele><time>2026-04-12T07:49:39.064Z</time></trkpt><trkpt lat="42.9782825" lon="13.796901"><ele>56.0</ele><time>2026-04-12T07:49:40.075Z</time></trkpt><trkpt lat="42.9781945" lon="13.7964368"><ele>58.0</ele><time>2026-04-12T07:49:42.063Z</time></trkpt><trkpt lat="42.9781595" lon="13.7961918"><ele>58.0</ele><time>2026-04-12T07:49:43.069Z</time></trkpt><trkpt lat="42.9781324" lon="13.7959551"><ele>58.0</ele><time>2026-04-12T07:49:44.064Z</time></trkpt><trkpt lat="42.9781087" lon="13.7957321"><ele>58.0</ele><time>2026-04-12T07:49:45.065Z</time></trkpt><trkpt lat="42.9780814" lon="13.7955194"><ele>58.0</ele><time>2026-04-12T07:49:46.066Z</time></trkpt><trkpt lat="42.9780463" lon="13.7953114"><ele>58.0</ele><time>2026-04-12T07:49:47.066Z</time></trkpt><trkpt lat="42.9779991" lon="13.7951073"><ele>58.0</ele><time>2026-04-12T07:49:48.062Z</time></trkpt><trkpt lat="42.977935" lon="13.7949102"><ele>57.666666666666664</ele><time>2026-04-12T07:49:49.104Z</time></trkpt><trkpt lat="42.9778586" lon="13.7947237"><ele>57.33333333333333</ele><time>2026-04-12T07:49:50.094Z</time></trkpt><trkpt lat="42.9777679" lon="13.7945456"><ele>57.0</ele><time>2026-04-12T07:49:51.065Z</time></trkpt><trkpt lat="42.9776621" lon="13.7943718"><ele>57.33333333333333</ele><time>2026-04-12T07:49:52.062Z</time></trkpt><trkpt lat="42.9775476" lon="13.7942022"><ele>57.666666666666664</ele><time>2026-04-12T07:49:53.066Z</time></trkpt><trkpt lat="42.9774266" lon="13.7940364"><ele>58.0</ele><time>2026-04-12T07:49:54.062Z</time></trkpt><trkpt lat="42.9773102" lon="13.7938669"><ele>58.33333333333333</ele><time>2026-04-12T07:49:55.062Z</time></trkpt><trkpt lat="42.9772011" lon="13.793692"><ele>58.66666666666667</ele><time>2026-04-12T07:49:56.063Z</time></trkpt><trkpt lat="42.9771033" lon="13.7935105"><ele>59.0</ele><time>2026-04-12T07:49:57.063Z</time></trkpt><trkpt lat="42.9770187" lon="13.7933188"><ele>59.0</ele><time>2026-04-12T07:49:58.058Z</time></trkpt><trkpt lat="42.9769414" lon="13.7931185"><ele>59.0</ele><time>2026-04-12T07:49:59.058Z</time></trkpt><trkpt lat="42.9768652" lon="13.7929176"><ele>59.0</ele><time>2026-04-12T07:50:00.063Z</time></trkpt><trkpt lat="42.9767881" lon="13.792721"><ele>61.5</ele><time>2026-04-12T07:50:01.093Z</time></trkpt><trkpt lat="42.9766339" lon="13.7923513"><ele>64.0</ele><time>2026-04-12T07:50:03.098Z</time></trkpt><trkpt lat="42.9765553" lon="13.7921835"><ele>64.0</ele><time>2026-04-12T07:50:04.077Z</time></trkpt><trkpt lat="42.976479" lon="13.7920327"><ele>64.0</ele><time>2026-04-12T07:50:05.064Z</time></trkpt><trkpt lat="42.9764099" lon="13.7918967"><ele>64.0</ele><time>2026-04-12T07:50:06.065Z</time></trkpt><trkpt lat="42.9763501" lon="13.7917689"><ele>64.0</ele><time>2026-04-12T07:50:07.06Z</time></trkpt><trkpt lat="42.976298" lon="13.7916502"><ele>63.666666666666664</ele><time>2026-04-12T07:50:08.062Z</time></trkpt><trkpt lat="42.976252" lon="13.7915396"><ele>63.33333333333333</ele><time>2026-04-12T07:50:09.059Z</time></trkpt><trkpt lat="42.9762125" lon="13.7914379"><ele>63.0</ele><time>2026-04-12T07:50:10.059Z</time></trkpt><trkpt lat="42.9761883" lon="13.7913458"><ele>62.66666666666667</ele><time>2026-04-12T07:50:11.074Z</time></trkpt><trkpt lat="42.9762184" lon="13.7911939"><ele>62.333333333333336</ele><time>2026-04-12T07:50:13.064Z</time></trkpt><trkpt lat="42.9762734" lon="13.7911494"><ele>62.0</ele><time>2026-04-12T07:50:14.065Z</time></trkpt><trkpt lat="42.9763571" lon="13.7911308"><ele>62.0</ele><time>2026-04-12T07:50:15.093Z</time></trkpt><trkpt lat="42.9764565" lon="13.7911211"><ele>62.0</ele><time>2026-04-12T07:50:16.065Z</time></trkpt><trkpt lat="42.9765653" lon="13.7911072"><ele>62.0</ele><time>2026-04-12T07:50:17.091Z</time></trkpt><trkpt lat="42.9766683" lon="13.7910829"><ele>62.0</ele><time>2026-04-12T07:50:18.066Z</time></trkpt><trkpt lat="42.9767768" lon="13.7910527"><ele>62.0</ele><time>2026-04-12T07:50:19.063Z</time></trkpt><trkpt lat="42.9768848" lon="13.791018"><ele>61.8</ele><time>2026-04-12T07:50:20.065Z</time></trkpt><trkpt lat="42.9769874" lon="13.7909799"><ele>61.6</ele><time>2026-04-12T07:50:21.061Z</time></trkpt><trkpt lat="42.9770832" lon="13.7909412"><ele>61.39999999999999</ele><time>2026-04-12T07:50:22.069Z</time></trkpt><trkpt lat="42.9772407" lon="13.7908765"><ele>61.199999999999996</ele><time>2026-04-12T07:50:24.064Z</time></trkpt><trkpt lat="42.9772998" lon="13.7908381"><ele>61.0</ele><time>2026-04-12T07:50:25.063Z</time></trkpt><trkpt lat="42.9773601" lon="13.790707"><ele>61.0</ele><time>2026-04-12T07:50:27.061Z</time></trkpt><trkpt lat="42.9773599" lon="13.7906074"><ele>60.99999999999999</ele><time>2026-04-12T07:50:28.061Z</time></trkpt><trkpt lat="42.977344" lon="13.7904829"><ele>60.99999999999999</ele><time>2026-04-12T07:50:29.062Z</time></trkpt><trkpt lat="42.9773183" lon="13.7903319"><ele>61.0</ele><time>2026-04-12T07:50:30.064Z</time></trkpt><trkpt lat="42.9772817" lon="13.7901607"><ele>61.0</ele><time>2026-04-12T07:50:31.097Z</time></trkpt><trkpt lat="42.9772423" lon="13.7899764"><ele>61.0</ele><time>2026-04-12T07:50:32.068Z</time></trkpt><trkpt lat="42.9772043" lon="13.7897778"><ele>61.0</ele><time>2026-04-12T07:50:33.069Z</time></trkpt><trkpt lat="42.9771647" lon="13.7895764"><ele>61.0</ele><time>2026-04-12T07:50:34.064Z</time></trkpt><trkpt lat="42.977126" lon="13.7893746"><ele>61.0</ele><time>2026-04-12T07:50:35.088Z</time></trkpt><trkpt lat="42.9770908" lon="13.7891803"><ele>61.0</ele><time>2026-04-12T07:50:36.09Z</time></trkpt><trkpt lat="42.9770539" lon="13.7889832"><ele>61.0</ele><time>2026-04-12T07:50:37.092Z</time></trkpt><trkpt lat="42.9770146" lon="13.7887818"><ele>61.0</ele><time>2026-04-12T07:50:38.06Z</time></trkpt><trkpt lat="42.9769771" lon="13.7885758"><ele>61.25</ele><time>2026-04-12T07:50:39.07Z</time></trkpt><trkpt lat="42.9769451" lon="13.7883738"><ele>61.5</ele><time>2026-04-12T07:50:40.068Z</time></trkpt><trkpt lat="42.9769135" lon="13.7881776"><ele>61.75</ele><time>2026-04-12T07:50:41.06Z</time></trkpt><trkpt lat="42.9768752" lon="13.7879876"><ele>62.0</ele><time>2026-04-12T07:50:42.06Z</time></trkpt><trkpt lat="42.9768231" lon="13.787802"><ele>62.5</ele><time>2026-04-12T07:50:43.062Z</time></trkpt><trkpt lat="42.9767043" lon="13.7874231"><ele>63.0</ele><time>2026-04-12T07:50:45.06Z</time></trkpt><trkpt lat="42.976649" lon="13.7872288"><ele>63.0</ele><time>2026-04-12T07:50:46.061Z</time></trkpt><trkpt lat="42.9766022" lon="13.7870332"><ele>63.0</ele><time>2026-04-12T07:50:47.063Z</time></trkpt><trkpt lat="42.9765628" lon="13.7868357"><ele>63.0</ele><time>2026-04-12T07:50:48.069Z</time></trkpt><trkpt lat="42.9765356" lon="13.7866358"><ele>63.0</ele><time>2026-04-12T07:50:49.093Z</time></trkpt><trkpt lat="42.9765154" lon="13.7864434"><ele>63.0</ele><time>2026-04-12T07:50:50.068Z</time></trkpt><trkpt lat="42.9764942" lon="13.7862541"><ele>63.0</ele><time>2026-04-12T07:50:51.059Z</time></trkpt><trkpt lat="42.9764655" lon="13.7860615"><ele>63.0</ele><time>2026-04-12T07:50:52.095Z</time></trkpt><trkpt lat="42.9764316" lon="13.7858656"><ele>63.0</ele><time>2026-04-12T07:50:53.068Z</time></trkpt><trkpt lat="42.9763999" lon="13.785665"><ele>63.66666666666667</ele><time>2026-04-12T07:50:54.062Z</time></trkpt><trkpt lat="42.9763667" lon="13.7854638"><ele>64.33333333333334</ele><time>2026-04-12T07:50:55.068Z</time></trkpt><trkpt lat="42.9763287" lon="13.785262"><ele>65.0</ele><time>2026-04-12T07:50:56.064Z</time></trkpt><trkpt lat="42.9762919" lon="13.7850568"><ele>65.0</ele><time>2026-04-12T07:50:57.062Z</time></trkpt><trkpt lat="42.9762567" lon="13.7848533"><ele>65.0</ele><time>2026-04-12T07:50:58.066Z</time></trkpt><trkpt lat="42.976223" lon="13.7846554"><ele>65.0</ele><time>2026-04-12T07:50:59.064Z</time></trkpt><trkpt lat="42.9761871" lon="13.7844602"><ele>65.0</ele><time>2026-04-12T07:51:00.068Z</time></trkpt><trkpt lat="42.9761453" lon="13.7842687"><ele>65.0</ele><time>2026-04-12T07:51:01.061Z</time></trkpt><trkpt lat="42.9760911" lon="13.7840806"><ele>65.0</ele><time>2026-04-12T07:51:02.092Z</time></trkpt><trkpt lat="42.9760239" lon="13.7839"><ele>65.0</ele><time>2026-04-12T07:51:03.071Z</time></trkpt><trkpt lat="42.9759434" lon="13.7837218"><ele>65.0</ele><time>2026-04-12T07:51:04.07Z</time></trkpt><trkpt lat="42.97577" lon="13.7833726"><ele>65.66666666666667</ele><time>2026-04-12T07:51:06.063Z</time></trkpt><trkpt lat="42.9756941" lon="13.7831905"><ele>66.33333333333333</ele><time>2026-04-12T07:51:07.064Z</time></trkpt><trkpt lat="42.9756306" lon="13.7829987"><ele>67.0</ele><time>2026-04-12T07:51:08.065Z</time></trkpt><trkpt lat="42.9755794" lon="13.7827998"><ele>67.0</ele><time>2026-04-12T07:51:09.064Z</time></trkpt><trkpt lat="42.9755375" lon="13.7825972"><ele>67.0</ele><time>2026-04-12T07:51:10.066Z</time></trkpt><trkpt lat="42.975498" lon="13.7823929"><ele>67.0</ele><time>2026-04-12T07:51:11.064Z</time></trkpt><trkpt lat="42.9754566" lon="13.7821889"><ele>67.0</ele><time>2026-04-12T07:51:12.066Z</time></trkpt><trkpt lat="42.9754126" lon="13.7819863"><ele>67.0</ele><time>2026-04-12T07:51:13.065Z</time></trkpt><trkpt lat="42.9753658" lon="13.7817819"><ele>67.0</ele><time>2026-04-12T07:51:14.096Z</time></trkpt><trkpt lat="42.9753203" lon="13.7815858"><ele>67.25</ele><time>2026-04-12T07:51:15.072Z</time></trkpt><trkpt lat="42.9752764" lon="13.7813921"><ele>67.5</ele><time>2026-04-12T07:51:16.065Z</time></trkpt><trkpt lat="42.9752348" lon="13.7811999"><ele>67.75</ele><time>2026-04-12T07:51:17.097Z</time></trkpt><trkpt lat="42.9751944" lon="13.7810173"><ele>68.0</ele><time>2026-04-12T07:51:18.072Z</time></trkpt><trkpt lat="42.9751531" lon="13.7808454"><ele>68.2</ele><time>2026-04-12T07:51:19.066Z</time></trkpt><trkpt lat="42.975114" lon="13.7806899"><ele>68.4</ele><time>2026-04-12T07:51:20.069Z</time></trkpt><trkpt lat="42.9750757" lon="13.7805493"><ele>68.60000000000001</ele><time>2026-04-12T07:51:21.072Z</time></trkpt><trkpt lat="42.975038" lon="13.7804225"><ele>68.8</ele><time>2026-04-12T07:51:22.07Z</time></trkpt><trkpt lat="42.9750051" lon="13.7803028"><ele>69.0</ele><time>2026-04-12T07:51:23.062Z</time></trkpt><trkpt lat="42.9749711" lon="13.7801845"><ele>69.5</ele><time>2026-04-12T07:51:24.073Z</time></trkpt><trkpt lat="42.9749357" lon="13.7800666"><ele>70.0</ele><time>2026-04-12T07:51:25.072Z</time></trkpt><trkpt lat="42.9748594" lon="13.7798071"><ele>70.5</ele><time>2026-04-12T07:51:27.068Z</time></trkpt><trkpt lat="42.9748086" lon="13.7796623"><ele>71.0</ele><time>2026-04-12T07:51:28.089Z</time></trkpt><trkpt lat="42.9747525" lon="13.7795"><ele>71.0</ele><time>2026-04-12T07:51:29.063Z</time></trkpt><trkpt lat="42.9746976" lon="13.7793088"><ele>71.0</ele><time>2026-04-12T07:51:30.062Z</time></trkpt><trkpt lat="42.9746401" lon="13.7791057"><ele>71.0</ele><time>2026-04-12T07:51:31.064Z</time></trkpt><trkpt lat="42.9745773" lon="13.7788969"><ele>71.0</ele><time>2026-04-12T07:51:32.066Z</time></trkpt><trkpt lat="42.9745091" lon="13.7786894"><ele>71.0</ele><time>2026-04-12T07:51:33.102Z</time></trkpt><trkpt lat="42.9744397" lon="13.7784874"><ele>71.0</ele><time>2026-04-12T07:51:34.069Z</time></trkpt><trkpt lat="42.9743668" lon="13.7782828"><ele>70.66666666666667</ele><time>2026-04-12T07:51:35.06Z</time></trkpt><trkpt lat="42.9742923" lon="13.7780719"><ele>70.33333333333333</ele><time>2026-04-12T07:51:36.064Z</time></trkpt><trkpt lat="42.9742218" lon="13.7778539"><ele>70.0</ele><time>2026-04-12T07:51:37.072Z</time></trkpt><trkpt lat="42.9741523" lon="13.7776314"><ele>71.33333333333333</ele><time>2026-04-12T07:51:38.064Z</time></trkpt><trkpt lat="42.9740838" lon="13.7774078"><ele>72.66666666666667</ele><time>2026-04-12T07:51:39.065Z</time></trkpt><trkpt lat="42.97402" lon="13.7771836"><ele>74.0</ele><time>2026-04-12T07:51:40.058Z</time></trkpt><trkpt lat="42.9739599" lon="13.7769606"><ele>73.66666666666667</ele><time>2026-04-12T07:51:41.062Z</time></trkpt><trkpt lat="42.9738987" lon="13.7767449"><ele>73.33333333333333</ele><time>2026-04-12T07:51:42.063Z</time></trkpt><trkpt lat="42.9738379" lon="13.7765354"><ele>73.0</ele><time>2026-04-12T07:51:43.063Z</time></trkpt><trkpt lat="42.9737768" lon="13.7763286"><ele>73.0</ele><time>2026-04-12T07:51:44.068Z</time></trkpt><trkpt lat="42.9737123" lon="13.7761234"><ele>73.0</ele><time>2026-04-12T07:51:45.063Z</time></trkpt><trkpt lat="42.9736472" lon="13.7759175"><ele>73.0</ele><time>2026-04-12T07:51:46.071Z</time></trkpt><trkpt lat="42.9735204" lon="13.7755065"><ele>73.33333333333333</ele><time>2026-04-12T07:51:48.063Z</time></trkpt><trkpt lat="42.9734644" lon="13.7753033"><ele>73.66666666666667</ele><time>2026-04-12T07:51:49.074Z</time></trkpt><trkpt lat="42.9734162" lon="13.7751061"><ele>74.0</ele><time>2026-04-12T07:51:50.091Z</time></trkpt><trkpt lat="42.9733791" lon="13.774919"><ele>74.25</ele><time>2026-04-12T07:51:51.062Z</time></trkpt><trkpt lat="42.9733525" lon="13.7747359"><ele>74.5</ele><time>2026-04-12T07:51:52.07Z</time></trkpt><trkpt lat="42.9733302" lon="13.7745536"><ele>74.75</ele><time>2026-04-12T07:51:53.063Z</time></trkpt><trkpt lat="42.9733018" lon="13.7743716"><ele>75.0</ele><time>2026-04-12T07:51:54.068Z</time></trkpt><trkpt lat="42.973265" lon="13.774189"><ele>75.0</ele><time>2026-04-12T07:51:55.062Z</time></trkpt><trkpt lat="42.9732224" lon="13.7740052"><ele>75.0</ele><time>2026-04-12T07:51:56.067Z</time></trkpt><trkpt lat="42.9731788" lon="13.7738189"><ele>75.0</ele><time>2026-04-12T07:51:57.072Z</time></trkpt><trkpt lat="42.9731363" lon="13.7736295"><ele>75.0</ele><time>2026-04-12T07:51:58.064Z</time></trkpt><trkpt lat="42.9730949" lon="13.7734326"><ele>75.25</ele><time>2026-04-12T07:51:59.096Z</time></trkpt><trkpt lat="42.9730556" lon="13.7732363"><ele>75.5</ele><time>2026-04-12T07:52:00.07Z</time></trkpt><trkpt lat="42.9730186" lon="13.7730382"><ele>75.75</ele><time>2026-04-12T07:52:01.063Z</time></trkpt><trkpt lat="42.9729805" lon="13.7728437"><ele>76.0</ele><time>2026-04-12T07:52:02.093Z</time></trkpt><trkpt lat="42.9729433" lon="13.7726581"><ele>76.0</ele><time>2026-04-12T07:52:03.065Z</time></trkpt><trkpt lat="42.9729089" lon="13.7724805"><ele>76.0</ele><time>2026-04-12T07:52:04.081Z</time></trkpt><trkpt lat="42.9728782" lon="13.7723192"><ele>76.0</ele><time>2026-04-12T07:52:05.063Z</time></trkpt><trkpt lat="42.9728494" lon="13.7721644"><ele>76.0</ele><time>2026-04-12T07:52:06.066Z</time></trkpt><trkpt lat="42.9728202" lon="13.7720176"><ele>75.75</ele><time>2026-04-12T07:52:07.062Z</time></trkpt><trkpt lat="42.9727653" lon="13.7717489"><ele>75.5</ele><time>2026-04-12T07:52:09.062Z</time></trkpt><trkpt lat="42.9727372" lon="13.7716244"><ele>75.25</ele><time>2026-04-12T07:52:10.06Z</time></trkpt><trkpt lat="42.9727062" lon="13.7715032"><ele>75.0</ele><time>2026-04-12T07:52:11.06Z</time></trkpt><trkpt lat="42.9726729" lon="13.7713832"><ele>75.0</ele><time>2026-04-12T07:52:12.06Z</time></trkpt><trkpt lat="42.9726395" lon="13.7712628"><ele>75.0</ele><time>2026-04-12T07:52:13.097Z</time></trkpt><trkpt lat="42.9726067" lon="13.771141"><ele>75.0</ele><time>2026-04-12T07:52:14.065Z</time></trkpt><trkpt lat="42.9725717" lon="13.7710111"><ele>75.0</ele><time>2026-04-12T07:52:15.06Z</time></trkpt><trkpt lat="42.9725337" lon="13.7708726"><ele>75.0</ele><time>2026-04-12T07:52:16.063Z</time></trkpt><trkpt lat="42.9724935" lon="13.7707222"><ele>75.25</ele><time>2026-04-12T07:52:17.058Z</time></trkpt><trkpt lat="42.9724534" lon="13.7705648"><ele>75.5</ele><time>2026-04-12T07:52:18.064Z</time></trkpt><trkpt lat="42.9724171" lon="13.7704046"><ele>75.75</ele><time>2026-04-12T07:52:19.065Z</time></trkpt><trkpt lat="42.9723822" lon="13.7702438"><ele>76.0</ele><time>2026-04-12T07:52:20.066Z</time></trkpt><trkpt lat="42.9723456" lon="13.7700785"><ele>76.5</ele><time>2026-04-12T07:52:21.106Z</time></trkpt><trkpt lat="42.9723088" lon="13.7699173"><ele>77.0</ele><time>2026-04-12T07:52:22.061Z</time></trkpt><trkpt lat="42.9722719" lon="13.7697545"><ele>77.5</ele><time>2026-04-12T07:52:23.057Z</time></trkpt><trkpt lat="42.9722413" lon="13.7695975"><ele>78.0</ele><time>2026-04-12T07:52:24.063Z</time></trkpt><trkpt lat="42.9722206" lon="13.7694538"><ele>78.2</ele><time>2026-04-12T07:52:25.069Z</time></trkpt><trkpt lat="42.9722058" lon="13.7693217"><ele>78.4</ele><time>2026-04-12T07:52:26.062Z</time></trkpt><trkpt lat="42.9721919" lon="13.7691986"><ele>78.60000000000001</ele><time>2026-04-12T07:52:27.059Z</time></trkpt><trkpt lat="42.9721783" lon="13.7690866"><ele>78.8</ele><time>2026-04-12T07:52:28.062Z</time></trkpt><trkpt lat="42.9721522" lon="13.768888"><ele>79.0</ele><time>2026-04-12T07:52:30.065Z</time></trkpt><trkpt lat="42.9721342" lon="13.7687255"><ele>79.0</ele><time>2026-04-12T07:52:32.064Z</time></trkpt><trkpt lat="42.9721172" lon="13.7685642"><ele>79.0</ele><time>2026-04-12T07:52:34.067Z</time></trkpt><trkpt lat="42.9721085" lon="13.7684749"><ele>79.0</ele><time>2026-04-12T07:52:35.062Z</time></trkpt><trkpt lat="42.9720981" lon="13.768367"><ele>79.0</ele><time>2026-04-12T07:52:36.061Z</time></trkpt><trkpt lat="42.9720843" lon="13.7682395"><ele>79.0</ele><time>2026-04-12T07:52:37.066Z</time></trkpt><trkpt lat="42.9720658" lon="13.768095"><ele>79.0</ele><time>2026-04-12T07:52:38.059Z</time></trkpt><trkpt lat="42.9720453" lon="13.7679348"><ele>79.0</ele><time>2026-04-12T07:52:39.059Z</time></trkpt><trkpt lat="42.9720212" lon="13.7677555"><ele>79.0</ele><time>2026-04-12T07:52:40.059Z</time></trkpt><trkpt lat="42.9719945" lon="13.7675583"><ele>79.0</ele><time>2026-04-12T07:52:41.06Z</time></trkpt><trkpt lat="42.9719634" lon="13.767345"><ele>79.0</ele><time>2026-04-12T07:52:42.102Z</time></trkpt><trkpt lat="42.9719299" lon="13.767127"><ele>79.0</ele><time>2026-04-12T07:52:43.062Z</time></trkpt><trkpt lat="42.9718915" lon="13.7668959"><ele>79.0</ele><time>2026-04-12T07:52:44.073Z</time></trkpt><trkpt lat="42.9718502" lon="13.7666634"><ele>79.0</ele><time>2026-04-12T07:52:45.094Z</time></trkpt><trkpt lat="42.9718089" lon="13.7664334"><ele>79.0</ele><time>2026-04-12T07:52:46.062Z</time></trkpt><trkpt lat="42.9717695" lon="13.7661982"><ele>79.0</ele><time>2026-04-12T07:52:47.062Z</time></trkpt><trkpt lat="42.97173" lon="13.7659658"><ele>79.5</ele><time>2026-04-12T07:52:48.06Z</time></trkpt><trkpt lat="42.9716865" lon="13.765734"><ele>80.0</ele><time>2026-04-12T07:52:49.069Z</time></trkpt><trkpt lat="42.9715831" lon="13.7652676"><ele>80.66666666666667</ele><time>2026-04-12T07:52:51.07Z</time></trkpt><trkpt lat="42.9715261" lon="13.7650343"><ele>81.33333333333333</ele><time>2026-04-12T07:52:52.06Z</time></trkpt><trkpt lat="42.9714712" lon="13.7648"><ele>82.0</ele><time>2026-04-12T07:52:53.064Z</time></trkpt><trkpt lat="42.9714187" lon="13.7645658"><ele>82.0</ele><time>2026-04-12T07:52:54.09Z</time></trkpt><trkpt lat="42.9713696" lon="13.7643371"><ele>82.0</ele><time>2026-04-12T07:52:55.065Z</time></trkpt><trkpt lat="42.9713213" lon="13.7641026"><ele>82.0</ele><time>2026-04-12T07:52:56.073Z</time></trkpt><trkpt lat="42.9712735" lon="13.7638725"><ele>82.0</ele><time>2026-04-12T07:52:57.062Z</time></trkpt><trkpt lat="42.9712265" lon="13.7636424"><ele>82.0</ele><time>2026-04-12T07:52:58.066Z</time></trkpt><trkpt lat="42.9711806" lon="13.7634151"><ele>82.0</ele><time>2026-04-12T07:52:59.062Z</time></trkpt><trkpt lat="42.9711339" lon="13.7631891"><ele>82.0</ele><time>2026-04-12T07:53:00.07Z</time></trkpt><trkpt lat="42.9710874" lon="13.7629663"><ele>82.0</ele><time>2026-04-12T07:53:01.072Z</time></trkpt><trkpt lat="42.9710398" lon="13.7627418"><ele>82.0</ele><time>2026-04-12T07:53:02.066Z</time></trkpt><trkpt lat="42.9709904" lon="13.762515"><ele>82.0</ele><time>2026-04-12T07:53:03.07Z</time></trkpt><trkpt lat="42.9709411" lon="13.7622875"><ele>82.0</ele><time>2026-04-12T07:53:04.065Z</time></trkpt><trkpt lat="42.9708915" lon="13.7620597"><ele>82.0</ele><time>2026-04-12T07:53:05.06Z</time></trkpt><trkpt lat="42.9708413" lon="13.7618311"><ele>83.0</ele><time>2026-04-12T07:53:06.058Z</time></trkpt><trkpt lat="42.970791" lon="13.7615998"><ele>84.0</ele><time>2026-04-12T07:53:07.062Z</time></trkpt><trkpt lat="42.9707414" lon="13.7613681"><ele>85.0</ele><time>2026-04-12T07:53:08.062Z</time></trkpt><trkpt lat="42.9706924" lon="13.7611339"><ele>85.5</ele><time>2026-04-12T07:53:09.064Z</time></trkpt><trkpt lat="42.9706461" lon="13.7609014"><ele>86.0</ele><time>2026-04-12T07:53:10.066Z</time></trkpt><trkpt lat="42.9705493" lon="13.7604426"><ele>86.0</ele><time>2026-04-12T07:53:12.064Z</time></trkpt><trkpt lat="42.9704948" lon="13.7602083"><ele>86.0</ele><time>2026-04-12T07:53:13.067Z</time></trkpt><trkpt lat="42.9704395" lon="13.7599712"><ele>86.0</ele><time>2026-04-12T07:53:14.069Z</time></trkpt><trkpt lat="42.9703866" lon="13.7597322"><ele>86.0</ele><time>2026-04-12T07:53:15.068Z</time></trkpt><trkpt lat="42.9703335" lon="13.7594914"><ele>86.0</ele><time>2026-04-12T07:53:16.075Z</time></trkpt><trkpt lat="42.970282" lon="13.7592515"><ele>86.0</ele><time>2026-04-12T07:53:17.06Z</time></trkpt><trkpt lat="42.970232" lon="13.759006"><ele>86.0</ele><time>2026-04-12T07:53:18.061Z</time></trkpt><trkpt lat="42.9701812" lon="13.7587584"><ele>86.0</ele><time>2026-04-12T07:53:19.07Z</time></trkpt><trkpt lat="42.9701284" lon="13.7585146"><ele>86.0</ele><time>2026-04-12T07:53:20.06Z</time></trkpt><trkpt lat="42.9700777" lon="13.7582823"><ele>86.0</ele><time>2026-04-12T07:53:21.061Z</time></trkpt><trkpt lat="42.970034" lon="13.7580688"><ele>86.0</ele><time>2026-04-12T07:53:22.06Z</time></trkpt><trkpt lat="42.9699966" lon="13.7578693"><ele>86.0</ele><time>2026-04-12T07:53:23.088Z</time></trkpt><trkpt lat="42.9699685" lon="13.7576875"><ele>86.0</ele><time>2026-04-12T07:53:24.067Z</time></trkpt><trkpt lat="42.9699536" lon="13.7575153"><ele>86.6</ele><time>2026-04-12T07:53:25.074Z</time></trkpt><trkpt lat="42.9699493" lon="13.7573564"><ele>87.19999999999999</ele><time>2026-04-12T07:53:26.067Z</time></trkpt><trkpt lat="42.9699398" lon="13.7572127"><ele>87.80000000000001</ele><time>2026-04-12T07:53:27.065Z</time></trkpt><trkpt lat="42.9699166" lon="13.7570913"><ele>88.4</ele><time>2026-04-12T07:53:28.061Z</time></trkpt><trkpt lat="42.9698684" lon="13.7569981"><ele>89.0</ele><time>2026-04-12T07:53:29.065Z</time></trkpt><trkpt lat="42.9698051" lon="13.7569452"><ele>89.0</ele><time>2026-04-12T07:53:30.071Z</time></trkpt><trkpt lat="42.9697348" lon="13.7569265"><ele>89.0</ele><time>2026-04-12T07:53:31.072Z</time></trkpt><trkpt lat="42.969596" lon="13.7569066"><ele>89.0</ele><time>2026-04-12T07:53:33.06Z</time></trkpt><trkpt lat="42.9695006" lon="13.7568642"><ele>89.0</ele><time>2026-04-12T07:53:35.062Z</time></trkpt><trkpt lat="42.9694898" lon="13.7567784"><ele>89.0</ele><time>2026-04-12T07:53:38.064Z</time></trkpt><trkpt lat="42.9695754" lon="13.7567542"><ele>89.25</ele><time>2026-04-12T07:53:40.096Z</time></trkpt><trkpt lat="42.9697057" lon="13.7567506"><ele>89.5</ele><time>2026-04-12T07:53:42.061Z</time></trkpt><trkpt lat="42.9698085" lon="13.7567199"><ele>89.75</ele><time>2026-04-12T07:53:44.071Z</time></trkpt><trkpt lat="42.9698666" lon="13.7565564"><ele>90.0</ele><time>2026-04-12T07:53:46.062Z</time></trkpt><trkpt lat="42.9698911" lon="13.7564099"><ele>90.0</ele><time>2026-04-12T07:53:47.066Z</time></trkpt><trkpt lat="42.9699209" lon="13.7562171"><ele>90.0</ele><time>2026-04-12T07:53:48.062Z</time></trkpt><trkpt lat="42.9699517" lon="13.7559742"><ele>90.0</ele><time>2026-04-12T07:53:49.066Z</time></trkpt><trkpt lat="42.9699849" lon="13.7556805"><ele>90.5</ele><time>2026-04-12T07:53:50.062Z</time></trkpt><trkpt lat="42.9700161" lon="13.7553625"><ele>91.0</ele><time>2026-04-12T07:53:51.072Z</time></trkpt><trkpt lat="42.9700445" lon="13.755033"><ele>89.0</ele><time>2026-04-12T07:53:52.091Z</time></trkpt><trkpt lat="42.9700883" lon="13.754397"><ele>89.66666666666667</ele><time>2026-04-12T07:53:54.067Z</time></trkpt><trkpt lat="42.9701067" lon="13.754104"><ele>90.33333333333333</ele><time>2026-04-12T07:53:55.067Z</time></trkpt><trkpt lat="42.9701317" lon="13.7538256"><ele>91.0</ele><time>2026-04-12T07:53:56.061Z</time></trkpt><trkpt lat="42.9701609" lon="13.7535638"><ele>91.0</ele><time>2026-04-12T07:53:57.066Z</time></trkpt><trkpt lat="42.9701898" lon="13.7533176"><ele>91.0</ele><time>2026-04-12T07:53:58.06Z</time></trkpt><trkpt lat="42.9702154" lon="13.75308"><ele>91.0</ele><time>2026-04-12T07:53:59.067Z</time></trkpt><trkpt lat="42.9702358" lon="13.7528462"><ele>91.33333333333333</ele><time>2026-04-12T07:54:00.067Z</time></trkpt><trkpt lat="42.9702476" lon="13.7526129"><ele>91.66666666666667</ele><time>2026-04-12T07:54:01.061Z</time></trkpt><trkpt lat="42.9702567" lon="13.7523751"><ele>92.0</ele><time>2026-04-12T07:54:02.073Z</time></trkpt><trkpt lat="42.9702703" lon="13.752134"><ele>92.0</ele><time>2026-04-12T07:54:03.063Z</time></trkpt><trkpt lat="42.9702858" lon="13.7518836"><ele>92.0</ele><time>2026-04-12T07:54:04.092Z</time></trkpt><trkpt lat="42.970301" lon="13.7516369"><ele>92.0</ele><time>2026-04-12T07:54:05.093Z</time></trkpt><trkpt lat="42.9703125" lon="13.7513923"><ele>92.33333333333334</ele><time>2026-04-12T07:54:06.064Z</time></trkpt><trkpt lat="42.9703199" lon="13.7511426"><ele>92.66666666666667</ele><time>2026-04-12T07:54:07.093Z</time></trkpt><trkpt lat="42.9703274" lon="13.7508984"><ele>93.0</ele><time>2026-04-12T07:54:08.071Z</time></trkpt><trkpt lat="42.970335" lon="13.750649"><ele>93.33333333333333</ele><time>2026-04-12T07:54:09.07Z</time></trkpt><trkpt lat="42.9703429" lon="13.7504007"><ele>93.66666666666666</ele><time>2026-04-12T07:54:10.064Z</time></trkpt><trkpt lat="42.9703522" lon="13.7501542"><ele>94.0</ele><time>2026-04-12T07:54:11.062Z</time></trkpt><trkpt lat="42.970363" lon="13.749908"><ele>94.0</ele><time>2026-04-12T07:54:12.092Z</time></trkpt><trkpt lat="42.9703754" lon="13.7496667"><ele>94.0</ele><time>2026-04-12T07:54:13.1Z</time></trkpt><trkpt lat="42.9703992" lon="13.7491829"><ele>94.33333333333333</ele><time>2026-04-12T07:54:15.062Z</time></trkpt><trkpt lat="42.9704132" lon="13.7489417"><ele>94.66666666666667</ele><time>2026-04-12T07:54:16.063Z</time></trkpt><trkpt lat="42.970425" lon="13.748702"><ele>95.0</ele><time>2026-04-12T07:54:17.06Z</time></trkpt><trkpt lat="42.9704301" lon="13.7484598"><ele>95.33333333333334</ele><time>2026-04-12T07:54:18.066Z</time></trkpt><trkpt lat="42.9704333" lon="13.7482199"><ele>95.66666666666667</ele><time>2026-04-12T07:54:19.065Z</time></trkpt><trkpt lat="42.9704371" lon="13.7479934"><ele>96.0</ele><time>2026-04-12T07:54:20.063Z</time></trkpt><trkpt lat="42.9704416" lon="13.7477835"><ele>96.5</ele><time>2026-04-12T07:54:21.065Z</time></trkpt><trkpt lat="42.9704478" lon="13.7475908"><ele>97.0</ele><time>2026-04-12T07:54:22.063Z</time></trkpt><trkpt lat="42.9704568" lon="13.7474153"><ele>97.5</ele><time>2026-04-12T07:54:23.061Z</time></trkpt><trkpt lat="42.9704693" lon="13.747256"><ele>98.0</ele><time>2026-04-12T07:54:24.069Z</time></trkpt><trkpt lat="42.9704817" lon="13.7471096"><ele>98.0</ele><time>2026-04-12T07:54:25.098Z</time></trkpt><trkpt lat="42.9704932" lon="13.7469747"><ele>98.0</ele><time>2026-04-12T07:54:26.064Z</time></trkpt><trkpt lat="42.9705008" lon="13.7468362"><ele>98.0</ele><time>2026-04-12T07:54:27.06Z</time></trkpt><trkpt lat="42.9705055" lon="13.7466916"><ele>98.0</ele><time>2026-04-12T07:54:28.059Z</time></trkpt><trkpt lat="42.9705177" lon="13.7465322"><ele>98.0</ele><time>2026-04-12T07:54:29.062Z</time></trkpt><trkpt lat="42.9705395" lon="13.7463601"><ele>98.0</ele><time>2026-04-12T07:54:30.062Z</time></trkpt><trkpt lat="42.9705647" lon="13.7461687"><ele>98.0</ele><time>2026-04-12T07:54:31.063Z</time></trkpt><trkpt lat="42.9705919" lon="13.7459569"><ele>98.0</ele><time>2026-04-12T07:54:32.068Z</time></trkpt><trkpt lat="42.9706172" lon="13.7457328"><ele>98.0</ele><time>2026-04-12T07:54:33.067Z</time></trkpt><trkpt lat="42.9706357" lon="13.7454968"><ele>98.0</ele><time>2026-04-12T07:54:34.071Z</time></trkpt><trkpt lat="42.9706416" lon="13.7450167"><ele>97.66666666666666</ele><time>2026-04-12T07:54:36.064Z</time></trkpt><trkpt lat="42.9706443" lon="13.7447906"><ele>97.33333333333334</ele><time>2026-04-12T07:54:37.073Z</time></trkpt><trkpt lat="42.9706516" lon="13.7445836"><ele>97.0</ele><time>2026-04-12T07:54:38.062Z</time></trkpt><trkpt lat="42.9706648" lon="13.7443795"><ele>97.66666666666667</ele><time>2026-04-12T07:54:39.061Z</time></trkpt><trkpt lat="42.9706819" lon="13.7441663"><ele>98.33333333333334</ele><time>2026-04-12T07:54:40.06Z</time></trkpt><trkpt lat="42.9707032" lon="13.7439427"><ele>99.0</ele><time>2026-04-12T07:54:41.067Z</time></trkpt><trkpt lat="42.9707323" lon="13.7437131"><ele>99.33333333333334</ele><time>2026-04-12T07:54:42.068Z</time></trkpt><trkpt lat="42.9707635" lon="13.7434809"><ele>99.66666666666667</ele><time>2026-04-12T07:54:43.064Z</time></trkpt><trkpt lat="42.9707925" lon="13.7432476"><ele>100.0</ele><time>2026-04-12T07:54:44.062Z</time></trkpt><trkpt lat="42.970821" lon="13.7430134"><ele>100.0</ele><time>2026-04-12T07:54:45.068Z</time></trkpt><trkpt lat="42.9708516" lon="13.7427831"><ele>100.0</ele><time>2026-04-12T07:54:46.067Z</time></trkpt><trkpt lat="42.9708831" lon="13.7425577"><ele>100.0</ele><time>2026-04-12T07:54:47.068Z</time></trkpt><trkpt lat="42.9709143" lon="13.7423375"><ele>100.0</ele><time>2026-04-12T07:54:48.064Z</time></trkpt><trkpt lat="42.9709422" lon="13.7421269"><ele>100.0</ele><time>2026-04-12T07:54:49.064Z</time></trkpt><trkpt lat="42.9709665" lon="13.741929"><ele>100.0</ele><time>2026-04-12T07:54:50.062Z</time></trkpt><trkpt lat="42.9709873" lon="13.7417419"><ele>100.0</ele><time>2026-04-12T07:54:51.061Z</time></trkpt><trkpt lat="42.9710063" lon="13.7415711"><ele>100.5</ele><time>2026-04-12T07:54:52.062Z</time></trkpt><trkpt lat="42.9710238" lon="13.7414183"><ele>101.0</ele><time>2026-04-12T07:54:53.061Z</time></trkpt><trkpt lat="42.9710398" lon="13.7412843"><ele>101.5</ele><time>2026-04-12T07:54:54.064Z</time></trkpt><trkpt lat="42.9710566" lon="13.7411708"><ele>102.0</ele><time>2026-04-12T07:54:55.062Z</time></trkpt><trkpt lat="42.9710611" lon="13.7409469"><ele>102.0</ele><time>2026-04-12T07:54:57.09Z</time></trkpt><trkpt lat="42.9710403" lon="13.740793"><ele>102.0</ele><time>2026-04-12T07:54:58.06Z</time></trkpt><trkpt lat="42.9710142" lon="13.7406082"><ele>102.0</ele><time>2026-04-12T07:54:59.065Z</time></trkpt><trkpt lat="42.970985" lon="13.7403996"><ele>102.0</ele><time>2026-04-12T07:55:00.07Z</time></trkpt><trkpt lat="42.9709583" lon="13.7401737"><ele>102.0</ele><time>2026-04-12T07:55:01.064Z</time></trkpt><trkpt lat="42.9709336" lon="13.7399385"><ele>102.0</ele><time>2026-04-12T07:55:02.068Z</time></trkpt><trkpt lat="42.9709129" lon="13.739698"><ele>102.0</ele><time>2026-04-12T07:55:03.077Z</time></trkpt><trkpt lat="42.970897" lon="13.7394659"><ele>102.25</ele><time>2026-04-12T07:55:04.066Z</time></trkpt><trkpt lat="42.9708837" lon="13.7392536"><ele>102.5</ele><time>2026-04-12T07:55:05.072Z</time></trkpt><trkpt lat="42.97087" lon="13.7390594"><ele>102.75</ele><time>2026-04-12T07:55:06.061Z</time></trkpt><trkpt lat="42.9708536" lon="13.7388622"><ele>103.0</ele><time>2026-04-12T07:55:07.058Z</time></trkpt><trkpt lat="42.9708369" lon="13.7386606"><ele>104.0</ele><time>2026-04-12T07:55:08.061Z</time></trkpt><trkpt lat="42.9708226" lon="13.7384663"><ele>105.0</ele><time>2026-04-12T07:55:09.067Z</time></trkpt><trkpt lat="42.9708124" lon="13.7382866"><ele>106.0</ele><time>2026-04-12T07:55:10.067Z</time></trkpt><trkpt lat="42.9708056" lon="13.7381225"><ele>107.0</ele><time>2026-04-12T07:55:11.06Z</time></trkpt><trkpt lat="42.9708031" lon="13.737975"><ele>107.0</ele><time>2026-04-12T07:55:12.066Z</time></trkpt><trkpt lat="42.9708058" lon="13.7378399"><ele>106.99999999999999</ele><time>2026-04-12T07:55:13.096Z</time></trkpt><trkpt lat="42.9708076" lon="13.7377188"><ele>106.99999999999999</ele><time>2026-04-12T07:55:14.064Z</time></trkpt><trkpt lat="42.9708074" lon="13.7375976"><ele>107.0</ele><time>2026-04-12T07:55:15.06Z</time></trkpt><trkpt lat="42.9708055" lon="13.7374761"><ele>107.0</ele><time>2026-04-12T07:55:16.062Z</time></trkpt><trkpt lat="42.9707978" lon="13.7372281"><ele>107.0</ele><time>2026-04-12T07:55:18.063Z</time></trkpt><trkpt lat="42.9707931" lon="13.7371025"><ele>106.99999999999999</ele><time>2026-04-12T07:55:19.059Z</time></trkpt><trkpt lat="42.9707873" lon="13.7369775"><ele>106.99999999999999</ele><time>2026-04-12T07:55:20.064Z</time></trkpt><trkpt lat="42.9707813" lon="13.73684"><ele>107.0</ele><time>2026-04-12T07:55:21.063Z</time></trkpt><trkpt lat="42.9707761" lon="13.7366983"><ele>107.0</ele><time>2026-04-12T07:55:22.061Z</time></trkpt><trkpt lat="42.970771" lon="13.7365582"><ele>107.0</ele><time>2026-04-12T07:55:23.068Z</time></trkpt><trkpt lat="42.970768" lon="13.73642"><ele>106.99999999999999</ele><time>2026-04-12T07:55:24.063Z</time></trkpt><trkpt lat="42.9707677" lon="13.7362819"><ele>106.99999999999999</ele><time>2026-04-12T07:55:25.062Z</time></trkpt><trkpt lat="42.9707725" lon="13.7361413"><ele>107.0</ele><time>2026-04-12T07:55:26.066Z</time></trkpt><trkpt lat="42.9707801" lon="13.7360059"><ele>107.0</ele><time>2026-04-12T07:55:27.068Z</time></trkpt><trkpt lat="42.9707854" lon="13.7358763"><ele>107.16666666666666</ele><time>2026-04-12T07:55:28.067Z</time></trkpt><trkpt lat="42.9707871" lon="13.7357546"><ele>107.33333333333333</ele><time>2026-04-12T07:55:29.066Z</time></trkpt><trkpt lat="42.9707848" lon="13.73564"><ele>107.5</ele><time>2026-04-12T07:55:30.066Z</time></trkpt><trkpt lat="42.9707804" lon="13.7355263"><ele>107.66666666666666</ele><time>2026-04-12T07:55:31.069Z</time></trkpt><trkpt lat="42.9707755" lon="13.7354133"><ele>107.83333333333333</ele><time>2026-04-12T07:55:32.062Z</time></trkpt><trkpt lat="42.97077" lon="13.7353011"><ele>108.0</ele><time>2026-04-12T07:55:33.064Z</time></trkpt><trkpt lat="42.9707636" lon="13.7351859"><ele>108.5</ele><time>2026-04-12T07:55:34.101Z</time></trkpt><trkpt lat="42.9707597" lon="13.7350709"><ele>109.0</ele><time>2026-04-12T07:55:35.066Z</time></trkpt><trkpt lat="42.9707597" lon="13.7349419"><ele>109.5</ele><time>2026-04-12T07:55:36.06Z</time></trkpt><trkpt lat="42.9707654" lon="13.734794"><ele>110.0</ele><time>2026-04-12T07:55:37.095Z</time></trkpt><trkpt lat="42.9707727" lon="13.7344167"><ele>110.33333333333333</ele><time>2026-04-12T07:55:39.065Z</time></trkpt><trkpt lat="42.9707791" lon="13.7341891"><ele>110.66666666666666</ele><time>2026-04-12T07:55:40.065Z</time></trkpt><trkpt lat="42.9707822" lon="13.7339397"><ele>111.0</ele><time>2026-04-12T07:55:41.064Z</time></trkpt><trkpt lat="42.9707773" lon="13.733697"><ele>110.66666666666666</ele><time>2026-04-12T07:55:42.068Z</time></trkpt><trkpt lat="42.9707706" lon="13.7334677"><ele>110.33333333333333</ele><time>2026-04-12T07:55:43.063Z</time></trkpt><trkpt lat="42.9707666" lon="13.7332433"><ele>110.0</ele><time>2026-04-12T07:55:44.097Z</time></trkpt><trkpt lat="42.9707583" lon="13.7330275"><ele>110.0</ele><time>2026-04-12T07:55:45.093Z</time></trkpt><trkpt lat="42.9707449" lon="13.7328139"><ele>110.0</ele><time>2026-04-12T07:55:46.089Z</time></trkpt><trkpt lat="42.9707257" lon="13.73261"><ele>110.0</ele><time>2026-04-12T07:55:47.065Z</time></trkpt><trkpt lat="42.9707024" lon="13.7324133"><ele>110.0</ele><time>2026-04-12T07:55:48.062Z</time></trkpt><trkpt lat="42.9706742" lon="13.7322272"><ele>110.0</ele><time>2026-04-12T07:55:49.064Z</time></trkpt><trkpt lat="42.9706454" lon="13.7320466"><ele>110.0</ele><time>2026-04-12T07:55:50.067Z</time></trkpt><trkpt lat="42.9706199" lon="13.7318664"><ele>110.0</ele><time>2026-04-12T07:55:51.064Z</time></trkpt><trkpt lat="42.9705966" lon="13.7316882"><ele>110.25</ele><time>2026-04-12T07:55:52.063Z</time></trkpt><trkpt lat="42.9705745" lon="13.7315119"><ele>110.5</ele><time>2026-04-12T07:55:53.065Z</time></trkpt><trkpt lat="42.970554" lon="13.7313363"><ele>110.75</ele><time>2026-04-12T07:55:54.067Z</time></trkpt><trkpt lat="42.9705344" lon="13.7311587"><ele>111.0</ele><time>2026-04-12T07:55:55.068Z</time></trkpt><trkpt lat="42.9705166" lon="13.7309749"><ele>111.0</ele><time>2026-04-12T07:55:56.07Z</time></trkpt><trkpt lat="42.9704983" lon="13.7307922"><ele>111.0</ele><time>2026-04-12T07:55:57.061Z</time></trkpt><trkpt lat="42.9704775" lon="13.7306085"><ele>111.0</ele><time>2026-04-12T07:55:58.068Z</time></trkpt><trkpt lat="42.9704314" lon="13.7302464"><ele>110.75</ele><time>2026-04-12T07:56:00.064Z</time></trkpt><trkpt lat="42.9704096" lon="13.7300674"><ele>110.5</ele><time>2026-04-12T07:56:01.059Z</time></trkpt><trkpt lat="42.9703894" lon="13.7298877"><ele>110.25</ele><time>2026-04-12T07:56:02.063Z</time></trkpt><trkpt lat="42.9703714" lon="13.7297048"><ele>110.0</ele><time>2026-04-12T07:56:03.061Z</time></trkpt><trkpt lat="42.9703528" lon="13.7295198"><ele>110.5</ele><time>2026-04-12T07:56:04.063Z</time></trkpt><trkpt lat="42.970332" lon="13.7293337"><ele>111.0</ele><time>2026-04-12T07:56:05.075Z</time></trkpt><trkpt lat="42.9703113" lon="13.7291481"><ele>111.5</ele><time>2026-04-12T07:56:06.064Z</time></trkpt><trkpt lat="42.9702887" lon="13.7289583"><ele>112.0</ele><time>2026-04-12T07:56:07.063Z</time></trkpt><trkpt lat="42.9702636" lon="13.7287665"><ele>112.0</ele><time>2026-04-12T07:56:08.07Z</time></trkpt><trkpt lat="42.9702402" lon="13.7285741"><ele>112.0</ele><time>2026-04-12T07:56:09.092Z</time></trkpt><trkpt lat="42.9702211" lon="13.7283856"><ele>112.0</ele><time>2026-04-12T07:56:10.063Z</time></trkpt><trkpt lat="42.9702024" lon="13.7281947"><ele>112.0</ele><time>2026-04-12T07:56:11.071Z</time></trkpt><trkpt lat="42.9701803" lon="13.7280046"><ele>112.0</ele><time>2026-04-12T07:56:12.072Z</time></trkpt><trkpt lat="42.9701545" lon="13.7278143"><ele>112.0</ele><time>2026-04-12T07:56:13.066Z</time></trkpt><trkpt lat="42.970127" lon="13.7276205"><ele>112.0</ele><time>2026-04-12T07:56:14.063Z</time></trkpt><trkpt lat="42.9701006" lon="13.7274258"><ele>112.0</ele><time>2026-04-12T07:56:15.067Z</time></trkpt><trkpt lat="42.9700774" lon="13.727235"><ele>112.0</ele><time>2026-04-12T07:56:16.068Z</time></trkpt><trkpt lat="42.9700557" lon="13.7270465"><ele>112.0</ele><time>2026-04-12T07:56:17.094Z</time></trkpt><trkpt lat="42.9700328" lon="13.7268602"><ele>112.0</ele><time>2026-04-12T07:56:18.068Z</time></trkpt><trkpt lat="42.9700091" lon="13.7266669"><ele>112.0</ele><time>2026-04-12T07:56:19.074Z</time></trkpt><trkpt lat="42.9699605" lon="13.7262647"><ele>113.66666666666667</ele><time>2026-04-12T07:56:21.066Z</time></trkpt><trkpt lat="42.9699364" lon="13.7260584"><ele>115.33333333333334</ele><time>2026-04-12T07:56:22.065Z</time></trkpt><trkpt lat="42.9699128" lon="13.7258527"><ele>117.0</ele><time>2026-04-12T07:56:23.074Z</time></trkpt><trkpt lat="42.9698889" lon="13.7256565"><ele>117.0</ele><time>2026-04-12T07:56:24.064Z</time></trkpt><trkpt lat="42.9698634" lon="13.725471"><ele>117.0</ele><time>2026-04-12T07:56:25.06Z</time></trkpt><trkpt lat="42.9698354" lon="13.7252902"><ele>117.0</ele><time>2026-04-12T07:56:26.098Z</time></trkpt><trkpt lat="42.9698066" lon="13.725117"><ele>117.0</ele><time>2026-04-12T07:56:27.062Z</time></trkpt><trkpt lat="42.9697755" lon="13.7249412"><ele>117.0</ele><time>2026-04-12T07:56:28.067Z</time></trkpt><trkpt lat="42.9697446" lon="13.724762"><ele>117.0</ele><time>2026-04-12T07:56:29.065Z</time></trkpt><trkpt lat="42.9697151" lon="13.7245767"><ele>117.0</ele><time>2026-04-12T07:56:30.069Z</time></trkpt><trkpt lat="42.9696843" lon="13.7243874"><ele>117.0</ele><time>2026-04-12T07:56:31.066Z</time></trkpt><trkpt lat="42.9696533" lon="13.7241915"><ele>117.25</ele><time>2026-04-12T07:56:32.07Z</time></trkpt><trkpt lat="42.9696237" lon="13.7239903"><ele>117.5</ele><time>2026-04-12T07:56:33.098Z</time></trkpt><trkpt lat="42.9695951" lon="13.7237926"><ele>117.75</ele><time>2026-04-12T07:56:34.095Z</time></trkpt><trkpt lat="42.969567" lon="13.7235978"><ele>118.0</ele><time>2026-04-12T07:56:35.066Z</time></trkpt><trkpt lat="42.9695375" lon="13.7233987"><ele>118.5</ele><time>2026-04-12T07:56:36.062Z</time></trkpt><trkpt lat="42.9695058" lon="13.7231979"><ele>119.0</ele><time>2026-04-12T07:56:37.062Z</time></trkpt><trkpt lat="42.9694718" lon="13.7229994"><ele>119.5</ele><time>2026-04-12T07:56:38.062Z</time></trkpt><trkpt lat="42.9694369" lon="13.7228018"><ele>120.0</ele><time>2026-04-12T07:56:39.061Z</time></trkpt><trkpt lat="42.969402" lon="13.7226054"><ele>120.5</ele><time>2026-04-12T07:56:40.101Z</time></trkpt><trkpt lat="42.9693322" lon="13.7222051"><ele>121.0</ele><time>2026-04-12T07:56:42.068Z</time></trkpt><trkpt lat="42.969293" lon="13.7219971"><ele>121.0</ele><time>2026-04-12T07:56:43.06Z</time></trkpt><trkpt lat="42.9692507" lon="13.7217816"><ele>121.0</ele><time>2026-04-12T07:56:44.071Z</time></trkpt><trkpt lat="42.9692052" lon="13.7215667"><ele>121.0</ele><time>2026-04-12T07:56:45.067Z</time></trkpt><trkpt lat="42.9691581" lon="13.7213508"><ele>121.33333333333334</ele><time>2026-04-12T07:56:46.063Z</time></trkpt><trkpt lat="42.9691093" lon="13.7211339"><ele>121.66666666666666</ele><time>2026-04-12T07:56:47.067Z</time></trkpt><trkpt lat="42.9690606" lon="13.7209145"><ele>122.0</ele><time>2026-04-12T07:56:48.091Z</time></trkpt><trkpt lat="42.9690126" lon="13.7206975"><ele>122.33333333333333</ele><time>2026-04-12T07:56:49.063Z</time></trkpt><trkpt lat="42.9689654" lon="13.7204767"><ele>122.66666666666666</ele><time>2026-04-12T07:56:50.063Z</time></trkpt><trkpt lat="42.9689195" lon="13.720256"><ele>123.0</ele><time>2026-04-12T07:56:51.062Z</time></trkpt><trkpt lat="42.9688745" lon="13.7200339"><ele>123.33333333333334</ele><time>2026-04-12T07:56:52.062Z</time></trkpt><trkpt lat="42.9688292" lon="13.7198096"><ele>123.66666666666667</ele><time>2026-04-12T07:56:53.066Z</time></trkpt><trkpt lat="42.9687823" lon="13.7195813"><ele>124.0</ele><time>2026-04-12T07:56:54.095Z</time></trkpt><trkpt lat="42.9687354" lon="13.7193581"><ele>124.0</ele><time>2026-04-12T07:56:55.067Z</time></trkpt><trkpt lat="42.9686896" lon="13.7191295"><ele>124.0</ele><time>2026-04-12T07:56:56.098Z</time></trkpt><trkpt lat="42.9686496" lon="13.7189096"><ele>124.0</ele><time>2026-04-12T07:56:57.072Z</time></trkpt><trkpt lat="42.9686081" lon="13.7186904"><ele>124.0</ele><time>2026-04-12T07:56:58.061Z</time></trkpt><trkpt lat="42.9685605" lon="13.7184722"><ele>124.0</ele><time>2026-04-12T07:56:59.068Z</time></trkpt><trkpt lat="42.968512" lon="13.7182541"><ele>124.0</ele><time>2026-04-12T07:57:00.074Z</time></trkpt><trkpt lat="42.9684657" lon="13.7180353"><ele>123.5</ele><time>2026-04-12T07:57:01.063Z</time></trkpt><trkpt lat="42.9683737" lon="13.7175925"><ele>123.0</ele><time>2026-04-12T07:57:03.061Z</time></trkpt><trkpt lat="42.9683282" lon="13.7173694"><ele>124.0</ele><time>2026-04-12T07:57:04.066Z</time></trkpt><trkpt lat="42.9682809" lon="13.7171471"><ele>125.0</ele><time>2026-04-12T07:57:05.06Z</time></trkpt><trkpt lat="42.9682322" lon="13.7169255"><ele>126.0</ele><time>2026-04-12T07:57:06.06Z</time></trkpt><trkpt lat="42.9681847" lon="13.7167067"><ele>126.33333333333334</ele><time>2026-04-12T07:57:07.065Z</time></trkpt><trkpt lat="42.9681371" lon="13.7164888"><ele>126.66666666666667</ele><time>2026-04-12T07:57:08.068Z</time></trkpt><trkpt lat="42.968088" lon="13.7162688"><ele>127.0</ele><time>2026-04-12T07:57:09.068Z</time></trkpt><trkpt lat="42.9680396" lon="13.7160473"><ele>127.33333333333334</ele><time>2026-04-12T07:57:10.062Z</time></trkpt><trkpt lat="42.9679928" lon="13.7158237"><ele>127.66666666666666</ele><time>2026-04-12T07:57:11.092Z</time></trkpt><trkpt lat="42.9679451" lon="13.7156039"><ele>128.0</ele><time>2026-04-12T07:57:12.066Z</time></trkpt><trkpt lat="42.9678961" lon="13.715382"><ele>128.33333333333331</ele><time>2026-04-12T07:57:13.077Z</time></trkpt><trkpt lat="42.96785" lon="13.7151668"><ele>128.66666666666666</ele><time>2026-04-12T07:57:14.063Z</time></trkpt><trkpt lat="42.9678057" lon="13.7149555"><ele>129.0</ele><time>2026-04-12T07:57:15.061Z</time></trkpt><trkpt lat="42.9677627" lon="13.7147507"><ele>129.0</ele><time>2026-04-12T07:57:16.061Z</time></trkpt><trkpt lat="42.9677193" lon="13.7145494"><ele>129.0</ele><time>2026-04-12T07:57:17.069Z</time></trkpt><trkpt lat="42.9676763" lon="13.7143513"><ele>129.0</ele><time>2026-04-12T07:57:18.067Z</time></trkpt><trkpt lat="42.9676326" lon="13.7141506"><ele>129.0</ele><time>2026-04-12T07:57:19.099Z</time></trkpt><trkpt lat="42.9675902" lon="13.713955"><ele>129.0</ele><time>2026-04-12T07:57:20.066Z</time></trkpt><trkpt lat="42.9675476" lon="13.7137575"><ele>129.0</ele><time>2026-04-12T07:57:21.095Z</time></trkpt><trkpt lat="42.9675072" lon="13.713567"><ele>129.0</ele><time>2026-04-12T07:57:22.069Z</time></trkpt><trkpt lat="42.9674276" lon="13.7131846"><ele>129.0</ele><time>2026-04-12T07:57:24.072Z</time></trkpt><trkpt lat="42.9673919" lon="13.7130015"><ele>129.0</ele><time>2026-04-12T07:57:25.062Z</time></trkpt><trkpt lat="42.9673567" lon="13.7128285"><ele>129.0</ele><time>2026-04-12T07:57:26.093Z</time></trkpt><trkpt lat="42.9673247" lon="13.7126749"><ele>129.0</ele><time>2026-04-12T07:57:27.068Z</time></trkpt><trkpt lat="42.9672938" lon="13.7125355"><ele>129.16666666666666</ele><time>2026-04-12T07:57:28.09Z</time></trkpt><trkpt lat="42.9672644" lon="13.7124121"><ele>129.33333333333334</ele><time>2026-04-12T07:57:29.064Z</time></trkpt><trkpt lat="42.9672391" lon="13.7123012"><ele>129.5</ele><time>2026-04-12T07:57:30.064Z</time></trkpt><trkpt lat="42.9672216" lon="13.7121999"><ele>129.66666666666669</ele><time>2026-04-12T07:57:31.067Z</time></trkpt><trkpt lat="42.9672157" lon="13.7121129"><ele>129.83333333333334</ele><time>2026-04-12T07:57:32.063Z</time></trkpt><trkpt lat="42.9672299" lon="13.7119676"><ele>130.0</ele><time>2026-04-12T07:57:34.078Z</time></trkpt><trkpt lat="42.9672447" lon="13.7118157"><ele>130.0</ele><time>2026-04-12T07:57:36.071Z</time></trkpt><trkpt lat="42.9672142" lon="13.7116316"><ele>130.0</ele><time>2026-04-12T07:57:38.076Z</time></trkpt><trkpt lat="42.9671633" lon="13.7115169"><ele>130.0</ele><time>2026-04-12T07:57:39.07Z</time></trkpt><trkpt lat="42.9670954" lon="13.7113906"><ele>130.0</ele><time>2026-04-12T07:57:40.067Z</time></trkpt><trkpt lat="42.96703" lon="13.7112434"><ele>130.66666666666669</ele><time>2026-04-12T07:57:41.06Z</time></trkpt><trkpt lat="42.966979" lon="13.7110714"><ele>131.33333333333334</ele><time>2026-04-12T07:57:42.062Z</time></trkpt><trkpt lat="42.9669388" lon="13.7108747"><ele>132.0</ele><time>2026-04-12T07:57:43.072Z</time></trkpt><trkpt lat="42.9668483" lon="13.7104456"><ele>131.66666666666666</ele><time>2026-04-12T07:57:45.062Z</time></trkpt><trkpt lat="42.9667979" lon="13.7102213"><ele>131.33333333333331</ele><time>2026-04-12T07:57:46.061Z</time></trkpt><trkpt lat="42.9667466" lon="13.709999"><ele>131.0</ele><time>2026-04-12T07:57:47.06Z</time></trkpt><trkpt lat="42.9666972" lon="13.7097789"><ele>132.0</ele><time>2026-04-12T07:57:48.065Z</time></trkpt><trkpt lat="42.9666515" lon="13.7095586"><ele>133.0</ele><time>2026-04-12T07:57:49.072Z</time></trkpt><trkpt lat="42.9666063" lon="13.7093381"><ele>134.0</ele><time>2026-04-12T07:57:50.067Z</time></trkpt><trkpt lat="42.9665591" lon="13.7091188"><ele>134.0</ele><time>2026-04-12T07:57:51.061Z</time></trkpt><trkpt lat="42.9665113" lon="13.7089"><ele>134.0</ele><time>2026-04-12T07:57:52.06Z</time></trkpt><trkpt lat="42.9664629" lon="13.7086807"><ele>134.0</ele><time>2026-04-12T07:57:53.073Z</time></trkpt><trkpt lat="42.9664145" lon="13.7084623"><ele>134.66666666666666</ele><time>2026-04-12T07:57:54.065Z</time></trkpt><trkpt lat="42.9663663" lon="13.7082431"><ele>135.33333333333334</ele><time>2026-04-12T07:57:55.061Z</time></trkpt><trkpt lat="42.9663179" lon="13.7080259"><ele>136.0</ele><time>2026-04-12T07:57:56.064Z</time></trkpt><trkpt lat="42.9662695" lon="13.7078116"><ele>136.0</ele><time>2026-04-12T07:57:57.063Z</time></trkpt><trkpt lat="42.9662222" lon="13.7075983"><ele>136.0</ele><time>2026-04-12T07:57:58.063Z</time></trkpt><trkpt lat="42.9661782" lon="13.7073856"><ele>136.0</ele><time>2026-04-12T07:57:59.062Z</time></trkpt><trkpt lat="42.9661365" lon="13.7071734"><ele>136.0</ele><time>2026-04-12T07:58:00.06Z</time></trkpt><trkpt lat="42.9660936" lon="13.706964"><ele>136.0</ele><time>2026-04-12T07:58:01.061Z</time></trkpt><trkpt lat="42.9660491" lon="13.7067571"><ele>136.0</ele><time>2026-04-12T07:58:02.061Z</time></trkpt><trkpt lat="42.9660026" lon="13.7065506"><ele>136.0</ele><time>2026-04-12T07:58:03.075Z</time></trkpt><trkpt lat="42.9659557" lon="13.7063485"><ele>136.0</ele><time>2026-04-12T07:58:04.101Z</time></trkpt><trkpt lat="42.9658677" lon="13.705962"><ele>136.25</ele><time>2026-04-12T07:58:06.063Z</time></trkpt><trkpt lat="42.9658263" lon="13.7057726"><ele>136.5</ele><time>2026-04-12T07:58:07.073Z</time></trkpt><trkpt lat="42.9657866" lon="13.7055875"><ele>136.75</ele><time>2026-04-12T07:58:08.065Z</time></trkpt><trkpt lat="42.9657472" lon="13.7054009"><ele>137.0</ele><time>2026-04-12T07:58:09.063Z</time></trkpt><trkpt lat="42.9657083" lon="13.7052113"><ele>137.0</ele><time>2026-04-12T07:58:10.061Z</time></trkpt><trkpt lat="42.9656668" lon="13.7050185"><ele>137.0</ele><time>2026-04-12T07:58:11.062Z</time></trkpt><trkpt lat="42.9656226" lon="13.704823"><ele>137.0</ele><time>2026-04-12T07:58:12.065Z</time></trkpt><trkpt lat="42.9655796" lon="13.7046242"><ele>137.0</ele><time>2026-04-12T07:58:13.06Z</time></trkpt><trkpt lat="42.9655378" lon="13.7044217"><ele>137.33333333333331</ele><time>2026-04-12T07:58:14.068Z</time></trkpt><trkpt lat="42.9654962" lon="13.7042216"><ele>137.66666666666666</ele><time>2026-04-12T07:58:15.058Z</time></trkpt><trkpt lat="42.9654526" lon="13.7040193"><ele>138.0</ele><time>2026-04-12T07:58:16.061Z</time></trkpt><trkpt lat="42.9654076" lon="13.7038146"><ele>138.0</ele><time>2026-04-12T07:58:17.065Z</time></trkpt><trkpt lat="42.9653638" lon="13.7036084"><ele>138.0</ele><time>2026-04-12T07:58:18.066Z</time></trkpt><trkpt lat="42.9653212" lon="13.7034017"><ele>138.0</ele><time>2026-04-12T07:58:19.07Z</time></trkpt><trkpt lat="42.965279" lon="13.7031944"><ele>138.0</ele><time>2026-04-12T07:58:20.06Z</time></trkpt><trkpt lat="42.9652378" lon="13.7029837"><ele>138.0</ele><time>2026-04-12T07:58:21.08Z</time></trkpt><trkpt lat="42.9651987" lon="13.7027754"><ele>138.0</ele><time>2026-04-12T07:58:22.062Z</time></trkpt><trkpt lat="42.9651578" lon="13.7025645"><ele>138.0</ele><time>2026-04-12T07:58:23.069Z</time></trkpt><trkpt lat="42.9651161" lon="13.7023539"><ele>138.0</ele><time>2026-04-12T07:58:24.063Z</time></trkpt><trkpt lat="42.9650744" lon="13.7021393"><ele>138.0</ele><time>2026-04-12T07:58:25.075Z</time></trkpt><trkpt lat="42.9649901" lon="13.701702"><ele>139.0</ele><time>2026-04-12T07:58:27.06Z</time></trkpt><trkpt lat="42.9649504" lon="13.7014718"><ele>140.0</ele><time>2026-04-12T07:58:28.069Z</time></trkpt><trkpt lat="42.9649128" lon="13.7012378"><ele>141.0</ele><time>2026-04-12T07:58:29.066Z</time></trkpt><trkpt lat="42.9648742" lon="13.7009995"><ele>141.0</ele><time>2026-04-12T07:58:30.1Z</time></trkpt><trkpt lat="42.9648352" lon="13.7007652"><ele>141.0</ele><time>2026-04-12T07:58:31.095Z</time></trkpt><trkpt lat="42.9647938" lon="13.7005382"><ele>141.0</ele><time>2026-04-12T07:58:32.061Z</time></trkpt><trkpt lat="42.9647489" lon="13.7003146"><ele>141.0</ele><time>2026-04-12T07:58:33.07Z</time></trkpt><trkpt lat="42.9647032" lon="13.7000957"><ele>141.0</ele><time>2026-04-12T07:58:34.063Z</time></trkpt><trkpt lat="42.9646545" lon="13.6998777"><ele>141.0</ele><time>2026-04-12T07:58:35.093Z</time></trkpt><trkpt lat="42.9646035" lon="13.6996676"><ele>141.0</ele><time>2026-04-12T07:58:36.07Z</time></trkpt><trkpt lat="42.9645478" lon="13.699453"><ele>141.0</ele><time>2026-04-12T07:58:37.095Z</time></trkpt><trkpt lat="42.9644883" lon="13.6992428"><ele>141.0</ele><time>2026-04-12T07:58:38.067Z</time></trkpt><trkpt lat="42.9644246" lon="13.6990286"><ele>141.0</ele><time>2026-04-12T07:58:39.069Z</time></trkpt><trkpt lat="42.9643584" lon="13.6988151"><ele>141.0</ele><time>2026-04-12T07:58:40.065Z</time></trkpt><trkpt lat="42.9642907" lon="13.6985981"><ele>141.0</ele><time>2026-04-12T07:58:41.068Z</time></trkpt><trkpt lat="42.964221" lon="13.6983788"><ele>142.66666666666666</ele><time>2026-04-12T07:58:42.065Z</time></trkpt><trkpt lat="42.9641468" lon="13.6981582"><ele>144.33333333333331</ele><time>2026-04-12T07:58:43.069Z</time></trkpt><trkpt lat="42.96407" lon="13.6979371"><ele>146.0</ele><time>2026-04-12T07:58:44.072Z</time></trkpt><trkpt lat="42.9639928" lon="13.6977165"><ele>146.0</ele><time>2026-04-12T07:58:45.059Z</time></trkpt><trkpt lat="42.9639164" lon="13.6974953"><ele>146.0</ele><time>2026-04-12T07:58:46.061Z</time></trkpt><trkpt lat="42.9637742" lon="13.6970573"><ele>145.33333333333331</ele><time>2026-04-12T07:58:48.064Z</time></trkpt><trkpt lat="42.9637106" lon="13.6968371"><ele>144.66666666666666</ele><time>2026-04-12T07:58:49.065Z</time></trkpt><trkpt lat="42.9636506" lon="13.6966162"><ele>144.0</ele><time>2026-04-12T07:58:50.06Z</time></trkpt><trkpt lat="42.9635925" lon="13.6963936"><ele>144.0</ele><time>2026-04-12T07:58:51.096Z</time></trkpt><trkpt lat="42.9635339" lon="13.6961831"><ele>144.0</ele><time>2026-04-12T07:58:52.061Z</time></trkpt><trkpt lat="42.9634734" lon="13.6959706"><ele>144.0</ele><time>2026-04-12T07:58:53.098Z</time></trkpt><trkpt lat="42.9634175" lon="13.6957556"><ele>144.66666666666666</ele><time>2026-04-12T07:58:54.068Z</time></trkpt><trkpt lat="42.9633628" lon="13.6955315"><ele>145.33333333333331</ele><time>2026-04-12T07:58:55.064Z</time></trkpt><trkpt lat="42.9633107" lon="13.6953081"><ele>146.0</ele><time>2026-04-12T07:58:56.069Z</time></trkpt><trkpt lat="42.9632608" lon="13.6950856"><ele>146.0</ele><time>2026-04-12T07:58:57.066Z</time></trkpt><trkpt lat="42.9632137" lon="13.6948626"><ele>146.0</ele><time>2026-04-12T07:58:58.072Z</time></trkpt><trkpt lat="42.9631687" lon="13.6946431"><ele>146.0</ele><time>2026-04-12T07:58:59.061Z</time></trkpt><trkpt lat="42.9631249" lon="13.694424"><ele>146.0</ele><time>2026-04-12T07:59:00.067Z</time></trkpt><trkpt lat="42.9630862" lon="13.6942055"><ele>146.0</ele><time>2026-04-12T07:59:01.068Z</time></trkpt><trkpt lat="42.9630524" lon="13.693987"><ele>146.0</ele><time>2026-04-12T07:59:02.066Z</time></trkpt><trkpt lat="42.9630217" lon="13.6937665"><ele>146.66666666666666</ele><time>2026-04-12T07:59:03.101Z</time></trkpt><trkpt lat="42.9629939" lon="13.6935504"><ele>147.33333333333334</ele><time>2026-04-12T07:59:04.067Z</time></trkpt><trkpt lat="42.962967" lon="13.6933291"><ele>148.0</ele><time>2026-04-12T07:59:05.064Z</time></trkpt><trkpt lat="42.9629403" lon="13.6931086"><ele>148.0</ele><time>2026-04-12T07:59:06.065Z</time></trkpt><trkpt lat="42.9629138" lon="13.692888"><ele>148.0</ele><time>2026-04-12T07:59:07.06Z</time></trkpt><trkpt lat="42.9628611" lon="13.6924456"><ele>148.33333333333334</ele><time>2026-04-12T07:59:09.071Z</time></trkpt><trkpt lat="42.9628354" lon="13.6922217"><ele>148.66666666666666</ele><time>2026-04-12T07:59:10.069Z</time></trkpt><trkpt lat="42.9628078" lon="13.6919937"><ele>149.0</ele><time>2026-04-12T07:59:11.067Z</time></trkpt><trkpt lat="42.9627797" lon="13.6917648"><ele>149.0</ele><time>2026-04-12T07:59:12.065Z</time></trkpt><trkpt lat="42.9627523" lon="13.6915383"><ele>149.0</ele><time>2026-04-12T07:59:13.062Z</time></trkpt><trkpt lat="42.9627251" lon="13.6913104"><ele>149.0</ele><time>2026-04-12T07:59:14.073Z</time></trkpt><trkpt lat="42.9626975" lon="13.6910852"><ele>149.0</ele><time>2026-04-12T07:59:15.064Z</time></trkpt><trkpt lat="42.9626691" lon="13.690857"><ele>149.0</ele><time>2026-04-12T07:59:16.095Z</time></trkpt><trkpt lat="42.9626412" lon="13.6906338"><ele>149.0</ele><time>2026-04-12T07:59:17.06Z</time></trkpt><trkpt lat="42.9626117" lon="13.690404"><ele>149.0</ele><time>2026-04-12T07:59:18.064Z</time></trkpt><trkpt lat="42.9625818" lon="13.6901724"><ele>149.0</ele><time>2026-04-12T07:59:19.094Z</time></trkpt><trkpt lat="42.9625523" lon="13.6899477"><ele>149.0</ele><time>2026-04-12T07:59:20.063Z</time></trkpt><trkpt lat="42.9625285" lon="13.6897202"><ele>150.0</ele><time>2026-04-12T07:59:21.068Z</time></trkpt><trkpt lat="42.9625171" lon="13.6895021"><ele>151.0</ele><time>2026-04-12T07:59:22.06Z</time></trkpt><trkpt lat="42.9625113" lon="13.6892902"><ele>152.0</ele><time>2026-04-12T07:59:23.064Z</time></trkpt><trkpt lat="42.9625022" lon="13.6890756"><ele>152.33333333333331</ele><time>2026-04-12T07:59:24.101Z</time></trkpt><trkpt lat="42.9624878" lon="13.6888638"><ele>152.66666666666666</ele><time>2026-04-12T07:59:25.062Z</time></trkpt><trkpt lat="42.9624671" lon="13.688643"><ele>153.0</ele><time>2026-04-12T07:59:26.061Z</time></trkpt><trkpt lat="42.9624405" lon="13.6884183"><ele>152.5</ele><time>2026-04-12T07:59:27.096Z</time></trkpt><trkpt lat="42.9624096" lon="13.6881988"><ele>152.0</ele><time>2026-04-12T07:59:28.07Z</time></trkpt><trkpt lat="42.9623353" lon="13.6877469"><ele>152.0</ele><time>2026-04-12T07:59:30.066Z</time></trkpt><trkpt lat="42.9622964" lon="13.6875212"><ele>152.0</ele><time>2026-04-12T07:59:31.065Z</time></trkpt><trkpt lat="42.9622583" lon="13.6872925"><ele>152.0</ele><time>2026-04-12T07:59:32.06Z</time></trkpt><trkpt lat="42.9622204" lon="13.6870616"><ele>152.33333333333331</ele><time>2026-04-12T07:59:33.063Z</time></trkpt><trkpt lat="42.9621861" lon="13.6868309"><ele>152.66666666666666</ele><time>2026-04-12T07:59:34.061Z</time></trkpt><trkpt lat="42.9621544" lon="13.6865966"><ele>153.0</ele><time>2026-04-12T07:59:35.064Z</time></trkpt><trkpt lat="42.9621249" lon="13.6863624"><ele>153.0</ele><time>2026-04-12T07:59:36.063Z</time></trkpt><trkpt lat="42.9620987" lon="13.6861245"><ele>153.0</ele><time>2026-04-12T07:59:37.097Z</time></trkpt><trkpt lat="42.9620758" lon="13.6858923"><ele>153.0</ele><time>2026-04-12T07:59:38.068Z</time></trkpt><trkpt lat="42.9620592" lon="13.6856569"><ele>153.33333333333334</ele><time>2026-04-12T07:59:39.07Z</time></trkpt><trkpt lat="42.9620494" lon="13.6854246"><ele>153.66666666666669</ele><time>2026-04-12T07:59:40.066Z</time></trkpt><trkpt lat="42.9620464" lon="13.68519"><ele>154.0</ele><time>2026-04-12T07:59:41.063Z</time></trkpt><trkpt lat="42.9620486" lon="13.6849551"><ele>155.0</ele><time>2026-04-12T07:59:42.06Z</time></trkpt><trkpt lat="42.9620534" lon="13.6847241"><ele>156.0</ele><time>2026-04-12T07:59:43.063Z</time></trkpt><trkpt lat="42.9620608" lon="13.6844959"><ele>157.0</ele><time>2026-04-12T07:59:44.067Z</time></trkpt><trkpt lat="42.9620652" lon="13.6842637"><ele>157.0</ele><time>2026-04-12T07:59:45.09Z</time></trkpt><trkpt lat="42.9620658" lon="13.684036"><ele>157.0</ele><time>2026-04-12T07:59:46.063Z</time></trkpt><trkpt lat="42.9620587" lon="13.6838045"><ele>157.0</ele><time>2026-04-12T07:59:47.07Z</time></trkpt><trkpt lat="42.9620455" lon="13.6835741"><ele>157.0</ele><time>2026-04-12T07:59:48.061Z</time></trkpt><trkpt lat="42.9620292" lon="13.6833405"><ele>157.0</ele><time>2026-04-12T07:59:49.064Z</time></trkpt><trkpt lat="42.9620029" lon="13.6828669"><ele>157.33333333333334</ele><time>2026-04-12T07:59:51.06Z</time></trkpt><trkpt lat="42.9619888" lon="13.6826282"><ele>157.66666666666666</ele><time>2026-04-12T07:59:52.069Z</time></trkpt><trkpt lat="42.9619735" lon="13.6823879"><ele>158.0</ele><time>2026-04-12T07:59:53.096Z</time></trkpt><trkpt lat="42.9619612" lon="13.6821518"><ele>159.0</ele><time>2026-04-12T07:59:54.064Z</time></trkpt><trkpt lat="42.9619511" lon="13.6819086"><ele>160.0</ele><time>2026-04-12T07:59:55.094Z</time></trkpt><trkpt lat="42.9619419" lon="13.6816751"><ele>161.0</ele><time>2026-04-12T07:59:56.065Z</time></trkpt><trkpt lat="42.9619344" lon="13.6814419"><ele>161.0</ele><time>2026-04-12T07:59:57.064Z</time></trkpt><trkpt lat="42.9619292" lon="13.6812092"><ele>161.0</ele><time>2026-04-12T07:59:58.094Z</time></trkpt><trkpt lat="42.9619278" lon="13.6809819"><ele>161.0</ele><time>2026-04-12T07:59:59.064Z</time></trkpt><trkpt lat="42.9619341" lon="13.6807495"><ele>161.66666666666666</ele><time>2026-04-12T08:00:00.065Z</time></trkpt><trkpt lat="42.9619519" lon="13.6805208"><ele>162.33333333333334</ele><time>2026-04-12T08:00:01.094Z</time></trkpt><trkpt lat="42.961981" lon="13.6803024"><ele>163.0</ele><time>2026-04-12T08:00:02.09Z</time></trkpt><trkpt lat="42.9620215" lon="13.6800554"><ele>163.0</ele><time>2026-04-12T08:00:03.591Z</time></trkpt><trkpt lat="42.9621005" lon="13.6796712"><ele>163.0</ele><time>2026-04-12T08:00:05.067Z</time></trkpt><trkpt lat="42.962143" lon="13.6794585"><ele>163.25</ele><time>2026-04-12T08:00:06.065Z</time></trkpt><trkpt lat="42.9621776" lon="13.6792594"><ele>163.5</ele><time>2026-04-12T08:00:07.06Z</time></trkpt><trkpt lat="42.9622046" lon="13.6790662"><ele>163.75</ele><time>2026-04-12T08:00:08.062Z</time></trkpt><trkpt lat="42.9622234" lon="13.6788762"><ele>164.0</ele><time>2026-04-12T08:00:09.067Z</time></trkpt><trkpt lat="42.9622258" lon="13.6786861"><ele>164.66666666666666</ele><time>2026-04-12T08:00:10.064Z</time></trkpt><trkpt lat="42.9621631" lon="13.6783109"><ele>165.33333333333334</ele><time>2026-04-12T08:00:12.063Z</time></trkpt><trkpt lat="42.9621024" lon="13.6781236"><ele>166.0</ele><time>2026-04-12T08:00:13.099Z</time></trkpt><trkpt lat="42.9620302" lon="13.6779379"><ele>166.0</ele><time>2026-04-12T08:00:14.064Z</time></trkpt><trkpt lat="42.9619432" lon="13.6777442"><ele>166.0</ele><time>2026-04-12T08:00:15.066Z</time></trkpt><trkpt lat="42.9618437" lon="13.6775474"><ele>166.0</ele><time>2026-04-12T08:00:16.066Z</time></trkpt><trkpt lat="42.9617389" lon="13.6773489"><ele>167.33333333333334</ele><time>2026-04-12T08:00:17.063Z</time></trkpt><trkpt lat="42.9616322" lon="13.6771513"><ele>168.66666666666666</ele><time>2026-04-12T08:00:18.063Z</time></trkpt><trkpt lat="42.96152" lon="13.676959"><ele>170.0</ele><time>2026-04-12T08:00:19.063Z</time></trkpt><trkpt lat="42.9613992" lon="13.6767753"><ele>170.0</ele><time>2026-04-12T08:00:20.063Z</time></trkpt><trkpt lat="42.9612712" lon="13.6766006"><ele>170.0</ele><time>2026-04-12T08:00:21.061Z</time></trkpt><trkpt lat="42.9611383" lon="13.6764389"><ele>170.0</ele><time>2026-04-12T08:00:22.067Z</time></trkpt><trkpt lat="42.9610098" lon="13.676297"><ele>170.0</ele><time>2026-04-12T08:00:23.063Z</time></trkpt><trkpt lat="42.9608924" lon="13.6761776"><ele>170.0</ele><time>2026-04-12T08:00:24.064Z</time></trkpt><trkpt lat="42.9607883" lon="13.6760783"><ele>170.0</ele><time>2026-04-12T08:00:25.093Z</time></trkpt><trkpt lat="42.9607109" lon="13.6760005"><ele>170.0</ele><time>2026-04-12T08:00:26.065Z</time></trkpt><trkpt lat="42.9606582" lon="13.6759377"><ele>170.0</ele><time>2026-04-12T08:00:27.059Z</time></trkpt><trkpt lat="42.9605896" lon="13.6758033"><ele>172.0</ele><time>2026-04-12T08:00:29.068Z</time></trkpt><trkpt lat="42.9605574" lon="13.6757029"><ele>174.0</ele><time>2026-04-12T08:00:30.064Z</time></trkpt><trkpt lat="42.9605202" lon="13.6755838"><ele>176.0</ele><time>2026-04-12T08:00:31.063Z</time></trkpt><trkpt lat="42.9604373" lon="13.6753375"><ele>178.0</ele><time>2026-04-12T08:00:33.063Z</time></trkpt><trkpt lat="42.9603966" lon="13.67522"><ele>178.0</ele><time>2026-04-12T08:00:34.067Z</time></trkpt><trkpt lat="42.9603607" lon="13.6751115"><ele>178.0</ele><time>2026-04-12T08:00:35.066Z</time></trkpt><trkpt lat="42.9603294" lon="13.6750163"><ele>178.0</ele><time>2026-04-12T08:00:36.061Z</time></trkpt><trkpt lat="42.9603009" lon="13.6749284"><ele>178.0</ele><time>2026-04-12T08:00:37.094Z</time></trkpt><trkpt lat="42.9602499" lon="13.6747765"><ele>178.0</ele><time>2026-04-12T08:00:39.062Z</time></trkpt><trkpt lat="42.9602291" lon="13.6746895"><ele>178.0</ele><time>2026-04-12T08:00:40.068Z</time></trkpt><trkpt lat="42.9602227" lon="13.6745792"><ele>178.0</ele><time>2026-04-12T08:00:41.07Z</time></trkpt><trkpt lat="42.9602293" lon="13.6744415"><ele>178.0</ele><time>2026-04-12T08:00:42.061Z</time></trkpt><trkpt lat="42.9602425" lon="13.6742665"><ele>178.0</ele><time>2026-04-12T08:00:43.069Z</time></trkpt><trkpt lat="42.960253" lon="13.6740824"><ele>178.0</ele><time>2026-04-12T08:00:44.065Z</time></trkpt><trkpt lat="42.9602602" lon="13.6738947"><ele>179.5</ele><time>2026-04-12T08:00:45.063Z</time></trkpt><trkpt lat="42.9602621" lon="13.6737121"><ele>181.0</ele><time>2026-04-12T08:00:46.063Z</time></trkpt><trkpt lat="42.9602602" lon="13.6735444"><ele>182.5</ele><time>2026-04-12T08:00:47.098Z</time></trkpt><trkpt lat="42.9602537" lon="13.6733893"><ele>184.0</ele><time>2026-04-12T08:00:48.069Z</time></trkpt><trkpt lat="42.9602332" lon="13.6732372"><ele>184.5</ele><time>2026-04-12T08:00:49.089Z</time></trkpt><trkpt lat="42.9601906" lon="13.6730994"><ele>185.0</ele><time>2026-04-12T08:00:50.066Z</time></trkpt><trkpt lat="42.9601166" lon="13.6729714"><ele>185.5</ele><time>2026-04-12T08:00:51.064Z</time></trkpt><trkpt lat="42.9600062" lon="13.6728514"><ele>186.0</ele><time>2026-04-12T08:00:52.094Z</time></trkpt><trkpt lat="42.9597402" lon="13.6726479"><ele>183.33333333333334</ele><time>2026-04-12T08:00:54.069Z</time></trkpt><trkpt lat="42.9596275" lon="13.6725261"><ele>180.66666666666669</ele><time>2026-04-12T08:00:55.064Z</time></trkpt><trkpt lat="42.9595299" lon="13.6723739"><ele>178.0</ele><time>2026-04-12T08:00:56.066Z</time></trkpt><trkpt lat="42.9594393" lon="13.6721875"><ele>178.0</ele><time>2026-04-12T08:00:57.061Z</time></trkpt><trkpt lat="42.9593579" lon="13.671976"><ele>178.0</ele><time>2026-04-12T08:00:58.064Z</time></trkpt><trkpt lat="42.9592912" lon="13.6717665"><ele>178.0</ele><time>2026-04-12T08:00:59.061Z</time></trkpt><trkpt lat="42.9592259" lon="13.6715813"><ele>178.33333333333334</ele><time>2026-04-12T08:01:00.063Z</time></trkpt><trkpt lat="42.9591401" lon="13.6714136"><ele>178.66666666666666</ele><time>2026-04-12T08:01:01.077Z</time></trkpt><trkpt lat="42.9590327" lon="13.6712564"><ele>179.0</ele><time>2026-04-12T08:01:02.066Z</time></trkpt><trkpt lat="42.9589191" lon="13.6711069"><ele>178.25</ele><time>2026-04-12T08:01:03.066Z</time></trkpt><trkpt lat="42.9588073" lon="13.6709723"><ele>177.5</ele><time>2026-04-12T08:01:04.063Z</time></trkpt><trkpt lat="42.9586937" lon="13.6708623"><ele>176.75</ele><time>2026-04-12T08:01:05.067Z</time></trkpt><trkpt lat="42.9585735" lon="13.6707828"><ele>176.0</ele><time>2026-04-12T08:01:06.062Z</time></trkpt><trkpt lat="42.9584428" lon="13.6707442"><ele>176.5</ele><time>2026-04-12T08:01:07.062Z</time></trkpt><trkpt lat="42.9583058" lon="13.6707459"><ele>177.0</ele><time>2026-04-12T08:01:08.06Z</time></trkpt><trkpt lat="42.9581675" lon="13.6707775"><ele>177.5</ele><time>2026-04-12T08:01:09.065Z</time></trkpt><trkpt lat="42.9580322" lon="13.6707987"><ele>178.0</ele><time>2026-04-12T08:01:10.068Z</time></trkpt><trkpt lat="42.9579064" lon="13.6707906"><ele>178.0</ele><time>2026-04-12T08:01:11.06Z</time></trkpt><trkpt lat="42.9578034" lon="13.6707416"><ele>178.0</ele><time>2026-04-12T08:01:12.068Z</time></trkpt><trkpt lat="42.9577258" lon="13.670659"><ele>178.0</ele><time>2026-04-12T08:01:13.062Z</time></trkpt><trkpt lat="42.9576284" lon="13.6704409"><ele>178.0</ele><time>2026-04-12T08:01:15.059Z</time></trkpt><trkpt lat="42.9576127" lon="13.6702882"><ele>178.66666666666669</ele><time>2026-04-12T08:01:16.064Z</time></trkpt><trkpt lat="42.9575911" lon="13.6701009"><ele>179.33333333333334</ele><time>2026-04-12T08:01:17.066Z</time></trkpt><trkpt lat="42.9575494" lon="13.6698935"><ele>180.0</ele><time>2026-04-12T08:01:18.066Z</time></trkpt><trkpt lat="42.9574945" lon="13.6696555"><ele>180.33333333333334</ele><time>2026-04-12T08:01:19.067Z</time></trkpt><trkpt lat="42.9574463" lon="13.6694062"><ele>180.66666666666669</ele><time>2026-04-12T08:01:20.068Z</time></trkpt><trkpt lat="42.9574147" lon="13.6691859"><ele>181.0</ele><time>2026-04-12T08:01:21.062Z</time></trkpt><trkpt lat="42.9574021" lon="13.669001"><ele>181.0</ele><time>2026-04-12T08:01:22.059Z</time></trkpt><trkpt lat="42.9574194" lon="13.6688308"><ele>181.0</ele><time>2026-04-12T08:01:23.059Z</time></trkpt><trkpt lat="42.9574626" lon="13.6686515"><ele>181.0</ele><time>2026-04-12T08:01:24.065Z</time></trkpt><trkpt lat="42.9575037" lon="13.6684711"><ele>181.0</ele><time>2026-04-12T08:01:25.066Z</time></trkpt><trkpt lat="42.9575281" lon="13.6682882"><ele>181.33333333333334</ele><time>2026-04-12T08:01:26.065Z</time></trkpt><trkpt lat="42.9575265" lon="13.6680956"><ele>181.66666666666666</ele><time>2026-04-12T08:01:27.068Z</time></trkpt><trkpt lat="42.9575007" lon="13.6678881"><ele>182.0</ele><time>2026-04-12T08:01:28.065Z</time></trkpt><trkpt lat="42.9574592" lon="13.667666"><ele>182.66666666666666</ele><time>2026-04-12T08:01:29.095Z</time></trkpt><trkpt lat="42.9574149" lon="13.6674399"><ele>183.33333333333334</ele><time>2026-04-12T08:01:30.096Z</time></trkpt><trkpt lat="42.9573776" lon="13.6672119"><ele>184.0</ele><time>2026-04-12T08:01:31.093Z</time></trkpt><trkpt lat="42.9573497" lon="13.666986"><ele>184.0</ele><time>2026-04-12T08:01:32.067Z</time></trkpt><trkpt lat="42.9573344" lon="13.6667656"><ele>184.0</ele><time>2026-04-12T08:01:33.061Z</time></trkpt><trkpt lat="42.9573313" lon="13.6665614"><ele>184.0</ele><time>2026-04-12T08:01:34.068Z</time></trkpt><trkpt lat="42.9573058" lon="13.66619"><ele>185.66666666666669</ele><time>2026-04-12T08:01:36.07Z</time></trkpt><trkpt lat="42.9572551" lon="13.6660013"><ele>187.33333333333334</ele><time>2026-04-12T08:01:37.065Z</time></trkpt><trkpt lat="42.9571738" lon="13.6658039"><ele>189.0</ele><time>2026-04-12T08:01:38.059Z</time></trkpt><trkpt lat="42.9570706" lon="13.665607"><ele>189.0</ele><time>2026-04-12T08:01:39.094Z</time></trkpt><trkpt lat="42.9569589" lon="13.6654278"><ele>189.0</ele><time>2026-04-12T08:01:40.061Z</time></trkpt><trkpt lat="42.9568271" lon="13.6652705"><ele>189.0</ele><time>2026-04-12T08:01:41.06Z</time></trkpt><trkpt lat="42.9566761" lon="13.6651354"><ele>188.25</ele><time>2026-04-12T08:01:42.063Z</time></trkpt><trkpt lat="42.9565266" lon="13.6650214"><ele>187.5</ele><time>2026-04-12T08:01:43.065Z</time></trkpt><trkpt lat="42.9563963" lon="13.6649232"><ele>186.75</ele><time>2026-04-12T08:01:44.065Z</time></trkpt><trkpt lat="42.9562933" lon="13.6648204"><ele>186.0</ele><time>2026-04-12T08:01:45.072Z</time></trkpt><trkpt lat="42.9562209" lon="13.6647095"><ele>186.0</ele><time>2026-04-12T08:01:46.07Z</time></trkpt><trkpt lat="42.9561784" lon="13.6645927"><ele>186.0</ele><time>2026-04-12T08:01:47.066Z</time></trkpt><trkpt lat="42.9561606" lon="13.6644698"><ele>186.0</ele><time>2026-04-12T08:01:48.064Z</time></trkpt><trkpt lat="42.9561569" lon="13.6643548"><ele>186.0</ele><time>2026-04-12T08:01:49.064Z</time></trkpt><trkpt lat="42.9561503" lon="13.6642494"><ele>186.0</ele><time>2026-04-12T08:01:50.064Z</time></trkpt><trkpt lat="42.9561377" lon="13.6641418"><ele>186.0</ele><time>2026-04-12T08:01:51.07Z</time></trkpt><trkpt lat="42.956123" lon="13.6640309"><ele>186.8</ele><time>2026-04-12T08:01:52.06Z</time></trkpt><trkpt lat="42.9561074" lon="13.6639188"><ele>187.60000000000002</ele><time>2026-04-12T08:01:53.1Z</time></trkpt><trkpt lat="42.9560918" lon="13.663808"><ele>188.4</ele><time>2026-04-12T08:01:54.07Z</time></trkpt><trkpt lat="42.9560755" lon="13.6636984"><ele>189.2</ele><time>2026-04-12T08:01:55.068Z</time></trkpt><trkpt lat="42.9560271" lon="13.66349"><ele>190.0</ele><time>2026-04-12T08:01:57.064Z</time></trkpt><trkpt lat="42.9559917" lon="13.663378"><ele>190.33333333333334</ele><time>2026-04-12T08:01:58.063Z</time></trkpt><trkpt lat="42.9559551" lon="13.6632788"><ele>190.66666666666669</ele><time>2026-04-12T08:01:59.064Z</time></trkpt><trkpt lat="42.9559223" lon="13.6631929"><ele>191.0</ele><time>2026-04-12T08:02:00.067Z</time></trkpt><trkpt lat="42.9559284" lon="13.6630413"><ele>191.33333333333334</ele><time>2026-04-12T08:02:02.061Z</time></trkpt><trkpt lat="42.9559708" lon="13.6629656"><ele>191.66666666666666</ele><time>2026-04-12T08:02:03.059Z</time></trkpt><trkpt lat="42.9560217" lon="13.6628844"><ele>192.0</ele><time>2026-04-12T08:02:04.117Z</time></trkpt><trkpt lat="42.9560591" lon="13.6627905"><ele>192.0</ele><time>2026-04-12T08:02:05.066Z</time></trkpt><trkpt lat="42.9560613" lon="13.6626768"><ele>192.0</ele><time>2026-04-12T08:02:06.066Z</time></trkpt><trkpt lat="42.956026" lon="13.662552"><ele>192.0</ele><time>2026-04-12T08:02:07.07Z</time></trkpt><trkpt lat="42.9559586" lon="13.6624312"><ele>192.0</ele><time>2026-04-12T08:02:08.1Z</time></trkpt><trkpt lat="42.9558555" lon="13.6623182"><ele>192.0</ele><time>2026-04-12T08:02:09.099Z</time></trkpt><trkpt lat="42.955736" lon="13.662203"><ele>191.5</ele><time>2026-04-12T08:02:10.092Z</time></trkpt><trkpt lat="42.9556195" lon="13.662078"><ele>191.0</ele><time>2026-04-12T08:02:11.093Z</time></trkpt><trkpt lat="42.9555028" lon="13.6619592"><ele>190.5</ele><time>2026-04-12T08:02:12.066Z</time></trkpt><trkpt lat="42.9553725" lon="13.6618552"><ele>190.0</ele><time>2026-04-12T08:02:13.062Z</time></trkpt><trkpt lat="42.9552271" lon="13.661766"><ele>191.33333333333334</ele><time>2026-04-12T08:02:14.064Z</time></trkpt><trkpt lat="42.9550896" lon="13.661668"><ele>192.66666666666669</ele><time>2026-04-12T08:02:15.06Z</time></trkpt><trkpt lat="42.9549607" lon="13.6615418"><ele>194.0</ele><time>2026-04-12T08:02:16.066Z</time></trkpt><trkpt lat="42.9547138" lon="13.6611874"><ele>196.0</ele><time>2026-04-12T08:02:18.063Z</time></trkpt><trkpt lat="42.9545794" lon="13.6609634"><ele>198.0</ele><time>2026-04-12T08:02:19.092Z</time></trkpt><trkpt lat="42.9544382" lon="13.6607199"><ele>200.0</ele><time>2026-04-12T08:02:20.091Z</time></trkpt><trkpt lat="42.9542965" lon="13.660482"><ele>202.66666666666669</ele><time>2026-04-12T08:02:21.065Z</time></trkpt><trkpt lat="42.9541614" lon="13.6602632"><ele>205.33333333333331</ele><time>2026-04-12T08:02:22.064Z</time></trkpt><trkpt lat="42.9540446" lon="13.6600777"><ele>208.0</ele><time>2026-04-12T08:02:23.066Z</time></trkpt><trkpt lat="42.9539382" lon="13.6599263"><ele>208.0</ele><time>2026-04-12T08:02:24.066Z</time></trkpt><trkpt lat="42.9538304" lon="13.6598051"><ele>208.0</ele><time>2026-04-12T08:02:25.06Z</time></trkpt><trkpt lat="42.9537039" lon="13.6597021"><ele>208.0</ele><time>2026-04-12T08:02:26.065Z</time></trkpt><trkpt lat="42.9535505" lon="13.6596103"><ele>208.0</ele><time>2026-04-12T08:02:27.062Z</time></trkpt><trkpt lat="42.9533734" lon="13.6595157"><ele>208.0</ele><time>2026-04-12T08:02:28.071Z</time></trkpt><trkpt lat="42.9531925" lon="13.659414"><ele>208.0</ele><time>2026-04-12T08:02:29.06Z</time></trkpt><trkpt lat="42.9530283" lon="13.6593143"><ele>210.0</ele><time>2026-04-12T08:02:30.067Z</time></trkpt><trkpt lat="42.9528859" lon="13.6592243"><ele>212.0</ele><time>2026-04-12T08:02:31.065Z</time></trkpt><trkpt lat="42.9527617" lon="13.6591455"><ele>214.0</ele><time>2026-04-12T08:02:32.068Z</time></trkpt><trkpt lat="42.9526515" lon="13.6590755"><ele>216.0</ele><time>2026-04-12T08:02:33.062Z</time></trkpt><trkpt lat="42.9525484" lon="13.6590126"><ele>219.0</ele><time>2026-04-12T08:02:34.073Z</time></trkpt><trkpt lat="42.9524502" lon="13.6589509"><ele>222.0</ele><time>2026-04-12T08:02:35.064Z</time></trkpt><trkpt lat="42.952356" lon="13.6588938"><ele>225.0</ele><time>2026-04-12T08:02:36.066Z</time></trkpt><trkpt lat="42.9522653" lon="13.6588451"><ele>228.0</ele><time>2026-04-12T08:02:37.06Z</time></trkpt><trkpt lat="42.9520923" lon="13.6587657"><ele>228.0</ele><time>2026-04-12T08:02:39.062Z</time></trkpt><trkpt lat="42.952005" lon="13.6587368"><ele>228.0</ele><time>2026-04-12T08:02:40.074Z</time></trkpt><trkpt lat="42.9519161" lon="13.658714"><ele>228.0</ele><time>2026-04-12T08:02:41.091Z</time></trkpt><trkpt lat="42.9518269" lon="13.6586948"><ele>228.0</ele><time>2026-04-12T08:02:42.067Z</time></trkpt><trkpt lat="42.9517335" lon="13.658671"><ele>228.0</ele><time>2026-04-12T08:02:43.066Z</time></trkpt><trkpt lat="42.951636" lon="13.6586418"><ele>228.0</ele><time>2026-04-12T08:02:44.065Z</time></trkpt><trkpt lat="42.9515323" lon="13.65861"><ele>228.0</ele><time>2026-04-12T08:02:45.064Z</time></trkpt><trkpt lat="42.9514173" lon="13.6585735"><ele>228.0</ele><time>2026-04-12T08:02:46.076Z</time></trkpt><trkpt lat="42.9512898" lon="13.6585311"><ele>228.0</ele><time>2026-04-12T08:02:47.061Z</time></trkpt><trkpt lat="42.9511468" lon="13.6584797"><ele>228.0</ele><time>2026-04-12T08:02:48.061Z</time></trkpt><trkpt lat="42.9509894" lon="13.6584167"><ele>228.0</ele><time>2026-04-12T08:02:49.097Z</time></trkpt><trkpt lat="42.9508268" lon="13.6583428"><ele>228.0</ele><time>2026-04-12T08:02:50.072Z</time></trkpt><trkpt lat="42.9506666" lon="13.6582645"><ele>229.0</ele><time>2026-04-12T08:02:51.063Z</time></trkpt><trkpt lat="42.950513" lon="13.658185"><ele>230.0</ele><time>2026-04-12T08:02:52.063Z</time></trkpt><trkpt lat="42.9503674" lon="13.658112"><ele>231.0</ele><time>2026-04-12T08:02:53.063Z</time></trkpt><trkpt lat="42.9502356" lon="13.6580463"><ele>231.0</ele><time>2026-04-12T08:02:54.065Z</time></trkpt><trkpt lat="42.9501193" lon="13.6579904"><ele>231.00000000000003</ele><time>2026-04-12T08:02:55.063Z</time></trkpt><trkpt lat="42.9500177" lon="13.6579448"><ele>231.00000000000003</ele><time>2026-04-12T08:02:56.064Z</time></trkpt><trkpt lat="42.9499261" lon="13.6579054"><ele>231.0</ele><time>2026-04-12T08:02:57.071Z</time></trkpt><trkpt lat="42.9498388" lon="13.6578622"><ele>231.0</ele><time>2026-04-12T08:02:58.068Z</time></trkpt><trkpt lat="42.9496641" lon="13.657775"><ele>231.60000000000002</ele><time>2026-04-12T08:03:00.074Z</time></trkpt><trkpt lat="42.9495753" lon="13.657734"><ele>232.20000000000002</ele><time>2026-04-12T08:03:01.065Z</time></trkpt><trkpt lat="42.9494866" lon="13.6576938"><ele>232.79999999999998</ele><time>2026-04-12T08:03:02.061Z</time></trkpt><trkpt lat="42.9493958" lon="13.6576493"><ele>233.39999999999998</ele><time>2026-04-12T08:03:03.076Z</time></trkpt><trkpt lat="42.9493032" lon="13.6575995"><ele>234.0</ele><time>2026-04-12T08:03:04.064Z</time></trkpt><trkpt lat="42.9492093" lon="13.6575337"><ele>237.0</ele><time>2026-04-12T08:03:05.065Z</time></trkpt><trkpt lat="42.9491168" lon="13.6574473"><ele>240.0</ele><time>2026-04-12T08:03:06.061Z</time></trkpt><trkpt lat="42.9490228" lon="13.6573357"><ele>243.0</ele><time>2026-04-12T08:03:07.065Z</time></trkpt><trkpt lat="42.948926" lon="13.6572014"><ele>246.0</ele><time>2026-04-12T08:03:08.063Z</time></trkpt><trkpt lat="42.9488202" lon="13.6570494"><ele>245.33333333333331</ele><time>2026-04-12T08:03:09.063Z</time></trkpt><trkpt lat="42.9487072" lon="13.6568809"><ele>244.66666666666666</ele><time>2026-04-12T08:03:10.071Z</time></trkpt><trkpt lat="42.948587" lon="13.6566995"><ele>244.0</ele><time>2026-04-12T08:03:11.066Z</time></trkpt><trkpt lat="42.9484579" lon="13.656507"><ele>245.0</ele><time>2026-04-12T08:03:12.066Z</time></trkpt><trkpt lat="42.9483242" lon="13.6563095"><ele>246.0</ele><time>2026-04-12T08:03:13.062Z</time></trkpt><trkpt lat="42.9481959" lon="13.6561167"><ele>247.0</ele><time>2026-04-12T08:03:14.068Z</time></trkpt><trkpt lat="42.9480753" lon="13.6559389"><ele>247.0</ele><time>2026-04-12T08:03:15.062Z</time></trkpt><trkpt lat="42.9479593" lon="13.6557842"><ele>247.0</ele><time>2026-04-12T08:03:16.067Z</time></trkpt><trkpt lat="42.9478401" lon="13.655656"><ele>247.0</ele><time>2026-04-12T08:03:17.093Z</time></trkpt><trkpt lat="42.9477048" lon="13.6555614"><ele>251.5</ele><time>2026-04-12T08:03:18.061Z</time></trkpt><trkpt lat="42.9475386" lon="13.6554963"><ele>256.0</ele><time>2026-04-12T08:03:19.059Z</time></trkpt><trkpt lat="42.9471775" lon="13.6554295"><ele>256.0</ele><time>2026-04-12T08:03:21.064Z</time></trkpt><trkpt lat="42.9470276" lon="13.655381"><ele>256.0</ele><time>2026-04-12T08:03:22.062Z</time></trkpt><trkpt lat="42.9468985" lon="13.6552941"><ele>256.0</ele><time>2026-04-12T08:03:23.06Z</time></trkpt><trkpt lat="42.9467704" lon="13.6551577"><ele>258.3333333333333</ele><time>2026-04-12T08:03:24.065Z</time></trkpt><trkpt lat="42.9466355" lon="13.6549882"><ele>260.6666666666667</ele><time>2026-04-12T08:03:25.065Z</time></trkpt><trkpt lat="42.9465115" lon="13.65483"><ele>263.0</ele><time>2026-04-12T08:03:26.061Z</time></trkpt><trkpt lat="42.9463992" lon="13.654699"><ele>263.0</ele><time>2026-04-12T08:03:27.095Z</time></trkpt><trkpt lat="42.9462963" lon="13.6545986"><ele>263.0</ele><time>2026-04-12T08:03:28.069Z</time></trkpt><trkpt lat="42.9461962" lon="13.6545313"><ele>263.0</ele><time>2026-04-12T08:03:29.068Z</time></trkpt><trkpt lat="42.9460929" lon="13.6545095"><ele>263.0</ele><time>2026-04-12T08:03:30.064Z</time></trkpt><trkpt lat="42.945975" lon="13.6545346"><ele>267.0</ele><time>2026-04-12T08:03:31.063Z</time></trkpt><trkpt lat="42.9458527" lon="13.6546121"><ele>271.0</ele><time>2026-04-12T08:03:32.065Z</time></trkpt><trkpt lat="42.945723" lon="13.6547332"><ele>275.0</ele><time>2026-04-12T08:03:33.07Z</time></trkpt><trkpt lat="42.9455769" lon="13.6548705"><ele>275.0</ele><time>2026-04-12T08:03:34.074Z</time></trkpt><trkpt lat="42.9454194" lon="13.6549927"><ele>275.0</ele><time>2026-04-12T08:03:35.065Z</time></trkpt><trkpt lat="42.9452669" lon="13.6551144"><ele>275.0</ele><time>2026-04-12T08:03:36.067Z</time></trkpt><trkpt lat="42.9451285" lon="13.6552277"><ele>279.0</ele><time>2026-04-12T08:03:37.066Z</time></trkpt><trkpt lat="42.9450005" lon="13.6553276"><ele>283.0</ele><time>2026-04-12T08:03:38.063Z</time></trkpt><trkpt lat="42.9448872" lon="13.6554122"><ele>287.0</ele><time>2026-04-12T08:03:39.072Z</time></trkpt><trkpt lat="42.9447898" lon="13.6554882"><ele>291.0</ele><time>2026-04-12T08:03:40.068Z</time></trkpt><trkpt lat="42.9445999" lon="13.6556523"><ele>291.0</ele><time>2026-04-12T08:03:42.062Z</time></trkpt><trkpt lat="42.9445027" lon="13.6557255"><ele>291.0</ele><time>2026-04-12T08:03:43.064Z</time></trkpt><trkpt lat="42.9444003" lon="13.6557917"><ele>291.0</ele><time>2026-04-12T08:03:44.064Z</time></trkpt><trkpt lat="42.9442901" lon="13.6558509"><ele>291.0</ele><time>2026-04-12T08:03:45.064Z</time></trkpt><trkpt lat="42.9441695" lon="13.6559035"><ele>289.25</ele><time>2026-04-12T08:03:46.076Z</time></trkpt><trkpt lat="42.9440383" lon="13.6559429"><ele>287.5</ele><time>2026-04-12T08:03:47.063Z</time></trkpt><trkpt lat="42.9438972" lon="13.65595"><ele>285.75</ele><time>2026-04-12T08:03:48.064Z</time></trkpt><trkpt lat="42.9437502" lon="13.6559112"><ele>284.0</ele><time>2026-04-12T08:03:49.069Z</time></trkpt><trkpt lat="42.9435951" lon="13.6558168"><ele>284.0</ele><time>2026-04-12T08:03:50.094Z</time></trkpt><trkpt lat="42.9434416" lon="13.6556842"><ele>284.0</ele><time>2026-04-12T08:03:51.065Z</time></trkpt><trkpt lat="42.9432998" lon="13.6555488"><ele>284.0</ele><time>2026-04-12T08:03:52.061Z</time></trkpt><trkpt lat="42.9431761" lon="13.6554216"><ele>284.0</ele><time>2026-04-12T08:03:53.064Z</time></trkpt><trkpt lat="42.9430802" lon="13.6552884"><ele>284.0</ele><time>2026-04-12T08:03:54.065Z</time></trkpt><trkpt lat="42.9430141" lon="13.6551452"><ele>284.0</ele><time>2026-04-12T08:03:55.061Z</time></trkpt><trkpt lat="42.9429817" lon="13.6549748"><ele>284.0</ele><time>2026-04-12T08:03:56.073Z</time></trkpt><trkpt lat="42.942972" lon="13.6547702"><ele>284.0</ele><time>2026-04-12T08:03:57.07Z</time></trkpt><trkpt lat="42.9429657" lon="13.6545323"><ele>284.0</ele><time>2026-04-12T08:03:58.107Z</time></trkpt><trkpt lat="42.9429591" lon="13.6542778"><ele>284.0</ele><time>2026-04-12T08:03:59.071Z</time></trkpt><trkpt lat="42.9429528" lon="13.6540246"><ele>285.0</ele><time>2026-04-12T08:04:00.065Z</time></trkpt><trkpt lat="42.942944" lon="13.6537974"><ele>286.0</ele><time>2026-04-12T08:04:01.063Z</time></trkpt><trkpt lat="42.9429182" lon="13.6534355"><ele>287.0</ele><time>2026-04-12T08:04:03.062Z</time></trkpt><trkpt lat="42.9428909" lon="13.6533127"><ele>287.7142857142857</ele><time>2026-04-12T08:04:04.066Z</time></trkpt><trkpt lat="42.9428463" lon="13.6532179"><ele>288.42857142857144</ele><time>2026-04-12T08:04:05.062Z</time></trkpt><trkpt lat="42.942786" lon="13.6531646"><ele>289.1428571428571</ele><time>2026-04-12T08:04:06.058Z</time></trkpt><trkpt lat="42.9427226" lon="13.6531475"><ele>289.8571428571429</ele><time>2026-04-12T08:04:07.057Z</time></trkpt><trkpt lat="42.9426411" lon="13.6531495"><ele>290.57142857142856</ele><time>2026-04-12T08:04:09.069Z</time></trkpt><trkpt lat="42.9426059" lon="13.6530601"><ele>291.2857142857143</ele><time>2026-04-12T08:04:13.066Z</time></trkpt><trkpt lat="42.9425545" lon="13.6529951"><ele>292.0</ele><time>2026-04-12T08:04:15.062Z</time></trkpt><trkpt lat="42.9424431" lon="13.6528696"><ele>293.75</ele><time>2026-04-12T08:04:17.06Z</time></trkpt><trkpt lat="42.9423684" lon="13.6527816"><ele>295.5</ele><time>2026-04-12T08:04:18.062Z</time></trkpt><trkpt lat="42.9422873" lon="13.6526813"><ele>297.25</ele><time>2026-04-12T08:04:19.094Z</time></trkpt><trkpt lat="42.9421994" lon="13.6525741"><ele>299.0</ele><time>2026-04-12T08:04:20.062Z</time></trkpt><trkpt lat="42.9421066" lon="13.6524614"><ele>299.0</ele><time>2026-04-12T08:04:21.064Z</time></trkpt><trkpt lat="42.942012" lon="13.6523508"><ele>299.0</ele><time>2026-04-12T08:04:22.066Z</time></trkpt><trkpt lat="42.9418211" lon="13.65216"><ele>299.0</ele><time>2026-04-12T08:04:24.099Z</time></trkpt><trkpt lat="42.9417288" lon="13.6520694"><ele>301.2</ele><time>2026-04-12T08:04:25.065Z</time></trkpt><trkpt lat="42.9416468" lon="13.65198"><ele>303.4</ele><time>2026-04-12T08:04:26.069Z</time></trkpt><trkpt lat="42.9415835" lon="13.651893"><ele>305.6</ele><time>2026-04-12T08:04:27.064Z</time></trkpt><trkpt lat="42.9415366" lon="13.6518075"><ele>307.8</ele><time>2026-04-12T08:04:28.067Z</time></trkpt><trkpt lat="42.9414989" lon="13.6517298"><ele>310.0</ele><time>2026-04-12T08:04:29.094Z</time></trkpt><trkpt lat="42.9414445" lon="13.6515907"><ele>310.0</ele><time>2026-04-12T08:04:31.062Z</time></trkpt><trkpt lat="42.9413997" lon="13.6514588"><ele>310.0</ele><time>2026-04-12T08:04:33.062Z</time></trkpt><trkpt lat="42.9413964" lon="13.6512919"><ele>310.0</ele><time>2026-04-12T08:04:35.066Z</time></trkpt><trkpt lat="42.9414059" lon="13.6511847"><ele>310.0</ele><time>2026-04-12T08:04:36.064Z</time></trkpt><trkpt lat="42.9414141" lon="13.6510771"><ele>310.0</ele><time>2026-04-12T08:04:37.094Z</time></trkpt><trkpt lat="42.9414171" lon="13.6509842"><ele>309.5</ele><time>2026-04-12T08:04:38.068Z</time></trkpt><trkpt lat="42.9413918" lon="13.6508591"><ele>309.0</ele><time>2026-04-12T08:04:40.066Z</time></trkpt><trkpt lat="42.9413216" lon="13.6508364"><ele>308.5</ele><time>2026-04-12T08:04:42.069Z</time></trkpt><trkpt lat="42.9412198" lon="13.6508406"><ele>308.0</ele><time>2026-04-12T08:04:44.064Z</time></trkpt><trkpt lat="42.9410173" lon="13.6507543"><ele>308.0</ele><time>2026-04-12T08:04:48.066Z</time></trkpt><trkpt lat="42.9409658" lon="13.6506308"><ele>308.0</ele><time>2026-04-12T08:04:50.066Z</time></trkpt><trkpt lat="42.9409499" lon="13.6505055"><ele>308.0</ele><time>2026-04-12T08:04:52.065Z</time></trkpt><trkpt lat="42.9409345" lon="13.6504134"><ele>308.0</ele><time>2026-04-12T08:04:54.071Z</time></trkpt><trkpt lat="42.9409081" lon="13.6503022"><ele>308.0</ele><time>2026-04-12T08:04:57.068Z</time></trkpt><trkpt lat="42.9409004" lon="13.6501559"><ele>306.6</ele><time>2026-04-12T08:05:00.065Z</time></trkpt><trkpt lat="42.9408912" lon="13.6500025"><ele>305.20000000000005</ele><time>2026-04-12T08:05:02.064Z</time></trkpt><trkpt lat="42.9408956" lon="13.6499121"><ele>303.8</ele><time>2026-04-12T08:05:03.095Z</time></trkpt><trkpt lat="42.9409066" lon="13.6498189"><ele>302.40000000000003</ele><time>2026-04-12T08:05:04.101Z</time></trkpt><trkpt lat="42.9409188" lon="13.6497286"><ele>301.0</ele><time>2026-04-12T08:05:05.093Z</time></trkpt><trkpt lat="42.9408979" lon="13.649458"><ele>304.40000000000003</ele><time>2026-04-12T08:05:09.062Z</time></trkpt><trkpt lat="42.9408634" lon="13.6493355"><ele>307.8</ele><time>2026-04-12T08:05:11.067Z</time></trkpt><trkpt lat="42.9408347" lon="13.6491825"><ele>311.20000000000005</ele><time>2026-04-12T08:05:13.067Z</time></trkpt><trkpt lat="42.9408209" lon="13.6490928"><ele>314.6</ele><time>2026-04-12T08:05:14.097Z</time></trkpt><trkpt lat="42.9407985" lon="13.6490119"><ele>318.0</ele><time>2026-04-12T08:05:15.063Z</time></trkpt><trkpt lat="42.9407119" lon="13.6488995"><ele>318.0</ele><time>2026-04-12T08:05:17.063Z</time></trkpt><trkpt lat="42.9406441" lon="13.64886"><ele>318.0</ele><time>2026-04-12T08:05:18.063Z</time></trkpt><trkpt lat="42.9405589" lon="13.6488227"><ele>318.0</ele><time>2026-04-12T08:05:19.068Z</time></trkpt><trkpt lat="42.9404722" lon="13.6487899"><ele>318.0</ele><time>2026-04-12T08:05:20.064Z</time></trkpt><trkpt lat="42.9403917" lon="13.6487564"><ele>318.0</ele><time>2026-04-12T08:05:21.066Z</time></trkpt><trkpt lat="42.9403181" lon="13.6487206"><ele>318.0</ele><time>2026-04-12T08:05:22.063Z</time></trkpt><trkpt lat="42.9402383" lon="13.6486779"><ele>318.0</ele><time>2026-04-12T08:05:23.064Z</time></trkpt><trkpt lat="42.9401529" lon="13.648635"><ele>318.0</ele><time>2026-04-12T08:05:24.068Z</time></trkpt><trkpt lat="42.9400658" lon="13.6485927"><ele>318.0</ele><time>2026-04-12T08:05:25.07Z</time></trkpt><trkpt lat="42.9399808" lon="13.6485529"><ele>318.0</ele><time>2026-04-12T08:05:26.063Z</time></trkpt><trkpt lat="42.939825" lon="13.6484761"><ele>318.0</ele><time>2026-04-12T08:05:28.063Z</time></trkpt><trkpt lat="42.9397422" lon="13.6484395"><ele>320.6666666666667</ele><time>2026-04-12T08:05:29.062Z</time></trkpt><trkpt lat="42.9396544" lon="13.6484037"><ele>323.3333333333333</ele><time>2026-04-12T08:05:30.066Z</time></trkpt><trkpt lat="42.9395708" lon="13.6483695"><ele>326.0</ele><time>2026-04-12T08:05:31.066Z</time></trkpt><trkpt lat="42.9394964" lon="13.648342"><ele>328.66666666666663</ele><time>2026-04-12T08:05:32.094Z</time></trkpt><trkpt lat="42.9394245" lon="13.6483221"><ele>331.3333333333333</ele><time>2026-04-12T08:05:33.069Z</time></trkpt><trkpt lat="42.9393501" lon="13.6483106"><ele>334.0</ele><time>2026-04-12T08:05:34.064Z</time></trkpt><trkpt lat="42.9392765" lon="13.6483055"><ele>337.5</ele><time>2026-04-12T08:05:35.097Z</time></trkpt><trkpt lat="42.9392055" lon="13.6482971"><ele>341.0</ele><time>2026-04-12T08:05:36.067Z</time></trkpt><trkpt lat="42.9391314" lon="13.6482816"><ele>344.5</ele><time>2026-04-12T08:05:37.068Z</time></trkpt><trkpt lat="42.9390472" lon="13.6482624"><ele>348.0</ele><time>2026-04-12T08:05:38.073Z</time></trkpt><trkpt lat="42.9389552" lon="13.648246"><ele>351.5</ele><time>2026-04-12T08:05:39.062Z</time></trkpt><trkpt lat="42.9388593" lon="13.648246"><ele>355.0</ele><time>2026-04-12T08:05:40.063Z</time></trkpt><trkpt lat="42.9387644" lon="13.6482677"><ele>355.0</ele><time>2026-04-12T08:05:41.064Z</time></trkpt><trkpt lat="42.9386609" lon="13.6483028"><ele>355.0</ele><time>2026-04-12T08:05:42.101Z</time></trkpt><trkpt lat="42.9385551" lon="13.6483387"><ele>355.0</ele><time>2026-04-12T08:05:43.065Z</time></trkpt><trkpt lat="42.9384544" lon="13.6483618"><ele>355.0</ele><time>2026-04-12T08:05:44.07Z</time></trkpt><trkpt lat="42.9383626" lon="13.6483649"><ele>355.0</ele><time>2026-04-12T08:05:45.069Z</time></trkpt><trkpt lat="42.9382726" lon="13.6483443"><ele>359.3333333333333</ele><time>2026-04-12T08:05:46.086Z</time></trkpt><trkpt lat="42.9381783" lon="13.6483033"><ele>363.6666666666667</ele><time>2026-04-12T08:05:47.073Z</time></trkpt><trkpt lat="42.9379681" lon="13.6481745"><ele>368.0</ele><time>2026-04-12T08:05:49.077Z</time></trkpt><trkpt lat="42.9378485" lon="13.6480946"><ele>368.0</ele><time>2026-04-12T08:05:50.094Z</time></trkpt><trkpt lat="42.9377221" lon="13.648009"><ele>368.0</ele><time>2026-04-12T08:05:51.064Z</time></trkpt><trkpt lat="42.9375881" lon="13.6479227"><ele>368.0</ele><time>2026-04-12T08:05:52.066Z</time></trkpt><trkpt lat="42.9374558" lon="13.6478477"><ele>368.0</ele><time>2026-04-12T08:05:53.064Z</time></trkpt><trkpt lat="42.9373277" lon="13.6477817"><ele>369.2</ele><time>2026-04-12T08:05:54.062Z</time></trkpt><trkpt lat="42.9372032" lon="13.6477291"><ele>370.4</ele><time>2026-04-12T08:05:55.066Z</time></trkpt><trkpt lat="42.9370855" lon="13.6476841"><ele>371.59999999999997</ele><time>2026-04-12T08:05:56.062Z</time></trkpt><trkpt lat="42.9369775" lon="13.6476542"><ele>372.79999999999995</ele><time>2026-04-12T08:05:57.062Z</time></trkpt><trkpt lat="42.9368925" lon="13.6476506"><ele>374.0</ele><time>2026-04-12T08:05:58.065Z</time></trkpt><trkpt lat="42.9368311" lon="13.6476817"><ele>374.0</ele><time>2026-04-12T08:05:59.064Z</time></trkpt><trkpt lat="42.9367813" lon="13.6477473"><ele>374.0</ele><time>2026-04-12T08:06:00.078Z</time></trkpt><trkpt lat="42.936733" lon="13.6478385"><ele>374.0</ele><time>2026-04-12T08:06:01.078Z</time></trkpt><trkpt lat="42.9366814" lon="13.6479477"><ele>374.0</ele><time>2026-04-12T08:06:02.065Z</time></trkpt><trkpt lat="42.9366204" lon="13.6480679"><ele>374.0</ele><time>2026-04-12T08:06:03.069Z</time></trkpt><trkpt lat="42.9365537" lon="13.6481923"><ele>378.2</ele><time>2026-04-12T08:06:04.064Z</time></trkpt><trkpt lat="42.936482" lon="13.6483165"><ele>382.4</ele><time>2026-04-12T08:06:05.068Z</time></trkpt><trkpt lat="42.9364087" lon="13.648435"><ele>386.6</ele><time>2026-04-12T08:06:06.063Z</time></trkpt><trkpt lat="42.9363334" lon="13.6485456"><ele>390.8</ele><time>2026-04-12T08:06:07.068Z</time></trkpt><trkpt lat="42.936257" lon="13.6486466"><ele>395.0</ele><time>2026-04-12T08:06:08.069Z</time></trkpt><trkpt lat="42.9361187" lon="13.6488125"><ele>394.99999999999994</ele><time>2026-04-12T08:06:10.094Z</time></trkpt><trkpt lat="42.9360644" lon="13.648857"><ele>395.0</ele><time>2026-04-12T08:06:11.065Z</time></trkpt><trkpt lat="42.9359814" lon="13.6488629"><ele>395.0</ele><time>2026-04-12T08:06:13.064Z</time></trkpt><trkpt lat="42.9359116" lon="13.6487813"><ele>395.0</ele><time>2026-04-12T08:06:15.07Z</time></trkpt><trkpt lat="42.935863" lon="13.6486515"><ele>394.99999999999994</ele><time>2026-04-12T08:06:17.07Z</time></trkpt><trkpt lat="42.9358463" lon="13.6485458"><ele>395.0</ele><time>2026-04-12T08:06:19.064Z</time></trkpt><trkpt lat="42.9358288" lon="13.6484227"><ele>398.4</ele><time>2026-04-12T08:06:25.069Z</time></trkpt><trkpt lat="42.9357829" lon="13.6483005"><ele>401.8</ele><time>2026-04-12T08:06:27.06Z</time></trkpt><trkpt lat="42.9356979" lon="13.6481855"><ele>405.20000000000005</ele><time>2026-04-12T08:06:29.064Z</time></trkpt><trkpt lat="42.9355737" lon="13.6480692"><ele>408.6</ele><time>2026-04-12T08:06:31.075Z</time></trkpt><trkpt lat="42.9355091" lon="13.6480317"><ele>412.0</ele><time>2026-04-12T08:06:32.092Z</time></trkpt><trkpt lat="42.9354437" lon="13.6480158"><ele>412.00000000000006</ele><time>2026-04-12T08:06:33.068Z</time></trkpt><trkpt lat="42.9353689" lon="13.6480254"><ele>412.0</ele><time>2026-04-12T08:06:34.069Z</time></trkpt><trkpt lat="42.9352932" lon="13.6480517"><ele>412.0</ele><time>2026-04-12T08:06:35.064Z</time></trkpt><trkpt lat="42.9352205" lon="13.6480901"><ele>412.0</ele><time>2026-04-12T08:06:36.095Z</time></trkpt><trkpt lat="42.9351501" lon="13.6481292"><ele>412.00000000000006</ele><time>2026-04-12T08:06:37.065Z</time></trkpt><trkpt lat="42.9350753" lon="13.648165"><ele>412.0</ele><time>2026-04-12T08:06:38.062Z</time></trkpt><trkpt lat="42.9349992" lon="13.6481964"><ele>415.20000000000005</ele><time>2026-04-12T08:06:39.067Z</time></trkpt><trkpt lat="42.9349257" lon="13.6482255"><ele>418.4</ele><time>2026-04-12T08:06:40.101Z</time></trkpt><trkpt lat="42.9348591" lon="13.6482482"><ele>421.59999999999997</ele><time>2026-04-12T08:06:41.07Z</time></trkpt><trkpt lat="42.9347477" lon="13.6482725"><ele>424.79999999999995</ele><time>2026-04-12T08:06:43.064Z</time></trkpt><trkpt lat="42.9346458" lon="13.6482394"><ele>428.0</ele><time>2026-04-12T08:06:45.068Z</time></trkpt><trkpt lat="42.9345726" lon="13.6481652"><ele>428.0</ele><time>2026-04-12T08:06:47.064Z</time></trkpt><trkpt lat="42.9345187" lon="13.6480793"><ele>427.99999999999994</ele><time>2026-04-12T08:06:49.061Z</time></trkpt><trkpt lat="42.9344891" lon="13.648003"><ele>427.99999999999994</ele><time>2026-04-12T08:06:50.062Z</time></trkpt><trkpt lat="42.9344446" lon="13.6477894"><ele>428.0</ele><time>2026-04-12T08:06:52.065Z</time></trkpt><trkpt lat="42.9344267" lon="13.6476529"><ele>428.0</ele><time>2026-04-12T08:06:53.073Z</time></trkpt><trkpt lat="42.9344035" lon="13.6475051"><ele>426.0</ele><time>2026-04-12T08:06:54.068Z</time></trkpt><trkpt lat="42.9343717" lon="13.6473514"><ele>424.0</ele><time>2026-04-12T08:06:55.07Z</time></trkpt><trkpt lat="42.9343376" lon="13.647194"><ele>422.0</ele><time>2026-04-12T08:06:56.064Z</time></trkpt><trkpt lat="42.9343042" lon="13.6470295"><ele>420.0</ele><time>2026-04-12T08:06:57.068Z</time></trkpt><trkpt lat="42.9342746" lon="13.6468629"><ele>419.75</ele><time>2026-04-12T08:06:58.066Z</time></trkpt><trkpt lat="42.9342489" lon="13.6466997"><ele>419.5</ele><time>2026-04-12T08:06:59.068Z</time></trkpt><trkpt lat="42.9342302" lon="13.6465435"><ele>419.25</ele><time>2026-04-12T08:07:00.067Z</time></trkpt><trkpt lat="42.9342147" lon="13.6463926"><ele>419.0</ele><time>2026-04-12T08:07:01.067Z</time></trkpt><trkpt lat="42.9342026" lon="13.6462428"><ele>423.4</ele><time>2026-04-12T08:07:02.064Z</time></trkpt><trkpt lat="42.9341932" lon="13.646103"><ele>427.79999999999995</ele><time>2026-04-12T08:07:03.065Z</time></trkpt><trkpt lat="42.9341858" lon="13.6459853"><ele>432.20000000000005</ele><time>2026-04-12T08:07:04.065Z</time></trkpt><trkpt lat="42.9341816" lon="13.6458839"><ele>436.6</ele><time>2026-04-12T08:07:05.066Z</time></trkpt><trkpt lat="42.9341767" lon="13.6457174"><ele>441.0</ele><time>2026-04-12T08:07:07.074Z</time></trkpt><trkpt lat="42.9341747" lon="13.6456187"><ele>441.0</ele><time>2026-04-12T08:07:08.065Z</time></trkpt><trkpt lat="42.934167" lon="13.6455027"><ele>441.0</ele><time>2026-04-12T08:07:09.062Z</time></trkpt><trkpt lat="42.9341488" lon="13.645364"><ele>441.0</ele><time>2026-04-12T08:07:10.07Z</time></trkpt><trkpt lat="42.9341245" lon="13.6452124"><ele>441.0</ele><time>2026-04-12T08:07:11.072Z</time></trkpt><trkpt lat="42.934064" lon="13.6448943"><ele>441.5</ele><time>2026-04-12T08:07:13.065Z</time></trkpt><trkpt lat="42.9340313" lon="13.6447352"><ele>442.0</ele><time>2026-04-12T08:07:14.063Z</time></trkpt><trkpt lat="42.9340036" lon="13.6445787"><ele>442.5</ele><time>2026-04-12T08:07:15.062Z</time></trkpt><trkpt lat="42.9339874" lon="13.6444259"><ele>443.0</ele><time>2026-04-12T08:07:16.066Z</time></trkpt><trkpt lat="42.933982" lon="13.6442784"><ele>443.79999999999995</ele><time>2026-04-12T08:07:17.062Z</time></trkpt><trkpt lat="42.9339959" lon="13.6441369"><ele>444.59999999999997</ele><time>2026-04-12T08:07:18.066Z</time></trkpt><trkpt lat="42.9340293" lon="13.6440097"><ele>445.40000000000003</ele><time>2026-04-12T08:07:19.064Z</time></trkpt><trkpt lat="42.9340797" lon="13.6438964"><ele>446.20000000000005</ele><time>2026-04-12T08:07:20.104Z</time></trkpt><trkpt lat="42.9341322" lon="13.6437877"><ele>447.0</ele><time>2026-04-12T08:07:21.066Z</time></trkpt><trkpt lat="42.9341877" lon="13.643672"><ele>445.6</ele><time>2026-04-12T08:07:22.064Z</time></trkpt><trkpt lat="42.9342418" lon="13.6435592"><ele>444.20000000000005</ele><time>2026-04-12T08:07:23.062Z</time></trkpt><trkpt lat="42.9342984" lon="13.6434479"><ele>442.8</ele><time>2026-04-12T08:07:24.1Z</time></trkpt><trkpt lat="42.9343502" lon="13.6433404"><ele>441.4</ele><time>2026-04-12T08:07:25.092Z</time></trkpt><trkpt lat="42.9343966" lon="13.6432324"><ele>440.0</ele><time>2026-04-12T08:07:26.064Z</time></trkpt><trkpt lat="42.9344401" lon="13.6431155"><ele>440.0</ele><time>2026-04-12T08:07:27.09Z</time></trkpt><trkpt lat="42.9344811" lon="13.64299"><ele>440.0</ele><time>2026-04-12T08:07:28.063Z</time></trkpt><trkpt lat="42.9345221" lon="13.6428527"><ele>440.0</ele><time>2026-04-12T08:07:29.064Z</time></trkpt><trkpt lat="42.9345617" lon="13.6427076"><ele>440.0</ele><time>2026-04-12T08:07:30.068Z</time></trkpt><trkpt lat="42.9346015" lon="13.6425545"><ele>440.0</ele><time>2026-04-12T08:07:31.081Z</time></trkpt><trkpt lat="42.9346392" lon="13.642403"><ele>443.0</ele><time>2026-04-12T08:07:32.066Z</time></trkpt><trkpt lat="42.9347106" lon="13.6421258"><ele>446.0</ele><time>2026-04-12T08:07:34.075Z</time></trkpt><trkpt lat="42.9347461" lon="13.6420028"><ele>449.0</ele><time>2026-04-12T08:07:35.067Z</time></trkpt><trkpt lat="42.9347821" lon="13.6418846"><ele>452.0</ele><time>2026-04-12T08:07:36.065Z</time></trkpt><trkpt lat="42.9348204" lon="13.6417692"><ele>451.20000000000005</ele><time>2026-04-12T08:07:37.096Z</time></trkpt><trkpt lat="42.9348638" lon="13.6416585"><ele>450.40000000000003</ele><time>2026-04-12T08:07:38.066Z</time></trkpt><trkpt lat="42.9349138" lon="13.6415475"><ele>449.59999999999997</ele><time>2026-04-12T08:07:39.074Z</time></trkpt><trkpt lat="42.9349686" lon="13.6414344"><ele>448.79999999999995</ele><time>2026-04-12T08:07:40.07Z</time></trkpt><trkpt lat="42.9350307" lon="13.6413195"><ele>448.0</ele><time>2026-04-12T08:07:41.063Z</time></trkpt><trkpt lat="42.9350963" lon="13.6412092"><ele>450.0</ele><time>2026-04-12T08:07:42.064Z</time></trkpt><trkpt lat="42.9351643" lon="13.641104"><ele>451.99999999999994</ele><time>2026-04-12T08:07:43.094Z</time></trkpt><trkpt lat="42.9352367" lon="13.6410027"><ele>453.99999999999994</ele><time>2026-04-12T08:07:44.064Z</time></trkpt><trkpt lat="42.9353137" lon="13.6408981"><ele>456.0</ele><time>2026-04-12T08:07:45.068Z</time></trkpt><trkpt lat="42.935394" lon="13.6407918"><ele>458.0</ele><time>2026-04-12T08:07:46.074Z</time></trkpt><trkpt lat="42.9354766" lon="13.6406849"><ele>458.0</ele><time>2026-04-12T08:07:47.065Z</time></trkpt><trkpt lat="42.9355607" lon="13.640583"><ele>457.99999999999994</ele><time>2026-04-12T08:07:48.064Z</time></trkpt><trkpt lat="42.935644" lon="13.6404885"><ele>457.99999999999994</ele><time>2026-04-12T08:07:49.069Z</time></trkpt><trkpt lat="42.9357308" lon="13.6403982"><ele>458.0</ele><time>2026-04-12T08:07:50.071Z</time></trkpt><trkpt lat="42.9358235" lon="13.6403197"><ele>458.0</ele><time>2026-04-12T08:07:51.097Z</time></trkpt><trkpt lat="42.9359222" lon="13.6402556"><ele>460.66666666666663</ele><time>2026-04-12T08:07:52.092Z</time></trkpt><trkpt lat="42.9360256" lon="13.6402013"><ele>463.33333333333337</ele><time>2026-04-12T08:07:53.06Z</time></trkpt><trkpt lat="42.9362445" lon="13.6401055"><ele>466.0</ele><time>2026-04-12T08:07:55.066Z</time></trkpt><trkpt lat="42.9363622" lon="13.6400583"><ele>466.0</ele><time>2026-04-12T08:07:56.098Z</time></trkpt><trkpt lat="42.9364842" lon="13.6400119"><ele>466.0</ele><time>2026-04-12T08:07:57.066Z</time></trkpt><trkpt lat="42.9366051" lon="13.6399674"><ele>466.0</ele><time>2026-04-12T08:07:58.065Z</time></trkpt><trkpt lat="42.9367193" lon="13.6399215"><ele>466.0</ele><time>2026-04-12T08:07:59.068Z</time></trkpt><trkpt lat="42.9368283" lon="13.6398699"><ele>464.25</ele><time>2026-04-12T08:08:00.066Z</time></trkpt><trkpt lat="42.9369412" lon="13.6398079"><ele>462.5</ele><time>2026-04-12T08:08:01.095Z</time></trkpt><trkpt lat="42.9370567" lon="13.6397401"><ele>460.75</ele><time>2026-04-12T08:08:02.065Z</time></trkpt><trkpt lat="42.9371747" lon="13.6396683"><ele>459.0</ele><time>2026-04-12T08:08:03.063Z</time></trkpt><trkpt lat="42.9372882" lon="13.6395941"><ele>459.0</ele><time>2026-04-12T08:08:04.063Z</time></trkpt><trkpt lat="42.9373976" lon="13.639521"><ele>459.0</ele><time>2026-04-12T08:08:05.064Z</time></trkpt><trkpt lat="42.9375044" lon="13.6394556"><ele>459.0</ele><time>2026-04-12T08:08:06.067Z</time></trkpt><trkpt lat="42.9376029" lon="13.6394009"><ele>459.0</ele><time>2026-04-12T08:08:07.061Z</time></trkpt><trkpt lat="42.9376912" lon="13.6393558"><ele>459.0</ele><time>2026-04-12T08:08:08.066Z</time></trkpt><trkpt lat="42.9377727" lon="13.639314"><ele>459.6</ele><time>2026-04-12T08:08:09.07Z</time></trkpt><trkpt lat="42.937859" lon="13.6392741"><ele>460.2</ele><time>2026-04-12T08:08:10.066Z</time></trkpt><trkpt lat="42.9379575" lon="13.6392318"><ele>460.80000000000007</ele><time>2026-04-12T08:08:11.069Z</time></trkpt><trkpt lat="42.9380718" lon="13.6391884"><ele>461.40000000000003</ele><time>2026-04-12T08:08:12.066Z</time></trkpt><trkpt lat="42.938199" lon="13.639146"><ele>462.0</ele><time>2026-04-12T08:08:13.065Z</time></trkpt><trkpt lat="42.9383356" lon="13.6391066"><ele>460.0</ele><time>2026-04-12T08:08:14.078Z</time></trkpt><trkpt lat="42.9386211" lon="13.6390413"><ele>458.0</ele><time>2026-04-12T08:08:16.072Z</time></trkpt><trkpt lat="42.9387619" lon="13.6390152"><ele>456.0</ele><time>2026-04-12T08:08:17.062Z</time></trkpt><trkpt lat="42.9388977" lon="13.638986"><ele>456.0</ele><time>2026-04-12T08:08:18.064Z</time></trkpt><trkpt lat="42.9390279" lon="13.6389538"><ele>456.0</ele><time>2026-04-12T08:08:19.064Z</time></trkpt><trkpt lat="42.9391559" lon="13.6389176"><ele>456.0</ele><time>2026-04-12T08:08:20.063Z</time></trkpt><trkpt lat="42.9392884" lon="13.638875"><ele>456.0</ele><time>2026-04-12T08:08:21.068Z</time></trkpt><trkpt lat="42.9394244" lon="13.6388301"><ele>456.5</ele><time>2026-04-12T08:08:22.078Z</time></trkpt><trkpt lat="42.9395576" lon="13.6387852"><ele>457.0</ele><time>2026-04-12T08:08:23.068Z</time></trkpt><trkpt lat="42.9396856" lon="13.6387408"><ele>457.5</ele><time>2026-04-12T08:08:24.062Z</time></trkpt><trkpt lat="42.9397961" lon="13.6386994"><ele>458.0</ele><time>2026-04-12T08:08:25.065Z</time></trkpt><trkpt lat="42.9398814" lon="13.6386806"><ele>457.99999999999994</ele><time>2026-04-12T08:08:26.065Z</time></trkpt><trkpt lat="42.9399553" lon="13.6386954"><ele>458.0</ele><time>2026-04-12T08:08:27.067Z</time></trkpt><trkpt lat="42.9400274" lon="13.6387486"><ele>458.0</ele><time>2026-04-12T08:08:28.06Z</time></trkpt><trkpt lat="42.9400987" lon="13.6388269"><ele>458.0</ele><time>2026-04-12T08:08:29.071Z</time></trkpt><trkpt lat="42.9401658" lon="13.6389259"><ele>457.99999999999994</ele><time>2026-04-12T08:08:30.066Z</time></trkpt><trkpt lat="42.9402271" lon="13.6390325"><ele>458.0</ele><time>2026-04-12T08:08:31.095Z</time></trkpt><trkpt lat="42.9402873" lon="13.6391367"><ele>456.4</ele><time>2026-04-12T08:08:32.093Z</time></trkpt><trkpt lat="42.9403459" lon="13.6392274"><ele>454.79999999999995</ele><time>2026-04-12T08:08:33.072Z</time></trkpt><trkpt lat="42.9404035" lon="13.6392901"><ele>453.2</ele><time>2026-04-12T08:08:34.067Z</time></trkpt><trkpt lat="42.9404667" lon="13.6393124"><ele>451.6</ele><time>2026-04-12T08:08:35.063Z</time></trkpt><trkpt lat="42.9405889" lon="13.6392047"><ele>450.0</ele><time>2026-04-12T08:08:37.071Z</time></trkpt><trkpt lat="42.9406243" lon="13.6390876"><ele>450.0</ele><time>2026-04-12T08:08:38.062Z</time></trkpt><trkpt lat="42.9406307" lon="13.6389226"><ele>450.0</ele><time>2026-04-12T08:08:39.072Z</time></trkpt><trkpt lat="42.9406161" lon="13.6387271"><ele>450.0</ele><time>2026-04-12T08:08:40.068Z</time></trkpt><trkpt lat="42.9405966" lon="13.6385215"><ele>450.0</ele><time>2026-04-12T08:08:41.064Z</time></trkpt><trkpt lat="42.9405801" lon="13.6382998"><ele>449.66666666666663</ele><time>2026-04-12T08:08:42.091Z</time></trkpt><trkpt lat="42.9405703" lon="13.6380838"><ele>449.3333333333333</ele><time>2026-04-12T08:08:43.064Z</time></trkpt><trkpt lat="42.9405587" lon="13.6378636"><ele>449.0</ele><time>2026-04-12T08:08:44.067Z</time></trkpt><trkpt lat="42.9405432" lon="13.6376387"><ele>449.0</ele><time>2026-04-12T08:08:45.068Z</time></trkpt><trkpt lat="42.940529" lon="13.6374216"><ele>449.0</ele><time>2026-04-12T08:08:46.074Z</time></trkpt><trkpt lat="42.9405204" lon="13.6372282"><ele>449.0</ele><time>2026-04-12T08:08:47.066Z</time></trkpt><trkpt lat="42.9405158" lon="13.6370588"><ele>449.0</ele><time>2026-04-12T08:08:48.097Z</time></trkpt><trkpt lat="42.9405114" lon="13.6369298"><ele>449.2</ele><time>2026-04-12T08:08:49.064Z</time></trkpt><trkpt lat="42.9405079" lon="13.6368099"><ele>449.4</ele><time>2026-04-12T08:08:51.067Z</time></trkpt><trkpt lat="42.9405529" lon="13.6367405"><ele>449.6</ele><time>2026-04-12T08:08:54.061Z</time></trkpt><trkpt lat="42.9405805" lon="13.6366475"><ele>449.8</ele><time>2026-04-12T08:08:57.06Z</time></trkpt><trkpt lat="42.9404907" lon="13.6363997"><ele>450.0</ele><time>2026-04-12T08:09:25.067Z</time></trkpt><trkpt lat="42.9404257" lon="13.6363217"><ele>450.0</ele><time>2026-04-12T08:09:26.071Z</time></trkpt><trkpt lat="42.9403488" lon="13.6362246"><ele>450.0</ele><time>2026-04-12T08:09:27.075Z</time></trkpt><trkpt lat="42.9402654" lon="13.6361026"><ele>450.0</ele><time>2026-04-12T08:09:28.062Z</time></trkpt><trkpt lat="42.9401785" lon="13.6359605"><ele>450.0</ele><time>2026-04-12T08:09:29.075Z</time></trkpt><trkpt lat="42.9400927" lon="13.635812"><ele>450.25</ele><time>2026-04-12T08:09:30.079Z</time></trkpt><trkpt lat="42.9400166" lon="13.6356534"><ele>450.5</ele><time>2026-04-12T08:09:31.099Z</time></trkpt><trkpt lat="42.9399524" lon="13.6354884"><ele>450.75</ele><time>2026-04-12T08:09:32.069Z</time></trkpt><trkpt lat="42.9399017" lon="13.6353131"><ele>451.0</ele><time>2026-04-12T08:09:33.064Z</time></trkpt><trkpt lat="42.9398541" lon="13.6351284"><ele>449.5</ele><time>2026-04-12T08:09:34.11Z</time></trkpt><trkpt lat="42.9398067" lon="13.6349419"><ele>448.0</ele><time>2026-04-12T08:09:35.071Z</time></trkpt><trkpt lat="42.9397543" lon="13.6347516"><ele>446.5</ele><time>2026-04-12T08:09:36.065Z</time></trkpt><trkpt lat="42.9396962" lon="13.6345592"><ele>445.0</ele><time>2026-04-12T08:09:37.071Z</time></trkpt><trkpt lat="42.939634" lon="13.6343612"><ele>445.0</ele><time>2026-04-12T08:09:38.065Z</time></trkpt><trkpt lat="42.939569" lon="13.634161"><ele>445.0</ele><time>2026-04-12T08:09:39.064Z</time></trkpt><trkpt lat="42.9395063" lon="13.6339674"><ele>445.0</ele><time>2026-04-12T08:09:40.075Z</time></trkpt><trkpt lat="42.9394494" lon="13.6337827"><ele>448.0</ele><time>2026-04-12T08:09:41.066Z</time></trkpt><trkpt lat="42.9393936" lon="13.6336037"><ele>451.0</ele><time>2026-04-12T08:09:42.072Z</time></trkpt><trkpt lat="42.9392339" lon="13.6331125"><ele>448.6</ele><time>2026-04-12T08:09:45.069Z</time></trkpt><trkpt lat="42.9391864" lon="13.6329596"><ele>446.20000000000005</ele><time>2026-04-12T08:09:46.068Z</time></trkpt><trkpt lat="42.9391458" lon="13.6328163"><ele>443.79999999999995</ele><time>2026-04-12T08:09:47.064Z</time></trkpt><trkpt lat="42.9391123" lon="13.6326871"><ele>441.4</ele><time>2026-04-12T08:09:48.071Z</time></trkpt><trkpt lat="42.9390802" lon="13.6325775"><ele>439.0</ele><time>2026-04-12T08:09:49.065Z</time></trkpt><trkpt lat="42.9390508" lon="13.6324864"><ele>438.79999999999995</ele><time>2026-04-12T08:09:50.065Z</time></trkpt><trkpt lat="42.939021" lon="13.6324082"><ele>438.59999999999997</ele><time>2026-04-12T08:09:51.073Z</time></trkpt><trkpt lat="42.9389696" lon="13.6322326"><ele>438.4</ele><time>2026-04-12T08:09:53.063Z</time></trkpt><trkpt lat="42.9389435" lon="13.6321128"><ele>438.2</ele><time>2026-04-12T08:09:54.065Z</time></trkpt><trkpt lat="42.9389137" lon="13.6319831"><ele>438.0</ele><time>2026-04-12T08:09:55.065Z</time></trkpt><trkpt lat="42.9388818" lon="13.6318511"><ele>438.0</ele><time>2026-04-12T08:09:56.065Z</time></trkpt><trkpt lat="42.9388533" lon="13.6317144"><ele>437.99999999999994</ele><time>2026-04-12T08:09:57.063Z</time></trkpt><trkpt lat="42.9388212" lon="13.631573"><ele>437.99999999999994</ele><time>2026-04-12T08:09:58.065Z</time></trkpt><trkpt lat="42.9387857" lon="13.6314243"><ele>438.0</ele><time>2026-04-12T08:09:59.07Z</time></trkpt><trkpt lat="42.9387476" lon="13.6312739"><ele>438.0</ele><time>2026-04-12T08:10:00.067Z</time></trkpt><trkpt lat="42.9387119" lon="13.6311293"><ele>437.5</ele><time>2026-04-12T08:10:01.067Z</time></trkpt><trkpt lat="42.9386789" lon="13.6309889"><ele>437.0</ele><time>2026-04-12T08:10:02.066Z</time></trkpt><trkpt lat="42.9386478" lon="13.6308469"><ele>436.5</ele><time>2026-04-12T08:10:03.095Z</time></trkpt><trkpt lat="42.9385974" lon="13.630575"><ele>436.0</ele><time>2026-04-12T08:10:05.061Z</time></trkpt><trkpt lat="42.9385797" lon="13.6304332"><ele>434.75</ele><time>2026-04-12T08:10:06.064Z</time></trkpt><trkpt lat="42.938564" lon="13.6302857"><ele>433.5</ele><time>2026-04-12T08:10:07.063Z</time></trkpt><trkpt lat="42.9385503" lon="13.6301349"><ele>432.25</ele><time>2026-04-12T08:10:08.064Z</time></trkpt><trkpt lat="42.9385351" lon="13.6299781"><ele>431.0</ele><time>2026-04-12T08:10:09.096Z</time></trkpt><trkpt lat="42.9385226" lon="13.6298217"><ele>431.0</ele><time>2026-04-12T08:10:10.065Z</time></trkpt><trkpt lat="42.9385162" lon="13.6296697"><ele>431.0</ele><time>2026-04-12T08:10:11.069Z</time></trkpt><trkpt lat="42.9385156" lon="13.6295337"><ele>431.0</ele><time>2026-04-12T08:10:12.07Z</time></trkpt><trkpt lat="42.9385188" lon="13.6294116"><ele>431.0</ele><time>2026-04-12T08:10:13.067Z</time></trkpt><trkpt lat="42.9385228" lon="13.629308"><ele>431.0</ele><time>2026-04-12T08:10:14.098Z</time></trkpt><trkpt lat="42.9385328" lon="13.6291631"><ele>429.20000000000005</ele><time>2026-04-12T08:10:16.072Z</time></trkpt><trkpt lat="42.9385626" lon="13.6290251"><ele>427.40000000000003</ele><time>2026-04-12T08:10:18.066Z</time></trkpt><trkpt lat="42.9386081" lon="13.6289409"><ele>425.6</ele><time>2026-04-12T08:10:19.063Z</time></trkpt><trkpt lat="42.9386781" lon="13.6288611"><ele>423.8</ele><time>2026-04-12T08:10:20.064Z</time></trkpt><trkpt lat="42.9387734" lon="13.6287866"><ele>422.0</ele><time>2026-04-12T08:10:21.069Z</time></trkpt><trkpt lat="42.9388903" lon="13.6287188"><ele>422.0</ele><time>2026-04-12T08:10:22.073Z</time></trkpt><trkpt lat="42.9390217" lon="13.6286517"><ele>422.0</ele><time>2026-04-12T08:10:23.066Z</time></trkpt><trkpt lat="42.9391652" lon="13.6285785"><ele>422.0</ele><time>2026-04-12T08:10:24.065Z</time></trkpt><trkpt lat="42.9394327" lon="13.6284453"><ele>422.40000000000003</ele><time>2026-04-12T08:10:26.068Z</time></trkpt><trkpt lat="42.9395431" lon="13.6284027"><ele>422.8</ele><time>2026-04-12T08:10:27.073Z</time></trkpt><trkpt lat="42.9396285" lon="13.628373"><ele>423.2</ele><time>2026-04-12T08:10:28.066Z</time></trkpt><trkpt lat="42.939723" lon="13.6283477"><ele>423.6</ele><time>2026-04-12T08:10:30.073Z</time></trkpt><trkpt lat="42.9397477" lon="13.6282211"><ele>424.0</ele><time>2026-04-12T08:10:33.093Z</time></trkpt><trkpt lat="42.9397304" lon="13.6281295"><ele>424.0</ele><time>2026-04-12T08:10:34.067Z</time></trkpt><trkpt lat="42.9397043" lon="13.6280151"><ele>424.0</ele><time>2026-04-12T08:10:35.065Z</time></trkpt><trkpt lat="42.939668" lon="13.6278758"><ele>424.0</ele><time>2026-04-12T08:10:36.069Z</time></trkpt><trkpt lat="42.9396202" lon="13.6277186"><ele>424.0</ele><time>2026-04-12T08:10:37.065Z</time></trkpt><trkpt lat="42.9395619" lon="13.6275488"><ele>426.25</ele><time>2026-04-12T08:10:38.067Z</time></trkpt><trkpt lat="42.9394963" lon="13.6273806"><ele>428.5</ele><time>2026-04-12T08:10:39.065Z</time></trkpt><trkpt lat="42.9394246" lon="13.6272175"><ele>430.75</ele><time>2026-04-12T08:10:40.067Z</time></trkpt><trkpt lat="42.9393526" lon="13.6270478"><ele>433.0</ele><time>2026-04-12T08:10:41.069Z</time></trkpt><trkpt lat="42.93928" lon="13.6268637"><ele>429.0</ele><time>2026-04-12T08:10:42.067Z</time></trkpt><trkpt lat="42.9392083" lon="13.6266737"><ele>425.0</ele><time>2026-04-12T08:10:43.066Z</time></trkpt><trkpt lat="42.9391389" lon="13.6264891"><ele>421.0</ele><time>2026-04-12T08:10:44.064Z</time></trkpt><trkpt lat="42.9390733" lon="13.6263149"><ele>425.33333333333337</ele><time>2026-04-12T08:10:45.062Z</time></trkpt><trkpt lat="42.938946" lon="13.6259819"><ele>429.66666666666663</ele><time>2026-04-12T08:10:47.061Z</time></trkpt><trkpt lat="42.9388857" lon="13.6258393"><ele>434.0</ele><time>2026-04-12T08:10:48.061Z</time></trkpt><trkpt lat="42.9388355" lon="13.6257136"><ele>433.99999999999994</ele><time>2026-04-12T08:10:49.063Z</time></trkpt><trkpt lat="42.9387949" lon="13.6256002"><ele>434.0</ele><time>2026-04-12T08:10:50.064Z</time></trkpt><trkpt lat="42.9387573" lon="13.6254995"><ele>434.0</ele><time>2026-04-12T08:10:51.064Z</time></trkpt><trkpt lat="42.9387185" lon="13.6254018"><ele>434.0</ele><time>2026-04-12T08:10:52.103Z</time></trkpt><trkpt lat="42.9386729" lon="13.6253002"><ele>433.99999999999994</ele><time>2026-04-12T08:10:53.063Z</time></trkpt><trkpt lat="42.9386213" lon="13.6251883"><ele>434.0</ele><time>2026-04-12T08:10:54.068Z</time></trkpt><trkpt lat="42.9385668" lon="13.6250641"><ele>436.0</ele><time>2026-04-12T08:10:55.064Z</time></trkpt><trkpt lat="42.9385112" lon="13.6249303"><ele>438.0</ele><time>2026-04-12T08:10:56.074Z</time></trkpt><trkpt lat="42.938456" lon="13.6247917"><ele>440.0</ele><time>2026-04-12T08:10:57.066Z</time></trkpt><trkpt lat="42.9384022" lon="13.6246542"><ele>442.0</ele><time>2026-04-12T08:10:58.063Z</time></trkpt><trkpt lat="42.9383491" lon="13.6245263"><ele>440.6</ele><time>2026-04-12T08:10:59.094Z</time></trkpt><trkpt lat="42.9382966" lon="13.6244089"><ele>439.20000000000005</ele><time>2026-04-12T08:11:00.111Z</time></trkpt><trkpt lat="42.9382427" lon="13.6243009"><ele>437.8</ele><time>2026-04-12T08:11:01.074Z</time></trkpt><trkpt lat="42.9381843" lon="13.6242017"><ele>436.4</ele><time>2026-04-12T08:11:02.065Z</time></trkpt><trkpt lat="42.938118" lon="13.6241121"><ele>435.0</ele><time>2026-04-12T08:11:03.064Z</time></trkpt><trkpt lat="42.9380472" lon="13.624026"><ele>435.0</ele><time>2026-04-12T08:11:04.067Z</time></trkpt><trkpt lat="42.9379738" lon="13.6239396"><ele>435.0</ele><time>2026-04-12T08:11:05.066Z</time></trkpt><trkpt lat="42.9378947" lon="13.6238507"><ele>435.0</ele><time>2026-04-12T08:11:06.066Z</time></trkpt><trkpt lat="42.9377387" lon="13.6236848"><ele>435.0</ele><time>2026-04-12T08:11:08.065Z</time></trkpt><trkpt lat="42.9376639" lon="13.6236148"><ele>433.8333333333333</ele><time>2026-04-12T08:11:09.068Z</time></trkpt><trkpt lat="42.937595" lon="13.6235488"><ele>432.66666666666663</ele><time>2026-04-12T08:11:10.069Z</time></trkpt><trkpt lat="42.9375322" lon="13.6234867"><ele>431.5</ele><time>2026-04-12T08:11:11.064Z</time></trkpt><trkpt lat="42.937478" lon="13.6234311"><ele>430.3333333333333</ele><time>2026-04-12T08:11:12.072Z</time></trkpt><trkpt lat="42.9374275" lon="13.623336"><ele>429.16666666666663</ele><time>2026-04-12T08:11:14.065Z</time></trkpt><trkpt lat="42.9375009" lon="13.6232617"><ele>428.0</ele><time>2026-04-12T08:11:17.062Z</time></trkpt><trkpt lat="42.9375921" lon="13.6232736"><ele>432.0</ele><time>2026-04-12T08:11:19.065Z</time></trkpt><trkpt lat="42.9377146" lon="13.6232912"><ele>435.99999999999994</ele><time>2026-04-12T08:11:21.066Z</time></trkpt><trkpt lat="42.9377837" lon="13.6232936"><ele>439.99999999999994</ele><time>2026-04-12T08:11:22.071Z</time></trkpt><trkpt lat="42.9378517" lon="13.6232904"><ele>444.0</ele><time>2026-04-12T08:11:23.067Z</time></trkpt><trkpt lat="42.9379143" lon="13.6232789"><ele>448.0</ele><time>2026-04-12T08:11:24.069Z</time></trkpt><trkpt lat="42.9380334" lon="13.6232064"><ele>448.0</ele><time>2026-04-12T08:11:26.097Z</time></trkpt><trkpt lat="42.9380984" lon="13.6231587"><ele>447.99999999999994</ele><time>2026-04-12T08:11:27.063Z</time></trkpt><trkpt lat="42.9382479" lon="13.6230928"><ele>447.99999999999994</ele><time>2026-04-12T08:11:29.102Z</time></trkpt><trkpt lat="42.938314" lon="13.6230731"><ele>448.0</ele><time>2026-04-12T08:11:30.069Z</time></trkpt><trkpt lat="42.9384069" lon="13.6230481"><ele>448.0</ele><time>2026-04-12T08:11:32.063Z</time></trkpt><trkpt lat="42.9384685" lon="13.6230141"><ele>448.0</ele><time>2026-04-12T08:11:35.068Z</time></trkpt><trkpt lat="42.9385481" lon="13.62313"><ele>447.99999999999994</ele><time>2026-04-12T08:11:38.063Z</time></trkpt><trkpt lat="42.9386456" lon="13.6232281"><ele>447.99999999999994</ele><time>2026-04-12T08:11:40.063Z</time></trkpt><trkpt lat="42.9387243" lon="13.6233311"><ele>448.0</ele><time>2026-04-12T08:11:42.063Z</time></trkpt><trkpt lat="42.9387697" lon="13.6234347"><ele>448.0</ele><time>2026-04-12T08:11:45.072Z</time></trkpt><trkpt lat="42.9388079" lon="13.6235037"><ele>438.0</ele><time>2026-04-12T08:11:49.094Z</time></trkpt><trkpt lat="42.9392351" lon="13.6231196"><ele>440.5</ele><time>2026-04-12T08:21:20.122Z</time></trkpt><trkpt lat="42.9391174" lon="13.6230937"><ele>443.0</ele><time>2026-04-12T08:21:22.114Z</time></trkpt><trkpt lat="42.9389678" lon="13.6230696"><ele>445.5</ele><time>2026-04-12T08:21:24.124Z</time></trkpt><trkpt lat="42.9388885" lon="13.6230606"><ele>448.0</ele><time>2026-04-12T08:21:25.124Z</time></trkpt><trkpt lat="42.9387782" lon="13.6230137"><ele>448.0</ele><time>2026-04-12T08:21:27.12Z</time></trkpt><trkpt lat="42.9387059" lon="13.6229257"><ele>447.99999999999994</ele><time>2026-04-12T08:21:29.118Z</time></trkpt><trkpt lat="42.9386379" lon="13.6228075"><ele>447.99999999999994</ele><time>2026-04-12T08:21:31.116Z</time></trkpt><trkpt lat="42.9385843" lon="13.6226547"><ele>448.0</ele><time>2026-04-12T08:21:33.114Z</time></trkpt><trkpt lat="42.9385625" lon="13.622574"><ele>448.0</ele><time>2026-04-12T08:21:34.12Z</time></trkpt><trkpt lat="42.9385387" lon="13.6224855"><ele>446.59999999999997</ele><time>2026-04-12T08:21:35.122Z</time></trkpt><trkpt lat="42.9385123" lon="13.6223859"><ele>445.19999999999993</ele><time>2026-04-12T08:21:36.129Z</time></trkpt><trkpt lat="42.9384892" lon="13.6222783"><ele>443.8</ele><time>2026-04-12T08:21:37.115Z</time></trkpt><trkpt lat="42.9384721" lon="13.6221549"><ele>442.4</ele><time>2026-04-12T08:21:38.133Z</time></trkpt><trkpt lat="42.9384635" lon="13.6220243"><ele>441.0</ele><time>2026-04-12T08:21:39.112Z</time></trkpt><trkpt lat="42.9384662" lon="13.6218827"><ele>438.5</ele><time>2026-04-12T08:21:40.117Z</time></trkpt><trkpt lat="42.9384779" lon="13.6217341"><ele>436.0</ele><time>2026-04-12T08:21:41.128Z</time></trkpt><trkpt lat="42.9384945" lon="13.6215813"><ele>433.5</ele><time>2026-04-12T08:21:42.151Z</time></trkpt><trkpt lat="42.9385119" lon="13.6214289"><ele>431.0</ele><time>2026-04-12T08:21:43.124Z</time></trkpt><trkpt lat="42.9385457" lon="13.6211101"><ele>427.0</ele><time>2026-04-12T08:21:45.123Z</time></trkpt><trkpt lat="42.9385626" lon="13.6209446"><ele>423.0</ele><time>2026-04-12T08:21:46.124Z</time></trkpt><trkpt lat="42.938578" lon="13.620776"><ele>419.0</ele><time>2026-04-12T08:21:47.119Z</time></trkpt><trkpt lat="42.9385918" lon="13.6206091"><ele>415.0</ele><time>2026-04-12T08:21:48.119Z</time></trkpt><trkpt lat="42.9386037" lon="13.6204463"><ele>412.0</ele><time>2026-04-12T08:21:49.114Z</time></trkpt><trkpt lat="42.9386098" lon="13.6202896"><ele>409.0</ele><time>2026-04-12T08:21:50.123Z</time></trkpt><trkpt lat="42.9386013" lon="13.620148"><ele>406.0</ele><time>2026-04-12T08:21:51.114Z</time></trkpt><trkpt lat="42.9385689" lon="13.6200275"><ele>403.0</ele><time>2026-04-12T08:21:52.122Z</time></trkpt><trkpt lat="42.9384977" lon="13.6199376"><ele>400.0</ele><time>2026-04-12T08:21:53.199Z</time></trkpt><trkpt lat="42.938393" lon="13.6198815"><ele>408.75</ele><time>2026-04-12T08:21:54.124Z</time></trkpt><trkpt lat="42.9382772" lon="13.6198431"><ele>417.5</ele><time>2026-04-12T08:21:55.121Z</time></trkpt><trkpt lat="42.9381507" lon="13.6198278"><ele>426.25</ele><time>2026-04-12T08:21:56.122Z</time></trkpt><trkpt lat="42.938027" lon="13.6198097"><ele>435.0</ele><time>2026-04-12T08:21:57.119Z</time></trkpt><trkpt lat="42.9379103" lon="13.6197772"><ele>435.0</ele><time>2026-04-12T08:21:58.121Z</time></trkpt><trkpt lat="42.9378063" lon="13.6197268"><ele>435.0</ele><time>2026-04-12T08:21:59.116Z</time></trkpt><trkpt lat="42.9377265" lon="13.6196444"><ele>435.0</ele><time>2026-04-12T08:22:00.114Z</time></trkpt><trkpt lat="42.9376749" lon="13.6195298"><ele>435.0</ele><time>2026-04-12T08:22:01.114Z</time></trkpt><trkpt lat="42.9376551" lon="13.6193909"><ele>435.0</ele><time>2026-04-12T08:22:02.133Z</time></trkpt><trkpt lat="42.9376509" lon="13.6192394"><ele>429.0</ele><time>2026-04-12T08:22:03.123Z</time></trkpt><trkpt lat="42.9376513" lon="13.6190758"><ele>423.0</ele><time>2026-04-12T08:22:04.124Z</time></trkpt><trkpt lat="42.9376442" lon="13.6187437"><ele>417.0</ele><time>2026-04-12T08:22:06.113Z</time></trkpt><trkpt lat="42.9376396" lon="13.6185739"><ele>416.25</ele><time>2026-04-12T08:22:07.116Z</time></trkpt><trkpt lat="42.937632" lon="13.6184089"><ele>415.5</ele><time>2026-04-12T08:22:08.139Z</time></trkpt><trkpt lat="42.9376218" lon="13.6182476"><ele>414.75</ele><time>2026-04-12T08:22:09.123Z</time></trkpt><trkpt lat="42.9376111" lon="13.6180881"><ele>414.0</ele><time>2026-04-12T08:22:10.114Z</time></trkpt><trkpt lat="42.9376067" lon="13.6179385"><ele>414.0</ele><time>2026-04-12T08:22:11.113Z</time></trkpt><trkpt lat="42.9376059" lon="13.6177908"><ele>414.0</ele><time>2026-04-12T08:22:12.118Z</time></trkpt><trkpt lat="42.937608" lon="13.617643"><ele>414.0</ele><time>2026-04-12T08:22:13.115Z</time></trkpt><trkpt lat="42.9376133" lon="13.617495"><ele>414.0</ele><time>2026-04-12T08:22:14.118Z</time></trkpt><trkpt lat="42.9376232" lon="13.6173462"><ele>414.0</ele><time>2026-04-12T08:22:15.115Z</time></trkpt><trkpt lat="42.9376412" lon="13.6172036"><ele>414.0</ele><time>2026-04-12T08:22:16.149Z</time></trkpt><trkpt lat="42.9376611" lon="13.6170662"><ele>414.0</ele><time>2026-04-12T08:22:17.129Z</time></trkpt><trkpt lat="42.9376858" lon="13.6169412"><ele>414.0</ele><time>2026-04-12T08:22:18.134Z</time></trkpt><trkpt lat="42.9377079" lon="13.6168283"><ele>414.0</ele><time>2026-04-12T08:22:19.113Z</time></trkpt><trkpt lat="42.9377266" lon="13.6167189"><ele>414.0</ele><time>2026-04-12T08:22:20.122Z</time></trkpt><trkpt lat="42.9377463" lon="13.6166115"><ele>414.0</ele><time>2026-04-12T08:22:21.119Z</time></trkpt><trkpt lat="42.9377684" lon="13.6165006"><ele>415.4</ele><time>2026-04-12T08:22:22.111Z</time></trkpt><trkpt lat="42.9377932" lon="13.6163882"><ele>416.79999999999995</ele><time>2026-04-12T08:22:23.124Z</time></trkpt><trkpt lat="42.9378169" lon="13.6162765"><ele>418.20000000000005</ele><time>2026-04-12T08:22:24.119Z</time></trkpt><trkpt lat="42.9378389" lon="13.6161703"><ele>419.6</ele><time>2026-04-12T08:22:25.123Z</time></trkpt><trkpt lat="42.9378812" lon="13.6159692"><ele>421.0</ele><time>2026-04-12T08:22:27.122Z</time></trkpt><trkpt lat="42.9379049" lon="13.6158728"><ele>421.6666666666667</ele><time>2026-04-12T08:22:28.124Z</time></trkpt><trkpt lat="42.9379297" lon="13.6157711"><ele>422.33333333333337</ele><time>2026-04-12T08:22:29.116Z</time></trkpt><trkpt lat="42.9379524" lon="13.6156608"><ele>423.0</ele><time>2026-04-12T08:22:30.125Z</time></trkpt><trkpt lat="42.9379764" lon="13.6155468"><ele>423.66666666666663</ele><time>2026-04-12T08:22:31.117Z</time></trkpt><trkpt lat="42.9379995" lon="13.6154328"><ele>424.3333333333333</ele><time>2026-04-12T08:22:32.145Z</time></trkpt><trkpt lat="42.9380173" lon="13.6153268"><ele>425.0</ele><time>2026-04-12T08:22:33.117Z</time></trkpt><trkpt lat="42.9380324" lon="13.6152311"><ele>425.16666666666663</ele><time>2026-04-12T08:22:34.126Z</time></trkpt><trkpt lat="42.9380493" lon="13.6151393"><ele>425.3333333333333</ele><time>2026-04-12T08:22:35.151Z</time></trkpt><trkpt lat="42.9380681" lon="13.6150443"><ele>425.5</ele><time>2026-04-12T08:22:36.124Z</time></trkpt><trkpt lat="42.9380923" lon="13.6149446"><ele>425.66666666666663</ele><time>2026-04-12T08:22:37.133Z</time></trkpt><trkpt lat="42.9381171" lon="13.6148395"><ele>425.8333333333333</ele><time>2026-04-12T08:22:38.158Z</time></trkpt><trkpt lat="42.938141" lon="13.6147367"><ele>426.0</ele><time>2026-04-12T08:22:39.112Z</time></trkpt><trkpt lat="42.9381662" lon="13.614632"><ele>426.0</ele><time>2026-04-12T08:22:40.134Z</time></trkpt><trkpt lat="42.9381891" lon="13.6145244"><ele>426.0</ele><time>2026-04-12T08:22:41.151Z</time></trkpt><trkpt lat="42.9382106" lon="13.6144208"><ele>426.0</ele><time>2026-04-12T08:22:42.118Z</time></trkpt><trkpt lat="42.9382281" lon="13.6143251"><ele>426.0</ele><time>2026-04-12T08:22:43.121Z</time></trkpt><trkpt lat="42.9382431" lon="13.6142404"><ele>426.0</ele><time>2026-04-12T08:22:44.116Z</time></trkpt><trkpt lat="42.9382753" lon="13.6141079"><ele>426.0</ele><time>2026-04-12T08:22:46.111Z</time></trkpt><trkpt lat="42.9383873" lon="13.6138995"><ele>424.25</ele><time>2026-04-12T08:23:02.114Z</time></trkpt><trkpt lat="42.938455" lon="13.6137816"><ele>422.5</ele><time>2026-04-12T08:23:04.12Z</time></trkpt><trkpt lat="42.9385468" lon="13.6136598"><ele>420.75</ele><time>2026-04-12T08:23:06.12Z</time></trkpt><trkpt lat="42.9385979" lon="13.6135992"><ele>419.0</ele><time>2026-04-12T08:23:07.129Z</time></trkpt><trkpt lat="42.938723" lon="13.613474"><ele>418.99999999999994</ele><time>2026-04-12T08:23:09.122Z</time></trkpt><trkpt lat="42.9387923" lon="13.6134106"><ele>419.0</ele><time>2026-04-12T08:23:10.127Z</time></trkpt><trkpt lat="42.9388657" lon="13.6133516"><ele>419.0</ele><time>2026-04-12T08:23:11.119Z</time></trkpt><trkpt lat="42.9389437" lon="13.6132958"><ele>419.0</ele><time>2026-04-12T08:23:12.12Z</time></trkpt><trkpt lat="42.9390275" lon="13.6132445"><ele>418.99999999999994</ele><time>2026-04-12T08:23:13.114Z</time></trkpt><trkpt lat="42.9391204" lon="13.6131944"><ele>419.0</ele><time>2026-04-12T08:23:14.112Z</time></trkpt><trkpt lat="42.9392145" lon="13.6131426"><ele>415.4</ele><time>2026-04-12T08:23:15.114Z</time></trkpt><trkpt lat="42.9393092" lon="13.6130931"><ele>411.79999999999995</ele><time>2026-04-12T08:23:16.121Z</time></trkpt><trkpt lat="42.9393984" lon="13.6130461"><ele>408.20000000000005</ele><time>2026-04-12T08:23:17.122Z</time></trkpt><trkpt lat="42.9394785" lon="13.6129975"><ele>404.6</ele><time>2026-04-12T08:23:18.122Z</time></trkpt><trkpt lat="42.9395512" lon="13.6129413"><ele>401.0</ele><time>2026-04-12T08:23:19.115Z</time></trkpt><trkpt lat="42.9396204" lon="13.6128748"><ele>403.6</ele><time>2026-04-12T08:23:20.158Z</time></trkpt><trkpt lat="42.9396878" lon="13.6127993"><ele>406.20000000000005</ele><time>2026-04-12T08:23:21.116Z</time></trkpt><trkpt lat="42.9397612" lon="13.6127196"><ele>408.79999999999995</ele><time>2026-04-12T08:23:22.118Z</time></trkpt><trkpt lat="42.9398395" lon="13.6126424"><ele>411.4</ele><time>2026-04-12T08:23:23.114Z</time></trkpt><trkpt lat="42.9399221" lon="13.6125663"><ele>414.0</ele><time>2026-04-12T08:23:24.114Z</time></trkpt><trkpt lat="42.9400055" lon="13.6124863"><ele>407.75</ele><time>2026-04-12T08:23:25.115Z</time></trkpt><trkpt lat="42.940087" lon="13.6124005"><ele>401.5</ele><time>2026-04-12T08:23:26.113Z</time></trkpt><trkpt lat="42.9401643" lon="13.6123148"><ele>395.25</ele><time>2026-04-12T08:23:27.13Z</time></trkpt><trkpt lat="42.9402316" lon="13.6122232"><ele>389.0</ele><time>2026-04-12T08:23:28.116Z</time></trkpt><trkpt lat="42.9403566" lon="13.6120142"><ele>390.0</ele><time>2026-04-12T08:23:30.113Z</time></trkpt><trkpt lat="42.9404175" lon="13.6118863"><ele>391.0</ele><time>2026-04-12T08:23:31.115Z</time></trkpt><trkpt lat="42.9404827" lon="13.6117462"><ele>392.0</ele><time>2026-04-12T08:23:32.121Z</time></trkpt><trkpt lat="42.9405433" lon="13.6116009"><ele>393.0</ele><time>2026-04-12T08:23:33.115Z</time></trkpt><trkpt lat="42.9406056" lon="13.6114568"><ele>393.0</ele><time>2026-04-12T08:23:34.123Z</time></trkpt><trkpt lat="42.9406676" lon="13.6113225"><ele>393.0</ele><time>2026-04-12T08:23:35.113Z</time></trkpt><trkpt lat="42.9407242" lon="13.6111956"><ele>393.0</ele><time>2026-04-12T08:23:36.114Z</time></trkpt><trkpt lat="42.9407769" lon="13.6110823"><ele>393.0</ele><time>2026-04-12T08:23:37.118Z</time></trkpt><trkpt lat="42.940831" lon="13.6109833"><ele>393.0</ele><time>2026-04-12T08:23:38.131Z</time></trkpt><trkpt lat="42.9408896" lon="13.6108874"><ele>390.4</ele><time>2026-04-12T08:23:39.124Z</time></trkpt><trkpt lat="42.9409538" lon="13.6107863"><ele>387.79999999999995</ele><time>2026-04-12T08:23:40.154Z</time></trkpt><trkpt lat="42.9410215" lon="13.6106794"><ele>385.2</ele><time>2026-04-12T08:23:41.112Z</time></trkpt><trkpt lat="42.9410928" lon="13.610566"><ele>382.6</ele><time>2026-04-12T08:23:42.116Z</time></trkpt><trkpt lat="42.9411632" lon="13.6104506"><ele>380.0</ele><time>2026-04-12T08:23:43.116Z</time></trkpt><trkpt lat="42.9412322" lon="13.6103378"><ele>382.2</ele><time>2026-04-12T08:23:44.114Z</time></trkpt><trkpt lat="42.941302" lon="13.6102274"><ele>384.4</ele><time>2026-04-12T08:23:45.12Z</time></trkpt><trkpt lat="42.9413721" lon="13.6101238"><ele>386.6</ele><time>2026-04-12T08:23:46.121Z</time></trkpt><trkpt lat="42.9414447" lon="13.6100272"><ele>388.8</ele><time>2026-04-12T08:23:47.125Z</time></trkpt><trkpt lat="42.9415249" lon="13.6099337"><ele>391.0</ele><time>2026-04-12T08:23:48.118Z</time></trkpt><trkpt lat="42.9416148" lon="13.6098406"><ele>386.33333333333337</ele><time>2026-04-12T08:23:49.116Z</time></trkpt><trkpt lat="42.941809" lon="13.6096643"><ele>381.6666666666667</ele><time>2026-04-12T08:23:51.121Z</time></trkpt><trkpt lat="42.9419008" lon="13.6095733"><ele>377.0</ele><time>2026-04-12T08:23:52.123Z</time></trkpt><trkpt lat="42.9419861" lon="13.6094751"><ele>377.0</ele><time>2026-04-12T08:23:53.119Z</time></trkpt><trkpt lat="42.9420671" lon="13.6093727"><ele>377.0</ele><time>2026-04-12T08:23:54.114Z</time></trkpt><trkpt lat="42.9421386" lon="13.6092614"><ele>377.0</ele><time>2026-04-12T08:23:55.119Z</time></trkpt><trkpt lat="42.9421997" lon="13.6091376"><ele>377.0</ele><time>2026-04-12T08:23:56.147Z</time></trkpt><trkpt lat="42.9422516" lon="13.6090067"><ele>377.0</ele><time>2026-04-12T08:23:57.113Z</time></trkpt><trkpt lat="42.9422981" lon="13.6088629"><ele>377.0</ele><time>2026-04-12T08:23:58.115Z</time></trkpt><trkpt lat="42.9423393" lon="13.6087122"><ele>377.0</ele><time>2026-04-12T08:23:59.118Z</time></trkpt><trkpt lat="42.9423824" lon="13.6085602"><ele>377.0</ele><time>2026-04-12T08:24:00.116Z</time></trkpt><trkpt lat="42.9424318" lon="13.60841"><ele>377.0</ele><time>2026-04-12T08:24:01.13Z</time></trkpt><trkpt lat="42.942489" lon="13.6082671"><ele>372.0</ele><time>2026-04-12T08:24:02.117Z</time></trkpt><trkpt lat="42.9425517" lon="13.60813"><ele>367.0</ele><time>2026-04-12T08:24:03.121Z</time></trkpt><trkpt lat="42.94262" lon="13.6079995"><ele>362.0</ele><time>2026-04-12T08:24:04.116Z</time></trkpt><trkpt lat="42.9426958" lon="13.6078737"><ele>357.0</ele><time>2026-04-12T08:24:05.117Z</time></trkpt><trkpt lat="42.9427718" lon="13.6077477"><ele>357.0</ele><time>2026-04-12T08:24:06.151Z</time></trkpt><trkpt lat="42.9428428" lon="13.6076216"><ele>357.0</ele><time>2026-04-12T08:24:07.118Z</time></trkpt><trkpt lat="42.942911" lon="13.6074976"><ele>357.0</ele><time>2026-04-12T08:24:08.113Z</time></trkpt><trkpt lat="42.9429752" lon="13.6073755"><ele>357.0</ele><time>2026-04-12T08:24:09.114Z</time></trkpt><trkpt lat="42.9430346" lon="13.6072505"><ele>357.0</ele><time>2026-04-12T08:24:10.116Z</time></trkpt><trkpt lat="42.9431282" lon="13.6069702"><ele>358.5</ele><time>2026-04-12T08:24:12.122Z</time></trkpt><trkpt lat="42.9431596" lon="13.6068147"><ele>360.0</ele><time>2026-04-12T08:24:13.123Z</time></trkpt><trkpt lat="42.9431812" lon="13.6066502"><ele>361.5</ele><time>2026-04-12T08:24:14.122Z</time></trkpt><trkpt lat="42.9431964" lon="13.6064865"><ele>363.0</ele><time>2026-04-12T08:24:15.117Z</time></trkpt><trkpt lat="42.9432026" lon="13.6063212"><ele>363.25</ele><time>2026-04-12T08:24:16.138Z</time></trkpt><trkpt lat="42.943202" lon="13.6061592"><ele>363.5</ele><time>2026-04-12T08:24:17.122Z</time></trkpt><trkpt lat="42.9432026" lon="13.606003"><ele>363.75</ele><time>2026-04-12T08:24:18.12Z</time></trkpt><trkpt lat="42.943201" lon="13.6058514"><ele>364.0</ele><time>2026-04-12T08:24:19.129Z</time></trkpt><trkpt lat="42.9432015" lon="13.6056979"><ele>364.0</ele><time>2026-04-12T08:24:20.117Z</time></trkpt><trkpt lat="42.9432051" lon="13.6055367"><ele>364.0</ele><time>2026-04-12T08:24:21.155Z</time></trkpt><trkpt lat="42.9432115" lon="13.6053764"><ele>364.0</ele><time>2026-04-12T08:24:22.116Z</time></trkpt><trkpt lat="42.9432198" lon="13.6052096"><ele>364.0</ele><time>2026-04-12T08:24:23.113Z</time></trkpt><trkpt lat="42.9432289" lon="13.6050363"><ele>363.75</ele><time>2026-04-12T08:24:24.112Z</time></trkpt><trkpt lat="42.9432379" lon="13.60486"><ele>363.5</ele><time>2026-04-12T08:24:25.115Z</time></trkpt><trkpt lat="42.9432508" lon="13.604689"><ele>363.25</ele><time>2026-04-12T08:24:26.119Z</time></trkpt><trkpt lat="42.9432698" lon="13.6045302"><ele>363.0</ele><time>2026-04-12T08:24:27.115Z</time></trkpt><trkpt lat="42.9432859" lon="13.6043837"><ele>363.5</ele><time>2026-04-12T08:24:28.112Z</time></trkpt><trkpt lat="42.9433029" lon="13.6042588"><ele>364.0</ele><time>2026-04-12T08:24:29.12Z</time></trkpt><trkpt lat="42.9433319" lon="13.604164"><ele>364.5</ele><time>2026-04-12T08:24:30.124Z</time></trkpt><trkpt lat="42.9433706" lon="13.6040907"><ele>365.0</ele><time>2026-04-12T08:24:31.123Z</time></trkpt><trkpt lat="42.9434655" lon="13.603965"><ele>365.5</ele><time>2026-04-12T08:24:33.115Z</time></trkpt><trkpt lat="42.9435246" lon="13.6039244"><ele>366.0</ele><time>2026-04-12T08:24:34.123Z</time></trkpt><trkpt lat="42.9435919" lon="13.6039003"><ele>362.8</ele><time>2026-04-12T08:24:35.128Z</time></trkpt><trkpt lat="42.9436733" lon="13.6038964"><ele>359.6</ele><time>2026-04-12T08:24:36.127Z</time></trkpt><trkpt lat="42.9437624" lon="13.603909"><ele>356.4</ele><time>2026-04-12T08:24:37.116Z</time></trkpt><trkpt lat="42.9438531" lon="13.6039211"><ele>353.2</ele><time>2026-04-12T08:24:38.118Z</time></trkpt><trkpt lat="42.9439454" lon="13.6039289"><ele>350.0</ele><time>2026-04-12T08:24:39.115Z</time></trkpt><trkpt lat="42.9440419" lon="13.6039344"><ele>350.0</ele><time>2026-04-12T08:24:40.149Z</time></trkpt><trkpt lat="42.9441371" lon="13.6039355"><ele>350.0</ele><time>2026-04-12T08:24:41.116Z</time></trkpt><trkpt lat="42.9442347" lon="13.6039328"><ele>350.0</ele><time>2026-04-12T08:24:42.14Z</time></trkpt><trkpt lat="42.9443262" lon="13.6039312"><ele>350.0</ele><time>2026-04-12T08:24:43.115Z</time></trkpt><trkpt lat="42.9444095" lon="13.6039358"><ele>350.0</ele><time>2026-04-12T08:24:44.115Z</time></trkpt><trkpt lat="42.9444772" lon="13.6039448"><ele>350.0</ele><time>2026-04-12T08:24:45.118Z</time></trkpt><trkpt lat="42.9445776" lon="13.6039544"><ele>347.75</ele><time>2026-04-12T08:24:47.119Z</time></trkpt><trkpt lat="42.9446394" lon="13.6039122"><ele>345.5</ele><time>2026-04-12T08:24:49.117Z</time></trkpt><trkpt lat="42.9446961" lon="13.6037679"><ele>343.25</ele><time>2026-04-12T08:24:51.121Z</time></trkpt><trkpt lat="42.9447337" lon="13.6036579"><ele>341.0</ele><time>2026-04-12T08:24:52.115Z</time></trkpt><trkpt lat="42.9448219" lon="13.6033902"><ele>341.0</ele><time>2026-04-12T08:24:54.114Z</time></trkpt><trkpt lat="42.9448619" lon="13.6032472"><ele>341.0</ele><time>2026-04-12T08:24:55.123Z</time></trkpt><trkpt lat="42.9448942" lon="13.6031167"><ele>341.0</ele><time>2026-04-12T08:24:56.124Z</time></trkpt><trkpt lat="42.9449183" lon="13.6030212"><ele>341.0</ele><time>2026-04-12T08:24:57.122Z</time></trkpt><trkpt lat="42.9449732" lon="13.6029274"><ele>341.0</ele><time>2026-04-12T08:25:00.111Z</time></trkpt><trkpt lat="42.9450557" lon="13.6029772"><ele>342.0</ele><time>2026-04-12T08:25:02.139Z</time></trkpt><trkpt lat="42.9451168" lon="13.6030528"><ele>343.0</ele><time>2026-04-12T08:25:03.148Z</time></trkpt><trkpt lat="42.9451972" lon="13.6031461"><ele>344.0</ele><time>2026-04-12T08:25:04.16Z</time></trkpt><trkpt lat="42.9452952" lon="13.6032461"><ele>345.0</ele><time>2026-04-12T08:25:05.128Z</time></trkpt><trkpt lat="42.9454097" lon="13.6033421"><ele>346.0</ele><time>2026-04-12T08:25:06.117Z</time></trkpt><trkpt lat="42.9455348" lon="13.6034398"><ele>346.0</ele><time>2026-04-12T08:25:07.113Z</time></trkpt><trkpt lat="42.9456702" lon="13.603547"><ele>346.0</ele><time>2026-04-12T08:25:08.122Z</time></trkpt><trkpt lat="42.9458038" lon="13.6036608"><ele>346.0</ele><time>2026-04-12T08:25:09.112Z</time></trkpt><trkpt lat="42.9459277" lon="13.6037709"><ele>346.0</ele><time>2026-04-12T08:25:10.115Z</time></trkpt><trkpt lat="42.9460349" lon="13.6038648"><ele>346.0</ele><time>2026-04-12T08:25:11.115Z</time></trkpt><trkpt lat="42.9461219" lon="13.6039495"><ele>346.0</ele><time>2026-04-12T08:25:12.121Z</time></trkpt><trkpt lat="42.9461865" lon="13.6040426"><ele>346.0</ele><time>2026-04-12T08:25:13.119Z</time></trkpt><trkpt lat="42.9462941" lon="13.6042353"><ele>346.0</ele><time>2026-04-12T08:25:15.126Z</time></trkpt><trkpt lat="42.9463698" lon="13.604328"><ele>346.0</ele><time>2026-04-12T08:25:16.117Z</time></trkpt><trkpt lat="42.9464606" lon="13.604419"><ele>346.0</ele><time>2026-04-12T08:25:17.126Z</time></trkpt><trkpt lat="42.9465535" lon="13.6044972"><ele>346.0</ele><time>2026-04-12T08:25:18.117Z</time></trkpt><trkpt lat="42.946648" lon="13.6045549"><ele>346.0</ele><time>2026-04-12T08:25:19.116Z</time></trkpt><trkpt lat="42.9467411" lon="13.6045898"><ele>346.16666666666663</ele><time>2026-04-12T08:25:20.113Z</time></trkpt><trkpt lat="42.9468341" lon="13.6046095"><ele>346.3333333333333</ele><time>2026-04-12T08:25:21.111Z</time></trkpt><trkpt lat="42.9469165" lon="13.604621"><ele>346.5</ele><time>2026-04-12T08:25:22.113Z</time></trkpt><trkpt lat="42.9469798" lon="13.6046359"><ele>346.6666666666667</ele><time>2026-04-12T08:25:23.118Z</time></trkpt><trkpt lat="42.9470711" lon="13.6047212"><ele>346.83333333333337</ele><time>2026-04-12T08:25:25.147Z</time></trkpt><trkpt lat="42.9471244" lon="13.6048074"><ele>347.0</ele><time>2026-04-12T08:25:26.114Z</time></trkpt><trkpt lat="42.9471871" lon="13.6049173"><ele>347.0</ele><time>2026-04-12T08:25:27.12Z</time></trkpt><trkpt lat="42.9472547" lon="13.6050368"><ele>347.0</ele><time>2026-04-12T08:25:28.168Z</time></trkpt><trkpt lat="42.9473263" lon="13.6051445"><ele>347.0</ele><time>2026-04-12T08:25:29.119Z</time></trkpt><trkpt lat="42.9474066" lon="13.6052446"><ele>347.0</ele><time>2026-04-12T08:25:30.125Z</time></trkpt><trkpt lat="42.9474973" lon="13.6053336"><ele>347.0</ele><time>2026-04-12T08:25:31.112Z</time></trkpt><trkpt lat="42.9476057" lon="13.6054177"><ele>348.0</ele><time>2026-04-12T08:25:32.153Z</time></trkpt><trkpt lat="42.9477254" lon="13.6054956"><ele>349.0</ele><time>2026-04-12T08:25:33.123Z</time></trkpt><trkpt lat="42.9478527" lon="13.6055761"><ele>350.0</ele><time>2026-04-12T08:25:34.114Z</time></trkpt><trkpt lat="42.9480713" lon="13.6057465"><ele>350.0</ele><time>2026-04-12T08:25:36.114Z</time></trkpt><trkpt lat="42.9481564" lon="13.6058409"><ele>350.0</ele><time>2026-04-12T08:25:37.119Z</time></trkpt><trkpt lat="42.9482263" lon="13.6059439"><ele>350.0</ele><time>2026-04-12T08:25:38.112Z</time></trkpt><trkpt lat="42.9482821" lon="13.6060559"><ele>350.0</ele><time>2026-04-12T08:25:39.116Z</time></trkpt><trkpt lat="42.9483285" lon="13.6061756"><ele>350.0</ele><time>2026-04-12T08:25:40.114Z</time></trkpt><trkpt lat="42.9483648" lon="13.6063049"><ele>348.6666666666667</ele><time>2026-04-12T08:25:41.125Z</time></trkpt><trkpt lat="42.9483906" lon="13.6064377"><ele>347.33333333333337</ele><time>2026-04-12T08:25:42.134Z</time></trkpt><trkpt lat="42.9484098" lon="13.606565"><ele>346.0</ele><time>2026-04-12T08:25:43.152Z</time></trkpt><trkpt lat="42.9484285" lon="13.6066573"><ele>344.6666666666667</ele><time>2026-04-12T08:25:44.128Z</time></trkpt><trkpt lat="42.9484854" lon="13.6067115"><ele>343.3333333333333</ele><time>2026-04-12T08:25:46.128Z</time></trkpt><trkpt lat="42.9485639" lon="13.6066242"><ele>342.0</ele><time>2026-04-12T08:25:48.128Z</time></trkpt><trkpt lat="42.9486415" lon="13.6066406"><ele>342.0</ele><time>2026-04-12T08:25:50.119Z</time></trkpt><trkpt lat="42.9486863" lon="13.6067103"><ele>342.0</ele><time>2026-04-12T08:25:51.117Z</time></trkpt><trkpt lat="42.9487369" lon="13.6068016"><ele>342.0</ele><time>2026-04-12T08:25:52.119Z</time></trkpt><trkpt lat="42.9488716" lon="13.6069757"><ele>342.0</ele><time>2026-04-12T08:25:54.129Z</time></trkpt><trkpt lat="42.9489612" lon="13.607043"><ele>342.0</ele><time>2026-04-12T08:25:55.114Z</time></trkpt><trkpt lat="42.9491748" lon="13.6071506"><ele>337.75</ele><time>2026-04-12T08:25:57.127Z</time></trkpt><trkpt lat="42.9492845" lon="13.6071929"><ele>333.5</ele><time>2026-04-12T08:25:58.126Z</time></trkpt><trkpt lat="42.9494956" lon="13.607234"><ele>329.25</ele><time>2026-04-12T08:26:00.112Z</time></trkpt><trkpt lat="42.9496085" lon="13.6072352"><ele>325.0</ele><time>2026-04-12T08:26:01.14Z</time></trkpt><trkpt lat="42.9497252" lon="13.6072253"><ele>325.0</ele><time>2026-04-12T08:26:02.12Z</time></trkpt><trkpt lat="42.949845" lon="13.6072037"><ele>325.0</ele><time>2026-04-12T08:26:03.113Z</time></trkpt><trkpt lat="42.9499642" lon="13.607171"><ele>325.0</ele><time>2026-04-12T08:26:04.124Z</time></trkpt><trkpt lat="42.9500787" lon="13.6071311"><ele>325.0</ele><time>2026-04-12T08:26:05.125Z</time></trkpt><trkpt lat="42.9501841" lon="13.6070823"><ele>326.25</ele><time>2026-04-12T08:26:06.145Z</time></trkpt><trkpt lat="42.9502762" lon="13.6070201"><ele>327.5</ele><time>2026-04-12T08:26:07.119Z</time></trkpt><trkpt lat="42.9503644" lon="13.6069427"><ele>328.75</ele><time>2026-04-12T08:26:08.114Z</time></trkpt><trkpt lat="42.9504521" lon="13.6068366"><ele>330.0</ele><time>2026-04-12T08:26:09.112Z</time></trkpt><trkpt lat="42.9505402" lon="13.606707"><ele>330.0</ele><time>2026-04-12T08:26:10.117Z</time></trkpt><trkpt lat="42.9506215" lon="13.6065587"><ele>330.0</ele><time>2026-04-12T08:26:11.113Z</time></trkpt><trkpt lat="42.9506896" lon="13.6064016"><ele>330.0</ele><time>2026-04-12T08:26:12.124Z</time></trkpt><trkpt lat="42.9507443" lon="13.6062441"><ele>330.0</ele><time>2026-04-12T08:26:13.123Z</time></trkpt><trkpt lat="42.9507932" lon="13.6060969"><ele>332.4</ele><time>2026-04-12T08:26:14.113Z</time></trkpt><trkpt lat="42.9508332" lon="13.6059679"><ele>334.8</ele><time>2026-04-12T08:26:15.123Z</time></trkpt><trkpt lat="42.950858" lon="13.6058547"><ele>337.20000000000005</ele><time>2026-04-12T08:26:16.119Z</time></trkpt><trkpt lat="42.9508553" lon="13.6056389"><ele>339.6</ele><time>2026-04-12T08:26:18.117Z</time></trkpt><trkpt lat="42.9508201" lon="13.6055264"><ele>342.0</ele><time>2026-04-12T08:26:19.123Z</time></trkpt><trkpt lat="42.9507682" lon="13.6054041"><ele>343.25</ele><time>2026-04-12T08:26:20.13Z</time></trkpt><trkpt lat="42.9507025" lon="13.6052827"><ele>344.5</ele><time>2026-04-12T08:26:21.126Z</time></trkpt><trkpt lat="42.9506167" lon="13.605167"><ele>345.75</ele><time>2026-04-12T08:26:22.126Z</time></trkpt><trkpt lat="42.9505189" lon="13.6050681"><ele>347.0</ele><time>2026-04-12T08:26:23.117Z</time></trkpt><trkpt lat="42.950411" lon="13.604993"><ele>347.0</ele><time>2026-04-12T08:26:24.121Z</time></trkpt><trkpt lat="42.9502893" lon="13.6049386"><ele>347.0</ele><time>2026-04-12T08:26:25.123Z</time></trkpt><trkpt lat="42.9501617" lon="13.6049012"><ele>347.0</ele><time>2026-04-12T08:26:26.159Z</time></trkpt><trkpt lat="42.9500434" lon="13.6048687"><ele>347.0</ele><time>2026-04-12T08:26:27.113Z</time></trkpt><trkpt lat="42.9499315" lon="13.6048244"><ele>350.5</ele><time>2026-04-12T08:26:28.116Z</time></trkpt><trkpt lat="42.949829" lon="13.6047467"><ele>354.0</ele><time>2026-04-12T08:26:29.122Z</time></trkpt><trkpt lat="42.9497281" lon="13.6046344"><ele>357.5</ele><time>2026-04-12T08:26:30.12Z</time></trkpt><trkpt lat="42.9496272" lon="13.6045143"><ele>361.0</ele><time>2026-04-12T08:26:31.125Z</time></trkpt><trkpt lat="42.9495349" lon="13.6044015"><ele>361.4</ele><time>2026-04-12T08:26:32.122Z</time></trkpt><trkpt lat="42.9494571" lon="13.604293"><ele>361.8</ele><time>2026-04-12T08:26:33.114Z</time></trkpt><trkpt lat="42.949404" lon="13.6041822"><ele>362.2</ele><time>2026-04-12T08:26:34.126Z</time></trkpt><trkpt lat="42.9493714" lon="13.6040586"><ele>362.59999999999997</ele><time>2026-04-12T08:26:35.146Z</time></trkpt><trkpt lat="42.9493573" lon="13.6039149"><ele>363.0</ele><time>2026-04-12T08:26:36.12Z</time></trkpt><trkpt lat="42.9493397" lon="13.6037491"><ele>364.3333333333333</ele><time>2026-04-12T08:26:37.147Z</time></trkpt><trkpt lat="42.9492877" lon="13.6033576"><ele>365.66666666666663</ele><time>2026-04-12T08:26:39.115Z</time></trkpt><trkpt lat="42.9492577" lon="13.6031471"><ele>367.0</ele><time>2026-04-12T08:26:40.124Z</time></trkpt><trkpt lat="42.9492273" lon="13.6029432"><ele>370.75</ele><time>2026-04-12T08:26:41.131Z</time></trkpt><trkpt lat="42.9491979" lon="13.602743"><ele>374.5</ele><time>2026-04-12T08:26:42.111Z</time></trkpt><trkpt lat="42.9491706" lon="13.6025505"><ele>378.25</ele><time>2026-04-12T08:26:43.118Z</time></trkpt><trkpt lat="42.9491433" lon="13.6023654"><ele>382.0</ele><time>2026-04-12T08:26:44.155Z</time></trkpt><trkpt lat="42.9491149" lon="13.6021879"><ele>382.0</ele><time>2026-04-12T08:26:45.118Z</time></trkpt><trkpt lat="42.9490854" lon="13.6020111"><ele>382.0</ele><time>2026-04-12T08:26:46.117Z</time></trkpt><trkpt lat="42.9490549" lon="13.6018337"><ele>382.0</ele><time>2026-04-12T08:26:47.115Z</time></trkpt><trkpt lat="42.9490231" lon="13.6016531"><ele>382.0</ele><time>2026-04-12T08:26:48.12Z</time></trkpt><trkpt lat="42.9489899" lon="13.6014674"><ele>383.5</ele><time>2026-04-12T08:26:49.116Z</time></trkpt><trkpt lat="42.9489543" lon="13.60128"><ele>385.0</ele><time>2026-04-12T08:26:50.15Z</time></trkpt><trkpt lat="42.9489198" lon="13.6011076"><ele>386.5</ele><time>2026-04-12T08:26:51.132Z</time></trkpt><trkpt lat="42.9488838" lon="13.600956"><ele>388.0</ele><time>2026-04-12T08:26:52.128Z</time></trkpt><trkpt lat="42.94884" lon="13.600824"><ele>388.59999999999997</ele><time>2026-04-12T08:26:53.123Z</time></trkpt><trkpt lat="42.9487928" lon="13.600705"><ele>389.2</ele><time>2026-04-12T08:26:54.118Z</time></trkpt><trkpt lat="42.9487413" lon="13.6006023"><ele>389.8</ele><time>2026-04-12T08:26:55.117Z</time></trkpt><trkpt lat="42.9486788" lon="13.6004995"><ele>390.4</ele><time>2026-04-12T08:26:56.123Z</time></trkpt><trkpt lat="42.9486059" lon="13.6003855"><ele>391.0</ele><time>2026-04-12T08:26:57.125Z</time></trkpt><trkpt lat="42.9485255" lon="13.6002487"><ele>396.0</ele><time>2026-04-12T08:26:58.115Z</time></trkpt><trkpt lat="42.9483607" lon="13.5999252"><ele>401.0</ele><time>2026-04-12T08:27:00.117Z</time></trkpt><trkpt lat="42.9482791" lon="13.5997615"><ele>406.0</ele><time>2026-04-12T08:27:01.134Z</time></trkpt><trkpt lat="42.9482009" lon="13.5996017"><ele>405.25</ele><time>2026-04-12T08:27:02.122Z</time></trkpt><trkpt lat="42.9481281" lon="13.5994459"><ele>404.5</ele><time>2026-04-12T08:27:03.129Z</time></trkpt><trkpt lat="42.94806" lon="13.5992967"><ele>403.75</ele><time>2026-04-12T08:27:04.124Z</time></trkpt><trkpt lat="42.9479945" lon="13.599159"><ele>403.0</ele><time>2026-04-12T08:27:05.114Z</time></trkpt><trkpt lat="42.9479237" lon="13.5990398"><ele>403.0</ele><time>2026-04-12T08:27:06.123Z</time></trkpt><trkpt lat="42.9478395" lon="13.5989448"><ele>403.0</ele><time>2026-04-12T08:27:07.116Z</time></trkpt><trkpt lat="42.9477372" lon="13.5988767"><ele>403.0</ele><time>2026-04-12T08:27:08.114Z</time></trkpt><trkpt lat="42.9476256" lon="13.5988364"><ele>403.0</ele><time>2026-04-12T08:27:09.128Z</time></trkpt><trkpt lat="42.9475188" lon="13.5988092"><ele>403.0</ele><time>2026-04-12T08:27:10.124Z</time></trkpt><trkpt lat="42.9474318" lon="13.598776"><ele>405.0</ele><time>2026-04-12T08:27:11.117Z</time></trkpt><trkpt lat="42.9473687" lon="13.5987224"><ele>407.0</ele><time>2026-04-12T08:27:12.119Z</time></trkpt><trkpt lat="42.9473341" lon="13.5986418"><ele>409.0</ele><time>2026-04-12T08:27:13.119Z</time></trkpt><trkpt lat="42.9473217" lon="13.5985225"><ele>411.0</ele><time>2026-04-12T08:27:14.13Z</time></trkpt><trkpt lat="42.9473128" lon="13.5983689"><ele>413.0</ele><time>2026-04-12T08:27:15.126Z</time></trkpt><trkpt lat="42.9472985" lon="13.5981922"><ele>415.0</ele><time>2026-04-12T08:27:16.115Z</time></trkpt><trkpt lat="42.9472791" lon="13.5980089"><ele>417.0</ele><time>2026-04-12T08:27:17.117Z</time></trkpt><trkpt lat="42.9472541" lon="13.5978213"><ele>419.0</ele><time>2026-04-12T08:27:18.129Z</time></trkpt><trkpt lat="42.947223" lon="13.5976363"><ele>421.0</ele><time>2026-04-12T08:27:19.123Z</time></trkpt><trkpt lat="42.9471445" lon="13.597297"><ele>421.20000000000005</ele><time>2026-04-12T08:27:21.117Z</time></trkpt><trkpt lat="42.9471075" lon="13.5971511"><ele>421.40000000000003</ele><time>2026-04-12T08:27:22.116Z</time></trkpt><trkpt lat="42.9470779" lon="13.5970278"><ele>421.6</ele><time>2026-04-12T08:27:23.119Z</time></trkpt><trkpt lat="42.9470607" lon="13.5969262"><ele>421.8</ele><time>2026-04-12T08:27:24.12Z</time></trkpt><trkpt lat="42.9470787" lon="13.5967899"><ele>422.0</ele><time>2026-04-12T08:27:26.126Z</time></trkpt><trkpt lat="42.9471319" lon="13.5967183"><ele>421.6</ele><time>2026-04-12T08:27:29.156Z</time></trkpt><trkpt lat="42.947173" lon="13.5965673"><ele>421.20000000000005</ele><time>2026-04-12T08:27:32.118Z</time></trkpt><trkpt lat="42.9472" lon="13.5964552"><ele>420.8</ele><time>2026-04-12T08:27:33.149Z</time></trkpt><trkpt lat="42.9472278" lon="13.5963294"><ele>420.4</ele><time>2026-04-12T08:27:34.158Z</time></trkpt><trkpt lat="42.9472549" lon="13.5962194"><ele>420.0</ele><time>2026-04-12T08:27:35.114Z</time></trkpt><trkpt lat="42.9472769" lon="13.5961285"><ele>420.0</ele><time>2026-04-12T08:27:36.15Z</time></trkpt><trkpt lat="42.9473006" lon="13.5959843"><ele>420.0</ele><time>2026-04-12T08:27:38.119Z</time></trkpt><trkpt lat="42.9473122" lon="13.5958941"><ele>420.0</ele><time>2026-04-12T08:27:39.116Z</time></trkpt><trkpt lat="42.9473323" lon="13.5957793"><ele>420.0</ele><time>2026-04-12T08:27:40.123Z</time></trkpt><trkpt lat="42.947403" lon="13.5955186"><ele>420.0</ele><time>2026-04-12T08:27:42.139Z</time></trkpt><trkpt lat="42.9474544" lon="13.5953926"><ele>420.0</ele><time>2026-04-12T08:27:43.116Z</time></trkpt><trkpt lat="42.9475136" lon="13.5952779"><ele>420.0</ele><time>2026-04-12T08:27:44.147Z</time></trkpt><trkpt lat="42.94758" lon="13.595182"><ele>420.0</ele><time>2026-04-12T08:27:45.158Z</time></trkpt><trkpt lat="42.9476528" lon="13.5951008"><ele>420.0</ele><time>2026-04-12T08:27:46.112Z</time></trkpt><trkpt lat="42.9477317" lon="13.5950329"><ele>418.2</ele><time>2026-04-12T08:27:47.115Z</time></trkpt><trkpt lat="42.947811" lon="13.5949824"><ele>416.4</ele><time>2026-04-12T08:27:48.125Z</time></trkpt><trkpt lat="42.9478839" lon="13.5949411"><ele>414.6</ele><time>2026-04-12T08:27:49.118Z</time></trkpt><trkpt lat="42.9479583" lon="13.5948969"><ele>412.8</ele><time>2026-04-12T08:27:50.114Z</time></trkpt><trkpt lat="42.9480475" lon="13.5948427"><ele>411.0</ele><time>2026-04-12T08:27:51.12Z</time></trkpt><trkpt lat="42.9481599" lon="13.5947722"><ele>411.0</ele><time>2026-04-12T08:27:52.121Z</time></trkpt><trkpt lat="42.9482921" lon="13.5946875"><ele>411.0</ele><time>2026-04-12T08:27:53.121Z</time></trkpt><trkpt lat="42.948566" lon="13.5944811"><ele>410.33333333333337</ele><time>2026-04-12T08:27:55.119Z</time></trkpt><trkpt lat="42.9486963" lon="13.5943638"><ele>409.6666666666667</ele><time>2026-04-12T08:27:56.123Z</time></trkpt><trkpt lat="42.9488202" lon="13.5942439"><ele>409.0</ele><time>2026-04-12T08:27:57.115Z</time></trkpt><trkpt lat="42.9489402" lon="13.5941192"><ele>409.0</ele><time>2026-04-12T08:27:58.127Z</time></trkpt><trkpt lat="42.9490549" lon="13.5939998"><ele>409.0</ele><time>2026-04-12T08:27:59.122Z</time></trkpt><trkpt lat="42.9491659" lon="13.5938874"><ele>409.0</ele><time>2026-04-12T08:28:00.119Z</time></trkpt><trkpt lat="42.9492725" lon="13.5937874"><ele>409.0</ele><time>2026-04-12T08:28:01.122Z</time></trkpt><trkpt lat="42.9494902" lon="13.5936706"><ele>408.25</ele><time>2026-04-12T08:28:03.131Z</time></trkpt><trkpt lat="42.9496121" lon="13.5936863"><ele>407.5</ele><time>2026-04-12T08:28:04.118Z</time></trkpt><trkpt lat="42.9497393" lon="13.5937441"><ele>406.75</ele><time>2026-04-12T08:28:05.123Z</time></trkpt><trkpt lat="42.9498698" lon="13.5938197"><ele>406.0</ele><time>2026-04-12T08:28:06.13Z</time></trkpt><trkpt lat="42.9500055" lon="13.5938947"><ele>405.5</ele><time>2026-04-12T08:28:07.16Z</time></trkpt><trkpt lat="42.950143" lon="13.5939624"><ele>405.0</ele><time>2026-04-12T08:28:08.122Z</time></trkpt><trkpt lat="42.9502891" lon="13.594026"><ele>404.5</ele><time>2026-04-12T08:28:09.135Z</time></trkpt><trkpt lat="42.9504322" lon="13.5940808"><ele>404.0</ele><time>2026-04-12T08:28:10.115Z</time></trkpt><trkpt lat="42.9505724" lon="13.5941278"><ele>404.0</ele><time>2026-04-12T08:28:11.125Z</time></trkpt><trkpt lat="42.9507086" lon="13.5941647"><ele>404.0</ele><time>2026-04-12T08:28:12.129Z</time></trkpt><trkpt lat="42.9508449" lon="13.5941888"><ele>404.0</ele><time>2026-04-12T08:28:13.13Z</time></trkpt><trkpt lat="42.9509765" lon="13.5942059"><ele>404.0</ele><time>2026-04-12T08:28:14.121Z</time></trkpt><trkpt lat="42.951104" lon="13.5942094"><ele>402.5</ele><time>2026-04-12T08:28:15.117Z</time></trkpt><trkpt lat="42.9512249" lon="13.5941985"><ele>401.0</ele><time>2026-04-12T08:28:16.145Z</time></trkpt><trkpt lat="42.9513323" lon="13.5941569"><ele>399.5</ele><time>2026-04-12T08:28:17.127Z</time></trkpt><trkpt lat="42.9514185" lon="13.5940614"><ele>398.0</ele><time>2026-04-12T08:28:18.128Z</time></trkpt><trkpt lat="42.9514711" lon="13.5939124"><ele>398.0</ele><time>2026-04-12T08:28:19.124Z</time></trkpt><trkpt lat="42.9514848" lon="13.5937241"><ele>398.0</ele><time>2026-04-12T08:28:20.122Z</time></trkpt><trkpt lat="42.9514813" lon="13.5935315"><ele>398.0</ele><time>2026-04-12T08:28:21.116Z</time></trkpt><trkpt lat="42.9514754" lon="13.593339"><ele>398.0</ele><time>2026-04-12T08:28:22.125Z</time></trkpt><trkpt lat="42.9514677" lon="13.5929544"><ele>396.5</ele><time>2026-04-12T08:28:24.118Z</time></trkpt><trkpt lat="42.9514644" lon="13.5927587"><ele>395.0</ele><time>2026-04-12T08:28:25.114Z</time></trkpt><trkpt lat="42.9514656" lon="13.5925623"><ele>393.5</ele><time>2026-04-12T08:28:26.152Z</time></trkpt><trkpt lat="42.9514717" lon="13.5923719"><ele>392.0</ele><time>2026-04-12T08:28:27.115Z</time></trkpt><trkpt lat="42.9514826" lon="13.5921737"><ele>391.0</ele><time>2026-04-12T08:28:28.122Z</time></trkpt><trkpt lat="42.9514974" lon="13.5919709"><ele>390.0</ele><time>2026-04-12T08:28:29.119Z</time></trkpt><trkpt lat="42.9515173" lon="13.5917652"><ele>389.0</ele><time>2026-04-12T08:28:30.117Z</time></trkpt><trkpt lat="42.9515436" lon="13.5915593"><ele>389.0</ele><time>2026-04-12T08:28:31.13Z</time></trkpt><trkpt lat="42.9515773" lon="13.5913534"><ele>389.0</ele><time>2026-04-12T08:28:32.122Z</time></trkpt><trkpt lat="42.9516188" lon="13.5911436"><ele>389.0</ele><time>2026-04-12T08:28:33.117Z</time></trkpt><trkpt lat="42.9516668" lon="13.5909333"><ele>383.0</ele><time>2026-04-12T08:28:34.125Z</time></trkpt><trkpt lat="42.9517182" lon="13.5907223"><ele>377.0</ele><time>2026-04-12T08:28:35.124Z</time></trkpt><trkpt lat="42.9517718" lon="13.5905131"><ele>371.0</ele><time>2026-04-12T08:28:36.115Z</time></trkpt><trkpt lat="42.9518268" lon="13.5903055"><ele>371.0</ele><time>2026-04-12T08:28:37.119Z</time></trkpt><trkpt lat="42.9518854" lon="13.5901015"><ele>371.0</ele><time>2026-04-12T08:28:38.126Z</time></trkpt><trkpt lat="42.9519466" lon="13.5898976"><ele>371.0</ele><time>2026-04-12T08:28:39.116Z</time></trkpt><trkpt lat="42.9520094" lon="13.5896936"><ele>372.33333333333337</ele><time>2026-04-12T08:28:40.135Z</time></trkpt><trkpt lat="42.9520744" lon="13.5894973"><ele>373.6666666666667</ele><time>2026-04-12T08:28:41.117Z</time></trkpt><trkpt lat="42.952143" lon="13.5892975"><ele>375.0</ele><time>2026-04-12T08:28:42.15Z</time></trkpt><trkpt lat="42.9522139" lon="13.5890972"><ele>375.0</ele><time>2026-04-12T08:28:43.123Z</time></trkpt><trkpt lat="42.9523645" lon="13.5886798"><ele>375.0</ele><time>2026-04-12T08:28:45.133Z</time></trkpt><trkpt lat="42.9524424" lon="13.58847"><ele>375.6666666666667</ele><time>2026-04-12T08:28:46.123Z</time></trkpt><trkpt lat="42.9525198" lon="13.5882615"><ele>376.33333333333337</ele><time>2026-04-12T08:28:47.119Z</time></trkpt><trkpt lat="42.9525924" lon="13.5880581"><ele>377.0</ele><time>2026-04-12T08:28:48.123Z</time></trkpt><trkpt lat="42.9526581" lon="13.5878626"><ele>373.0</ele><time>2026-04-12T08:28:49.118Z</time></trkpt><trkpt lat="42.9527214" lon="13.5876759"><ele>369.0</ele><time>2026-04-12T08:28:50.113Z</time></trkpt><trkpt lat="42.9527835" lon="13.5874971"><ele>365.0</ele><time>2026-04-12T08:28:51.128Z</time></trkpt><trkpt lat="42.9528424" lon="13.5873264"><ele>361.0</ele><time>2026-04-12T08:28:52.114Z</time></trkpt><trkpt lat="42.9528958" lon="13.5871578"><ele>360.75</ele><time>2026-04-12T08:28:53.148Z</time></trkpt><trkpt lat="42.9529381" lon="13.5869905"><ele>360.5</ele><time>2026-04-12T08:28:54.125Z</time></trkpt><trkpt lat="42.9529709" lon="13.5868143"><ele>360.25</ele><time>2026-04-12T08:28:55.112Z</time></trkpt><trkpt lat="42.9529998" lon="13.586629"><ele>360.0</ele><time>2026-04-12T08:28:56.128Z</time></trkpt><trkpt lat="42.9530284" lon="13.5864415"><ele>360.0</ele><time>2026-04-12T08:28:57.118Z</time></trkpt><trkpt lat="42.9530621" lon="13.5862464"><ele>360.0</ele><time>2026-04-12T08:28:58.125Z</time></trkpt><trkpt lat="42.9530974" lon="13.5860465"><ele>360.0</ele><time>2026-04-12T08:28:59.117Z</time></trkpt><trkpt lat="42.953131" lon="13.5858411"><ele>359.6666666666667</ele><time>2026-04-12T08:29:00.118Z</time></trkpt><trkpt lat="42.9531596" lon="13.5856352"><ele>359.33333333333337</ele><time>2026-04-12T08:29:01.116Z</time></trkpt><trkpt lat="42.953188" lon="13.5854265"><ele>359.0</ele><time>2026-04-12T08:29:02.125Z</time></trkpt><trkpt lat="42.953216" lon="13.5852224"><ele>359.6666666666667</ele><time>2026-04-12T08:29:03.117Z</time></trkpt><trkpt lat="42.9532415" lon="13.5850206"><ele>360.3333333333333</ele><time>2026-04-12T08:29:04.115Z</time></trkpt><trkpt lat="42.9532804" lon="13.5846227"><ele>361.0</ele><time>2026-04-12T08:29:06.115Z</time></trkpt><trkpt lat="42.9532893" lon="13.5844252"><ele>359.25</ele><time>2026-04-12T08:29:07.119Z</time></trkpt><trkpt lat="42.9532827" lon="13.5842317"><ele>357.5</ele><time>2026-04-12T08:29:08.146Z</time></trkpt><trkpt lat="42.953251" lon="13.5840488"><ele>355.75</ele><time>2026-04-12T08:29:09.122Z</time></trkpt><trkpt lat="42.9532076" lon="13.5838619"><ele>354.0</ele><time>2026-04-12T08:29:10.133Z</time></trkpt><trkpt lat="42.953153" lon="13.5836786"><ele>352.0</ele><time>2026-04-12T08:29:11.124Z</time></trkpt><trkpt lat="42.95309" lon="13.5835028"><ele>350.0</ele><time>2026-04-12T08:29:12.117Z</time></trkpt><trkpt lat="42.9530193" lon="13.5833386"><ele>348.0</ele><time>2026-04-12T08:29:13.119Z</time></trkpt><trkpt lat="42.9529473" lon="13.5831868"><ele>346.0</ele><time>2026-04-12T08:29:14.149Z</time></trkpt><trkpt lat="42.9528712" lon="13.5830597"><ele>346.0</ele><time>2026-04-12T08:29:15.116Z</time></trkpt><trkpt lat="42.9527764" lon="13.5829589"><ele>346.0</ele><time>2026-04-12T08:29:16.118Z</time></trkpt><trkpt lat="42.9526601" lon="13.5828899"><ele>346.0</ele><time>2026-04-12T08:29:17.12Z</time></trkpt><trkpt lat="42.9525302" lon="13.5828495"><ele>346.0</ele><time>2026-04-12T08:29:18.124Z</time></trkpt><trkpt lat="42.9523842" lon="13.5828409"><ele>361.0</ele><time>2026-04-12T08:29:19.125Z</time></trkpt><trkpt lat="42.9518849" lon="13.582905"><ele>361.0</ele><time>2026-04-12T08:29:22.113Z</time></trkpt><trkpt lat="42.9517092" lon="13.5829568"><ele>361.0</ele><time>2026-04-12T08:29:23.118Z</time></trkpt><trkpt lat="42.9515345" lon="13.58303"><ele>361.0</ele><time>2026-04-12T08:29:24.125Z</time></trkpt><trkpt lat="42.9513704" lon="13.5831203"><ele>360.0</ele><time>2026-04-12T08:29:25.116Z</time></trkpt><trkpt lat="42.9510864" lon="13.5833087"><ele>359.0</ele><time>2026-04-12T08:29:27.123Z</time></trkpt><trkpt lat="42.9509669" lon="13.5833864"><ele>358.0</ele><time>2026-04-12T08:29:28.115Z</time></trkpt><trkpt lat="42.9507463" lon="13.5834642"><ele>354.5</ele><time>2026-04-12T08:29:30.122Z</time></trkpt><trkpt lat="42.9506333" lon="13.5834436"><ele>351.0</ele><time>2026-04-12T08:29:31.126Z</time></trkpt><trkpt lat="42.9505155" lon="13.5833811"><ele>347.5</ele><time>2026-04-12T08:29:32.129Z</time></trkpt><trkpt lat="42.9503954" lon="13.5832929"><ele>344.0</ele><time>2026-04-12T08:29:33.12Z</time></trkpt><trkpt lat="42.9502833" lon="13.5832017"><ele>344.0</ele><time>2026-04-12T08:29:34.129Z</time></trkpt><trkpt lat="42.9501879" lon="13.5831041"><ele>344.0</ele><time>2026-04-12T08:29:35.127Z</time></trkpt><trkpt lat="42.9501164" lon="13.5829823"><ele>344.0</ele><time>2026-04-12T08:29:36.115Z</time></trkpt><trkpt lat="42.9500767" lon="13.5828267"><ele>344.0</ele><time>2026-04-12T08:29:37.114Z</time></trkpt><trkpt lat="42.9500871" lon="13.5826356"><ele>343.25</ele><time>2026-04-12T08:29:38.118Z</time></trkpt><trkpt lat="42.9501337" lon="13.5824489"><ele>342.5</ele><time>2026-04-12T08:29:39.118Z</time></trkpt><trkpt lat="42.9502134" lon="13.5822699"><ele>341.75</ele><time>2026-04-12T08:29:40.124Z</time></trkpt><trkpt lat="42.9503048" lon="13.58211"><ele>341.0</ele><time>2026-04-12T08:29:41.114Z</time></trkpt><trkpt lat="42.9504182" lon="13.5819897"><ele>340.25</ele><time>2026-04-12T08:29:42.119Z</time></trkpt><trkpt lat="42.9505419" lon="13.5818962"><ele>339.5</ele><time>2026-04-12T08:29:43.119Z</time></trkpt><trkpt lat="42.9506712" lon="13.581818"><ele>338.75</ele><time>2026-04-12T08:29:44.132Z</time></trkpt><trkpt lat="42.9507916" lon="13.5817431"><ele>338.0</ele><time>2026-04-12T08:29:45.113Z</time></trkpt><trkpt lat="42.9509013" lon="13.5816603"><ele>338.0</ele><time>2026-04-12T08:29:46.129Z</time></trkpt><trkpt lat="42.951078" lon="13.5814595"><ele>338.0</ele><time>2026-04-12T08:29:48.121Z</time></trkpt><trkpt lat="42.9511606" lon="13.5813369"><ele>338.0</ele><time>2026-04-12T08:29:49.133Z</time></trkpt><trkpt lat="42.9512437" lon="13.5812031"><ele>340.5</ele><time>2026-04-12T08:29:50.116Z</time></trkpt><trkpt lat="42.9513298" lon="13.5810617"><ele>343.0</ele><time>2026-04-12T08:29:51.128Z</time></trkpt><trkpt lat="42.9514101" lon="13.5809189"><ele>345.5</ele><time>2026-04-12T08:29:52.121Z</time></trkpt><trkpt lat="42.9514899" lon="13.5807721"><ele>348.0</ele><time>2026-04-12T08:29:53.118Z</time></trkpt><trkpt lat="42.9515716" lon="13.5806221"><ele>348.0</ele><time>2026-04-12T08:29:54.116Z</time></trkpt><trkpt lat="42.9516458" lon="13.580462"><ele>348.0</ele><time>2026-04-12T08:29:55.121Z</time></trkpt><trkpt lat="42.9517039" lon="13.5802872"><ele>348.0</ele><time>2026-04-12T08:29:56.121Z</time></trkpt><trkpt lat="42.9517444" lon="13.580095"><ele>348.0</ele><time>2026-04-12T08:29:57.149Z</time></trkpt><trkpt lat="42.9517744" lon="13.5798968"><ele>347.0</ele><time>2026-04-12T08:29:58.123Z</time></trkpt><trkpt lat="42.9518036" lon="13.5796953"><ele>346.0</ele><time>2026-04-12T08:29:59.126Z</time></trkpt><trkpt lat="42.9518284" lon="13.5794916"><ele>345.0</ele><time>2026-04-12T08:30:00.144Z</time></trkpt><trkpt lat="42.9518575" lon="13.5792941"><ele>344.0</ele><time>2026-04-12T08:30:01.121Z</time></trkpt><trkpt lat="42.951898" lon="13.5791062"><ele>343.25</ele><time>2026-04-12T08:30:02.118Z</time></trkpt><trkpt lat="42.9519567" lon="13.5789427"><ele>342.5</ele><time>2026-04-12T08:30:03.127Z</time></trkpt><trkpt lat="42.9520499" lon="13.5788189"><ele>341.75</ele><time>2026-04-12T08:30:04.12Z</time></trkpt><trkpt lat="42.9521653" lon="13.5787227"><ele>341.0</ele><time>2026-04-12T08:30:05.125Z</time></trkpt><trkpt lat="42.9522979" lon="13.5786537"><ele>342.33333333333337</ele><time>2026-04-12T08:30:06.163Z</time></trkpt><trkpt lat="42.9524304" lon="13.5786048"><ele>343.6666666666667</ele><time>2026-04-12T08:30:07.115Z</time></trkpt><trkpt lat="42.9527238" lon="13.5785425"><ele>345.0</ele><time>2026-04-12T08:30:09.12Z</time></trkpt><trkpt lat="42.9528751" lon="13.5785124"><ele>345.0</ele><time>2026-04-12T08:30:10.152Z</time></trkpt><trkpt lat="42.9530195" lon="13.5784783"><ele>345.0</ele><time>2026-04-12T08:30:11.119Z</time></trkpt><trkpt lat="42.9531642" lon="13.5784287"><ele>345.0</ele><time>2026-04-12T08:30:12.151Z</time></trkpt><trkpt lat="42.9532936" lon="13.5783576"><ele>345.0</ele><time>2026-04-12T08:30:13.121Z</time></trkpt><trkpt lat="42.9534116" lon="13.5782488"><ele>344.3333333333333</ele><time>2026-04-12T08:30:14.12Z</time></trkpt><trkpt lat="42.9535183" lon="13.5781101"><ele>343.66666666666663</ele><time>2026-04-12T08:30:15.121Z</time></trkpt><trkpt lat="42.9536182" lon="13.5779508"><ele>343.0</ele><time>2026-04-12T08:30:16.124Z</time></trkpt><trkpt lat="42.9537304" lon="13.5778002"><ele>343.0</ele><time>2026-04-12T08:30:17.12Z</time></trkpt><trkpt lat="42.9538497" lon="13.5776634"><ele>343.0</ele><time>2026-04-12T08:30:18.118Z</time></trkpt><trkpt lat="42.9539766" lon="13.5775402"><ele>343.0</ele><time>2026-04-12T08:30:19.116Z</time></trkpt><trkpt lat="42.9541058" lon="13.5774216"><ele>341.5</ele><time>2026-04-12T08:30:20.128Z</time></trkpt><trkpt lat="42.9542253" lon="13.5772941"><ele>340.0</ele><time>2026-04-12T08:30:21.117Z</time></trkpt><trkpt lat="42.9543331" lon="13.577152"><ele>338.5</ele><time>2026-04-12T08:30:22.123Z</time></trkpt><trkpt lat="42.9544269" lon="13.5769991"><ele>337.0</ele><time>2026-04-12T08:30:23.12Z</time></trkpt><trkpt lat="42.9544997" lon="13.5768317"><ele>337.0</ele><time>2026-04-12T08:30:24.138Z</time></trkpt><trkpt lat="42.9545492" lon="13.5766576"><ele>337.0</ele><time>2026-04-12T08:30:25.124Z</time></trkpt><trkpt lat="42.9545705" lon="13.5764673"><ele>337.0</ele><time>2026-04-12T08:30:26.121Z</time></trkpt><trkpt lat="42.9545665" lon="13.5762735"><ele>337.0</ele><time>2026-04-12T08:30:27.144Z</time></trkpt><trkpt lat="42.9545514" lon="13.5760817"><ele>338.0</ele><time>2026-04-12T08:30:28.126Z</time></trkpt><trkpt lat="42.9545131" lon="13.5757058"><ele>339.0</ele><time>2026-04-12T08:30:30.132Z</time></trkpt><trkpt lat="42.9545194" lon="13.5755318"><ele>340.0</ele><time>2026-04-12T08:30:31.121Z</time></trkpt><trkpt lat="42.9545524" lon="13.5753559"><ele>341.0</ele><time>2026-04-12T08:30:32.121Z</time></trkpt><trkpt lat="42.9546016" lon="13.5751801"><ele>342.0</ele><time>2026-04-12T08:30:33.119Z</time></trkpt><trkpt lat="42.9546565" lon="13.5750094"><ele>343.0</ele><time>2026-04-12T08:30:34.115Z</time></trkpt><trkpt lat="42.9547066" lon="13.5748596"><ele>344.0</ele><time>2026-04-12T08:30:35.131Z</time></trkpt><trkpt lat="42.9547443" lon="13.5747371"><ele>344.0</ele><time>2026-04-12T08:30:36.119Z</time></trkpt><trkpt lat="42.9547727" lon="13.5746381"><ele>344.0</ele><time>2026-04-12T08:30:37.148Z</time></trkpt><trkpt lat="42.9548179" lon="13.5745268"><ele>344.0</ele><time>2026-04-12T08:30:39.113Z</time></trkpt><trkpt lat="42.9548705" lon="13.5744474"><ele>344.0</ele><time>2026-04-12T08:31:36.118Z</time></trkpt><trkpt lat="42.9550199" lon="13.5742829"><ele>344.0</ele><time>2026-04-12T08:31:39.119Z</time></trkpt><trkpt lat="42.9550999" lon="13.5742097"><ele>339.25</ele><time>2026-04-12T08:31:40.123Z</time></trkpt><trkpt lat="42.9551954" lon="13.574132"><ele>334.5</ele><time>2026-04-12T08:31:41.118Z</time></trkpt><trkpt lat="42.9553022" lon="13.5740572"><ele>329.75</ele><time>2026-04-12T08:31:42.124Z</time></trkpt><trkpt lat="42.955419" lon="13.5739914"><ele>325.0</ele><time>2026-04-12T08:31:43.129Z</time></trkpt><trkpt lat="42.9555448" lon="13.5739353"><ele>325.0</ele><time>2026-04-12T08:31:44.125Z</time></trkpt><trkpt lat="42.9556789" lon="13.5738794"><ele>325.0</ele><time>2026-04-12T08:31:45.126Z</time></trkpt><trkpt lat="42.9558176" lon="13.5738172"><ele>325.0</ele><time>2026-04-12T08:31:46.126Z</time></trkpt><trkpt lat="42.9559632" lon="13.5737486"><ele>325.0</ele><time>2026-04-12T08:31:47.123Z</time></trkpt><trkpt lat="42.956116" lon="13.5736745"><ele>324.66666666666663</ele><time>2026-04-12T08:31:48.121Z</time></trkpt><trkpt lat="42.9562748" lon="13.5735948"><ele>324.3333333333333</ele><time>2026-04-12T08:31:49.121Z</time></trkpt><trkpt lat="42.9564384" lon="13.573515"><ele>324.0</ele><time>2026-04-12T08:31:50.119Z</time></trkpt><trkpt lat="42.9566032" lon="13.5734388"><ele>328.0</ele><time>2026-04-12T08:31:51.123Z</time></trkpt><trkpt lat="42.9567706" lon="13.5733612"><ele>332.0</ele><time>2026-04-12T08:31:52.125Z</time></trkpt><trkpt lat="42.9569378" lon="13.5732802"><ele>336.0</ele><time>2026-04-12T08:31:53.128Z</time></trkpt><trkpt lat="42.9571029" lon="13.5732014"><ele>336.0</ele><time>2026-04-12T08:31:54.118Z</time></trkpt><trkpt lat="42.9572661" lon="13.5731217"><ele>336.0</ele><time>2026-04-12T08:31:55.118Z</time></trkpt><trkpt lat="42.9574264" lon="13.5730414"><ele>336.0</ele><time>2026-04-12T08:31:56.16Z</time></trkpt><trkpt lat="42.9575814" lon="13.5729626"><ele>341.5</ele><time>2026-04-12T08:31:57.123Z</time></trkpt><trkpt lat="42.957892" lon="13.5728136"><ele>347.0</ele><time>2026-04-12T08:31:59.12Z</time></trkpt><trkpt lat="42.9580427" lon="13.5727424"><ele>347.0</ele><time>2026-04-12T08:32:00.114Z</time></trkpt><trkpt lat="42.9581881" lon="13.5726713"><ele>347.0</ele><time>2026-04-12T08:32:01.114Z</time></trkpt><trkpt lat="42.9583303" lon="13.572599"><ele>347.0</ele><time>2026-04-12T08:32:02.147Z</time></trkpt><trkpt lat="42.9584723" lon="13.572527"><ele>348.25</ele><time>2026-04-12T08:32:03.119Z</time></trkpt><trkpt lat="42.9586142" lon="13.5724561"><ele>349.5</ele><time>2026-04-12T08:32:04.151Z</time></trkpt><trkpt lat="42.9587484" lon="13.5723903"><ele>350.75</ele><time>2026-04-12T08:32:05.117Z</time></trkpt><trkpt lat="42.9588762" lon="13.5723268"><ele>352.0</ele><time>2026-04-12T08:32:06.121Z</time></trkpt><trkpt lat="42.9589901" lon="13.5722695"><ele>352.0</ele><time>2026-04-12T08:32:07.12Z</time></trkpt><trkpt lat="42.9590887" lon="13.5722213"><ele>352.0</ele><time>2026-04-12T08:32:08.121Z</time></trkpt><trkpt lat="42.9591686" lon="13.5721896"><ele>352.0</ele><time>2026-04-12T08:32:09.117Z</time></trkpt><trkpt lat="42.9592522" lon="13.5721719"><ele>352.0</ele><time>2026-04-12T08:32:11.126Z</time></trkpt><trkpt lat="42.9592085" lon="13.5722745"><ele>352.0</ele><time>2026-04-12T08:32:14.125Z</time></trkpt><trkpt lat="42.9591296" lon="13.5723845"><ele>352.0</ele><time>2026-04-12T08:32:16.114Z</time></trkpt><trkpt lat="42.9590808" lon="13.5724587"><ele>352.0</ele><time>2026-04-12T08:32:17.126Z</time></trkpt><trkpt lat="42.9590407" lon="13.5725463"><ele>352.0</ele><time>2026-04-12T08:32:18.12Z</time></trkpt><trkpt lat="42.9589799" lon="13.5727378"><ele>352.0</ele><time>2026-04-12T08:32:20.114Z</time></trkpt><trkpt lat="42.9589542" lon="13.5728171"><ele>352.0</ele><time>2026-04-12T08:32:21.125Z</time></trkpt><trkpt lat="42.9589028" lon="13.5729534"><ele>350.16666666666663</ele><time>2026-04-12T08:32:23.133Z</time></trkpt><trkpt lat="42.9588711" lon="13.57303"><ele>348.3333333333333</ele><time>2026-04-12T08:32:24.119Z</time></trkpt><trkpt lat="42.9588393" lon="13.5731115"><ele>346.5</ele><time>2026-04-12T08:32:25.127Z</time></trkpt><trkpt lat="42.9588097" lon="13.5731976"><ele>344.6666666666667</ele><time>2026-04-12T08:32:26.118Z</time></trkpt><trkpt lat="42.9587769" lon="13.5732874"><ele>342.83333333333337</ele><time>2026-04-12T08:32:27.115Z</time></trkpt><trkpt lat="42.9587391" lon="13.5733869"><ele>341.0</ele><time>2026-04-12T08:32:28.121Z</time></trkpt><trkpt lat="42.9586948" lon="13.5735016"><ele>341.0</ele><time>2026-04-12T08:32:29.122Z</time></trkpt><trkpt lat="42.9586438" lon="13.5736316"><ele>341.0</ele><time>2026-04-12T08:32:30.115Z</time></trkpt><trkpt lat="42.9585917" lon="13.5737751"><ele>341.0</ele><time>2026-04-12T08:32:31.125Z</time></trkpt><trkpt lat="42.9585405" lon="13.5739265"><ele>341.0</ele><time>2026-04-12T08:32:32.121Z</time></trkpt><trkpt lat="42.9584916" lon="13.5740786"><ele>341.20000000000005</ele><time>2026-04-12T08:32:33.114Z</time></trkpt><trkpt lat="42.9584441" lon="13.5742173"><ele>341.40000000000003</ele><time>2026-04-12T08:32:34.121Z</time></trkpt><trkpt lat="42.9583987" lon="13.5743362"><ele>341.6</ele><time>2026-04-12T08:32:35.119Z</time></trkpt><trkpt lat="42.958353" lon="13.5744437"><ele>341.8</ele><time>2026-04-12T08:32:36.122Z</time></trkpt><trkpt lat="42.9583055" lon="13.5745447"><ele>342.0</ele><time>2026-04-12T08:32:37.131Z</time></trkpt><trkpt lat="42.9582597" lon="13.5746338"><ele>342.0</ele><time>2026-04-12T08:32:38.121Z</time></trkpt><trkpt lat="42.9581895" lon="13.5747316"><ele>342.0</ele><time>2026-04-12T08:32:40.131Z</time></trkpt><trkpt lat="42.9581555" lon="13.5746815"><ele>342.0</ele><time>2026-04-12T08:33:17.127Z</time></trkpt><trkpt lat="42.9583064" lon="13.5745121"><ele>342.0</ele><time>2026-04-12T08:33:21.12Z</time></trkpt><trkpt lat="42.958353" lon="13.5744116"><ele>342.0</ele><time>2026-04-12T08:33:22.129Z</time></trkpt><trkpt lat="42.9583995" lon="13.5742883"><ele>339.75</ele><time>2026-04-12T08:33:23.114Z</time></trkpt><trkpt lat="42.9584501" lon="13.5741534"><ele>337.5</ele><time>2026-04-12T08:33:24.126Z</time></trkpt><trkpt lat="42.9584994" lon="13.5740139"><ele>335.25</ele><time>2026-04-12T08:33:25.126Z</time></trkpt><trkpt lat="42.9585474" lon="13.5738649"><ele>333.0</ele><time>2026-04-12T08:33:26.118Z</time></trkpt><trkpt lat="42.9585965" lon="13.5737062"><ele>335.0</ele><time>2026-04-12T08:33:27.116Z</time></trkpt><trkpt lat="42.9586532" lon="13.5735435"><ele>337.0</ele><time>2026-04-12T08:33:28.118Z</time></trkpt><trkpt lat="42.9587158" lon="13.5733819"><ele>339.0</ele><time>2026-04-12T08:33:29.118Z</time></trkpt><trkpt lat="42.958782" lon="13.573219"><ele>341.0</ele><time>2026-04-12T08:33:30.119Z</time></trkpt><trkpt lat="42.9588504" lon="13.5730561"><ele>341.0</ele><time>2026-04-12T08:33:31.114Z</time></trkpt><trkpt lat="42.9589209" lon="13.5728936"><ele>341.0</ele><time>2026-04-12T08:33:32.121Z</time></trkpt><trkpt lat="42.9589931" lon="13.5727368"><ele>341.0</ele><time>2026-04-12T08:33:33.125Z</time></trkpt><trkpt lat="42.9590565" lon="13.572587"><ele>341.0</ele><time>2026-04-12T08:33:34.119Z</time></trkpt><trkpt lat="42.9591127" lon="13.572446"><ele>341.75</ele><time>2026-04-12T08:33:35.118Z</time></trkpt><trkpt lat="42.9591702" lon="13.5723219"><ele>342.5</ele><time>2026-04-12T08:33:36.121Z</time></trkpt><trkpt lat="42.959224" lon="13.5722217"><ele>343.25</ele><time>2026-04-12T08:33:37.115Z</time></trkpt><trkpt lat="42.9592675" lon="13.5721469"><ele>344.0</ele><time>2026-04-12T08:33:38.132Z</time></trkpt><trkpt lat="42.9594844" lon="13.5719976"><ele>346.5</ele><time>2026-04-12T08:33:42.13Z</time></trkpt><trkpt lat="42.9595785" lon="13.5719571"><ele>349.0</ele><time>2026-04-12T08:33:43.153Z</time></trkpt><trkpt lat="42.9596927" lon="13.5718979"><ele>351.5</ele><time>2026-04-12T08:33:44.119Z</time></trkpt><trkpt lat="42.9598187" lon="13.5718265"><ele>354.0</ele><time>2026-04-12T08:33:45.128Z</time></trkpt><trkpt lat="42.9599386" lon="13.5717362"><ele>352.75</ele><time>2026-04-12T08:33:46.118Z</time></trkpt><trkpt lat="42.960055" lon="13.5716292"><ele>351.5</ele><time>2026-04-12T08:33:47.118Z</time></trkpt><trkpt lat="42.9601731" lon="13.5715109"><ele>350.25</ele><time>2026-04-12T08:33:48.133Z</time></trkpt><trkpt lat="42.9602912" lon="13.571388"><ele>349.0</ele><time>2026-04-12T08:33:49.133Z</time></trkpt><trkpt lat="42.9604077" lon="13.5712592"><ele>352.0</ele><time>2026-04-12T08:33:50.117Z</time></trkpt><trkpt lat="42.9605196" lon="13.5711184"><ele>355.0</ele><time>2026-04-12T08:33:51.132Z</time></trkpt><trkpt lat="42.9606254" lon="13.5709682"><ele>358.0</ele><time>2026-04-12T08:33:52.125Z</time></trkpt><trkpt lat="42.9607306" lon="13.5708089"><ele>358.0</ele><time>2026-04-12T08:33:53.118Z</time></trkpt><trkpt lat="42.9608343" lon="13.5706412"><ele>358.0</ele><time>2026-04-12T08:33:54.136Z</time></trkpt><trkpt lat="42.9609347" lon="13.5704626"><ele>358.0</ele><time>2026-04-12T08:33:55.13Z</time></trkpt><trkpt lat="42.9610317" lon="13.570274"><ele>361.0</ele><time>2026-04-12T08:33:56.117Z</time></trkpt><trkpt lat="42.9611265" lon="13.570077"><ele>364.0</ele><time>2026-04-12T08:33:57.144Z</time></trkpt><trkpt lat="42.9612206" lon="13.5698803"><ele>367.0</ele><time>2026-04-12T08:33:58.125Z</time></trkpt><trkpt lat="42.9613968" lon="13.5695208"><ele>368.40000000000003</ele><time>2026-04-12T08:34:00.115Z</time></trkpt><trkpt lat="42.9614664" lon="13.5693815"><ele>369.8</ele><time>2026-04-12T08:34:01.126Z</time></trkpt><trkpt lat="42.9615158" lon="13.5692843"><ele>371.2</ele><time>2026-04-12T08:34:02.124Z</time></trkpt><trkpt lat="42.9615546" lon="13.5692165"><ele>372.6</ele><time>2026-04-12T08:34:03.134Z</time></trkpt><trkpt lat="42.9616037" lon="13.5691226"><ele>374.0</ele><time>2026-04-12T08:34:05.122Z</time></trkpt><trkpt lat="42.9615073" lon="13.5692352"><ele>374.0</ele><time>2026-04-12T08:34:09.127Z</time></trkpt><trkpt lat="42.961466" lon="13.5693406"><ele>374.0</ele><time>2026-04-12T08:34:10.136Z</time></trkpt><trkpt lat="42.9614404" lon="13.5694322"><ele>374.0</ele><time>2026-04-12T08:34:11.125Z</time></trkpt><trkpt lat="42.9614495" lon="13.5695841"><ele>374.0</ele><time>2026-04-12T08:34:13.117Z</time></trkpt><trkpt lat="42.9615" lon="13.569652"><ele>374.0</ele><time>2026-04-12T08:34:14.118Z</time></trkpt><trkpt lat="42.9615809" lon="13.5697086"><ele>374.0</ele><time>2026-04-12T08:34:15.131Z</time></trkpt><trkpt lat="42.9616783" lon="13.569762"><ele>372.4</ele><time>2026-04-12T08:34:16.129Z</time></trkpt><trkpt lat="42.9617744" lon="13.5698022"><ele>370.79999999999995</ele><time>2026-04-12T08:34:17.113Z</time></trkpt><trkpt lat="42.9618538" lon="13.5698288"><ele>369.20000000000005</ele><time>2026-04-12T08:34:18.122Z</time></trkpt><trkpt lat="42.9619232" lon="13.5698102"><ele>367.6</ele><time>2026-04-12T08:34:20.124Z</time></trkpt><trkpt lat="42.9618706" lon="13.5695846"><ele>366.0</ele><time>2026-04-12T08:34:23.126Z</time></trkpt><trkpt lat="42.9618478" lon="13.5694725"><ele>366.0</ele><time>2026-04-12T08:34:24.132Z</time></trkpt><trkpt lat="42.9618257" lon="13.5693404"><ele>366.0</ele><time>2026-04-12T08:34:25.118Z</time></trkpt><trkpt lat="42.9617984" lon="13.5692022"><ele>366.0</ele><time>2026-04-12T08:34:26.123Z</time></trkpt><trkpt lat="42.9617667" lon="13.5690656"><ele>366.0</ele><time>2026-04-12T08:34:27.125Z</time></trkpt><trkpt lat="42.9617387" lon="13.5689364"><ele>366.0</ele><time>2026-04-12T08:34:28.123Z</time></trkpt><trkpt lat="42.9617069" lon="13.5688203"><ele>367.6</ele><time>2026-04-12T08:34:29.133Z</time></trkpt><trkpt lat="42.9616627" lon="13.5687122"><ele>369.20000000000005</ele><time>2026-04-12T08:34:30.126Z</time></trkpt><trkpt lat="42.9616047" lon="13.5686086"><ele>370.79999999999995</ele><time>2026-04-12T08:34:31.125Z</time></trkpt><trkpt lat="42.9615379" lon="13.5685079"><ele>372.4</ele><time>2026-04-12T08:34:32.146Z</time></trkpt><trkpt lat="42.9614715" lon="13.5684025"><ele>374.0</ele><time>2026-04-12T08:34:33.12Z</time></trkpt><trkpt lat="42.9614055" lon="13.5682884"><ele>375.75</ele><time>2026-04-12T08:34:34.119Z</time></trkpt><trkpt lat="42.9613383" lon="13.5681679"><ele>377.5</ele><time>2026-04-12T08:34:35.125Z</time></trkpt><trkpt lat="42.9612719" lon="13.5680408"><ele>379.25</ele><time>2026-04-12T08:34:36.121Z</time></trkpt><trkpt lat="42.9612051" lon="13.5679058"><ele>381.0</ele><time>2026-04-12T08:34:37.127Z</time></trkpt><trkpt lat="42.9611402" lon="13.5677718"><ele>381.5</ele><time>2026-04-12T08:34:38.121Z</time></trkpt><trkpt lat="42.9610754" lon="13.5676398"><ele>382.0</ele><time>2026-04-12T08:34:39.133Z</time></trkpt><trkpt lat="42.9610097" lon="13.5675121"><ele>382.5</ele><time>2026-04-12T08:34:40.119Z</time></trkpt><trkpt lat="42.9609437" lon="13.5673808"><ele>383.0</ele><time>2026-04-12T08:34:41.123Z</time></trkpt><trkpt lat="42.9608156" lon="13.5671007"><ele>386.75</ele><time>2026-04-12T08:34:43.12Z</time></trkpt><trkpt lat="42.9607477" lon="13.5669557"><ele>390.5</ele><time>2026-04-12T08:34:44.132Z</time></trkpt><trkpt lat="42.9606747" lon="13.5668118"><ele>394.25</ele><time>2026-04-12T08:34:45.114Z</time></trkpt><trkpt lat="42.9605943" lon="13.566674"><ele>398.0</ele><time>2026-04-12T08:34:46.155Z</time></trkpt><trkpt lat="42.960505" lon="13.5665573"><ele>398.0</ele><time>2026-04-12T08:34:47.121Z</time></trkpt><trkpt lat="42.960407" lon="13.5664624"><ele>398.0</ele><time>2026-04-12T08:34:48.122Z</time></trkpt><trkpt lat="42.960307" lon="13.5663963"><ele>398.0</ele><time>2026-04-12T08:34:49.636Z</time></trkpt><trkpt lat="42.9601886" lon="13.5663342"><ele>398.0</ele><time>2026-04-12T08:34:51.119Z</time></trkpt><trkpt lat="42.9601778" lon="13.5662403"><ele>398.0</ele><time>2026-04-12T08:34:53.119Z</time></trkpt><trkpt lat="42.9602141" lon="13.566168"><ele>398.59999999999997</ele><time>2026-04-12T08:34:54.122Z</time></trkpt><trkpt lat="42.9602542" lon="13.5660679"><ele>399.2</ele><time>2026-04-12T08:34:55.114Z</time></trkpt><trkpt lat="42.9602834" lon="13.5659425"><ele>399.8</ele><time>2026-04-12T08:34:56.15Z</time></trkpt><trkpt lat="42.9603076" lon="13.5658068"><ele>400.4</ele><time>2026-04-12T08:34:57.121Z</time></trkpt><trkpt lat="42.9603377" lon="13.5656545"><ele>401.0</ele><time>2026-04-12T08:34:58.122Z</time></trkpt><trkpt lat="42.9603758" lon="13.5654982"><ele>404.25</ele><time>2026-04-12T08:34:59.115Z</time></trkpt><trkpt lat="42.9604249" lon="13.5653494"><ele>407.5</ele><time>2026-04-12T08:35:00.148Z</time></trkpt><trkpt lat="42.9604914" lon="13.5652148"><ele>410.75</ele><time>2026-04-12T08:35:01.118Z</time></trkpt><trkpt lat="42.9605679" lon="13.5650889"><ele>414.0</ele><time>2026-04-12T08:35:02.119Z</time></trkpt><trkpt lat="42.9607781" lon="13.5648923"><ele>411.75</ele><time>2026-04-12T08:35:04.116Z</time></trkpt><trkpt lat="42.9609008" lon="13.5648145"><ele>409.5</ele><time>2026-04-12T08:35:05.128Z</time></trkpt><trkpt lat="42.961014" lon="13.5647334"><ele>407.25</ele><time>2026-04-12T08:35:06.119Z</time></trkpt><trkpt lat="42.9611241" lon="13.5646425"><ele>405.0</ele><time>2026-04-12T08:35:07.16Z</time></trkpt><trkpt lat="42.9612172" lon="13.5645322"><ele>407.0</ele><time>2026-04-12T08:35:08.158Z</time></trkpt><trkpt lat="42.9613034" lon="13.564403"><ele>409.0</ele><time>2026-04-12T08:35:09.12Z</time></trkpt><trkpt lat="42.9613772" lon="13.5642525"><ele>411.0</ele><time>2026-04-12T08:35:10.124Z</time></trkpt><trkpt lat="42.9614465" lon="13.5640882"><ele>413.0</ele><time>2026-04-12T08:35:11.12Z</time></trkpt><trkpt lat="42.9615168" lon="13.5639179"><ele>413.0</ele><time>2026-04-12T08:35:12.158Z</time></trkpt><trkpt lat="42.9615866" lon="13.5637544"><ele>413.0</ele><time>2026-04-12T08:35:13.119Z</time></trkpt><trkpt lat="42.961666" lon="13.5635949"><ele>413.0</ele><time>2026-04-12T08:35:14.149Z</time></trkpt><trkpt lat="42.961759" lon="13.5634504"><ele>413.0</ele><time>2026-04-12T08:35:15.119Z</time></trkpt><trkpt lat="42.961868" lon="13.5633246"><ele>413.75</ele><time>2026-04-12T08:35:16.13Z</time></trkpt><trkpt lat="42.9619814" lon="13.5632094"><ele>414.5</ele><time>2026-04-12T08:35:17.129Z</time></trkpt><trkpt lat="42.9620968" lon="13.5630976"><ele>415.25</ele><time>2026-04-12T08:35:18.126Z</time></trkpt><trkpt lat="42.9622113" lon="13.562985"><ele>416.0</ele><time>2026-04-12T08:35:19.125Z</time></trkpt><trkpt lat="42.9623242" lon="13.5628694"><ele>415.75</ele><time>2026-04-12T08:35:20.129Z</time></trkpt><trkpt lat="42.9624292" lon="13.5627512"><ele>415.5</ele><time>2026-04-12T08:35:21.122Z</time></trkpt><trkpt lat="42.962522" lon="13.5626156"><ele>415.25</ele><time>2026-04-12T08:35:22.122Z</time></trkpt><trkpt lat="42.9625972" lon="13.5624564"><ele>415.0</ele><time>2026-04-12T08:35:23.154Z</time></trkpt><trkpt lat="42.962715" lon="13.5620947"><ele>416.75</ele><time>2026-04-12T08:35:25.133Z</time></trkpt><trkpt lat="42.9627732" lon="13.5619086"><ele>418.5</ele><time>2026-04-12T08:35:26.115Z</time></trkpt><trkpt lat="42.9628312" lon="13.5617195"><ele>420.25</ele><time>2026-04-12T08:35:27.117Z</time></trkpt><trkpt lat="42.9628926" lon="13.5615341"><ele>422.0</ele><time>2026-04-12T08:35:28.152Z</time></trkpt><trkpt lat="42.9629558" lon="13.5613532"><ele>424.75</ele><time>2026-04-12T08:35:29.134Z</time></trkpt><trkpt lat="42.963017" lon="13.561174"><ele>427.5</ele><time>2026-04-12T08:35:30.118Z</time></trkpt><trkpt lat="42.9630772" lon="13.5610067"><ele>430.25</ele><time>2026-04-12T08:35:31.123Z</time></trkpt><trkpt lat="42.9631354" lon="13.5608556"><ele>433.0</ele><time>2026-04-12T08:35:32.156Z</time></trkpt><trkpt lat="42.9631966" lon="13.5607302"><ele>433.0</ele><time>2026-04-12T08:35:33.141Z</time></trkpt><trkpt lat="42.9632716" lon="13.5606335"><ele>432.99999999999994</ele><time>2026-04-12T08:35:34.116Z</time></trkpt><trkpt lat="42.9633617" lon="13.5605711"><ele>432.99999999999994</ele><time>2026-04-12T08:35:35.118Z</time></trkpt><trkpt lat="42.9634651" lon="13.560544"><ele>433.0</ele><time>2026-04-12T08:35:36.118Z</time></trkpt><trkpt lat="42.9635771" lon="13.5605544"><ele>433.0</ele><time>2026-04-12T08:35:37.115Z</time></trkpt><trkpt lat="42.9636877" lon="13.5605849"><ele>432.4</ele><time>2026-04-12T08:35:38.12Z</time></trkpt><trkpt lat="42.9637997" lon="13.5606207"><ele>431.79999999999995</ele><time>2026-04-12T08:35:39.114Z</time></trkpt><trkpt lat="42.9639105" lon="13.5606536"><ele>431.2</ele><time>2026-04-12T08:35:40.119Z</time></trkpt><trkpt lat="42.9640159" lon="13.5606611"><ele>430.6</ele><time>2026-04-12T08:35:41.121Z</time></trkpt><trkpt lat="42.9641165" lon="13.5606318"><ele>430.0</ele><time>2026-04-12T08:35:42.124Z</time></trkpt><trkpt lat="42.9642063" lon="13.5605706"><ele>431.75</ele><time>2026-04-12T08:35:43.121Z</time></trkpt><trkpt lat="42.964287" lon="13.5604877"><ele>433.5</ele><time>2026-04-12T08:35:44.123Z</time></trkpt><trkpt lat="42.9644277" lon="13.5602744"><ele>435.25</ele><time>2026-04-12T08:35:46.132Z</time></trkpt><trkpt lat="42.9644814" lon="13.5601502"><ele>437.0</ele><time>2026-04-12T08:35:47.121Z</time></trkpt><trkpt lat="42.9645195" lon="13.5600245"><ele>438.3333333333333</ele><time>2026-04-12T08:35:48.115Z</time></trkpt><trkpt lat="42.9645489" lon="13.5599067"><ele>439.66666666666663</ele><time>2026-04-12T08:35:49.121Z</time></trkpt><trkpt lat="42.9645887" lon="13.5598021"><ele>441.0</ele><time>2026-04-12T08:35:50.117Z</time></trkpt><trkpt lat="42.964648" lon="13.5597206"><ele>442.33333333333337</ele><time>2026-04-12T08:35:51.129Z</time></trkpt><trkpt lat="42.9647233" lon="13.5596677"><ele>443.6666666666667</ele><time>2026-04-12T08:35:52.124Z</time></trkpt><trkpt lat="42.9648142" lon="13.559651"><ele>445.0</ele><time>2026-04-12T08:35:53.123Z</time></trkpt><trkpt lat="42.9649165" lon="13.5596776"><ele>445.0</ele><time>2026-04-12T08:35:54.116Z</time></trkpt><trkpt lat="42.9650208" lon="13.5597419"><ele>445.0</ele><time>2026-04-12T08:35:55.118Z</time></trkpt><trkpt lat="42.9651136" lon="13.5598411"><ele>445.0</ele><time>2026-04-12T08:35:56.124Z</time></trkpt><trkpt lat="42.9651862" lon="13.5599727"><ele>445.0</ele><time>2026-04-12T08:35:57.119Z</time></trkpt><trkpt lat="42.9652309" lon="13.5601406"><ele>446.25</ele><time>2026-04-12T08:35:58.139Z</time></trkpt><trkpt lat="42.9652505" lon="13.5603205"><ele>447.5</ele><time>2026-04-12T08:35:59.125Z</time></trkpt><trkpt lat="42.9652473" lon="13.5605031"><ele>448.75</ele><time>2026-04-12T08:36:00.139Z</time></trkpt><trkpt lat="42.9652274" lon="13.5606768"><ele>450.0</ele><time>2026-04-12T08:36:01.133Z</time></trkpt><trkpt lat="42.9652011" lon="13.5608406"><ele>450.0</ele><time>2026-04-12T08:36:02.117Z</time></trkpt><trkpt lat="42.9651758" lon="13.5609935"><ele>450.0</ele><time>2026-04-12T08:36:03.128Z</time></trkpt><trkpt lat="42.9651605" lon="13.5611383"><ele>450.0</ele><time>2026-04-12T08:36:04.125Z</time></trkpt><trkpt lat="42.9651589" lon="13.561283"><ele>450.0</ele><time>2026-04-12T08:36:05.156Z</time></trkpt><trkpt lat="42.9652431" lon="13.5615226"><ele>448.0</ele><time>2026-04-12T08:36:07.126Z</time></trkpt><trkpt lat="42.9653297" lon="13.5615952"><ele>446.0</ele><time>2026-04-12T08:36:08.121Z</time></trkpt><trkpt lat="42.9654334" lon="13.5616305"><ele>444.0</ele><time>2026-04-12T08:36:09.117Z</time></trkpt><trkpt lat="42.965551" lon="13.561629"><ele>442.0</ele><time>2026-04-12T08:36:10.131Z</time></trkpt><trkpt lat="42.9656731" lon="13.5616078"><ele>440.0</ele><time>2026-04-12T08:36:11.117Z</time></trkpt><trkpt lat="42.9658019" lon="13.5615778"><ele>440.5</ele><time>2026-04-12T08:36:12.116Z</time></trkpt><trkpt lat="42.9659321" lon="13.5615477"><ele>441.0</ele><time>2026-04-12T08:36:13.123Z</time></trkpt><trkpt lat="42.9660631" lon="13.56152"><ele>441.5</ele><time>2026-04-12T08:36:14.117Z</time></trkpt><trkpt lat="42.9661952" lon="13.5614948"><ele>442.0</ele><time>2026-04-12T08:36:15.139Z</time></trkpt><trkpt lat="42.9663257" lon="13.5614729"><ele>442.0</ele><time>2026-04-12T08:36:16.12Z</time></trkpt><trkpt lat="42.9664522" lon="13.561453"><ele>442.0</ele><time>2026-04-12T08:36:17.117Z</time></trkpt><trkpt lat="42.9665692" lon="13.5614373"><ele>442.0</ele><time>2026-04-12T08:36:18.123Z</time></trkpt><trkpt lat="42.966681" lon="13.5614285"><ele>442.0</ele><time>2026-04-12T08:36:19.118Z</time></trkpt><trkpt lat="42.9667936" lon="13.5614283"><ele>443.75</ele><time>2026-04-12T08:36:20.119Z</time></trkpt><trkpt lat="42.9669049" lon="13.5614411"><ele>445.5</ele><time>2026-04-12T08:36:21.115Z</time></trkpt><trkpt lat="42.9670115" lon="13.5614707"><ele>447.25</ele><time>2026-04-12T08:36:22.119Z</time></trkpt><trkpt lat="42.9671231" lon="13.561515"><ele>449.0</ele><time>2026-04-12T08:36:23.142Z</time></trkpt><trkpt lat="42.9672377" lon="13.5615647"><ele>449.0</ele><time>2026-04-12T08:36:24.118Z</time></trkpt><trkpt lat="42.9673567" lon="13.5616162"><ele>449.0</ele><time>2026-04-12T08:36:25.136Z</time></trkpt><trkpt lat="42.9674762" lon="13.5616685"><ele>449.0</ele><time>2026-04-12T08:36:26.126Z</time></trkpt><trkpt lat="42.9677216" lon="13.561769"><ele>451.25</ele><time>2026-04-12T08:36:28.132Z</time></trkpt><trkpt lat="42.9678408" lon="13.5618177"><ele>453.5</ele><time>2026-04-12T08:36:29.122Z</time></trkpt><trkpt lat="42.967958" lon="13.5618645"><ele>455.75</ele><time>2026-04-12T08:36:30.125Z</time></trkpt><trkpt lat="42.9680701" lon="13.5619091"><ele>458.0</ele><time>2026-04-12T08:36:31.126Z</time></trkpt><trkpt lat="42.968174" lon="13.5619561"><ele>458.0</ele><time>2026-04-12T08:36:32.116Z</time></trkpt><trkpt lat="42.9682705" lon="13.5620246"><ele>457.99999999999994</ele><time>2026-04-12T08:36:33.133Z</time></trkpt><trkpt lat="42.9683389" lon="13.5621197"><ele>457.99999999999994</ele><time>2026-04-12T08:36:34.123Z</time></trkpt><trkpt lat="42.9683728" lon="13.5622479"><ele>458.0</ele><time>2026-04-12T08:36:35.12Z</time></trkpt><trkpt lat="42.968367" lon="13.5623944"><ele>458.0</ele><time>2026-04-12T08:36:36.115Z</time></trkpt><trkpt lat="42.9683427" lon="13.5625383"><ele>457.0</ele><time>2026-04-12T08:36:37.122Z</time></trkpt><trkpt lat="42.9683182" lon="13.5626777"><ele>455.99999999999994</ele><time>2026-04-12T08:36:38.122Z</time></trkpt><trkpt lat="42.9683194" lon="13.562821"><ele>454.99999999999994</ele><time>2026-04-12T08:36:39.119Z</time></trkpt><trkpt lat="42.9683496" lon="13.5629703"><ele>454.0</ele><time>2026-04-12T08:36:40.125Z</time></trkpt><trkpt lat="42.9684033" lon="13.5631081"><ele>453.0</ele><time>2026-04-12T08:36:41.134Z</time></trkpt><trkpt lat="42.9684716" lon="13.5632246"><ele>453.0</ele><time>2026-04-12T08:36:42.126Z</time></trkpt><trkpt lat="42.9685517" lon="13.5633223"><ele>452.99999999999994</ele><time>2026-04-12T08:36:43.116Z</time></trkpt><trkpt lat="42.9686426" lon="13.563405"><ele>452.99999999999994</ele><time>2026-04-12T08:36:44.122Z</time></trkpt><trkpt lat="42.968741" lon="13.5634788"><ele>453.0</ele><time>2026-04-12T08:36:45.126Z</time></trkpt><trkpt lat="42.9688457" lon="13.5635391"><ele>453.0</ele><time>2026-04-12T08:36:46.157Z</time></trkpt><trkpt lat="42.9689537" lon="13.5635839"><ele>453.0</ele><time>2026-04-12T08:36:47.156Z</time></trkpt><trkpt lat="42.9691815" lon="13.5636023"><ele>453.0</ele><time>2026-04-12T08:36:49.162Z</time></trkpt><trkpt lat="42.9692874" lon="13.5635627"><ele>453.0</ele><time>2026-04-12T08:36:50.125Z</time></trkpt><trkpt lat="42.9693868" lon="13.5634922"><ele>452.59999999999997</ele><time>2026-04-12T08:36:51.149Z</time></trkpt><trkpt lat="42.9694769" lon="13.5634015"><ele>452.19999999999993</ele><time>2026-04-12T08:36:52.152Z</time></trkpt><trkpt lat="42.9695609" lon="13.5633053"><ele>451.8</ele><time>2026-04-12T08:36:53.12Z</time></trkpt><trkpt lat="42.9696452" lon="13.5632196"><ele>451.4</ele><time>2026-04-12T08:36:54.115Z</time></trkpt><trkpt lat="42.9697337" lon="13.5631496"><ele>451.0</ele><time>2026-04-12T08:36:55.115Z</time></trkpt><trkpt lat="42.96983" lon="13.5631039"><ele>451.00000000000006</ele><time>2026-04-12T08:36:56.148Z</time></trkpt><trkpt lat="42.9699282" lon="13.5630808"><ele>451.0</ele><time>2026-04-12T08:36:57.116Z</time></trkpt><trkpt lat="42.9700225" lon="13.5630727"><ele>451.0</ele><time>2026-04-12T08:36:58.141Z</time></trkpt><trkpt lat="42.970106" lon="13.5630744"><ele>451.0</ele><time>2026-04-12T08:36:59.119Z</time></trkpt><trkpt lat="42.9701831" lon="13.5630863"><ele>451.00000000000006</ele><time>2026-04-12T08:37:00.114Z</time></trkpt><trkpt lat="42.9702466" lon="13.5631084"><ele>451.0</ele><time>2026-04-12T08:37:01.151Z</time></trkpt><trkpt lat="42.9703175" lon="13.5631778"><ele>451.20000000000005</ele><time>2026-04-12T08:37:03.134Z</time></trkpt><trkpt lat="42.9703253" lon="13.5632784"><ele>451.40000000000003</ele><time>2026-04-12T08:37:05.119Z</time></trkpt><trkpt lat="42.9703395" lon="13.5633869"><ele>451.6</ele><time>2026-04-12T08:37:07.123Z</time></trkpt><trkpt lat="42.9704112" lon="13.5635017"><ele>451.8</ele><time>2026-04-12T08:37:09.134Z</time></trkpt><trkpt lat="42.9705187" lon="13.5636178"><ele>452.0</ele><time>2026-04-12T08:37:11.127Z</time></trkpt><trkpt lat="42.9705837" lon="13.5636707"><ele>451.99999999999994</ele><time>2026-04-12T08:37:12.139Z</time></trkpt><trkpt lat="42.970656" lon="13.5637199"><ele>452.0</ele><time>2026-04-12T08:37:13.12Z</time></trkpt><trkpt lat="42.9707341" lon="13.5637671"><ele>452.0</ele><time>2026-04-12T08:37:14.126Z</time></trkpt><trkpt lat="42.9708177" lon="13.5638088"><ele>452.0</ele><time>2026-04-12T08:37:15.117Z</time></trkpt><trkpt lat="42.970902" lon="13.5638514"><ele>451.99999999999994</ele><time>2026-04-12T08:37:16.129Z</time></trkpt><trkpt lat="42.9709873" lon="13.5638954"><ele>452.0</ele><time>2026-04-12T08:37:17.121Z</time></trkpt><trkpt lat="42.971073" lon="13.5639495"><ele>451.20000000000005</ele><time>2026-04-12T08:37:18.129Z</time></trkpt><trkpt lat="42.9711613" lon="13.5640143"><ele>450.40000000000003</ele><time>2026-04-12T08:37:19.123Z</time></trkpt><trkpt lat="42.9712541" lon="13.5640803"><ele>449.59999999999997</ele><time>2026-04-12T08:37:20.125Z</time></trkpt><trkpt lat="42.9713536" lon="13.5641365"><ele>448.79999999999995</ele><time>2026-04-12T08:37:21.15Z</time></trkpt><trkpt lat="42.9714608" lon="13.5641768"><ele>448.0</ele><time>2026-04-12T08:37:22.123Z</time></trkpt><trkpt lat="42.9715726" lon="13.5641978"><ele>448.0</ele><time>2026-04-12T08:37:23.127Z</time></trkpt><trkpt lat="42.9716831" lon="13.5641992"><ele>447.99999999999994</ele><time>2026-04-12T08:37:24.119Z</time></trkpt><trkpt lat="42.971791" lon="13.5641812"><ele>447.99999999999994</ele><time>2026-04-12T08:37:25.117Z</time></trkpt><trkpt lat="42.9718995" lon="13.564153"><ele>448.0</ele><time>2026-04-12T08:37:26.121Z</time></trkpt><trkpt lat="42.9720129" lon="13.5641118"><ele>448.0</ele><time>2026-04-12T08:37:27.119Z</time></trkpt><trkpt lat="42.9721315" lon="13.5640595"><ele>446.6666666666667</ele><time>2026-04-12T08:37:28.118Z</time></trkpt><trkpt lat="42.9722549" lon="13.5640028"><ele>445.33333333333337</ele><time>2026-04-12T08:37:29.153Z</time></trkpt><trkpt lat="42.9723808" lon="13.5639525"><ele>444.0</ele><time>2026-04-12T08:37:30.117Z</time></trkpt><trkpt lat="42.9726386" lon="13.5638716"><ele>444.0</ele><time>2026-04-12T08:37:32.121Z</time></trkpt><trkpt lat="42.9727669" lon="13.5638308"><ele>444.0</ele><time>2026-04-12T08:37:33.123Z</time></trkpt><trkpt lat="42.9728979" lon="13.5637898"><ele>444.0</ele><time>2026-04-12T08:37:34.126Z</time></trkpt><trkpt lat="42.9730315" lon="13.5637494"><ele>444.0</ele><time>2026-04-12T08:37:35.116Z</time></trkpt><trkpt lat="42.9731685" lon="13.5637101"><ele>442.25</ele><time>2026-04-12T08:37:36.123Z</time></trkpt><trkpt lat="42.9733034" lon="13.563673"><ele>440.5</ele><time>2026-04-12T08:37:37.116Z</time></trkpt><trkpt lat="42.9734375" lon="13.5636378"><ele>438.75</ele><time>2026-04-12T08:37:38.137Z</time></trkpt><trkpt lat="42.9735687" lon="13.563605"><ele>437.0</ele><time>2026-04-12T08:37:39.116Z</time></trkpt><trkpt lat="42.9737021" lon="13.5635774"><ele>437.0</ele><time>2026-04-12T08:37:40.13Z</time></trkpt><trkpt lat="42.9738346" lon="13.5635582"><ele>437.0</ele><time>2026-04-12T08:37:41.126Z</time></trkpt><trkpt lat="42.9739668" lon="13.5635554"><ele>437.0</ele><time>2026-04-12T08:37:42.114Z</time></trkpt><trkpt lat="42.9741018" lon="13.5635703"><ele>437.0</ele><time>2026-04-12T08:37:43.129Z</time></trkpt><trkpt lat="42.9742307" lon="13.5635993"><ele>434.0</ele><time>2026-04-12T08:37:44.125Z</time></trkpt><trkpt lat="42.974356" lon="13.5636547"><ele>431.0</ele><time>2026-04-12T08:37:45.123Z</time></trkpt><trkpt lat="42.9744776" lon="13.5637388"><ele>428.0</ele><time>2026-04-12T08:37:46.126Z</time></trkpt><trkpt lat="42.9745865" lon="13.5638504"><ele>425.0</ele><time>2026-04-12T08:37:47.12Z</time></trkpt><trkpt lat="42.9746833" lon="13.5639803"><ele>424.5</ele><time>2026-04-12T08:37:48.124Z</time></trkpt><trkpt lat="42.974773" lon="13.5641232"><ele>424.0</ele><time>2026-04-12T08:37:49.148Z</time></trkpt><trkpt lat="42.9748566" lon="13.5642737"><ele>423.5</ele><time>2026-04-12T08:37:50.129Z</time></trkpt><trkpt lat="42.9749387" lon="13.564438"><ele>423.0</ele><time>2026-04-12T08:37:51.159Z</time></trkpt><trkpt lat="42.9751048" lon="13.5648103"><ele>419.0</ele><time>2026-04-12T08:37:53.116Z</time></trkpt><trkpt lat="42.97519" lon="13.5650302"><ele>415.0</ele><time>2026-04-12T08:37:54.119Z</time></trkpt><trkpt lat="42.9752719" lon="13.5652561"><ele>411.0</ele><time>2026-04-12T08:37:55.125Z</time></trkpt><trkpt lat="42.9753515" lon="13.5654807"><ele>411.0</ele><time>2026-04-12T08:37:56.116Z</time></trkpt><trkpt lat="42.9754272" lon="13.5656988"><ele>411.0</ele><time>2026-04-12T08:37:57.119Z</time></trkpt><trkpt lat="42.9754993" lon="13.5659059"><ele>411.0</ele><time>2026-04-12T08:37:58.128Z</time></trkpt><trkpt lat="42.9755765" lon="13.5660975"><ele>410.66666666666663</ele><time>2026-04-12T08:37:59.126Z</time></trkpt><trkpt lat="42.9756689" lon="13.5662721"><ele>410.3333333333333</ele><time>2026-04-12T08:38:00.124Z</time></trkpt><trkpt lat="42.9757785" lon="13.5664171"><ele>410.0</ele><time>2026-04-12T08:38:01.134Z</time></trkpt><trkpt lat="42.975902" lon="13.566526"><ele>410.0</ele><time>2026-04-12T08:38:02.122Z</time></trkpt><trkpt lat="42.9760374" lon="13.5666079"><ele>410.0</ele><time>2026-04-12T08:38:03.123Z</time></trkpt><trkpt lat="42.9761841" lon="13.5666536"><ele>410.0</ele><time>2026-04-12T08:38:04.122Z</time></trkpt><trkpt lat="42.9763352" lon="13.5666662"><ele>410.0</ele><time>2026-04-12T08:38:05.115Z</time></trkpt><trkpt lat="42.9764864" lon="13.5666465"><ele>410.0</ele><time>2026-04-12T08:38:06.128Z</time></trkpt><trkpt lat="42.9766306" lon="13.566601"><ele>410.0</ele><time>2026-04-12T08:38:07.152Z</time></trkpt><trkpt lat="42.9767611" lon="13.566525"><ele>410.0</ele><time>2026-04-12T08:38:08.12Z</time></trkpt><trkpt lat="42.9768988" lon="13.5664342"><ele>409.3333333333333</ele><time>2026-04-12T08:38:09.129Z</time></trkpt><trkpt lat="42.9770306" lon="13.5663265"><ele>408.66666666666663</ele><time>2026-04-12T08:38:10.116Z</time></trkpt><trkpt lat="42.9771437" lon="13.5661936"><ele>408.0</ele><time>2026-04-12T08:38:11.125Z</time></trkpt><trkpt lat="42.9772446" lon="13.5660461"><ele>403.0</ele><time>2026-04-12T08:38:12.126Z</time></trkpt><trkpt lat="42.9774448" lon="13.5657248"><ele>398.0</ele><time>2026-04-12T08:38:14.127Z</time></trkpt><trkpt lat="42.977551" lon="13.5655572"><ele>393.3333333333333</ele><time>2026-04-12T08:38:15.128Z</time></trkpt><trkpt lat="42.9776608" lon="13.5653861"><ele>388.66666666666663</ele><time>2026-04-12T08:38:16.119Z</time></trkpt><trkpt lat="42.9777701" lon="13.5652133"><ele>384.0</ele><time>2026-04-12T08:38:17.129Z</time></trkpt><trkpt lat="42.9778794" lon="13.5650402"><ele>383.0</ele><time>2026-04-12T08:38:18.121Z</time></trkpt><trkpt lat="42.9779862" lon="13.5648687"><ele>382.0</ele><time>2026-04-12T08:38:19.119Z</time></trkpt><trkpt lat="42.9780836" lon="13.5646971"><ele>381.0</ele><time>2026-04-12T08:38:20.153Z</time></trkpt><trkpt lat="42.9781678" lon="13.5645279"><ele>381.0</ele><time>2026-04-12T08:38:21.123Z</time></trkpt><trkpt lat="42.9782346" lon="13.5643546"><ele>381.0</ele><time>2026-04-12T08:38:22.133Z</time></trkpt><trkpt lat="42.9782803" lon="13.5641717"><ele>381.0</ele><time>2026-04-12T08:38:23.122Z</time></trkpt><trkpt lat="42.9782948" lon="13.5639747"><ele>381.0</ele><time>2026-04-12T08:38:24.127Z</time></trkpt><trkpt lat="42.9782817" lon="13.5637685"><ele>379.6666666666667</ele><time>2026-04-12T08:38:25.125Z</time></trkpt><trkpt lat="42.9782491" lon="13.5635555"><ele>378.33333333333337</ele><time>2026-04-12T08:38:26.12Z</time></trkpt><trkpt lat="42.9782073" lon="13.5633353"><ele>377.0</ele><time>2026-04-12T08:38:27.126Z</time></trkpt><trkpt lat="42.9781679" lon="13.5631114"><ele>377.0</ele><time>2026-04-12T08:38:28.127Z</time></trkpt><trkpt lat="42.9781341" lon="13.5628846"><ele>377.0</ele><time>2026-04-12T08:38:29.119Z</time></trkpt><trkpt lat="42.9781008" lon="13.5626545"><ele>377.0</ele><time>2026-04-12T08:38:30.119Z</time></trkpt><trkpt lat="42.9780696" lon="13.5624255"><ele>374.6666666666667</ele><time>2026-04-12T08:38:31.141Z</time></trkpt><trkpt lat="42.9780405" lon="13.5622093"><ele>372.3333333333333</ele><time>2026-04-12T08:38:32.125Z</time></trkpt><trkpt lat="42.9780187" lon="13.5619922"><ele>370.0</ele><time>2026-04-12T08:38:33.119Z</time></trkpt><trkpt lat="42.978049" lon="13.5615547"><ele>370.0</ele><time>2026-04-12T08:38:35.118Z</time></trkpt><trkpt lat="42.9781119" lon="13.561351"><ele>370.0</ele><time>2026-04-12T08:38:36.126Z</time></trkpt><trkpt lat="42.9782002" lon="13.5611622"><ele>370.0</ele><time>2026-04-12T08:38:37.119Z</time></trkpt><trkpt lat="42.9783023" lon="13.560985"><ele>365.0</ele><time>2026-04-12T08:38:38.13Z</time></trkpt><trkpt lat="42.9784042" lon="13.5608124"><ele>360.0</ele><time>2026-04-12T08:38:39.12Z</time></trkpt><trkpt lat="42.9785064" lon="13.5606412"><ele>355.0</ele><time>2026-04-12T08:38:40.137Z</time></trkpt><trkpt lat="42.9786077" lon="13.5604729"><ele>360.3333333333333</ele><time>2026-04-12T08:38:41.117Z</time></trkpt><trkpt lat="42.9787148" lon="13.5603146"><ele>365.6666666666667</ele><time>2026-04-12T08:38:42.122Z</time></trkpt><trkpt lat="42.9788339" lon="13.5601715"><ele>371.0</ele><time>2026-04-12T08:38:43.124Z</time></trkpt><trkpt lat="42.9789649" lon="13.5600463"><ele>371.0</ele><time>2026-04-12T08:38:44.12Z</time></trkpt><trkpt lat="42.9791057" lon="13.5599361"><ele>371.0</ele><time>2026-04-12T08:38:45.123Z</time></trkpt><trkpt lat="42.9792434" lon="13.5598236"><ele>371.0</ele><time>2026-04-12T08:38:46.124Z</time></trkpt><trkpt lat="42.9793731" lon="13.5596937"><ele>368.0</ele><time>2026-04-12T08:38:47.123Z</time></trkpt><trkpt lat="42.9794963" lon="13.5595451"><ele>365.0</ele><time>2026-04-12T08:38:48.129Z</time></trkpt><trkpt lat="42.9796205" lon="13.5593869"><ele>362.0</ele><time>2026-04-12T08:38:49.149Z</time></trkpt><trkpt lat="42.9797532" lon="13.5592429"><ele>362.0</ele><time>2026-04-12T08:38:50.122Z</time></trkpt><trkpt lat="42.9799045" lon="13.5591155"><ele>362.0</ele><time>2026-04-12T08:38:51.118Z</time></trkpt><trkpt lat="42.9800668" lon="13.5590072"><ele>362.0</ele><time>2026-04-12T08:38:52.12Z</time></trkpt><trkpt lat="42.980237" lon="13.5589091"><ele>360.5</ele><time>2026-04-12T08:38:53.119Z</time></trkpt><trkpt lat="42.980409" lon="13.5588045"><ele>359.0</ele><time>2026-04-12T08:38:54.134Z</time></trkpt><trkpt lat="42.9807364" lon="13.5585571"><ele>351.6666666666667</ele><time>2026-04-12T08:38:56.124Z</time></trkpt><trkpt lat="42.9808891" lon="13.5584009"><ele>344.3333333333333</ele><time>2026-04-12T08:38:57.155Z</time></trkpt><trkpt lat="42.9810281" lon="13.5582244"><ele>337.0</ele><time>2026-04-12T08:38:58.126Z</time></trkpt><trkpt lat="42.9811604" lon="13.5580321"><ele>343.0</ele><time>2026-04-12T08:38:59.145Z</time></trkpt><trkpt lat="42.9812904" lon="13.5578387"><ele>349.0</ele><time>2026-04-12T08:39:00.128Z</time></trkpt><trkpt lat="42.9814224" lon="13.5576509"><ele>355.0</ele><time>2026-04-12T08:39:01.124Z</time></trkpt><trkpt lat="42.9815566" lon="13.5574758"><ele>348.66666666666663</ele><time>2026-04-12T08:39:02.128Z</time></trkpt><trkpt lat="42.9816989" lon="13.5573176"><ele>342.3333333333333</ele><time>2026-04-12T08:39:03.123Z</time></trkpt><trkpt lat="42.9818542" lon="13.5571831"><ele>336.0</ele><time>2026-04-12T08:39:04.119Z</time></trkpt><trkpt lat="42.9820177" lon="13.5570685"><ele>342.3333333333333</ele><time>2026-04-12T08:39:05.15Z</time></trkpt><trkpt lat="42.9821671" lon="13.5569671"><ele>348.66666666666663</ele><time>2026-04-12T08:39:06.119Z</time></trkpt><trkpt lat="42.9823132" lon="13.5568769"><ele>355.0</ele><time>2026-04-12T08:39:07.121Z</time></trkpt><trkpt lat="42.9824678" lon="13.5568196"><ele>351.66666666666663</ele><time>2026-04-12T08:39:08.119Z</time></trkpt><trkpt lat="42.9826287" lon="13.5567994"><ele>348.3333333333333</ele><time>2026-04-12T08:39:09.138Z</time></trkpt><trkpt lat="42.9827781" lon="13.5568323"><ele>345.0</ele><time>2026-04-12T08:39:10.125Z</time></trkpt><trkpt lat="42.982925" lon="13.556898"><ele>345.0</ele><time>2026-04-12T08:39:11.128Z</time></trkpt><trkpt lat="42.983074" lon="13.5569645"><ele>345.0</ele><time>2026-04-12T08:39:12.125Z</time></trkpt><trkpt lat="42.9832289" lon="13.5570091"><ele>345.0</ele><time>2026-04-12T08:39:13.127Z</time></trkpt><trkpt lat="42.9833814" lon="13.5570146"><ele>338.0</ele><time>2026-04-12T08:39:14.122Z</time></trkpt><trkpt lat="42.9835341" lon="13.5569704"><ele>331.0</ele><time>2026-04-12T08:39:15.121Z</time></trkpt><trkpt lat="42.9838341" lon="13.5568132"><ele>331.0</ele><time>2026-04-12T08:39:17.119Z</time></trkpt><trkpt lat="42.9839764" lon="13.5567419"><ele>331.0</ele><time>2026-04-12T08:39:18.123Z</time></trkpt><trkpt lat="42.9841081" lon="13.5566664"><ele>331.0</ele><time>2026-04-12T08:39:19.124Z</time></trkpt><trkpt lat="42.9842318" lon="13.5565838"><ele>331.0</ele><time>2026-04-12T08:39:20.139Z</time></trkpt><trkpt lat="42.984343" lon="13.5564882"><ele>323.0</ele><time>2026-04-12T08:39:21.13Z</time></trkpt><trkpt lat="42.9844458" lon="13.5563673"><ele>315.0</ele><time>2026-04-12T08:39:22.117Z</time></trkpt><trkpt lat="42.9845228" lon="13.5562065"><ele>307.0</ele><time>2026-04-12T08:39:23.16Z</time></trkpt><trkpt lat="42.9845235" lon="13.5555995"><ele>307.0</ele><time>2026-04-12T08:39:26.118Z</time></trkpt><trkpt lat="42.9844823" lon="13.5553806"><ele>307.0</ele><time>2026-04-12T08:39:27.123Z</time></trkpt><trkpt lat="42.9844571" lon="13.5551547"><ele>307.0</ele><time>2026-04-12T08:39:28.142Z</time></trkpt><trkpt lat="42.9844554" lon="13.5549301"><ele>307.66666666666663</ele><time>2026-04-12T08:39:29.122Z</time></trkpt><trkpt lat="42.9844759" lon="13.5547066"><ele>308.3333333333333</ele><time>2026-04-12T08:39:30.123Z</time></trkpt><trkpt lat="42.984519" lon="13.5544879"><ele>309.0</ele><time>2026-04-12T08:39:31.118Z</time></trkpt><trkpt lat="42.9845788" lon="13.5542657"><ele>309.0</ele><time>2026-04-12T08:39:32.129Z</time></trkpt><trkpt lat="42.9846462" lon="13.5540385"><ele>309.0</ele><time>2026-04-12T08:39:33.125Z</time></trkpt><trkpt lat="42.9847153" lon="13.5538047"><ele>309.0</ele><time>2026-04-12T08:39:34.13Z</time></trkpt><trkpt lat="42.9847817" lon="13.5535688"><ele>313.5</ele><time>2026-04-12T08:39:35.132Z</time></trkpt><trkpt lat="42.984842" lon="13.5533385"><ele>318.0</ele><time>2026-04-12T08:39:36.123Z</time></trkpt><trkpt lat="42.984932" lon="13.5528798"><ele>318.0</ele><time>2026-04-12T08:39:38.125Z</time></trkpt><trkpt lat="42.9849502" lon="13.5526531"><ele>318.0</ele><time>2026-04-12T08:39:39.122Z</time></trkpt><trkpt lat="42.9849602" lon="13.5524177"><ele>318.0</ele><time>2026-04-12T08:39:40.123Z</time></trkpt><trkpt lat="42.9849705" lon="13.5521743"><ele>321.0</ele><time>2026-04-12T08:39:41.125Z</time></trkpt><trkpt lat="42.9849945" lon="13.5519265"><ele>324.0</ele><time>2026-04-12T08:39:42.121Z</time></trkpt><trkpt lat="42.9850406" lon="13.5516814"><ele>327.0</ele><time>2026-04-12T08:39:43.128Z</time></trkpt><trkpt lat="42.9851121" lon="13.5514474"><ele>316.6666666666667</ele><time>2026-04-12T08:39:44.122Z</time></trkpt><trkpt lat="42.9852083" lon="13.5512211"><ele>306.33333333333337</ele><time>2026-04-12T08:39:45.13Z</time></trkpt><trkpt lat="42.985313" lon="13.5509956"><ele>296.0</ele><time>2026-04-12T08:39:46.119Z</time></trkpt><trkpt lat="42.9854116" lon="13.5507572"><ele>296.0</ele><time>2026-04-12T08:39:47.127Z</time></trkpt><trkpt lat="42.9854932" lon="13.5505137"><ele>296.0</ele><time>2026-04-12T08:39:48.123Z</time></trkpt><trkpt lat="42.9855576" lon="13.5502625"><ele>296.0</ele><time>2026-04-12T08:39:49.126Z</time></trkpt><trkpt lat="42.9856104" lon="13.5500087"><ele>296.33333333333337</ele><time>2026-04-12T08:39:50.126Z</time></trkpt><trkpt lat="42.985657" lon="13.5497589"><ele>296.6666666666667</ele><time>2026-04-12T08:39:51.119Z</time></trkpt><trkpt lat="42.9857036" lon="13.549515"><ele>297.0</ele><time>2026-04-12T08:39:52.123Z</time></trkpt><trkpt lat="42.985751" lon="13.5492818"><ele>299.6666666666667</ele><time>2026-04-12T08:39:53.119Z</time></trkpt><trkpt lat="42.9858026" lon="13.5490583"><ele>302.33333333333337</ele><time>2026-04-12T08:39:54.123Z</time></trkpt><trkpt lat="42.9858562" lon="13.5488431"><ele>305.0</ele><time>2026-04-12T08:39:55.118Z</time></trkpt><trkpt lat="42.9859088" lon="13.5486309"><ele>299.0</ele><time>2026-04-12T08:39:56.117Z</time></trkpt><trkpt lat="42.9859588" lon="13.5484238"><ele>293.0</ele><time>2026-04-12T08:39:57.129Z</time></trkpt><trkpt lat="42.9860504" lon="13.54805"><ele>287.0</ele><time>2026-04-12T08:39:59.124Z</time></trkpt><trkpt lat="42.9860884" lon="13.5478807"><ele>286.8</ele><time>2026-04-12T08:40:00.129Z</time></trkpt><trkpt lat="42.9861239" lon="13.5477214"><ele>286.6</ele><time>2026-04-12T08:40:01.119Z</time></trkpt><trkpt lat="42.9861635" lon="13.5475782"><ele>286.40000000000003</ele><time>2026-04-12T08:40:02.125Z</time></trkpt><trkpt lat="42.9862091" lon="13.5474687"><ele>286.2</ele><time>2026-04-12T08:40:03.125Z</time></trkpt><trkpt lat="42.9862606" lon="13.5473921"><ele>286.0</ele><time>2026-04-12T08:40:04.121Z</time></trkpt><trkpt lat="42.9863147" lon="13.5473472"><ele>286.0</ele><time>2026-04-12T08:40:05.116Z</time></trkpt><trkpt lat="42.9863878" lon="13.5473094"><ele>286.0</ele><time>2026-04-12T08:40:07.118Z</time></trkpt><trkpt lat="42.9863938" lon="13.5471682"><ele>286.0</ele><time>2026-04-12T08:40:09.121Z</time></trkpt><trkpt lat="42.9863768" lon="13.5470373"><ele>286.0</ele><time>2026-04-12T08:40:10.129Z</time></trkpt><trkpt lat="42.986368" lon="13.5468844"><ele>286.0</ele><time>2026-04-12T08:40:11.123Z</time></trkpt><trkpt lat="42.9863834" lon="13.5467161"><ele>285.2</ele><time>2026-04-12T08:40:12.114Z</time></trkpt><trkpt lat="42.9864185" lon="13.5465513"><ele>284.40000000000003</ele><time>2026-04-12T08:40:13.118Z</time></trkpt><trkpt lat="42.9864529" lon="13.5464056"><ele>283.6</ele><time>2026-04-12T08:40:14.138Z</time></trkpt><trkpt lat="42.986483" lon="13.5462748"><ele>282.8</ele><time>2026-04-12T08:40:15.127Z</time></trkpt><trkpt lat="42.9865034" lon="13.5461654"><ele>282.0</ele><time>2026-04-12T08:40:16.12Z</time></trkpt><trkpt lat="42.986497" lon="13.5460428"><ele>282.0</ele><time>2026-04-12T08:40:18.126Z</time></trkpt><trkpt lat="42.986399" lon="13.5457862"><ele>282.0</ele><time>2026-04-12T08:42:04.15Z</time></trkpt><trkpt lat="42.9863667" lon="13.5457025"><ele>282.0</ele><time>2026-04-12T08:42:05.128Z</time></trkpt><trkpt lat="42.9863166" lon="13.5456211"><ele>282.0</ele><time>2026-04-12T08:42:06.126Z</time></trkpt><trkpt lat="42.9862422" lon="13.5455445"><ele>282.0</ele><time>2026-04-12T08:42:07.123Z</time></trkpt><trkpt lat="42.986155" lon="13.5454697"><ele>282.0</ele><time>2026-04-12T08:42:08.131Z</time></trkpt><trkpt lat="42.9860768" lon="13.5453865"><ele>282.0</ele><time>2026-04-12T08:42:09.132Z</time></trkpt><trkpt lat="42.9860167" lon="13.5452952"><ele>282.0</ele><time>2026-04-12T08:42:10.119Z</time></trkpt><trkpt lat="42.9859741" lon="13.5451932"><ele>282.0</ele><time>2026-04-12T08:42:11.12Z</time></trkpt><trkpt lat="42.9859414" lon="13.5450848"><ele>282.0</ele><time>2026-04-12T08:42:12.128Z</time></trkpt><trkpt lat="42.9859145" lon="13.5449908"><ele>282.0</ele><time>2026-04-12T08:42:13.127Z</time></trkpt><trkpt lat="42.9858523" lon="13.5448932"><ele>282.0</ele><time>2026-04-12T08:42:15.119Z</time></trkpt><trkpt lat="42.9857562" lon="13.5449008"><ele>282.0</ele><time>2026-04-12T08:42:17.122Z</time></trkpt><trkpt lat="42.9856438" lon="13.5449103"><ele>282.0</ele><time>2026-04-12T08:42:19.118Z</time></trkpt><trkpt lat="42.9855701" lon="13.5449026"><ele>288.0</ele><time>2026-04-12T08:42:20.122Z</time></trkpt><trkpt lat="42.9854729" lon="13.5449016"><ele>294.0</ele><time>2026-04-12T08:42:21.138Z</time></trkpt><trkpt lat="42.9853575" lon="13.544916"><ele>300.0</ele><time>2026-04-12T08:42:22.117Z</time></trkpt><trkpt lat="42.985106" lon="13.5449644"><ele>304.6666666666667</ele><time>2026-04-12T08:42:24.119Z</time></trkpt><trkpt lat="42.9849597" lon="13.5449891"><ele>309.33333333333337</ele><time>2026-04-12T08:42:25.129Z</time></trkpt><trkpt lat="42.9847886" lon="13.5450262"><ele>314.0</ele><time>2026-04-12T08:42:26.124Z</time></trkpt><trkpt lat="42.9846143" lon="13.5450688"><ele>314.0</ele><time>2026-04-12T08:42:27.12Z</time></trkpt><trkpt lat="42.9844545" lon="13.5451145"><ele>314.0</ele><time>2026-04-12T08:42:28.128Z</time></trkpt><trkpt lat="42.9843085" lon="13.5451572"><ele>314.0</ele><time>2026-04-12T08:42:29.121Z</time></trkpt><trkpt lat="42.9841692" lon="13.5452004"><ele>315.79999999999995</ele><time>2026-04-12T08:42:30.129Z</time></trkpt><trkpt lat="42.9840367" lon="13.5452325"><ele>317.59999999999997</ele><time>2026-04-12T08:42:31.129Z</time></trkpt><trkpt lat="42.9839164" lon="13.5452543"><ele>319.4</ele><time>2026-04-12T08:42:32.121Z</time></trkpt><trkpt lat="42.9838169" lon="13.5452662"><ele>321.2</ele><time>2026-04-12T08:42:33.126Z</time></trkpt><trkpt lat="42.9837422" lon="13.5452736"><ele>323.0</ele><time>2026-04-12T08:42:34.155Z</time></trkpt><trkpt lat="42.9836785" lon="13.5452913"><ele>323.0</ele><time>2026-04-12T08:42:35.123Z</time></trkpt><trkpt lat="42.983618" lon="13.5453354"><ele>323.0</ele><time>2026-04-12T08:42:36.131Z</time></trkpt><trkpt lat="42.9835623" lon="13.5454191"><ele>323.0</ele><time>2026-04-12T08:42:37.117Z</time></trkpt><trkpt lat="42.9835002" lon="13.5455359"><ele>323.0</ele><time>2026-04-12T08:42:38.117Z</time></trkpt><trkpt lat="42.9834232" lon="13.5456841"><ele>323.0</ele><time>2026-04-12T08:42:39.124Z</time></trkpt><trkpt lat="42.9833385" lon="13.5458352"><ele>323.0</ele><time>2026-04-12T08:42:40.13Z</time></trkpt><trkpt lat="42.9832487" lon="13.5459629"><ele>323.0</ele><time>2026-04-12T08:42:41.122Z</time></trkpt><trkpt lat="42.9831469" lon="13.5460742"><ele>323.0</ele><time>2026-04-12T08:42:42.126Z</time></trkpt><trkpt lat="42.9830295" lon="13.5461888"><ele>323.0</ele><time>2026-04-12T08:42:43.125Z</time></trkpt><trkpt lat="42.9827901" lon="13.5464157"><ele>323.0</ele><time>2026-04-12T08:42:45.128Z</time></trkpt><trkpt lat="42.9826707" lon="13.5464999"><ele>323.0</ele><time>2026-04-12T08:42:46.117Z</time></trkpt><trkpt lat="42.982532" lon="13.5465761"><ele>323.0</ele><time>2026-04-12T08:42:47.117Z</time></trkpt><trkpt lat="42.9823722" lon="13.5466566"><ele>325.5</ele><time>2026-04-12T08:42:48.135Z</time></trkpt><trkpt lat="42.9822162" lon="13.5467373"><ele>328.0</ele><time>2026-04-12T08:42:49.116Z</time></trkpt><trkpt lat="42.9820747" lon="13.5468025"><ele>330.5</ele><time>2026-04-12T08:42:50.117Z</time></trkpt><trkpt lat="42.9819496" lon="13.5468445"><ele>333.0</ele><time>2026-04-12T08:42:51.127Z</time></trkpt><trkpt lat="42.9818322" lon="13.5468784"><ele>333.0</ele><time>2026-04-12T08:42:52.122Z</time></trkpt><trkpt lat="42.981717" lon="13.5469078"><ele>333.0</ele><time>2026-04-12T08:42:53.147Z</time></trkpt><trkpt lat="42.9816188" lon="13.5469256"><ele>333.0</ele><time>2026-04-12T08:42:54.123Z</time></trkpt><trkpt lat="42.9815352" lon="13.5469188"><ele>333.0</ele><time>2026-04-12T08:42:55.127Z</time></trkpt><trkpt lat="42.9814659" lon="13.5468817"><ele>333.0</ele><time>2026-04-12T08:42:56.125Z</time></trkpt><trkpt lat="42.9814128" lon="13.5468109"><ele>333.0</ele><time>2026-04-12T08:42:57.115Z</time></trkpt><trkpt lat="42.9813668" lon="13.5467157"><ele>335.0</ele><time>2026-04-12T08:42:58.121Z</time></trkpt><trkpt lat="42.981326" lon="13.5466075"><ele>337.0</ele><time>2026-04-12T08:42:59.115Z</time></trkpt><trkpt lat="42.981289" lon="13.5464855"><ele>339.0</ele><time>2026-04-12T08:43:00.121Z</time></trkpt><trkpt lat="42.9812593" lon="13.546345"><ele>341.0</ele><time>2026-04-12T08:43:01.114Z</time></trkpt><trkpt lat="42.9812287" lon="13.5461982"><ele>343.0</ele><time>2026-04-12T08:43:02.115Z</time></trkpt><trkpt lat="42.9811901" lon="13.5460748"><ele>347.0</ele><time>2026-04-12T08:43:03.151Z</time></trkpt><trkpt lat="42.9811352" lon="13.5459849"><ele>351.0</ele><time>2026-04-12T08:43:04.114Z</time></trkpt><trkpt lat="42.980959" lon="13.5458341"><ele>355.0</ele><time>2026-04-12T08:43:06.118Z</time></trkpt><trkpt lat="42.9808738" lon="13.545745"><ele>359.0</ele><time>2026-04-12T08:43:07.13Z</time></trkpt><trkpt lat="42.9808136" lon="13.5456236"><ele>360.25</ele><time>2026-04-12T08:43:08.13Z</time></trkpt><trkpt lat="42.9807774" lon="13.5454686"><ele>361.5</ele><time>2026-04-12T08:43:09.123Z</time></trkpt><trkpt lat="42.9807512" lon="13.5452888"><ele>362.75</ele><time>2026-04-12T08:43:10.158Z</time></trkpt><trkpt lat="42.9807324" lon="13.5450857"><ele>364.0</ele><time>2026-04-12T08:43:11.16Z</time></trkpt><trkpt lat="42.9807235" lon="13.5448731"><ele>367.79999999999995</ele><time>2026-04-12T08:43:12.125Z</time></trkpt><trkpt lat="42.9807257" lon="13.5446829"><ele>371.59999999999997</ele><time>2026-04-12T08:43:13.13Z</time></trkpt><trkpt lat="42.9807395" lon="13.5445478"><ele>375.4</ele><time>2026-04-12T08:43:14.126Z</time></trkpt><trkpt lat="42.9807329" lon="13.544438"><ele>379.2</ele><time>2026-04-12T08:43:16.122Z</time></trkpt><trkpt lat="42.9806678" lon="13.5444272"><ele>383.0</ele><time>2026-04-12T08:43:18.121Z</time></trkpt><trkpt lat="42.9805871" lon="13.5444772"><ele>383.0</ele><time>2026-04-12T08:43:20.12Z</time></trkpt><trkpt lat="42.9804934" lon="13.5445935"><ele>383.0</ele><time>2026-04-12T08:43:22.122Z</time></trkpt><trkpt lat="42.9804199" lon="13.5446855"><ele>383.0</ele><time>2026-04-12T08:43:23.122Z</time></trkpt><trkpt lat="42.9803431" lon="13.5447905"><ele>383.0</ele><time>2026-04-12T08:43:24.131Z</time></trkpt><trkpt lat="42.9802842" lon="13.5448922"><ele>383.0</ele><time>2026-04-12T08:43:25.124Z</time></trkpt><trkpt lat="42.9802047" lon="13.5450543"><ele>383.0</ele><time>2026-04-12T08:43:27.126Z</time></trkpt><trkpt lat="42.9801224" lon="13.5451647"><ele>383.0</ele><time>2026-04-12T08:43:29.12Z</time></trkpt><trkpt lat="42.9800642" lon="13.545204"><ele>383.0</ele><time>2026-04-12T08:43:30.12Z</time></trkpt><trkpt lat="42.9799897" lon="13.5452455"><ele>383.0</ele><time>2026-04-12T08:43:31.114Z</time></trkpt><trkpt lat="42.9798972" lon="13.5452881"><ele>383.0</ele><time>2026-04-12T08:43:32.123Z</time></trkpt><trkpt lat="42.9798" lon="13.5453346"><ele>383.83333333333337</ele><time>2026-04-12T08:43:33.122Z</time></trkpt><trkpt lat="42.9797038" lon="13.5453804"><ele>384.6666666666667</ele><time>2026-04-12T08:43:34.124Z</time></trkpt><trkpt lat="42.9796209" lon="13.5454228"><ele>385.5</ele><time>2026-04-12T08:43:35.12Z</time></trkpt><trkpt lat="42.9795625" lon="13.5454654"><ele>386.33333333333337</ele><time>2026-04-12T08:43:36.128Z</time></trkpt><trkpt lat="42.9794824" lon="13.5455826"><ele>387.1666666666667</ele><time>2026-04-12T08:43:38.123Z</time></trkpt><trkpt lat="42.9794383" lon="13.5456522"><ele>388.0</ele><time>2026-04-12T08:43:39.121Z</time></trkpt><trkpt lat="42.9793923" lon="13.5457131"><ele>388.0</ele><time>2026-04-12T08:43:40.128Z</time></trkpt><trkpt lat="42.9793369" lon="13.5457651"><ele>388.0</ele><time>2026-04-12T08:43:41.125Z</time></trkpt><trkpt lat="42.9792693" lon="13.5458031"><ele>388.0</ele><time>2026-04-12T08:43:42.153Z</time></trkpt><trkpt lat="42.9791927" lon="13.5458257"><ele>388.0</ele><time>2026-04-12T08:43:43.125Z</time></trkpt><trkpt lat="42.9791183" lon="13.5458283"><ele>388.0</ele><time>2026-04-12T08:43:44.122Z</time></trkpt><trkpt lat="42.9790513" lon="13.5458037"><ele>388.0</ele><time>2026-04-12T08:43:45.12Z</time></trkpt><trkpt lat="42.9789912" lon="13.5457436"><ele>388.0</ele><time>2026-04-12T08:43:46.119Z</time></trkpt><trkpt lat="42.9788732" lon="13.5455066"><ele>398.75</ele><time>2026-04-12T08:43:48.124Z</time></trkpt><trkpt lat="42.9787967" lon="13.5453522"><ele>409.5</ele><time>2026-04-12T08:43:49.12Z</time></trkpt><trkpt lat="42.9787164" lon="13.545186"><ele>420.25</ele><time>2026-04-12T08:43:50.141Z</time></trkpt><trkpt lat="42.9786439" lon="13.545049"><ele>431.0</ele><time>2026-04-12T08:43:51.127Z</time></trkpt><trkpt lat="42.9785746" lon="13.5449604"><ele>430.99999999999994</ele><time>2026-04-12T08:43:52.13Z</time></trkpt><trkpt lat="42.9785065" lon="13.5449281"><ele>431.0</ele><time>2026-04-12T08:43:53.135Z</time></trkpt><trkpt lat="42.978434" lon="13.5449255"><ele>431.0</ele><time>2026-04-12T08:43:54.131Z</time></trkpt><trkpt lat="42.9783527" lon="13.5449226"><ele>431.0</ele><time>2026-04-12T08:43:55.116Z</time></trkpt><trkpt lat="42.9782529" lon="13.5449014"><ele>430.99999999999994</ele><time>2026-04-12T08:43:56.125Z</time></trkpt><trkpt lat="42.9781437" lon="13.5448582"><ele>431.0</ele><time>2026-04-12T08:43:57.121Z</time></trkpt><trkpt lat="42.9780438" lon="13.5448057"><ele>432.8333333333333</ele><time>2026-04-12T08:43:58.121Z</time></trkpt><trkpt lat="42.97796" lon="13.5447459"><ele>434.66666666666663</ele><time>2026-04-12T08:43:59.13Z</time></trkpt><trkpt lat="42.9778911" lon="13.544681"><ele>436.5</ele><time>2026-04-12T08:44:00.126Z</time></trkpt><trkpt lat="42.9778318" lon="13.5446116"><ele>438.33333333333337</ele><time>2026-04-12T08:44:01.119Z</time></trkpt><trkpt lat="42.9777748" lon="13.5445248"><ele>440.1666666666667</ele><time>2026-04-12T08:44:02.123Z</time></trkpt><trkpt lat="42.9777172" lon="13.544423"><ele>442.0</ele><time>2026-04-12T08:44:03.126Z</time></trkpt><trkpt lat="42.977666" lon="13.5443346"><ele>444.6</ele><time>2026-04-12T08:44:04.124Z</time></trkpt><trkpt lat="42.9776215" lon="13.5442733"><ele>447.20000000000005</ele><time>2026-04-12T08:44:05.124Z</time></trkpt><trkpt lat="42.9775195" lon="13.5442298"><ele>449.8</ele><time>2026-04-12T08:44:07.123Z</time></trkpt><trkpt lat="42.9773685" lon="13.5442355"><ele>452.4</ele><time>2026-04-12T08:44:09.122Z</time></trkpt><trkpt lat="42.977291" lon="13.5442529"><ele>455.0</ele><time>2026-04-12T08:44:10.122Z</time></trkpt><trkpt lat="42.9772009" lon="13.5442786"><ele>456.0</ele><time>2026-04-12T08:44:11.127Z</time></trkpt><trkpt lat="42.9771004" lon="13.5443028"><ele>457.0</ele><time>2026-04-12T08:44:12.121Z</time></trkpt><trkpt lat="42.9769915" lon="13.5443185"><ele>458.0</ele><time>2026-04-12T08:44:13.123Z</time></trkpt><trkpt lat="42.9768853" lon="13.5443268"><ele>459.0</ele><time>2026-04-12T08:44:14.122Z</time></trkpt><trkpt lat="42.9767879" lon="13.544336"><ele>460.0</ele><time>2026-04-12T08:44:15.122Z</time></trkpt><trkpt lat="42.9766896" lon="13.5443383"><ele>461.4</ele><time>2026-04-12T08:44:16.154Z</time></trkpt><trkpt lat="42.9765894" lon="13.5443339"><ele>462.8</ele><time>2026-04-12T08:44:17.119Z</time></trkpt><trkpt lat="42.9764834" lon="13.5443176"><ele>464.20000000000005</ele><time>2026-04-12T08:44:18.134Z</time></trkpt><trkpt lat="42.9763768" lon="13.5442949"><ele>465.6</ele><time>2026-04-12T08:44:19.123Z</time></trkpt><trkpt lat="42.9762732" lon="13.5442777"><ele>467.0</ele><time>2026-04-12T08:44:20.122Z</time></trkpt><trkpt lat="42.9761624" lon="13.544269"><ele>467.0</ele><time>2026-04-12T08:44:21.122Z</time></trkpt><trkpt lat="42.9760441" lon="13.5442721"><ele>467.00000000000006</ele><time>2026-04-12T08:44:22.13Z</time></trkpt><trkpt lat="42.975934" lon="13.5442885"><ele>467.00000000000006</ele><time>2026-04-12T08:44:23.123Z</time></trkpt><trkpt lat="42.9758377" lon="13.5442968"><ele>467.0</ele><time>2026-04-12T08:44:24.141Z</time></trkpt><trkpt lat="42.9757611" lon="13.5442884"><ele>467.0</ele><time>2026-04-12T08:44:25.124Z</time></trkpt><trkpt lat="42.9757014" lon="13.5442581"><ele>466.40000000000003</ele><time>2026-04-12T08:44:26.133Z</time></trkpt><trkpt lat="42.9756488" lon="13.5442058"><ele>465.80000000000007</ele><time>2026-04-12T08:44:27.122Z</time></trkpt><trkpt lat="42.9755875" lon="13.5441261"><ele>465.2</ele><time>2026-04-12T08:44:28.136Z</time></trkpt><trkpt lat="42.9754562" lon="13.5439452"><ele>464.6</ele><time>2026-04-12T08:44:30.127Z</time></trkpt><trkpt lat="42.9753972" lon="13.5438692"><ele>464.0</ele><time>2026-04-12T08:44:31.129Z</time></trkpt><trkpt lat="42.9753387" lon="13.5438162"><ele>463.99999999999994</ele><time>2026-04-12T08:44:32.122Z</time></trkpt><trkpt lat="42.9752708" lon="13.5437799"><ele>464.0</ele><time>2026-04-12T08:44:33.123Z</time></trkpt><trkpt lat="42.9751892" lon="13.5437546"><ele>464.0</ele><time>2026-04-12T08:44:34.117Z</time></trkpt><trkpt lat="42.9750994" lon="13.5437316"><ele>464.0</ele><time>2026-04-12T08:44:35.117Z</time></trkpt><trkpt lat="42.9750026" lon="13.5437047"><ele>463.99999999999994</ele><time>2026-04-12T08:44:36.125Z</time></trkpt><trkpt lat="42.9749034" lon="13.5436683"><ele>464.0</ele><time>2026-04-12T08:44:37.126Z</time></trkpt><trkpt lat="42.9748054" lon="13.5436235"><ele>466.79999999999995</ele><time>2026-04-12T08:44:38.134Z</time></trkpt><trkpt lat="42.9747099" lon="13.5435736"><ele>469.59999999999997</ele><time>2026-04-12T08:44:39.129Z</time></trkpt><trkpt lat="42.9746127" lon="13.5435224"><ele>472.4</ele><time>2026-04-12T08:44:40.118Z</time></trkpt><trkpt lat="42.9745118" lon="13.543471"><ele>475.2</ele><time>2026-04-12T08:44:41.123Z</time></trkpt><trkpt lat="42.9744089" lon="13.5434183"><ele>478.0</ele><time>2026-04-12T08:44:42.127Z</time></trkpt><trkpt lat="42.9743082" lon="13.5433654"><ele>478.0</ele><time>2026-04-12T08:44:43.123Z</time></trkpt><trkpt lat="42.9742126" lon="13.5433142"><ele>477.99999999999994</ele><time>2026-04-12T08:44:44.118Z</time></trkpt><trkpt lat="42.9741217" lon="13.5432607"><ele>477.99999999999994</ele><time>2026-04-12T08:44:45.124Z</time></trkpt><trkpt lat="42.9740289" lon="13.5432039"><ele>478.0</ele><time>2026-04-12T08:44:46.135Z</time></trkpt><trkpt lat="42.9739445" lon="13.5431476"><ele>478.0</ele><time>2026-04-12T08:44:47.127Z</time></trkpt><trkpt lat="42.9738667" lon="13.543091"><ele>477.2</ele><time>2026-04-12T08:44:48.134Z</time></trkpt><trkpt lat="42.9737931" lon="13.5430269"><ele>476.4</ele><time>2026-04-12T08:44:49.153Z</time></trkpt><trkpt lat="42.9736502" lon="13.5428952"><ele>475.59999999999997</ele><time>2026-04-12T08:44:51.124Z</time></trkpt><trkpt lat="42.9735735" lon="13.5428583"><ele>474.79999999999995</ele><time>2026-04-12T08:44:52.132Z</time></trkpt><trkpt lat="42.9734958" lon="13.5428505"><ele>474.0</ele><time>2026-04-12T08:44:53.132Z</time></trkpt><trkpt lat="42.9734106" lon="13.5428623"><ele>472.2</ele><time>2026-04-12T08:44:54.134Z</time></trkpt><trkpt lat="42.9733282" lon="13.5428889"><ele>470.4</ele><time>2026-04-12T08:44:55.123Z</time></trkpt><trkpt lat="42.9732602" lon="13.5429246"><ele>468.6</ele><time>2026-04-12T08:44:56.138Z</time></trkpt><trkpt lat="42.9731597" lon="13.5429881"><ele>466.8</ele><time>2026-04-12T08:44:58.156Z</time></trkpt><trkpt lat="42.9730669" lon="13.5430189"><ele>465.0</ele><time>2026-04-12T08:45:00.159Z</time></trkpt><trkpt lat="42.9729802" lon="13.5430543"><ele>465.0</ele><time>2026-04-12T08:45:02.116Z</time></trkpt><trkpt lat="42.972867" lon="13.5431015"><ele>465.0</ele><time>2026-04-12T08:45:04.134Z</time></trkpt><trkpt lat="42.9727925" lon="13.5431217"><ele>465.0</ele><time>2026-04-12T08:45:05.131Z</time></trkpt><trkpt lat="42.97271" lon="13.5431323"><ele>465.0</ele><time>2026-04-12T08:45:06.17Z</time></trkpt><trkpt lat="42.9726248" lon="13.543138"><ele>465.0</ele><time>2026-04-12T08:45:07.138Z</time></trkpt><trkpt lat="42.9725292" lon="13.5431409"><ele>467.0</ele><time>2026-04-12T08:45:08.134Z</time></trkpt><trkpt lat="42.9724212" lon="13.543145"><ele>469.0</ele><time>2026-04-12T08:45:09.135Z</time></trkpt><trkpt lat="42.9723136" lon="13.5431569"><ele>471.0</ele><time>2026-04-12T08:45:10.12Z</time></trkpt><trkpt lat="42.9720859" lon="13.5432115"><ele>473.0</ele><time>2026-04-12T08:45:12.124Z</time></trkpt><trkpt lat="42.9719784" lon="13.5432554"><ele>472.99999999999994</ele><time>2026-04-12T08:45:13.127Z</time></trkpt><trkpt lat="42.9718768" lon="13.5433057"><ele>473.0</ele><time>2026-04-12T08:45:14.127Z</time></trkpt><trkpt lat="42.9717861" lon="13.5433496"><ele>473.0</ele><time>2026-04-12T08:45:15.13Z</time></trkpt><trkpt lat="42.9717081" lon="13.5433761"><ele>473.0</ele><time>2026-04-12T08:45:16.151Z</time></trkpt><trkpt lat="42.9716324" lon="13.5433766"><ele>472.99999999999994</ele><time>2026-04-12T08:45:17.141Z</time></trkpt><trkpt lat="42.9715525" lon="13.5433558"><ele>473.0</ele><time>2026-04-12T08:45:18.133Z</time></trkpt><trkpt lat="42.971474" lon="13.5433189"><ele>472.79999999999995</ele><time>2026-04-12T08:45:19.13Z</time></trkpt><trkpt lat="42.9713857" lon="13.5432575"><ele>472.59999999999997</ele><time>2026-04-12T08:45:20.12Z</time></trkpt><trkpt lat="42.9712875" lon="13.5431767"><ele>472.40000000000003</ele><time>2026-04-12T08:45:21.128Z</time></trkpt><trkpt lat="42.9711917" lon="13.5430884"><ele>472.20000000000005</ele><time>2026-04-12T08:45:22.135Z</time></trkpt><trkpt lat="42.9710935" lon="13.5430042"><ele>472.0</ele><time>2026-04-12T08:45:23.131Z</time></trkpt><trkpt lat="42.9709918" lon="13.5429398"><ele>472.0</ele><time>2026-04-12T08:45:24.132Z</time></trkpt><trkpt lat="42.9708891" lon="13.5429076"><ele>472.00000000000006</ele><time>2026-04-12T08:45:25.124Z</time></trkpt><trkpt lat="42.9707916" lon="13.5429055"><ele>472.00000000000006</ele><time>2026-04-12T08:45:26.129Z</time></trkpt><trkpt lat="42.9706965" lon="13.5429329"><ele>472.0</ele><time>2026-04-12T08:45:27.132Z</time></trkpt><trkpt lat="42.9705981" lon="13.5429869"><ele>472.0</ele><time>2026-04-12T08:45:28.131Z</time></trkpt><trkpt lat="42.9704946" lon="13.5430572"><ele>472.0</ele><time>2026-04-12T08:45:29.121Z</time></trkpt><trkpt lat="42.9704017" lon="13.5431235"><ele>472.0</ele><time>2026-04-12T08:45:30.13Z</time></trkpt><trkpt lat="42.9703255" lon="13.5431707"><ele>472.0</ele><time>2026-04-12T08:45:31.12Z</time></trkpt><trkpt lat="42.9701506" lon="13.5431748"><ele>472.0</ele><time>2026-04-12T08:45:33.124Z</time></trkpt><trkpt lat="42.9700406" lon="13.5431439"><ele>474.5</ele><time>2026-04-12T08:45:34.13Z</time></trkpt><trkpt lat="42.9699231" lon="13.5431049"><ele>477.0</ele><time>2026-04-12T08:45:35.116Z</time></trkpt><trkpt lat="42.9698017" lon="13.543087"><ele>479.5</ele><time>2026-04-12T08:45:36.129Z</time></trkpt><trkpt lat="42.9696823" lon="13.5430894"><ele>482.0</ele><time>2026-04-12T08:45:37.13Z</time></trkpt><trkpt lat="42.9695753" lon="13.5431078"><ele>481.99999999999994</ele><time>2026-04-12T08:45:38.12Z</time></trkpt><trkpt lat="42.9694861" lon="13.5431392"><ele>482.0</ele><time>2026-04-12T08:45:39.118Z</time></trkpt><trkpt lat="42.9694107" lon="13.543174"><ele>482.0</ele><time>2026-04-12T08:45:40.127Z</time></trkpt><trkpt lat="42.9693383" lon="13.5431978"><ele>482.0</ele><time>2026-04-12T08:45:41.125Z</time></trkpt><trkpt lat="42.9692626" lon="13.5432085"><ele>481.99999999999994</ele><time>2026-04-12T08:45:42.124Z</time></trkpt><trkpt lat="42.969181" lon="13.5432059"><ele>482.0</ele><time>2026-04-12T08:45:43.122Z</time></trkpt><trkpt lat="42.9690848" lon="13.5432037"><ele>484.20000000000005</ele><time>2026-04-12T08:45:44.116Z</time></trkpt><trkpt lat="42.9689794" lon="13.5432197"><ele>486.40000000000003</ele><time>2026-04-12T08:45:45.135Z</time></trkpt><trkpt lat="42.9688757" lon="13.543256"><ele>488.59999999999997</ele><time>2026-04-12T08:45:46.154Z</time></trkpt><trkpt lat="42.9687845" lon="13.5433149"><ele>490.79999999999995</ele><time>2026-04-12T08:45:47.135Z</time></trkpt><trkpt lat="42.9687084" lon="13.5434031"><ele>493.0</ele><time>2026-04-12T08:45:48.143Z</time></trkpt><trkpt lat="42.9686448" lon="13.5435183"><ele>493.0</ele><time>2026-04-12T08:45:49.128Z</time></trkpt><trkpt lat="42.968585" lon="13.5436507"><ele>493.0</ele><time>2026-04-12T08:45:50.13Z</time></trkpt><trkpt lat="42.9685237" lon="13.5437716"><ele>493.0</ele><time>2026-04-12T08:45:51.129Z</time></trkpt><trkpt lat="42.968455" lon="13.5438772"><ele>493.0</ele><time>2026-04-12T08:45:52.166Z</time></trkpt><trkpt lat="42.9682847" lon="13.544042"><ele>495.25</ele><time>2026-04-12T08:45:54.129Z</time></trkpt><trkpt lat="42.9681787" lon="13.5441213"><ele>497.5</ele><time>2026-04-12T08:45:55.127Z</time></trkpt><trkpt lat="42.9680711" lon="13.5442042"><ele>499.75</ele><time>2026-04-12T08:45:56.127Z</time></trkpt><trkpt lat="42.9679798" lon="13.5442921"><ele>502.0</ele><time>2026-04-12T08:45:57.13Z</time></trkpt><trkpt lat="42.9679016" lon="13.5443808"><ele>502.0</ele><time>2026-04-12T08:45:58.129Z</time></trkpt><trkpt lat="42.9678341" lon="13.5444778"><ele>502.00000000000006</ele><time>2026-04-12T08:45:59.15Z</time></trkpt><trkpt lat="42.9677924" lon="13.5445926"><ele>502.00000000000006</ele><time>2026-04-12T08:46:00.118Z</time></trkpt><trkpt lat="42.9677644" lon="13.5447317"><ele>502.0</ele><time>2026-04-12T08:46:01.129Z</time></trkpt><trkpt lat="42.967746" lon="13.5448883"><ele>502.0</ele><time>2026-04-12T08:46:02.126Z</time></trkpt><trkpt lat="42.9677339" lon="13.5450646"><ele>501.40000000000003</ele><time>2026-04-12T08:46:03.147Z</time></trkpt><trkpt lat="42.9677189" lon="13.545234"><ele>500.80000000000007</ele><time>2026-04-12T08:46:04.128Z</time></trkpt><trkpt lat="42.9677011" lon="13.5453785"><ele>500.2</ele><time>2026-04-12T08:46:05.123Z</time></trkpt><trkpt lat="42.967686" lon="13.5455055"><ele>499.6</ele><time>2026-04-12T08:46:06.136Z</time></trkpt><trkpt lat="42.9676563" lon="13.5456163"><ele>499.0</ele><time>2026-04-12T08:46:07.136Z</time></trkpt><trkpt lat="42.9676034" lon="13.5457171"><ele>501.2</ele><time>2026-04-12T08:46:08.154Z</time></trkpt><trkpt lat="42.9675429" lon="13.5457942"><ele>503.4</ele><time>2026-04-12T08:46:09.13Z</time></trkpt><trkpt lat="42.9674867" lon="13.5458504"><ele>505.6</ele><time>2026-04-12T08:46:10.131Z</time></trkpt><trkpt lat="42.9674001" lon="13.545916"><ele>507.8</ele><time>2026-04-12T08:46:12.125Z</time></trkpt><trkpt lat="42.9673633" lon="13.5458279"><ele>510.0</ele><time>2026-04-12T08:46:17.14Z</time></trkpt><trkpt lat="42.967459" lon="13.5456407"><ele>511.4</ele><time>2026-04-12T08:46:21.129Z</time></trkpt><trkpt lat="42.9674812" lon="13.5455189"><ele>512.8</ele><time>2026-04-12T08:46:23.127Z</time></trkpt><trkpt lat="42.9674385" lon="13.5453345"><ele>514.2</ele><time>2026-04-12T08:46:25.132Z</time></trkpt><trkpt lat="42.967407" lon="13.5452022"><ele>515.6</ele><time>2026-04-12T08:46:26.161Z</time></trkpt><trkpt lat="42.9673813" lon="13.545065"><ele>517.0</ele><time>2026-04-12T08:46:27.169Z</time></trkpt><trkpt lat="42.9673619" lon="13.5449345"><ele>517.0</ele><time>2026-04-12T08:46:28.136Z</time></trkpt><trkpt lat="42.9673494" lon="13.5448103"><ele>517.0</ele><time>2026-04-12T08:46:29.127Z</time></trkpt><trkpt lat="42.967348" lon="13.544697"><ele>517.0</ele><time>2026-04-12T08:46:30.13Z</time></trkpt><trkpt lat="42.9673543" lon="13.5445882"><ele>517.0</ele><time>2026-04-12T08:46:31.145Z</time></trkpt><trkpt lat="42.9673757" lon="13.5444816"><ele>517.0</ele><time>2026-04-12T08:46:32.135Z</time></trkpt><trkpt lat="42.9674143" lon="13.5443631"><ele>517.0</ele><time>2026-04-12T08:46:33.118Z</time></trkpt><trkpt lat="42.9674589" lon="13.5442318"><ele>516.4</ele><time>2026-04-12T08:46:34.138Z</time></trkpt><trkpt lat="42.9675002" lon="13.5440897"><ele>515.8000000000001</ele><time>2026-04-12T08:46:35.119Z</time></trkpt><trkpt lat="42.9675371" lon="13.543944"><ele>515.2</ele><time>2026-04-12T08:46:36.152Z</time></trkpt><trkpt lat="42.9675675" lon="13.5438078"><ele>514.6</ele><time>2026-04-12T08:46:37.127Z</time></trkpt><trkpt lat="42.9675955" lon="13.5436752"><ele>514.0</ele><time>2026-04-12T08:46:38.166Z</time></trkpt><trkpt lat="42.9676488" lon="13.5434541"><ele>514.0</ele><time>2026-04-12T08:46:40.129Z</time></trkpt><trkpt lat="42.9676848" lon="13.5433554"><ele>514.0</ele><time>2026-04-12T08:46:41.128Z</time></trkpt><trkpt lat="42.967728" lon="13.5432559"><ele>514.0</ele><time>2026-04-12T08:46:42.135Z</time></trkpt><trkpt lat="42.9677793" lon="13.5431554"><ele>514.0</ele><time>2026-04-12T08:46:43.124Z</time></trkpt><trkpt lat="42.9678402" lon="13.5430421"><ele>514.0</ele><time>2026-04-12T08:46:44.129Z</time></trkpt><trkpt lat="42.9679058" lon="13.5429147"><ele>518.25</ele><time>2026-04-12T08:46:45.12Z</time></trkpt><trkpt lat="42.9679729" lon="13.5427806"><ele>522.5</ele><time>2026-04-12T08:46:46.125Z</time></trkpt><trkpt lat="42.9680389" lon="13.5426481"><ele>526.75</ele><time>2026-04-12T08:46:47.134Z</time></trkpt><trkpt lat="42.9681046" lon="13.5425258"><ele>531.0</ele><time>2026-04-12T08:46:48.132Z</time></trkpt><trkpt lat="42.9681733" lon="13.5424179"><ele>531.0</ele><time>2026-04-12T08:46:49.114Z</time></trkpt><trkpt lat="42.9682466" lon="13.5423195"><ele>531.0</ele><time>2026-04-12T08:46:50.116Z</time></trkpt><trkpt lat="42.9683231" lon="13.542225"><ele>531.0</ele><time>2026-04-12T08:46:51.13Z</time></trkpt><trkpt lat="42.9683987" lon="13.5421359"><ele>531.0</ele><time>2026-04-12T08:46:52.13Z</time></trkpt><trkpt lat="42.9684686" lon="13.5420439"><ele>531.0</ele><time>2026-04-12T08:46:53.134Z</time></trkpt><trkpt lat="42.9685283" lon="13.541939"><ele>531.4</ele><time>2026-04-12T08:46:54.119Z</time></trkpt><trkpt lat="42.9685842" lon="13.541817"><ele>531.8</ele><time>2026-04-12T08:46:55.158Z</time></trkpt><trkpt lat="42.9686396" lon="13.5416949"><ele>532.1999999999999</ele><time>2026-04-12T08:46:56.128Z</time></trkpt><trkpt lat="42.9687021" lon="13.541581"><ele>532.6</ele><time>2026-04-12T08:46:57.127Z</time></trkpt><trkpt lat="42.9687756" lon="13.5414749"><ele>533.0</ele><time>2026-04-12T08:46:58.129Z</time></trkpt><trkpt lat="42.9688591" lon="13.5413676"><ele>533.75</ele><time>2026-04-12T08:46:59.138Z</time></trkpt><trkpt lat="42.9690288" lon="13.5411451"><ele>534.5</ele><time>2026-04-12T08:47:01.119Z</time></trkpt><trkpt lat="42.9691042" lon="13.5410466"><ele>535.25</ele><time>2026-04-12T08:47:02.129Z</time></trkpt><trkpt lat="42.9691691" lon="13.540961"><ele>536.0</ele><time>2026-04-12T08:47:03.126Z</time></trkpt><trkpt lat="42.969235" lon="13.5408841"><ele>536.0</ele><time>2026-04-12T08:47:04.128Z</time></trkpt><trkpt lat="42.9693098" lon="13.5408249"><ele>536.0</ele><time>2026-04-12T08:47:05.154Z</time></trkpt><trkpt lat="42.9693997" lon="13.5407863"><ele>536.0</ele><time>2026-04-12T08:47:06.128Z</time></trkpt><trkpt lat="42.9695086" lon="13.5407624"><ele>536.0</ele><time>2026-04-12T08:47:07.166Z</time></trkpt><trkpt lat="42.9696094" lon="13.5407496"><ele>536.0</ele><time>2026-04-12T08:47:08.128Z</time></trkpt><trkpt lat="42.9696977" lon="13.5407371"><ele>536.0</ele><time>2026-04-12T08:47:09.126Z</time></trkpt><trkpt lat="42.9697727" lon="13.540712"><ele>536.0</ele><time>2026-04-12T08:47:10.137Z</time></trkpt><trkpt lat="42.9698448" lon="13.5406663"><ele>536.0</ele><time>2026-04-12T08:47:11.139Z</time></trkpt><trkpt lat="42.969926" lon="13.5405951"><ele>536.0</ele><time>2026-04-12T08:47:12.138Z</time></trkpt><trkpt lat="42.9700153" lon="13.5404979"><ele>536.0</ele><time>2026-04-12T08:47:13.16Z</time></trkpt><trkpt lat="42.9701058" lon="13.5404003"><ele>538.2</ele><time>2026-04-12T08:47:14.132Z</time></trkpt><trkpt lat="42.9701977" lon="13.5403155"><ele>540.4000000000001</ele><time>2026-04-12T08:47:15.139Z</time></trkpt><trkpt lat="42.9702942" lon="13.5402562"><ele>542.6</ele><time>2026-04-12T08:47:16.139Z</time></trkpt><trkpt lat="42.9703985" lon="13.5402214"><ele>544.8000000000001</ele><time>2026-04-12T08:47:17.135Z</time></trkpt><trkpt lat="42.9704985" lon="13.5401982"><ele>547.0</ele><time>2026-04-12T08:47:18.131Z</time></trkpt><trkpt lat="42.9705776" lon="13.5401822"><ele>547.0</ele><time>2026-04-12T08:47:19.127Z</time></trkpt><trkpt lat="42.9707226" lon="13.5402242"><ele>547.0</ele><time>2026-04-12T08:47:23.123Z</time></trkpt><trkpt lat="42.9708704" lon="13.5403081"><ele>547.0</ele><time>2026-04-12T08:47:25.146Z</time></trkpt><trkpt lat="42.9709648" lon="13.5403613"><ele>547.0</ele><time>2026-04-12T08:47:26.133Z</time></trkpt><trkpt lat="42.971066" lon="13.5404196"><ele>546.3333333333334</ele><time>2026-04-12T08:47:27.135Z</time></trkpt><trkpt lat="42.9711569" lon="13.540473"><ele>545.6666666666667</ele><time>2026-04-12T08:47:28.142Z</time></trkpt><trkpt lat="42.9712316" lon="13.5405244"><ele>545.0</ele><time>2026-04-12T08:47:29.134Z</time></trkpt><trkpt lat="42.971294" lon="13.5405777"><ele>544.3333333333334</ele><time>2026-04-12T08:47:30.136Z</time></trkpt><trkpt lat="42.9713548" lon="13.5406284"><ele>543.6666666666666</ele><time>2026-04-12T08:47:31.164Z</time></trkpt><trkpt lat="42.9714272" lon="13.5406677"><ele>543.0</ele><time>2026-04-12T08:47:32.129Z</time></trkpt><trkpt lat="42.9715149" lon="13.5407025"><ele>543.0</ele><time>2026-04-12T08:47:33.133Z</time></trkpt><trkpt lat="42.9716005" lon="13.540736"><ele>543.0</ele><time>2026-04-12T08:47:34.13Z</time></trkpt><trkpt lat="42.971672" lon="13.5407669"><ele>543.0</ele><time>2026-04-12T08:47:35.119Z</time></trkpt><trkpt lat="42.9717353" lon="13.5407986"><ele>543.0</ele><time>2026-04-12T08:47:36.133Z</time></trkpt><trkpt lat="42.9718007" lon="13.5408273"><ele>543.0</ele><time>2026-04-12T08:47:37.13Z</time></trkpt><trkpt lat="42.9718634" lon="13.5408441"><ele>543.0</ele><time>2026-04-12T08:47:38.126Z</time></trkpt><trkpt lat="42.9719875" lon="13.540847"><ele>542.8</ele><time>2026-04-12T08:47:40.119Z</time></trkpt><trkpt lat="42.9720512" lon="13.5408443"><ele>542.5999999999999</ele><time>2026-04-12T08:47:41.135Z</time></trkpt><trkpt lat="42.972178" lon="13.5408472"><ele>542.4000000000001</ele><time>2026-04-12T08:47:43.125Z</time></trkpt><trkpt lat="42.9722471" lon="13.5408569"><ele>542.2</ele><time>2026-04-12T08:47:44.162Z</time></trkpt><trkpt lat="42.972397" lon="13.5408985"><ele>542.0</ele><time>2026-04-12T08:47:46.132Z</time></trkpt><trkpt lat="42.9724775" lon="13.5409184"><ele>543.0</ele><time>2026-04-12T08:47:47.13Z</time></trkpt><trkpt lat="42.9725582" lon="13.5409379"><ele>544.0</ele><time>2026-04-12T08:47:48.124Z</time></trkpt><trkpt lat="42.9726347" lon="13.5409578"><ele>545.0</ele><time>2026-04-12T08:47:49.141Z</time></trkpt><trkpt lat="42.9727106" lon="13.5409784"><ele>546.0</ele><time>2026-04-12T08:47:50.139Z</time></trkpt><trkpt lat="42.9727861" lon="13.540999"><ele>547.0</ele><time>2026-04-12T08:47:51.122Z</time></trkpt><trkpt lat="42.972867" lon="13.541019"><ele>548.0</ele><time>2026-04-12T08:47:52.115Z</time></trkpt><trkpt lat="42.9729527" lon="13.5410359"><ele>548.0</ele><time>2026-04-12T08:47:53.13Z</time></trkpt><trkpt lat="42.9730404" lon="13.5410515"><ele>548.0</ele><time>2026-04-12T08:47:54.135Z</time></trkpt><trkpt lat="42.973121" lon="13.5410669"><ele>548.0</ele><time>2026-04-12T08:47:55.124Z</time></trkpt><trkpt lat="42.973203" lon="13.5410825"><ele>548.0</ele><time>2026-04-12T08:47:56.123Z</time></trkpt><trkpt lat="42.9732853" lon="13.5410949"><ele>548.0</ele><time>2026-04-12T08:47:57.128Z</time></trkpt><trkpt lat="42.9733725" lon="13.5411059"><ele>548.0</ele><time>2026-04-12T08:47:58.13Z</time></trkpt><trkpt lat="42.9734623" lon="13.5411159"><ele>548.1999999999999</ele><time>2026-04-12T08:47:59.126Z</time></trkpt><trkpt lat="42.9735547" lon="13.5411243"><ele>548.4</ele><time>2026-04-12T08:48:00.127Z</time></trkpt><trkpt lat="42.9736497" lon="13.5411299"><ele>548.5999999999999</ele><time>2026-04-12T08:48:01.139Z</time></trkpt><trkpt lat="42.9737419" lon="13.5411422"><ele>548.8</ele><time>2026-04-12T08:48:02.134Z</time></trkpt><trkpt lat="42.9738312" lon="13.5411655"><ele>549.0</ele><time>2026-04-12T08:48:03.126Z</time></trkpt><trkpt lat="42.9739212" lon="13.5411994"><ele>543.75</ele><time>2026-04-12T08:48:04.128Z</time></trkpt><trkpt lat="42.9740169" lon="13.5412435"><ele>538.5</ele><time>2026-04-12T08:48:05.133Z</time></trkpt><trkpt lat="42.9741923" lon="13.5413519"><ele>533.25</ele><time>2026-04-12T08:48:07.132Z</time></trkpt><trkpt lat="42.9742704" lon="13.5414111"><ele>528.0</ele><time>2026-04-12T08:48:08.119Z</time></trkpt><trkpt lat="42.9743401" lon="13.5414742"><ele>528.0</ele><time>2026-04-12T08:48:09.14Z</time></trkpt><trkpt lat="42.9743969" lon="13.5415421"><ele>528.0</ele><time>2026-04-12T08:48:10.132Z</time></trkpt><trkpt lat="42.9744515" lon="13.5416218"><ele>528.0</ele><time>2026-04-12T08:48:11.134Z</time></trkpt><trkpt lat="42.9745105" lon="13.5417066"><ele>528.0</ele><time>2026-04-12T08:48:12.121Z</time></trkpt><trkpt lat="42.974572" lon="13.5417845"><ele>528.0</ele><time>2026-04-12T08:48:13.122Z</time></trkpt><trkpt lat="42.9746381" lon="13.5418545"><ele>528.0</ele><time>2026-04-12T08:48:14.118Z</time></trkpt><trkpt lat="42.9747056" lon="13.541909"><ele>528.0</ele><time>2026-04-12T08:48:15.118Z</time></trkpt><trkpt lat="42.9747654" lon="13.5419418"><ele>528.0</ele><time>2026-04-12T08:48:16.119Z</time></trkpt><trkpt lat="42.974884" lon="13.5419381"><ele>528.0</ele><time>2026-04-12T08:48:19.12Z</time></trkpt><trkpt lat="42.9749227" lon="13.5418408"><ele>528.0</ele><time>2026-04-12T08:48:22.13Z</time></trkpt><trkpt lat="42.9749725" lon="13.5417525"><ele>528.0</ele><time>2026-04-12T08:48:25.128Z</time></trkpt><trkpt lat="42.9750382" lon="13.5416601"><ele>528.0</ele><time>2026-04-12T08:48:27.123Z</time></trkpt><trkpt lat="42.9751502" lon="13.5414731"><ele>527.3333333333334</ele><time>2026-04-12T08:48:30.121Z</time></trkpt><trkpt lat="42.975242" lon="13.5414254"><ele>526.6666666666666</ele><time>2026-04-12T08:48:32.128Z</time></trkpt><trkpt lat="42.9753053" lon="13.5413973"><ele>526.0</ele><time>2026-04-12T08:48:33.14Z</time></trkpt><trkpt lat="42.9753731" lon="13.5413538"><ele>525.3333333333333</ele><time>2026-04-12T08:48:34.135Z</time></trkpt><trkpt lat="42.9754469" lon="13.541301"><ele>524.6666666666666</ele><time>2026-04-12T08:48:35.123Z</time></trkpt><trkpt lat="42.975526" lon="13.5412374"><ele>524.0</ele><time>2026-04-12T08:48:36.13Z</time></trkpt><trkpt lat="42.9756034" lon="13.541173"><ele>521.6666666666666</ele><time>2026-04-12T08:48:37.127Z</time></trkpt><trkpt lat="42.9756695" lon="13.5411198"><ele>519.3333333333333</ele><time>2026-04-12T08:48:38.129Z</time></trkpt><trkpt lat="42.9757543" lon="13.5410503"><ele>517.0</ele><time>2026-04-12T08:48:40.121Z</time></trkpt><trkpt lat="42.9758227" lon="13.5410543"><ele>514.6666666666666</ele><time>2026-04-12T08:48:42.116Z</time></trkpt><trkpt lat="42.9759168" lon="13.5411186"><ele>512.3333333333334</ele><time>2026-04-12T08:48:44.117Z</time></trkpt><trkpt lat="42.9759789" lon="13.5411584"><ele>510.0</ele><time>2026-04-12T08:48:45.122Z</time></trkpt><trkpt lat="42.9760414" lon="13.5411959"><ele>505.75</ele><time>2026-04-12T08:48:46.14Z</time></trkpt><trkpt lat="42.9761398" lon="13.5412772"><ele>501.5</ele><time>2026-04-12T08:48:48.132Z</time></trkpt><trkpt lat="42.9762845" lon="13.5414928"><ele>497.25</ele><time>2026-04-12T08:48:52.134Z</time></trkpt><trkpt lat="42.9763321" lon="13.5415694"><ele>493.0</ele><time>2026-04-12T08:48:54.123Z</time></trkpt><trkpt lat="42.9763755" lon="13.5416626"><ele>493.00000000000006</ele><time>2026-04-12T08:48:57.12Z</time></trkpt><trkpt lat="42.9764239" lon="13.5417515"><ele>493.0</ele><time>2026-04-12T08:49:00.125Z</time></trkpt><trkpt lat="42.9764841" lon="13.5418482"><ele>493.0</ele><time>2026-04-12T08:49:02.124Z</time></trkpt><trkpt lat="42.9765412" lon="13.5419333"><ele>493.0</ele><time>2026-04-12T08:49:04.129Z</time></trkpt><trkpt lat="42.9765652" lon="13.5420147"><ele>493.00000000000006</ele><time>2026-04-12T08:49:06.125Z</time></trkpt><trkpt lat="42.9765454" lon="13.5421263"><ele>493.0</ele><time>2026-04-12T08:49:08.132Z</time></trkpt><trkpt lat="42.9765286" lon="13.5422669"><ele>492.75</ele><time>2026-04-12T08:49:10.128Z</time></trkpt><trkpt lat="42.9766736" lon="13.5424433"><ele>492.5</ele><time>2026-04-12T08:49:14.12Z</time></trkpt><trkpt lat="42.9767793" lon="13.5424339"><ele>492.25</ele><time>2026-04-12T08:49:16.122Z</time></trkpt><trkpt lat="42.9769005" lon="13.5424384"><ele>492.0</ele><time>2026-04-12T08:49:18.137Z</time></trkpt><trkpt lat="42.9769651" lon="13.5424461"><ele>492.0</ele><time>2026-04-12T08:49:19.125Z</time></trkpt><trkpt lat="42.9770302" lon="13.5424611"><ele>492.0</ele><time>2026-04-12T08:49:20.124Z</time></trkpt><trkpt lat="42.977095" lon="13.5424836"><ele>492.0</ele><time>2026-04-12T08:49:21.127Z</time></trkpt><trkpt lat="42.9771588" lon="13.5425136"><ele>492.0</ele><time>2026-04-12T08:49:22.138Z</time></trkpt><trkpt lat="42.9772175" lon="13.5425469"><ele>492.0</ele><time>2026-04-12T08:49:23.139Z</time></trkpt><trkpt lat="42.977309" lon="13.5426667"><ele>492.0</ele><time>2026-04-12T08:49:25.128Z</time></trkpt><trkpt lat="42.9773504" lon="13.5427547"><ele>492.0</ele><time>2026-04-12T08:49:26.118Z</time></trkpt><trkpt lat="42.9773919" lon="13.5428547"><ele>492.0</ele><time>2026-04-12T08:49:27.13Z</time></trkpt><trkpt lat="42.9774293" lon="13.5429571"><ele>492.0</ele><time>2026-04-12T08:49:28.122Z</time></trkpt><trkpt lat="42.9774666" lon="13.543061"><ele>492.0</ele><time>2026-04-12T08:49:29.134Z</time></trkpt><trkpt lat="42.9775055" lon="13.5431626"><ele>492.0</ele><time>2026-04-12T08:49:30.136Z</time></trkpt><trkpt lat="42.9775478" lon="13.5432569"><ele>492.0</ele><time>2026-04-12T08:49:31.127Z</time></trkpt><trkpt lat="42.9776262" lon="13.5434294"><ele>487.8</ele><time>2026-04-12T08:49:33.132Z</time></trkpt><trkpt lat="42.9776519" lon="13.5435122"><ele>483.6</ele><time>2026-04-12T08:49:34.167Z</time></trkpt><trkpt lat="42.9776669" lon="13.5436617"><ele>479.40000000000003</ele><time>2026-04-12T08:49:36.141Z</time></trkpt><trkpt lat="42.9777475" lon="13.5436249"><ele>475.20000000000005</ele><time>2026-04-12T08:49:41.149Z</time></trkpt><trkpt lat="42.9778462" lon="13.5435154"><ele>471.0</ele><time>2026-04-12T08:49:43.17Z</time></trkpt><trkpt lat="42.9779127" lon="13.5434727"><ele>471.0</ele><time>2026-04-12T08:49:44.121Z</time></trkpt><trkpt lat="42.977984" lon="13.5434414"><ele>471.0</ele><time>2026-04-12T08:49:45.135Z</time></trkpt><trkpt lat="42.9780575" lon="13.5434153"><ele>471.0</ele><time>2026-04-12T08:49:46.117Z</time></trkpt><trkpt lat="42.9781335" lon="13.5433877"><ele>471.0</ele><time>2026-04-12T08:49:47.126Z</time></trkpt><trkpt lat="42.9782174" lon="13.5433559"><ele>471.0</ele><time>2026-04-12T08:49:48.127Z</time></trkpt><trkpt lat="42.9783111" lon="13.5433253"><ele>471.0</ele><time>2026-04-12T08:49:49.133Z</time></trkpt><trkpt lat="42.978408" lon="13.5432969"><ele>469.0</ele><time>2026-04-12T08:49:50.163Z</time></trkpt><trkpt lat="42.9784991" lon="13.5432658"><ele>467.0</ele><time>2026-04-12T08:49:51.149Z</time></trkpt><trkpt lat="42.9785837" lon="13.5432259"><ele>465.0</ele><time>2026-04-12T08:49:52.126Z</time></trkpt><trkpt lat="42.9787449" lon="13.5431134"><ele>463.0</ele><time>2026-04-12T08:49:54.132Z</time></trkpt><trkpt lat="42.9788128" lon="13.5430483"><ele>461.0</ele><time>2026-04-12T08:49:55.131Z</time></trkpt><trkpt lat="42.9788663" lon="13.5429806"><ele>460.99999999999994</ele><time>2026-04-12T08:49:56.132Z</time></trkpt><trkpt lat="42.9789131" lon="13.5429063"><ele>461.0</ele><time>2026-04-12T08:49:57.133Z</time></trkpt><trkpt lat="42.9789642" lon="13.5428449"><ele>461.0</ele><time>2026-04-12T08:49:58.117Z</time></trkpt><trkpt lat="42.9790609" lon="13.5427893"><ele>461.0</ele><time>2026-04-12T08:50:00.122Z</time></trkpt><trkpt lat="42.9791354" lon="13.5427718"><ele>460.99999999999994</ele><time>2026-04-12T08:50:02.169Z</time></trkpt><trkpt lat="42.9792054" lon="13.542721"><ele>461.0</ele><time>2026-04-12T08:50:04.119Z</time></trkpt><trkpt lat="42.9792617" lon="13.5426554"><ele>459.20000000000005</ele><time>2026-04-12T08:50:07.117Z</time></trkpt><trkpt lat="42.979313" lon="13.542582"><ele>457.40000000000003</ele><time>2026-04-12T08:50:10.135Z</time></trkpt><trkpt lat="42.979378" lon="13.5425131"><ele>455.6</ele><time>2026-04-12T08:50:14.138Z</time></trkpt><trkpt lat="42.9795454" lon="13.5425422"><ele>453.8</ele><time>2026-04-12T08:50:19.143Z</time></trkpt><trkpt lat="42.9796201" lon="13.542559"><ele>452.0</ele><time>2026-04-12T08:50:21.138Z</time></trkpt><trkpt lat="42.9797248" lon="13.5425504"><ele>452.0</ele><time>2026-04-12T08:50:23.137Z</time></trkpt><trkpt lat="42.9798355" lon="13.5425157"><ele>452.00000000000006</ele><time>2026-04-12T08:50:25.126Z</time></trkpt><trkpt lat="42.9799068" lon="13.542509"><ele>452.00000000000006</ele><time>2026-04-12T08:50:27.123Z</time></trkpt><trkpt lat="42.9799855" lon="13.5425778"><ele>452.0</ele><time>2026-04-12T08:50:30.152Z</time></trkpt><trkpt lat="42.9800495" lon="13.5425999"><ele>452.0</ele><time>2026-04-12T08:50:35.12Z</time></trkpt><trkpt lat="42.980202" lon="13.5426112"><ele>448.6</ele><time>2026-04-12T08:50:41.157Z</time></trkpt><trkpt lat="42.9802809" lon="13.5426164"><ele>445.20000000000005</ele><time>2026-04-12T08:50:45.13Z</time></trkpt><trkpt lat="42.9803563" lon="13.5425988"><ele>441.8</ele><time>2026-04-12T08:50:49.16Z</time></trkpt><trkpt lat="42.9804331" lon="13.5425941"><ele>438.4</ele><time>2026-04-12T08:50:52.13Z</time></trkpt><trkpt lat="42.9805103" lon="13.5426028"><ele>435.0</ele><time>2026-04-12T08:50:58.122Z</time></trkpt><trkpt lat="42.9802701" lon="13.5426342"><ele>435.0</ele><time>2026-04-12T08:52:19.142Z</time></trkpt><trkpt lat="42.9801847" lon="13.5426297"><ele>435.0</ele><time>2026-04-12T08:52:22.129Z</time></trkpt><trkpt lat="42.9801102" lon="13.5425941"><ele>435.0</ele><time>2026-04-12T08:52:25.128Z</time></trkpt><trkpt lat="42.9800457" lon="13.5425361"><ele>435.0</ele><time>2026-04-12T08:52:28.123Z</time></trkpt><trkpt lat="42.979971" lon="13.5425341"><ele>435.0</ele><time>2026-04-12T08:52:31.125Z</time></trkpt><trkpt lat="42.9798986" lon="13.5425524"><ele>435.0</ele><time>2026-04-12T08:52:33.123Z</time></trkpt><trkpt lat="42.979717" lon="13.5425129"><ele>437.8333333333333</ele><time>2026-04-12T08:52:37.13Z</time></trkpt><trkpt lat="42.9796506" lon="13.5424912"><ele>440.66666666666663</ele><time>2026-04-12T08:52:39.121Z</time></trkpt><trkpt lat="42.9795786" lon="13.5424874"><ele>443.5</ele><time>2026-04-12T08:52:41.125Z</time></trkpt><trkpt lat="42.9795055" lon="13.5425604"><ele>446.3333333333333</ele><time>2026-04-12T08:52:44.129Z</time></trkpt><trkpt lat="42.9794525" lon="13.5426145"><ele>449.16666666666663</ele><time>2026-04-12T08:52:46.118Z</time></trkpt><trkpt lat="42.9793719" lon="13.5426411"><ele>452.0</ele><time>2026-04-12T08:52:48.125Z</time></trkpt><trkpt lat="42.9792803" lon="13.5426867"><ele>452.0</ele><time>2026-04-12T08:52:50.12Z</time></trkpt><trkpt lat="42.9791942" lon="13.5427368"><ele>452.00000000000006</ele><time>2026-04-12T08:52:52.13Z</time></trkpt><trkpt lat="42.9791124" lon="13.542773"><ele>452.00000000000006</ele><time>2026-04-12T08:52:54.128Z</time></trkpt><trkpt lat="42.978928" lon="13.5428858"><ele>452.0</ele><time>2026-04-12T08:52:58.14Z</time></trkpt><trkpt lat="42.9788837" lon="13.5429543"><ele>452.0</ele><time>2026-04-12T08:52:59.164Z</time></trkpt><trkpt lat="42.9788385" lon="13.5430254"><ele>453.49999999999994</ele><time>2026-04-12T08:53:00.121Z</time></trkpt><trkpt lat="42.9787877" lon="13.543087"><ele>455.0</ele><time>2026-04-12T08:53:01.128Z</time></trkpt><trkpt lat="42.9786829" lon="13.5431643"><ele>456.5</ele><time>2026-04-12T08:53:03.139Z</time></trkpt><trkpt lat="42.9785993" lon="13.5432084"><ele>458.0</ele><time>2026-04-12T08:53:05.127Z</time></trkpt><trkpt lat="42.9785198" lon="13.5432325"><ele>459.49999999999994</ele><time>2026-04-12T08:53:07.122Z</time></trkpt><trkpt lat="42.9784352" lon="13.5432526"><ele>461.0</ele><time>2026-04-12T08:53:09.118Z</time></trkpt><trkpt lat="42.9783728" lon="13.5432795"><ele>463.0</ele><time>2026-04-12T08:53:11.131Z</time></trkpt><trkpt lat="42.9782898" lon="13.5433007"><ele>465.0</ele><time>2026-04-12T08:55:37.118Z</time></trkpt><trkpt lat="42.9781174" lon="13.5433478"><ele>467.0</ele><time>2026-04-12T08:55:40.136Z</time></trkpt><trkpt lat="42.9780474" lon="13.543367"><ele>469.0</ele><time>2026-04-12T08:55:41.135Z</time></trkpt><trkpt lat="42.9779748" lon="13.5433914"><ele>471.0</ele><time>2026-04-12T08:55:42.125Z</time></trkpt><trkpt lat="42.9778978" lon="13.5434247"><ele>471.00000000000006</ele><time>2026-04-12T08:55:43.128Z</time></trkpt><trkpt lat="42.9778261" lon="13.543465"><ele>471.0</ele><time>2026-04-12T08:55:44.14Z</time></trkpt><trkpt lat="42.9777626" lon="13.5435091"><ele>471.00000000000006</ele><time>2026-04-12T08:55:45.129Z</time></trkpt><trkpt lat="42.9777066" lon="13.5435683"><ele>471.00000000000006</ele><time>2026-04-12T08:55:46.14Z</time></trkpt><trkpt lat="42.9776586" lon="13.5436447"><ele>471.0</ele><time>2026-04-12T08:55:47.13Z</time></trkpt><trkpt lat="42.9776153" lon="13.5437322"><ele>471.00000000000006</ele><time>2026-04-12T08:55:48.156Z</time></trkpt><trkpt lat="42.9775726" lon="13.5438151"><ele>471.00000000000006</ele><time>2026-04-12T08:55:49.14Z</time></trkpt><trkpt lat="42.9775249" lon="13.5438759"><ele>469.1666666666667</ele><time>2026-04-12T08:55:50.164Z</time></trkpt><trkpt lat="42.977405" lon="13.5439203"><ele>467.33333333333337</ele><time>2026-04-12T08:55:52.122Z</time></trkpt><trkpt lat="42.9773323" lon="13.5439174"><ele>465.5</ele><time>2026-04-12T08:55:53.123Z</time></trkpt><trkpt lat="42.9772532" lon="13.5439112"><ele>463.6666666666667</ele><time>2026-04-12T08:55:54.127Z</time></trkpt><trkpt lat="42.9771723" lon="13.5439004"><ele>461.83333333333337</ele><time>2026-04-12T08:55:55.132Z</time></trkpt><trkpt lat="42.9770898" lon="13.5438879"><ele>460.0</ele><time>2026-04-12T08:55:56.13Z</time></trkpt><trkpt lat="42.9770074" lon="13.5438794"><ele>460.0</ele><time>2026-04-12T08:55:57.132Z</time></trkpt><trkpt lat="42.9769213" lon="13.5438805"><ele>460.0</ele><time>2026-04-12T08:55:58.143Z</time></trkpt><trkpt lat="42.9767433" lon="13.5439164"><ele>460.0</ele><time>2026-04-12T08:56:00.148Z</time></trkpt><trkpt lat="42.9766562" lon="13.5439436"><ele>460.0</ele><time>2026-04-12T08:56:01.133Z</time></trkpt><trkpt lat="42.9765737" lon="13.5439692"><ele>460.0</ele><time>2026-04-12T08:56:02.129Z</time></trkpt><trkpt lat="42.9765004" lon="13.5439857"><ele>461.1666666666667</ele><time>2026-04-12T08:56:03.134Z</time></trkpt><trkpt lat="42.9764369" lon="13.5439939"><ele>462.33333333333337</ele><time>2026-04-12T08:56:04.121Z</time></trkpt><trkpt lat="42.9763372" lon="13.5439941"><ele>463.5</ele><time>2026-04-12T08:56:06.135Z</time></trkpt><trkpt lat="42.9762375" lon="13.5439869"><ele>464.66666666666663</ele><time>2026-04-12T08:56:08.135Z</time></trkpt><trkpt lat="42.9761709" lon="13.5439843"><ele>465.8333333333333</ele><time>2026-04-12T08:56:09.132Z</time></trkpt><trkpt lat="42.9761021" lon="13.5439826"><ele>467.0</ele><time>2026-04-12T08:56:10.119Z</time></trkpt><trkpt lat="42.9760317" lon="13.5439856"><ele>466.99999999999994</ele><time>2026-04-12T08:56:11.134Z</time></trkpt><trkpt lat="42.9759569" lon="13.5439926"><ele>467.0</ele><time>2026-04-12T08:56:12.13Z</time></trkpt><trkpt lat="42.9758781" lon="13.5440053"><ele>467.0</ele><time>2026-04-12T08:56:13.119Z</time></trkpt><trkpt lat="42.9757993" lon="13.5440204"><ele>467.0</ele><time>2026-04-12T08:56:14.136Z</time></trkpt><trkpt lat="42.9757241" lon="13.5440262"><ele>466.99999999999994</ele><time>2026-04-12T08:56:15.126Z</time></trkpt><trkpt lat="42.9756517" lon="13.5440171"><ele>467.0</ele><time>2026-04-12T08:56:16.132Z</time></trkpt><trkpt lat="42.9755835" lon="13.5439887"><ele>466.25</ele><time>2026-04-12T08:56:17.127Z</time></trkpt><trkpt lat="42.9755167" lon="13.543944"><ele>465.5</ele><time>2026-04-12T08:56:18.132Z</time></trkpt><trkpt lat="42.9754475" lon="13.5438832"><ele>464.75</ele><time>2026-04-12T08:56:19.147Z</time></trkpt><trkpt lat="42.975282" lon="13.5437584"><ele>464.0</ele><time>2026-04-12T08:56:21.132Z</time></trkpt><trkpt lat="42.9751764" lon="13.5437108"><ele>467.5</ele><time>2026-04-12T08:56:22.129Z</time></trkpt><trkpt lat="42.9750573" lon="13.5436697"><ele>471.0</ele><time>2026-04-12T08:56:23.129Z</time></trkpt><trkpt lat="42.9749335" lon="13.543623"><ele>474.5</ele><time>2026-04-12T08:56:24.137Z</time></trkpt><trkpt lat="42.9748098" lon="13.5435682"><ele>478.0</ele><time>2026-04-12T08:56:25.129Z</time></trkpt><trkpt lat="42.9746922" lon="13.5435115"><ele>478.0</ele><time>2026-04-12T08:56:26.129Z</time></trkpt><trkpt lat="42.9745823" lon="13.543459"><ele>477.99999999999994</ele><time>2026-04-12T08:56:27.136Z</time></trkpt><trkpt lat="42.9744815" lon="13.5434106"><ele>477.99999999999994</ele><time>2026-04-12T08:56:28.134Z</time></trkpt><trkpt lat="42.9743897" lon="13.543364"><ele>478.0</ele><time>2026-04-12T08:56:29.123Z</time></trkpt><trkpt lat="42.9743053" lon="13.5433216"><ele>478.0</ele><time>2026-04-12T08:56:30.132Z</time></trkpt><trkpt lat="42.9742245" lon="13.5432801"><ele>477.2</ele><time>2026-04-12T08:56:31.128Z</time></trkpt><trkpt lat="42.9741463" lon="13.5432362"><ele>476.4</ele><time>2026-04-12T08:56:32.131Z</time></trkpt><trkpt lat="42.9740639" lon="13.5431877"><ele>475.59999999999997</ele><time>2026-04-12T08:56:33.14Z</time></trkpt><trkpt lat="42.9739756" lon="13.5431322"><ele>474.79999999999995</ele><time>2026-04-12T08:56:34.131Z</time></trkpt><trkpt lat="42.9738876" lon="13.5430741"><ele>474.0</ele><time>2026-04-12T08:56:35.129Z</time></trkpt><trkpt lat="42.9738071" lon="13.5430125"><ele>474.0</ele><time>2026-04-12T08:56:36.146Z</time></trkpt><trkpt lat="42.9737347" lon="13.5429485"><ele>474.0</ele><time>2026-04-12T08:56:37.161Z</time></trkpt><trkpt lat="42.9736643" lon="13.5428914"><ele>474.0</ele><time>2026-04-12T08:56:38.133Z</time></trkpt><trkpt lat="42.9735882" lon="13.5428485"><ele>474.0</ele><time>2026-04-12T08:56:39.135Z</time></trkpt><trkpt lat="42.9735058" lon="13.5428261"><ele>474.0</ele><time>2026-04-12T08:56:40.13Z</time></trkpt><trkpt lat="42.9733279" lon="13.5428421"><ele>475.6</ele><time>2026-04-12T08:56:42.126Z</time></trkpt><trkpt lat="42.9732375" lon="13.5428714"><ele>477.2</ele><time>2026-04-12T08:56:43.137Z</time></trkpt><trkpt lat="42.9731445" lon="13.5428989"><ele>478.80000000000007</ele><time>2026-04-12T08:56:44.126Z</time></trkpt><trkpt lat="42.9730481" lon="13.5429211"><ele>480.40000000000003</ele><time>2026-04-12T08:56:45.16Z</time></trkpt><trkpt lat="42.9729608" lon="13.5429419"><ele>482.0</ele><time>2026-04-12T08:56:46.161Z</time></trkpt><trkpt lat="42.9728827" lon="13.5429686"><ele>480.20000000000005</ele><time>2026-04-12T08:56:47.153Z</time></trkpt><trkpt lat="42.9728071" lon="13.5430025"><ele>478.40000000000003</ele><time>2026-04-12T08:56:48.14Z</time></trkpt><trkpt lat="42.9727218" lon="13.543037"><ele>476.59999999999997</ele><time>2026-04-12T08:56:49.138Z</time></trkpt><trkpt lat="42.972629" lon="13.5430608"><ele>474.79999999999995</ele><time>2026-04-12T08:56:50.128Z</time></trkpt><trkpt lat="42.9725259" lon="13.5430711"><ele>473.0</ele><time>2026-04-12T08:56:51.13Z</time></trkpt><trkpt lat="42.9724079" lon="13.543075"><ele>473.0</ele><time>2026-04-12T08:56:52.135Z</time></trkpt><trkpt lat="42.9722818" lon="13.5430857"><ele>473.0</ele><time>2026-04-12T08:56:53.124Z</time></trkpt><trkpt lat="42.972151" lon="13.5431111"><ele>473.0</ele><time>2026-04-12T08:56:54.137Z</time></trkpt><trkpt lat="42.9720306" lon="13.5431481"><ele>473.0</ele><time>2026-04-12T08:56:55.129Z</time></trkpt><trkpt lat="42.9719151" lon="13.5431907"><ele>472.99999999999994</ele><time>2026-04-12T08:56:56.143Z</time></trkpt><trkpt lat="42.9718125" lon="13.5432325"><ele>473.0</ele><time>2026-04-12T08:56:57.127Z</time></trkpt><trkpt lat="42.9717246" lon="13.5432682"><ele>473.0</ele><time>2026-04-12T08:56:58.137Z</time></trkpt><trkpt lat="42.9716505" lon="13.5432871"><ele>473.0</ele><time>2026-04-12T08:56:59.129Z</time></trkpt><trkpt lat="42.9715822" lon="13.5432797"><ele>472.99999999999994</ele><time>2026-04-12T08:57:00.124Z</time></trkpt><trkpt lat="42.9715058" lon="13.543247"><ele>473.0</ele><time>2026-04-12T08:57:01.156Z</time></trkpt><trkpt lat="42.9713289" lon="13.5431201"><ele>472.75</ele><time>2026-04-12T08:57:03.152Z</time></trkpt><trkpt lat="42.9712337" lon="13.5430327"><ele>472.5</ele><time>2026-04-12T08:57:04.16Z</time></trkpt><trkpt lat="42.9711331" lon="13.5429425"><ele>472.25</ele><time>2026-04-12T08:57:05.124Z</time></trkpt><trkpt lat="42.9710277" lon="13.5428614"><ele>472.0</ele><time>2026-04-12T08:57:06.138Z</time></trkpt><trkpt lat="42.9709266" lon="13.5428089"><ele>472.0</ele><time>2026-04-12T08:57:07.123Z</time></trkpt><trkpt lat="42.9708283" lon="13.5427906"><ele>472.00000000000006</ele><time>2026-04-12T08:57:08.13Z</time></trkpt><trkpt lat="42.9707379" lon="13.5428068"><ele>472.00000000000006</ele><time>2026-04-12T08:57:09.13Z</time></trkpt><trkpt lat="42.9706484" lon="13.542852"><ele>472.0</ele><time>2026-04-12T08:57:10.131Z</time></trkpt><trkpt lat="42.9705574" lon="13.5429207"><ele>472.0</ele><time>2026-04-12T08:57:11.13Z</time></trkpt><trkpt lat="42.9704647" lon="13.542993"><ele>472.0</ele><time>2026-04-12T08:57:12.137Z</time></trkpt><trkpt lat="42.9702832" lon="13.5430742"><ele>472.0</ele><time>2026-04-12T08:57:14.119Z</time></trkpt><trkpt lat="42.9701863" lon="13.543077"><ele>472.0</ele><time>2026-04-12T08:57:15.125Z</time></trkpt><trkpt lat="42.9700716" lon="13.5430638"><ele>472.0</ele><time>2026-04-12T08:57:16.121Z</time></trkpt><trkpt lat="42.9699364" lon="13.5430405"><ele>474.5</ele><time>2026-04-12T08:57:17.14Z</time></trkpt><trkpt lat="42.9697998" lon="13.5430263"><ele>477.0</ele><time>2026-04-12T08:57:18.132Z</time></trkpt><trkpt lat="42.9696712" lon="13.5430312"><ele>479.5</ele><time>2026-04-12T08:57:19.128Z</time></trkpt><trkpt lat="42.9695563" lon="13.5430549"><ele>482.0</ele><time>2026-04-12T08:57:20.117Z</time></trkpt><trkpt lat="42.9694615" lon="13.543089"><ele>482.0</ele><time>2026-04-12T08:57:21.14Z</time></trkpt><trkpt lat="42.9693873" lon="13.5431253"><ele>482.00000000000006</ele><time>2026-04-12T08:57:22.128Z</time></trkpt><trkpt lat="42.9692364" lon="13.5431698"><ele>482.00000000000006</ele><time>2026-04-12T08:57:24.124Z</time></trkpt><trkpt lat="42.9691414" lon="13.5431765"><ele>482.0</ele><time>2026-04-12T08:57:25.128Z</time></trkpt><trkpt lat="42.9690399" lon="13.5431846"><ele>482.0</ele><time>2026-04-12T08:57:26.149Z</time></trkpt><trkpt lat="42.9689407" lon="13.5432013"><ele>484.20000000000005</ele><time>2026-04-12T08:57:27.13Z</time></trkpt><trkpt lat="42.9688448" lon="13.5432391"><ele>486.40000000000003</ele><time>2026-04-12T08:57:28.16Z</time></trkpt><trkpt lat="42.9687639" lon="13.5433073"><ele>488.59999999999997</ele><time>2026-04-12T08:57:29.133Z</time></trkpt><trkpt lat="42.9686971" lon="13.5434081"><ele>490.79999999999995</ele><time>2026-04-12T08:57:30.129Z</time></trkpt><trkpt lat="42.9686383" lon="13.5435313"><ele>493.0</ele><time>2026-04-12T08:57:31.126Z</time></trkpt><trkpt lat="42.9685786" lon="13.5436716"><ele>494.79999999999995</ele><time>2026-04-12T08:57:32.135Z</time></trkpt><trkpt lat="42.968515" lon="13.5438011"><ele>496.59999999999997</ele><time>2026-04-12T08:57:33.129Z</time></trkpt><trkpt lat="42.9684433" lon="13.5439064"><ele>498.40000000000003</ele><time>2026-04-12T08:57:34.127Z</time></trkpt><trkpt lat="42.9683574" lon="13.5439908"><ele>500.20000000000005</ele><time>2026-04-12T08:57:35.129Z</time></trkpt><trkpt lat="42.9682551" lon="13.5440694"><ele>502.0</ele><time>2026-04-12T08:57:36.132Z</time></trkpt><trkpt lat="42.9681416" lon="13.5441462"><ele>502.0</ele><time>2026-04-12T08:57:37.132Z</time></trkpt><trkpt lat="42.9680277" lon="13.544222"><ele>502.0</ele><time>2026-04-12T08:57:38.135Z</time></trkpt><trkpt lat="42.9679286" lon="13.5443015"><ele>502.0</ele><time>2026-04-12T08:57:39.121Z</time></trkpt><trkpt lat="42.9678522" lon="13.5444003"><ele>502.0</ele><time>2026-04-12T08:57:40.132Z</time></trkpt><trkpt lat="42.9678007" lon="13.5445253"><ele>501.0</ele><time>2026-04-12T08:57:41.132Z</time></trkpt><trkpt lat="42.9677665" lon="13.5446729"><ele>500.0</ele><time>2026-04-12T08:57:42.121Z</time></trkpt><trkpt lat="42.9677447" lon="13.5448436"><ele>499.0</ele><time>2026-04-12T08:57:43.132Z</time></trkpt><trkpt lat="42.967711" lon="13.5451965"><ele>499.0</ele><time>2026-04-12T08:57:45.131Z</time></trkpt><trkpt lat="42.9676905" lon="13.5453518"><ele>499.0</ele><time>2026-04-12T08:57:46.121Z</time></trkpt><trkpt lat="42.9676652" lon="13.5454961"><ele>499.0</ele><time>2026-04-12T08:57:47.129Z</time></trkpt><trkpt lat="42.9676281" lon="13.5456165"><ele>499.0</ele><time>2026-04-12T08:57:48.126Z</time></trkpt><trkpt lat="42.9675719" lon="13.5457177"><ele>499.0</ele><time>2026-04-12T08:57:49.138Z</time></trkpt><trkpt lat="42.9675031" lon="13.5457978"><ele>502.50000000000006</ele><time>2026-04-12T08:57:50.126Z</time></trkpt><trkpt lat="42.9674351" lon="13.5458567"><ele>506.0</ele><time>2026-04-12T08:57:51.133Z</time></trkpt><trkpt lat="42.9673787" lon="13.5458964"><ele>509.5</ele><time>2026-04-12T08:57:52.127Z</time></trkpt><trkpt lat="42.9673129" lon="13.5459061"><ele>513.0</ele><time>2026-04-12T08:57:54.132Z</time></trkpt><trkpt lat="42.9673534" lon="13.5457651"><ele>516.5</ele><time>2026-04-12T08:57:57.132Z</time></trkpt><trkpt lat="42.9673924" lon="13.5456949"><ele>520.0</ele><time>2026-04-12T08:57:58.14Z</time></trkpt><trkpt lat="42.9674271" lon="13.5456191"><ele>520.0</ele><time>2026-04-12T08:57:59.149Z</time></trkpt><trkpt lat="42.9674495" lon="13.545532"><ele>520.0</ele><time>2026-04-12T08:58:00.119Z</time></trkpt><trkpt lat="42.9674541" lon="13.5454343"><ele>520.0</ele><time>2026-04-12T08:58:01.123Z</time></trkpt><trkpt lat="42.9674379" lon="13.5453277"><ele>520.0</ele><time>2026-04-12T08:58:02.132Z</time></trkpt><trkpt lat="42.9674096" lon="13.545202"><ele>520.0</ele><time>2026-04-12T08:58:03.133Z</time></trkpt><trkpt lat="42.9673771" lon="13.5450509"><ele>520.0</ele><time>2026-04-12T08:58:04.124Z</time></trkpt><trkpt lat="42.9673357" lon="13.5447341"><ele>520.2</ele><time>2026-04-12T08:58:06.13Z</time></trkpt><trkpt lat="42.9673398" lon="13.5445945"><ele>520.4</ele><time>2026-04-12T08:58:07.127Z</time></trkpt><trkpt lat="42.9673634" lon="13.5444634"><ele>520.6</ele><time>2026-04-12T08:58:08.126Z</time></trkpt><trkpt lat="42.9674055" lon="13.5443331"><ele>520.8</ele><time>2026-04-12T08:58:09.129Z</time></trkpt><trkpt lat="42.9674526" lon="13.5441912"><ele>521.0</ele><time>2026-04-12T08:58:10.128Z</time></trkpt><trkpt lat="42.9675" lon="13.544031"><ele>519.6</ele><time>2026-04-12T08:58:11.133Z</time></trkpt><trkpt lat="42.9675399" lon="13.5438708"><ele>518.2</ele><time>2026-04-12T08:58:12.129Z</time></trkpt><trkpt lat="42.9675731" lon="13.5437233"><ele>516.8</ele><time>2026-04-12T08:58:13.128Z</time></trkpt><trkpt lat="42.9676026" lon="13.5435931"><ele>515.4</ele><time>2026-04-12T08:58:14.129Z</time></trkpt><trkpt lat="42.9676346" lon="13.5434667"><ele>514.0</ele><time>2026-04-12T08:58:15.16Z</time></trkpt><trkpt lat="42.9676742" lon="13.5433498"><ele>514.0</ele><time>2026-04-12T08:58:16.172Z</time></trkpt><trkpt lat="42.9677219" lon="13.5432491"><ele>514.0</ele><time>2026-04-12T08:58:17.152Z</time></trkpt><trkpt lat="42.9677753" lon="13.5431551"><ele>514.0</ele><time>2026-04-12T08:58:18.125Z</time></trkpt><trkpt lat="42.9678318" lon="13.5430471"><ele>514.0</ele><time>2026-04-12T08:58:19.141Z</time></trkpt><trkpt lat="42.9678899" lon="13.5429329"><ele>514.0</ele><time>2026-04-12T08:58:20.136Z</time></trkpt><trkpt lat="42.9679532" lon="13.5428136"><ele>517.4</ele><time>2026-04-12T08:58:21.143Z</time></trkpt><trkpt lat="42.968018" lon="13.5426953"><ele>520.8</ele><time>2026-04-12T08:58:22.13Z</time></trkpt><trkpt lat="42.9680791" lon="13.5425846"><ele>524.2</ele><time>2026-04-12T08:58:23.132Z</time></trkpt><trkpt lat="42.9681385" lon="13.5424852"><ele>527.6</ele><time>2026-04-12T08:58:24.141Z</time></trkpt><trkpt lat="42.9681976" lon="13.5423981"><ele>531.0</ele><time>2026-04-12T08:58:25.133Z</time></trkpt><trkpt lat="42.9683287" lon="13.5422292"><ele>531.4</ele><time>2026-04-12T08:58:27.141Z</time></trkpt><trkpt lat="42.9683946" lon="13.5421343"><ele>531.8</ele><time>2026-04-12T08:58:28.133Z</time></trkpt><trkpt lat="42.9684545" lon="13.5420291"><ele>532.1999999999999</ele><time>2026-04-12T08:58:29.129Z</time></trkpt><trkpt lat="42.9685088" lon="13.5419126"><ele>532.6</ele><time>2026-04-12T08:58:30.126Z</time></trkpt><trkpt lat="42.9685604" lon="13.5417917"><ele>533.0</ele><time>2026-04-12T08:58:31.129Z</time></trkpt><trkpt lat="42.9686148" lon="13.541681"><ele>533.0</ele><time>2026-04-12T08:58:32.121Z</time></trkpt><trkpt lat="42.9686791" lon="13.541573"><ele>533.0</ele><time>2026-04-12T08:58:33.132Z</time></trkpt><trkpt lat="42.9687544" lon="13.541467"><ele>533.0</ele><time>2026-04-12T08:58:34.13Z</time></trkpt><trkpt lat="42.9688393" lon="13.5413527"><ele>533.0</ele><time>2026-04-12T08:58:35.145Z</time></trkpt><trkpt lat="42.9689249" lon="13.5412342"><ele>533.6</ele><time>2026-04-12T08:58:36.13Z</time></trkpt><trkpt lat="42.9690029" lon="13.5411189"><ele>534.1999999999999</ele><time>2026-04-12T08:58:37.161Z</time></trkpt><trkpt lat="42.969072" lon="13.5410196"><ele>534.8</ele><time>2026-04-12T08:58:38.16Z</time></trkpt><trkpt lat="42.9691372" lon="13.5409376"><ele>535.4</ele><time>2026-04-12T08:58:39.163Z</time></trkpt><trkpt lat="42.9692044" lon="13.5408738"><ele>536.0</ele><time>2026-04-12T08:58:40.13Z</time></trkpt><trkpt lat="42.9692818" lon="13.5408277"><ele>536.0</ele><time>2026-04-12T08:58:41.134Z</time></trkpt><trkpt lat="42.969375" lon="13.5407965"><ele>536.0</ele><time>2026-04-12T08:58:42.131Z</time></trkpt><trkpt lat="42.9694853" lon="13.5407759"><ele>536.0</ele><time>2026-04-12T08:58:43.139Z</time></trkpt><trkpt lat="42.9695931" lon="13.5407652"><ele>536.0</ele><time>2026-04-12T08:58:44.126Z</time></trkpt><trkpt lat="42.9696894" lon="13.5407503"><ele>536.0</ele><time>2026-04-12T08:58:45.135Z</time></trkpt><trkpt lat="42.969769" lon="13.5407257"><ele>536.0</ele><time>2026-04-12T08:58:46.135Z</time></trkpt><trkpt lat="42.9699117" lon="13.5406142"><ele>536.0</ele><time>2026-04-12T08:58:48.139Z</time></trkpt><trkpt lat="42.9699955" lon="13.5405217"><ele>536.0</ele><time>2026-04-12T08:58:49.133Z</time></trkpt><trkpt lat="42.970087" lon="13.5404203"><ele>536.0</ele><time>2026-04-12T08:58:50.132Z</time></trkpt><trkpt lat="42.970182" lon="13.5403322"><ele>538.2</ele><time>2026-04-12T08:58:51.13Z</time></trkpt><trkpt lat="42.97028" lon="13.5402733"><ele>540.4000000000001</ele><time>2026-04-12T08:58:52.13Z</time></trkpt><trkpt lat="42.9703801" lon="13.5402369"><ele>542.6</ele><time>2026-04-12T08:58:53.128Z</time></trkpt><trkpt lat="42.970481" lon="13.5402126"><ele>544.8000000000001</ele><time>2026-04-12T08:58:54.118Z</time></trkpt><trkpt lat="42.9705664" lon="13.5401943"><ele>547.0</ele><time>2026-04-12T08:58:55.13Z</time></trkpt><trkpt lat="42.970663" lon="13.5401702"><ele>547.0</ele><time>2026-04-12T08:58:57.166Z</time></trkpt><trkpt lat="42.9707439" lon="13.5401469"><ele>547.0</ele><time>2026-04-12T08:58:59.12Z</time></trkpt><trkpt lat="42.9708595" lon="13.5400985"><ele>547.0</ele><time>2026-04-12T08:59:01.158Z</time></trkpt><trkpt lat="42.970922" lon="13.5400625"><ele>547.0</ele><time>2026-04-12T08:59:02.132Z</time></trkpt><trkpt lat="42.9710167" lon="13.5399902"><ele>547.0</ele><time>2026-04-12T08:59:04.141Z</time></trkpt><trkpt lat="42.9710854" lon="13.539956"><ele>546.25</ele><time>2026-04-12T08:59:07.121Z</time></trkpt><trkpt lat="42.971318" lon="13.5397379"><ele>545.5</ele><time>2026-04-12T09:00:49.13Z</time></trkpt><trkpt lat="42.9713759" lon="13.5396945"><ele>544.75</ele><time>2026-04-12T09:00:50.123Z</time></trkpt><trkpt lat="42.9714366" lon="13.5396489"><ele>544.0</ele><time>2026-04-12T09:00:51.164Z</time></trkpt><trkpt lat="42.971496" lon="13.5396028"><ele>543.9999999999999</ele><time>2026-04-12T09:00:52.139Z</time></trkpt><trkpt lat="42.9715523" lon="13.5395556"><ele>544.0</ele><time>2026-04-12T09:00:53.131Z</time></trkpt><trkpt lat="42.9716067" lon="13.5395083"><ele>544.0</ele><time>2026-04-12T09:00:54.14Z</time></trkpt><trkpt lat="42.9716618" lon="13.5394639"><ele>544.0</ele><time>2026-04-12T09:00:55.13Z</time></trkpt><trkpt lat="42.9717191" lon="13.539422"><ele>544.0</ele><time>2026-04-12T09:00:56.138Z</time></trkpt><trkpt lat="42.9717781" lon="13.5393817"><ele>543.9999999999999</ele><time>2026-04-12T09:00:57.151Z</time></trkpt><trkpt lat="42.971837" lon="13.5393393"><ele>544.0</ele><time>2026-04-12T09:00:58.161Z</time></trkpt><trkpt lat="42.9718965" lon="13.5393012"><ele>542.1428571428571</ele><time>2026-04-12T09:00:59.165Z</time></trkpt><trkpt lat="42.9719555" lon="13.539265"><ele>540.2857142857142</ele><time>2026-04-12T09:01:00.121Z</time></trkpt><trkpt lat="42.972024" lon="13.5392267"><ele>538.4285714285714</ele><time>2026-04-12T09:01:01.132Z</time></trkpt><trkpt lat="42.9720888" lon="13.5391847"><ele>536.5714285714286</ele><time>2026-04-12T09:01:02.128Z</time></trkpt><trkpt lat="42.9721515" lon="13.5391393"><ele>534.7142857142858</ele><time>2026-04-12T09:01:03.143Z</time></trkpt><trkpt lat="42.9722128" lon="13.5390967"><ele>532.8571428571429</ele><time>2026-04-12T09:01:04.119Z</time></trkpt><trkpt lat="42.9722747" lon="13.5390587"><ele>531.0</ele><time>2026-04-12T09:01:05.128Z</time></trkpt><trkpt lat="42.97234" lon="13.5390198"><ele>531.0</ele><time>2026-04-12T09:01:06.132Z</time></trkpt><trkpt lat="42.9724678" lon="13.5389283"><ele>531.0</ele><time>2026-04-12T09:01:08.133Z</time></trkpt><trkpt lat="42.9725501" lon="13.5388681"><ele>531.0</ele><time>2026-04-12T09:01:10.128Z</time></trkpt><trkpt lat="42.9726174" lon="13.5388505"><ele>531.0</ele><time>2026-04-12T09:01:13.135Z</time></trkpt><trkpt lat="42.9726909" lon="13.5388229"><ele>531.0</ele><time>2026-04-12T09:01:15.129Z</time></trkpt><trkpt lat="42.9727622" lon="13.5387933"><ele>530.6666666666666</ele><time>2026-04-12T09:01:17.143Z</time></trkpt><trkpt lat="42.9728502" lon="13.5387496"><ele>530.3333333333334</ele><time>2026-04-12T09:01:19.12Z</time></trkpt><trkpt lat="42.9729141" lon="13.5387095"><ele>530.0</ele><time>2026-04-12T09:01:20.131Z</time></trkpt><trkpt lat="42.9729843" lon="13.5386589"><ele>529.6666666666667</ele><time>2026-04-12T09:01:21.162Z</time></trkpt><trkpt lat="42.9730564" lon="13.5386156"><ele>529.3333333333334</ele><time>2026-04-12T09:01:22.16Z</time></trkpt><trkpt lat="42.9731301" lon="13.5385789"><ele>529.0</ele><time>2026-04-12T09:01:23.167Z</time></trkpt><trkpt lat="42.9732026" lon="13.5385548"><ele>529.0</ele><time>2026-04-12T09:01:24.127Z</time></trkpt><trkpt lat="42.97328" lon="13.5385394"><ele>529.0</ele><time>2026-04-12T09:01:25.136Z</time></trkpt><trkpt lat="42.9733654" lon="13.5385331"><ele>529.0</ele><time>2026-04-12T09:01:26.128Z</time></trkpt><trkpt lat="42.973458" lon="13.5385325"><ele>529.0</ele><time>2026-04-12T09:01:27.134Z</time></trkpt><trkpt lat="42.9736306" lon="13.5385245"><ele>529.0</ele><time>2026-04-12T09:01:29.124Z</time></trkpt><trkpt lat="42.9737182" lon="13.538504"><ele>526.0</ele><time>2026-04-12T09:01:30.123Z</time></trkpt><trkpt lat="42.9738088" lon="13.5384699"><ele>523.0</ele><time>2026-04-12T09:01:31.123Z</time></trkpt><trkpt lat="42.9738921" lon="13.5384294"><ele>520.0</ele><time>2026-04-12T09:01:32.134Z</time></trkpt><trkpt lat="42.9739607" lon="13.5383844"><ele>517.0</ele><time>2026-04-12T09:01:33.14Z</time></trkpt><trkpt lat="42.9740188" lon="13.5383265"><ele>514.0</ele><time>2026-04-12T09:01:34.134Z</time></trkpt><trkpt lat="42.9740768" lon="13.5382463"><ele>511.0</ele><time>2026-04-12T09:01:35.134Z</time></trkpt><trkpt lat="42.9741281" lon="13.5381547"><ele>511.0</ele><time>2026-04-12T09:01:36.133Z</time></trkpt><trkpt lat="42.9741673" lon="13.5380651"><ele>511.0</ele><time>2026-04-12T09:01:37.134Z</time></trkpt><trkpt lat="42.9741897" lon="13.5379753"><ele>511.0</ele><time>2026-04-12T09:01:38.136Z</time></trkpt><trkpt lat="42.974199" lon="13.5378838"><ele>511.0</ele><time>2026-04-12T09:01:39.133Z</time></trkpt><trkpt lat="42.9742025" lon="13.5377911"><ele>511.0</ele><time>2026-04-12T09:01:40.121Z</time></trkpt><trkpt lat="42.9742102" lon="13.5377014"><ele>511.0</ele><time>2026-04-12T09:01:41.128Z</time></trkpt><trkpt lat="42.9742415" lon="13.5375878"><ele>511.0</ele><time>2026-04-12T09:01:43.13Z</time></trkpt><trkpt lat="42.9743163" lon="13.5375312"><ele>506.8</ele><time>2026-04-12T09:01:47.122Z</time></trkpt><trkpt lat="42.9743791" lon="13.5374732"><ele>502.6</ele><time>2026-04-12T09:01:49.13Z</time></trkpt><trkpt lat="42.9745309" lon="13.5373175"><ele>498.4</ele><time>2026-04-12T09:01:52.134Z</time></trkpt><trkpt lat="42.9746004" lon="13.5372517"><ele>494.2</ele><time>2026-04-12T09:01:53.136Z</time></trkpt><trkpt lat="42.9746716" lon="13.5371855"><ele>490.0</ele><time>2026-04-12T09:01:54.141Z</time></trkpt><trkpt lat="42.97474" lon="13.5371264"><ele>490.00000000000006</ele><time>2026-04-12T09:01:55.136Z</time></trkpt><trkpt lat="42.9747966" lon="13.5370753"><ele>490.0</ele><time>2026-04-12T09:01:56.128Z</time></trkpt><trkpt lat="42.974864" lon="13.5370061"><ele>490.0</ele><time>2026-04-12T09:01:58.134Z</time></trkpt><trkpt lat="42.9749092" lon="13.536936"><ele>490.0</ele><time>2026-04-12T09:02:00.123Z</time></trkpt><trkpt lat="42.9749579" lon="13.5368139"><ele>490.00000000000006</ele><time>2026-04-12T09:02:02.132Z</time></trkpt><trkpt lat="42.9749962" lon="13.536655"><ele>490.0</ele><time>2026-04-12T09:02:04.117Z</time></trkpt><trkpt lat="42.9750287" lon="13.5364985"><ele>486.5</ele><time>2026-04-12T09:02:06.127Z</time></trkpt><trkpt lat="42.9750627" lon="13.536355"><ele>483.0</ele><time>2026-04-12T09:02:08.131Z</time></trkpt><trkpt lat="42.9750765" lon="13.53623"><ele>479.5</ele><time>2026-04-12T09:02:10.13Z</time></trkpt><trkpt lat="42.9750939" lon="13.5359519"><ele>476.0</ele><time>2026-04-12T09:02:14.125Z</time></trkpt><trkpt lat="42.9751925" lon="13.535831"><ele>476.0</ele><time>2026-04-12T09:02:16.123Z</time></trkpt><trkpt lat="42.975262" lon="13.5357742"><ele>476.0</ele><time>2026-04-12T09:02:17.123Z</time></trkpt><trkpt lat="42.9753328" lon="13.5357131"><ele>476.0</ele><time>2026-04-12T09:02:18.131Z</time></trkpt><trkpt lat="42.9754181" lon="13.5356425"><ele>476.0</ele><time>2026-04-12T09:02:19.133Z</time></trkpt><trkpt lat="42.9755118" lon="13.5355584"><ele>476.0</ele><time>2026-04-12T09:02:20.126Z</time></trkpt><trkpt lat="42.975604" lon="13.5354678"><ele>476.0</ele><time>2026-04-12T09:02:21.137Z</time></trkpt><trkpt lat="42.9756923" lon="13.5353729"><ele>476.0</ele><time>2026-04-12T09:02:22.129Z</time></trkpt><trkpt lat="42.9757759" lon="13.535271"><ele>476.0</ele><time>2026-04-12T09:02:23.159Z</time></trkpt><trkpt lat="42.9758604" lon="13.5351725"><ele>476.0</ele><time>2026-04-12T09:02:24.168Z</time></trkpt><trkpt lat="42.9759461" lon="13.5350822"><ele>476.0</ele><time>2026-04-12T09:02:25.133Z</time></trkpt><trkpt lat="42.9760325" lon="13.5349995"><ele>473.8</ele><time>2026-04-12T09:02:26.133Z</time></trkpt><trkpt lat="42.9761129" lon="13.5349283"><ele>471.6</ele><time>2026-04-12T09:02:27.131Z</time></trkpt><trkpt lat="42.9761824" lon="13.5348695"><ele>469.4</ele><time>2026-04-12T09:02:28.127Z</time></trkpt><trkpt lat="42.9762418" lon="13.5348174"><ele>467.2</ele><time>2026-04-12T09:02:29.139Z</time></trkpt><trkpt lat="42.9763359" lon="13.5347092"><ele>465.0</ele><time>2026-04-12T09:02:31.145Z</time></trkpt><trkpt lat="42.976438" lon="13.5345546"><ele>464.5</ele><time>2026-04-12T09:02:33.127Z</time></trkpt><trkpt lat="42.9764835" lon="13.534458"><ele>464.0</ele><time>2026-04-12T09:02:34.13Z</time></trkpt><trkpt lat="42.9765158" lon="13.5343507"><ele>463.5</ele><time>2026-04-12T09:02:35.143Z</time></trkpt><trkpt lat="42.9765341" lon="13.5342395"><ele>463.0</ele><time>2026-04-12T09:02:36.13Z</time></trkpt><trkpt lat="42.9765414" lon="13.5341235"><ele>462.5</ele><time>2026-04-12T09:02:37.118Z</time></trkpt><trkpt lat="42.9765405" lon="13.5340017"><ele>462.0</ele><time>2026-04-12T09:02:38.138Z</time></trkpt><trkpt lat="42.9765361" lon="13.5338842"><ele>462.0</ele><time>2026-04-12T09:02:39.124Z</time></trkpt><trkpt lat="42.976528" lon="13.5337672"><ele>462.0</ele><time>2026-04-12T09:02:40.159Z</time></trkpt><trkpt lat="42.9765179" lon="13.5336541"><ele>462.0</ele><time>2026-04-12T09:02:41.128Z</time></trkpt><trkpt lat="42.9765119" lon="13.5335461"><ele>462.0</ele><time>2026-04-12T09:02:42.142Z</time></trkpt><trkpt lat="42.9765128" lon="13.5334551"><ele>462.0</ele><time>2026-04-12T09:02:43.137Z</time></trkpt><trkpt lat="42.9765428" lon="13.5333356"><ele>462.0</ele><time>2026-04-12T09:02:45.141Z</time></trkpt><trkpt lat="42.9765368" lon="13.5332085"><ele>460.6</ele><time>2026-04-12T09:02:48.137Z</time></trkpt><trkpt lat="42.9764857" lon="13.5330723"><ele>459.20000000000005</ele><time>2026-04-12T09:02:50.138Z</time></trkpt><trkpt lat="42.9764605" lon="13.5329788"><ele>457.8</ele><time>2026-04-12T09:02:51.132Z</time></trkpt><trkpt lat="42.976431" lon="13.5328738"><ele>456.4</ele><time>2026-04-12T09:02:52.135Z</time></trkpt><trkpt lat="42.9763599" lon="13.5326824"><ele>455.0</ele><time>2026-04-12T09:02:54.131Z</time></trkpt><trkpt lat="42.9763152" lon="13.5325329"><ele>453.6</ele><time>2026-04-12T09:02:56.134Z</time></trkpt><trkpt lat="42.9762839" lon="13.5323701"><ele>452.2</ele><time>2026-04-12T09:02:58.144Z</time></trkpt><trkpt lat="42.9762744" lon="13.5322648"><ele>450.79999999999995</ele><time>2026-04-12T09:02:59.124Z</time></trkpt><trkpt lat="42.9762649" lon="13.5321427"><ele>449.4</ele><time>2026-04-12T09:03:00.148Z</time></trkpt><trkpt lat="42.9762508" lon="13.5320239"><ele>448.0</ele><time>2026-04-12T09:03:01.152Z</time></trkpt><trkpt lat="42.9762342" lon="13.5319091"><ele>446.50000000000006</ele><time>2026-04-12T09:03:02.127Z</time></trkpt><trkpt lat="42.9762151" lon="13.5317899"><ele>445.0</ele><time>2026-04-12T09:03:03.127Z</time></trkpt><trkpt lat="42.9761942" lon="13.531674"><ele>443.5</ele><time>2026-04-12T09:03:04.144Z</time></trkpt><trkpt lat="42.9761719" lon="13.5315724"><ele>442.0</ele><time>2026-04-12T09:03:05.159Z</time></trkpt><trkpt lat="42.9761497" lon="13.5314906"><ele>440.50000000000006</ele><time>2026-04-12T09:03:06.135Z</time></trkpt><trkpt lat="42.9761276" lon="13.5313854"><ele>439.0</ele><time>2026-04-12T09:03:08.148Z</time></trkpt><trkpt lat="42.976172" lon="13.5312913"><ele>436.0</ele><time>2026-04-12T09:03:12.127Z</time></trkpt><trkpt lat="42.9761828" lon="13.5311916"><ele>433.0</ele><time>2026-04-12T09:03:14.154Z</time></trkpt><trkpt lat="42.9761144" lon="13.5308745"><ele>430.0</ele><time>2026-04-12T09:03:18.138Z</time></trkpt><trkpt lat="42.9760941" lon="13.5307612"><ele>427.0</ele><time>2026-04-12T09:03:19.14Z</time></trkpt><trkpt lat="42.9760776" lon="13.5306549"><ele>427.0</ele><time>2026-04-12T09:03:20.136Z</time></trkpt><trkpt lat="42.9760651" lon="13.5305563"><ele>427.00000000000006</ele><time>2026-04-12T09:03:21.134Z</time></trkpt><trkpt lat="42.9760525" lon="13.5304641"><ele>427.00000000000006</ele><time>2026-04-12T09:03:22.169Z</time></trkpt><trkpt lat="42.9760321" lon="13.5302953"><ele>427.0</ele><time>2026-04-12T09:03:24.146Z</time></trkpt><trkpt lat="42.9760155" lon="13.5301285"><ele>427.0</ele><time>2026-04-12T09:03:26.14Z</time></trkpt><trkpt lat="42.9759903" lon="13.5299639"><ele>415.0</ele><time>2026-04-12T09:03:28.129Z</time></trkpt><trkpt lat="42.9759773" lon="13.529878"><ele>415.0</ele><time>2026-04-12T09:03:29.133Z</time></trkpt><trkpt lat="42.9759644" lon="13.5297934"><ele>415.0</ele><time>2026-04-12T09:03:30.122Z</time></trkpt><trkpt lat="42.9759377" lon="13.5296419"><ele>415.0</ele><time>2026-04-12T09:03:32.134Z</time></trkpt><trkpt lat="42.9759534" lon="13.52955"><ele>410.0</ele><time>2026-04-12T09:03:34.132Z</time></trkpt><trkpt lat="42.9760241" lon="13.529522"><ele>410.0</ele><time>2026-04-12T09:03:37.119Z</time></trkpt></trkseg><trkseg><trkpt lat="42.9759713" lon="13.5296768"><ele>415.0</ele><time>2026-04-12T09:52:16.131Z</time></trkpt><trkpt lat="42.9759914" lon="13.5297995"><ele>415.0</ele><time>2026-04-12T09:52:18.136Z</time></trkpt><trkpt lat="42.9760199" lon="13.5300884"><ele>415.0</ele><time>2026-04-12T09:52:22.132Z</time></trkpt><trkpt lat="42.9760229" lon="13.5301977"><ele>415.0</ele><time>2026-04-12T09:52:24.131Z</time></trkpt><trkpt lat="42.9760319" lon="13.5303299"><ele>417.4</ele><time>2026-04-12T09:52:26.162Z</time></trkpt><trkpt lat="42.9760543" lon="13.5304975"><ele>419.8</ele><time>2026-04-12T09:52:28.139Z</time></trkpt><trkpt lat="42.9760679" lon="13.5305824"><ele>422.20000000000005</ele><time>2026-04-12T09:52:29.147Z</time></trkpt><trkpt lat="42.9760942" lon="13.5307519"><ele>424.6</ele><time>2026-04-12T09:52:31.139Z</time></trkpt><trkpt lat="42.9761086" lon="13.5308394"><ele>427.0</ele><time>2026-04-12T09:52:32.129Z</time></trkpt><trkpt lat="42.9761247" lon="13.530933"><ele>427.0</ele><time>2026-04-12T09:52:33.133Z</time></trkpt><trkpt lat="42.9761411" lon="13.53103"><ele>427.00000000000006</ele><time>2026-04-12T09:52:34.134Z</time></trkpt><trkpt lat="42.9761605" lon="13.5311259"><ele>427.00000000000006</ele><time>2026-04-12T09:52:35.13Z</time></trkpt><trkpt lat="42.9761765" lon="13.5312656"><ele>427.0</ele><time>2026-04-12T09:52:37.127Z</time></trkpt><trkpt lat="42.9761377" lon="13.5313382"><ele>427.0</ele><time>2026-04-12T09:52:40.123Z</time></trkpt><trkpt lat="42.9759505" lon="13.5312845"><ele>430.20000000000005</ele><time>2026-04-12T09:52:54.131Z</time></trkpt><trkpt lat="42.9758427" lon="13.5312692"><ele>433.40000000000003</ele><time>2026-04-12T09:52:56.138Z</time></trkpt><trkpt lat="42.9757479" lon="13.5312575"><ele>436.59999999999997</ele><time>2026-04-12T09:52:58.148Z</time></trkpt><trkpt lat="42.9756471" lon="13.5312573"><ele>439.79999999999995</ele><time>2026-04-12T09:53:00.126Z</time></trkpt><trkpt lat="42.9755233" lon="13.5312656"><ele>443.0</ele><time>2026-04-12T09:53:02.133Z</time></trkpt><trkpt lat="42.9753944" lon="13.5312877"><ele>443.0</ele><time>2026-04-12T09:53:04.124Z</time></trkpt><trkpt lat="42.9753302" lon="13.5313139"><ele>443.0</ele><time>2026-04-12T09:53:05.139Z</time></trkpt><trkpt lat="42.9752638" lon="13.5313448"><ele>443.0</ele><time>2026-04-12T09:53:06.124Z</time></trkpt><trkpt lat="42.9751964" lon="13.5313808"><ele>443.0</ele><time>2026-04-12T09:53:07.139Z</time></trkpt><trkpt lat="42.9751286" lon="13.5314159"><ele>443.0</ele><time>2026-04-12T09:53:08.131Z</time></trkpt><trkpt lat="42.9750598" lon="13.5314481"><ele>443.0</ele><time>2026-04-12T09:53:09.142Z</time></trkpt><trkpt lat="42.9749921" lon="13.5314746"><ele>443.0</ele><time>2026-04-12T09:53:10.136Z</time></trkpt><trkpt lat="42.9748965" lon="13.5315103"><ele>442.8333333333333</ele><time>2026-04-12T09:53:12.122Z</time></trkpt><trkpt lat="42.9748331" lon="13.5314901"><ele>442.66666666666663</ele><time>2026-04-12T09:53:17.169Z</time></trkpt><trkpt lat="42.9747591" lon="13.531398"><ele>442.5</ele><time>2026-04-12T09:53:19.142Z</time></trkpt><trkpt lat="42.9747099" lon="13.5313399"><ele>442.33333333333337</ele><time>2026-04-12T09:53:20.16Z</time></trkpt><trkpt lat="42.9746558" lon="13.5312795"><ele>442.1666666666667</ele><time>2026-04-12T09:53:21.137Z</time></trkpt><trkpt lat="42.9745944" lon="13.5312142"><ele>442.0</ele><time>2026-04-12T09:53:22.133Z</time></trkpt><trkpt lat="42.9745295" lon="13.531144"><ele>441.20000000000005</ele><time>2026-04-12T09:53:23.124Z</time></trkpt><trkpt lat="42.9743944" lon="13.5309943"><ele>440.40000000000003</ele><time>2026-04-12T09:53:25.136Z</time></trkpt><trkpt lat="42.9743321" lon="13.5309245"><ele>439.59999999999997</ele><time>2026-04-12T09:53:26.13Z</time></trkpt><trkpt lat="42.9742749" lon="13.530862"><ele>438.79999999999995</ele><time>2026-04-12T09:53:27.139Z</time></trkpt><trkpt lat="42.9742223" lon="13.5308048"><ele>438.0</ele><time>2026-04-12T09:53:28.131Z</time></trkpt><trkpt lat="42.974168" lon="13.5307492"><ele>438.0</ele><time>2026-04-12T09:53:29.132Z</time></trkpt><trkpt lat="42.9741102" lon="13.5306908"><ele>438.0</ele><time>2026-04-12T09:53:30.124Z</time></trkpt><trkpt lat="42.9740485" lon="13.5306263"><ele>438.0</ele><time>2026-04-12T09:53:31.125Z</time></trkpt><trkpt lat="42.9739893" lon="13.5305587"><ele>438.0</ele><time>2026-04-12T09:53:32.134Z</time></trkpt><trkpt lat="42.9739378" lon="13.53049"><ele>438.0</ele><time>2026-04-12T09:53:33.139Z</time></trkpt><trkpt lat="42.9738941" lon="13.5304199"><ele>438.0</ele><time>2026-04-12T09:53:34.133Z</time></trkpt><trkpt lat="42.9738525" lon="13.5303479"><ele>438.0</ele><time>2026-04-12T09:53:35.146Z</time></trkpt><trkpt lat="42.9738048" lon="13.5302768"><ele>435.1666666666667</ele><time>2026-04-12T09:53:36.13Z</time></trkpt><trkpt lat="42.9737457" lon="13.5302062"><ele>432.33333333333337</ele><time>2026-04-12T09:53:37.123Z</time></trkpt><trkpt lat="42.9736792" lon="13.5301343"><ele>429.5</ele><time>2026-04-12T09:53:38.122Z</time></trkpt><trkpt lat="42.9736107" lon="13.5300616"><ele>426.6666666666667</ele><time>2026-04-12T09:53:39.123Z</time></trkpt><trkpt lat="42.9735445" lon="13.5299904"><ele>423.83333333333337</ele><time>2026-04-12T09:53:40.135Z</time></trkpt><trkpt lat="42.9734793" lon="13.5299241"><ele>421.0</ele><time>2026-04-12T09:53:41.166Z</time></trkpt><trkpt lat="42.9734141" lon="13.5298605"><ele>419.4</ele><time>2026-04-12T09:53:42.154Z</time></trkpt><trkpt lat="42.9733487" lon="13.529794"><ele>417.8</ele><time>2026-04-12T09:53:43.162Z</time></trkpt><trkpt lat="42.9732848" lon="13.5297261"><ele>416.2</ele><time>2026-04-12T09:53:44.159Z</time></trkpt><trkpt lat="42.9731743" lon="13.5295927"><ele>414.59999999999997</ele><time>2026-04-12T09:53:46.123Z</time></trkpt><trkpt lat="42.9731322" lon="13.5295287"><ele>413.0</ele><time>2026-04-12T09:53:47.122Z</time></trkpt><trkpt lat="42.9730623" lon="13.5294067"><ele>413.0</ele><time>2026-04-12T09:53:49.125Z</time></trkpt><trkpt lat="42.9730073" lon="13.529308"><ele>413.0</ele><time>2026-04-12T09:53:51.137Z</time></trkpt><trkpt lat="42.9729507" lon="13.5292073"><ele>413.0</ele><time>2026-04-12T09:53:53.131Z</time></trkpt><trkpt lat="42.9728716" lon="13.5290848"><ele>413.0</ele><time>2026-04-12T09:53:55.124Z</time></trkpt><trkpt lat="42.9727947" lon="13.5289807"><ele>413.0</ele><time>2026-04-12T09:53:57.127Z</time></trkpt><trkpt lat="42.9727082" lon="13.5288762"><ele>412.99999999999994</ele><time>2026-04-12T09:53:59.126Z</time></trkpt><trkpt lat="42.9726518" lon="13.528818"><ele>413.0</ele><time>2026-04-12T09:54:00.12Z</time></trkpt><trkpt lat="42.9725872" lon="13.5287572"><ele>413.0</ele><time>2026-04-12T09:54:01.13Z</time></trkpt><trkpt lat="42.9725232" lon="13.5287036"><ele>413.0</ele><time>2026-04-12T09:54:02.169Z</time></trkpt><trkpt lat="42.9724646" lon="13.5286567"><ele>412.99999999999994</ele><time>2026-04-12T09:54:03.163Z</time></trkpt><trkpt lat="42.972358" lon="13.5285731"><ele>413.0</ele><time>2026-04-12T09:54:05.138Z</time></trkpt><trkpt lat="42.9721827" lon="13.52853"><ele>412.49999999999994</ele><time>2026-04-12T09:54:09.125Z</time></trkpt><trkpt lat="42.9721156" lon="13.5286014"><ele>412.0</ele><time>2026-04-12T09:54:11.126Z</time></trkpt><trkpt lat="42.9720274" lon="13.5286328"><ele>411.5</ele><time>2026-04-12T09:54:13.128Z</time></trkpt><trkpt lat="42.9719695" lon="13.528673"><ele>411.0</ele><time>2026-04-12T09:54:15.132Z</time></trkpt><trkpt lat="42.9720005" lon="13.5287843"><ele>410.49999999999994</ele><time>2026-04-12T09:54:19.124Z</time></trkpt><trkpt lat="42.9720476" lon="13.528891"><ele>410.0</ele><time>2026-04-12T09:54:21.123Z</time></trkpt><trkpt lat="42.9721123" lon="13.5290057"><ele>413.5</ele><time>2026-04-12T09:54:23.132Z</time></trkpt><trkpt lat="42.9721758" lon="13.5291314"><ele>417.0</ele><time>2026-04-12T09:54:25.124Z</time></trkpt><trkpt lat="42.9722074" lon="13.5292093"><ele>420.5</ele><time>2026-04-12T09:54:27.127Z</time></trkpt><trkpt lat="42.9719823" lon="13.5292218"><ele>424.0</ele><time>2026-04-12T09:54:32.135Z</time></trkpt><trkpt lat="42.9718877" lon="13.5292624"><ele>424.0</ele><time>2026-04-12T09:54:34.126Z</time></trkpt><trkpt lat="42.9718068" lon="13.5293691"><ele>424.0</ele><time>2026-04-12T09:54:36.157Z</time></trkpt><trkpt lat="42.9717453" lon="13.5295197"><ele>424.0</ele><time>2026-04-12T09:54:38.161Z</time></trkpt><trkpt lat="42.9717152" lon="13.529607"><ele>424.0</ele><time>2026-04-12T09:54:39.132Z</time></trkpt><trkpt lat="42.9716849" lon="13.5297041"><ele>424.0</ele><time>2026-04-12T09:54:40.129Z</time></trkpt><trkpt lat="42.9716564" lon="13.5298069"><ele>426.33333333333337</ele><time>2026-04-12T09:54:41.135Z</time></trkpt><trkpt lat="42.9716266" lon="13.529912"><ele>428.6666666666667</ele><time>2026-04-12T09:54:42.131Z</time></trkpt><trkpt lat="42.9715924" lon="13.5300244"><ele>431.0</ele><time>2026-04-12T09:54:43.126Z</time></trkpt><trkpt lat="42.9715567" lon="13.5301415"><ele>433.33333333333337</ele><time>2026-04-12T09:54:44.138Z</time></trkpt><trkpt lat="42.9715202" lon="13.5302638"><ele>435.6666666666667</ele><time>2026-04-12T09:54:45.132Z</time></trkpt><trkpt lat="42.9714857" lon="13.530373"><ele>438.0</ele><time>2026-04-12T09:54:46.161Z</time></trkpt><trkpt lat="42.9714564" lon="13.5304691"><ele>441.4</ele><time>2026-04-12T09:54:47.133Z</time></trkpt><trkpt lat="42.9714276" lon="13.5305611"><ele>444.79999999999995</ele><time>2026-04-12T09:54:48.158Z</time></trkpt><trkpt lat="42.9713718" lon="13.5307658"><ele>448.2</ele><time>2026-04-12T09:54:51.172Z</time></trkpt><trkpt lat="42.9713152" lon="13.53086"><ele>451.6</ele><time>2026-04-12T09:54:53.155Z</time></trkpt><trkpt lat="42.9712758" lon="13.5309291"><ele>455.0</ele><time>2026-04-12T09:54:54.14Z</time></trkpt><trkpt lat="42.9712306" lon="13.5309999"><ele>455.0</ele><time>2026-04-12T09:54:55.13Z</time></trkpt><trkpt lat="42.9711779" lon="13.5310598"><ele>455.0</ele><time>2026-04-12T09:54:56.139Z</time></trkpt><trkpt lat="42.9711221" lon="13.5311039"><ele>455.0</ele><time>2026-04-12T09:54:57.16Z</time></trkpt><trkpt lat="42.971014" lon="13.5311566"><ele>455.0</ele><time>2026-04-12T09:54:59.127Z</time></trkpt><trkpt lat="42.9708975" lon="13.5312235"><ele>455.0</ele><time>2026-04-12T09:55:01.158Z</time></trkpt><trkpt lat="42.970798" lon="13.531321"><ele>460.2</ele><time>2026-04-12T09:55:03.132Z</time></trkpt><trkpt lat="42.970746" lon="13.5313702"><ele>465.4</ele><time>2026-04-12T09:55:04.129Z</time></trkpt><trkpt lat="42.9706379" lon="13.5314423"><ele>470.6</ele><time>2026-04-12T09:55:06.134Z</time></trkpt><trkpt lat="42.9705782" lon="13.5314735"><ele>475.8</ele><time>2026-04-12T09:55:07.141Z</time></trkpt><trkpt lat="42.9704857" lon="13.5315405"><ele>481.0</ele><time>2026-04-12T09:55:09.139Z</time></trkpt><trkpt lat="42.9703236" lon="13.5316961"><ele>481.00000000000006</ele><time>2026-04-12T09:55:12.162Z</time></trkpt><trkpt lat="42.9702542" lon="13.5317454"><ele>481.0</ele><time>2026-04-12T09:55:13.161Z</time></trkpt><trkpt lat="42.9701865" lon="13.5317859"><ele>481.0</ele><time>2026-04-12T09:55:14.132Z</time></trkpt><trkpt lat="42.9701199" lon="13.5318222"><ele>481.0</ele><time>2026-04-12T09:55:15.135Z</time></trkpt><trkpt lat="42.97006" lon="13.5318686"><ele>481.00000000000006</ele><time>2026-04-12T09:55:16.143Z</time></trkpt><trkpt lat="42.9699986" lon="13.5319319"><ele>481.0</ele><time>2026-04-12T09:55:17.133Z</time></trkpt><trkpt lat="42.9699378" lon="13.5320033"><ele>484.6666666666667</ele><time>2026-04-12T09:55:18.132Z</time></trkpt><trkpt lat="42.9698756" lon="13.532076"><ele>488.33333333333337</ele><time>2026-04-12T09:55:19.13Z</time></trkpt><trkpt lat="42.9698171" lon="13.5321549"><ele>492.0</ele><time>2026-04-12T09:55:20.136Z</time></trkpt><trkpt lat="42.9697653" lon="13.5322356"><ele>495.66666666666663</ele><time>2026-04-12T09:55:21.137Z</time></trkpt><trkpt lat="42.9697175" lon="13.5323186"><ele>499.3333333333333</ele><time>2026-04-12T09:55:22.131Z</time></trkpt><trkpt lat="42.9696749" lon="13.5324022"><ele>503.0</ele><time>2026-04-12T09:55:23.131Z</time></trkpt><trkpt lat="42.9696318" lon="13.5324884"><ele>503.0</ele><time>2026-04-12T09:55:24.127Z</time></trkpt><trkpt lat="42.9695942" lon="13.532564"><ele>502.99999999999994</ele><time>2026-04-12T09:55:25.138Z</time></trkpt><trkpt lat="42.969565" lon="13.5327011"><ele>502.99999999999994</ele><time>2026-04-12T09:55:27.166Z</time></trkpt><trkpt lat="42.9695773" lon="13.5328515"><ele>503.0</ele><time>2026-04-12T09:55:29.131Z</time></trkpt><trkpt lat="42.9695762" lon="13.5329389"><ele>503.0</ele><time>2026-04-12T09:55:30.133Z</time></trkpt><trkpt lat="42.969501" lon="13.5331653"><ele>503.16666666666663</ele><time>2026-04-12T09:55:33.132Z</time></trkpt><trkpt lat="42.9694473" lon="13.5332623"><ele>503.3333333333333</ele><time>2026-04-12T09:55:34.131Z</time></trkpt><trkpt lat="42.9693865" lon="13.5333571"><ele>503.5</ele><time>2026-04-12T09:55:35.138Z</time></trkpt><trkpt lat="42.9693254" lon="13.5334432"><ele>503.66666666666663</ele><time>2026-04-12T09:55:36.14Z</time></trkpt><trkpt lat="42.9692665" lon="13.5335133"><ele>503.8333333333333</ele><time>2026-04-12T09:55:37.131Z</time></trkpt><trkpt lat="42.9692063" lon="13.5335661"><ele>504.0</ele><time>2026-04-12T09:55:38.138Z</time></trkpt><trkpt lat="42.9691372" lon="13.5336057"><ele>504.0</ele><time>2026-04-12T09:55:39.133Z</time></trkpt><trkpt lat="42.9690575" lon="13.5336256"><ele>504.0</ele><time>2026-04-12T09:55:40.133Z</time></trkpt><trkpt lat="42.9689738" lon="13.5336226"><ele>504.0</ele><time>2026-04-12T09:55:41.13Z</time></trkpt><trkpt lat="42.9688906" lon="13.5336014"><ele>504.0</ele><time>2026-04-12T09:55:42.127Z</time></trkpt><trkpt lat="42.9688077" lon="13.533569"><ele>504.0</ele><time>2026-04-12T09:55:43.14Z</time></trkpt><trkpt lat="42.9687336" lon="13.5335333"><ele>504.0</ele><time>2026-04-12T09:55:44.132Z</time></trkpt><trkpt lat="42.9686603" lon="13.5335019"><ele>504.0</ele><time>2026-04-12T09:55:45.129Z</time></trkpt><trkpt lat="42.9685881" lon="13.5334776"><ele>504.0</ele><time>2026-04-12T09:55:46.134Z</time></trkpt><trkpt lat="42.9685252" lon="13.53346"><ele>504.0</ele><time>2026-04-12T09:55:47.135Z</time></trkpt><trkpt lat="42.9684291" lon="13.5334362"><ele>504.0</ele><time>2026-04-12T09:55:49.123Z</time></trkpt><trkpt lat="42.9683276" lon="13.5334286"><ele>504.0</ele><time>2026-04-12T09:55:51.156Z</time></trkpt><trkpt lat="42.9681855" lon="13.533444"><ele>502.1666666666667</ele><time>2026-04-12T09:55:53.136Z</time></trkpt><trkpt lat="42.9681056" lon="13.5334399"><ele>500.33333333333337</ele><time>2026-04-12T09:55:54.139Z</time></trkpt><trkpt lat="42.9680276" lon="13.5334221"><ele>498.5</ele><time>2026-04-12T09:55:55.134Z</time></trkpt><trkpt lat="42.9679517" lon="13.5334"><ele>496.6666666666667</ele><time>2026-04-12T09:55:56.135Z</time></trkpt><trkpt lat="42.9678834" lon="13.5333792"><ele>494.83333333333337</ele><time>2026-04-12T09:55:57.132Z</time></trkpt><trkpt lat="42.9677711" lon="13.5333604"><ele>493.0</ele><time>2026-04-12T09:55:59.125Z</time></trkpt><trkpt lat="42.9676655" lon="13.5333968"><ele>493.0</ele><time>2026-04-12T09:56:01.148Z</time></trkpt><trkpt lat="42.9675815" lon="13.5334755"><ele>492.99999999999994</ele><time>2026-04-12T09:56:03.131Z</time></trkpt><trkpt lat="42.9675063" lon="13.533591"><ele>492.99999999999994</ele><time>2026-04-12T09:56:05.139Z</time></trkpt><trkpt lat="42.9674546" lon="13.5337313"><ele>493.0</ele><time>2026-04-12T09:56:07.133Z</time></trkpt><trkpt lat="42.9674317" lon="13.5338263"><ele>493.0</ele><time>2026-04-12T09:56:08.142Z</time></trkpt><trkpt lat="42.9674068" lon="13.5339325"><ele>494.00000000000006</ele><time>2026-04-12T09:56:09.131Z</time></trkpt><trkpt lat="42.9673774" lon="13.5340362"><ele>495.0</ele><time>2026-04-12T09:56:10.129Z</time></trkpt><trkpt lat="42.9673453" lon="13.5341343"><ele>496.0</ele><time>2026-04-12T09:56:11.132Z</time></trkpt><trkpt lat="42.9673146" lon="13.5342227"><ele>497.0</ele><time>2026-04-12T09:56:12.136Z</time></trkpt><trkpt lat="42.9672537" lon="13.5343887"><ele>498.00000000000006</ele><time>2026-04-12T09:56:14.158Z</time></trkpt><trkpt lat="42.9672251" lon="13.5344751"><ele>499.0</ele><time>2026-04-12T09:56:15.143Z</time></trkpt><trkpt lat="42.9671963" lon="13.5345669"><ele>500.57142857142867</ele><time>2026-04-12T09:56:16.134Z</time></trkpt><trkpt lat="42.9671672" lon="13.5346613"><ele>502.14285714285717</ele><time>2026-04-12T09:56:17.131Z</time></trkpt><trkpt lat="42.9671374" lon="13.5347578"><ele>503.7142857142858</ele><time>2026-04-12T09:56:18.137Z</time></trkpt><trkpt lat="42.9671102" lon="13.534856"><ele>505.28571428571433</ele><time>2026-04-12T09:56:19.128Z</time></trkpt><trkpt lat="42.9670861" lon="13.5349516"><ele>506.8571428571429</ele><time>2026-04-12T09:56:20.144Z</time></trkpt><trkpt lat="42.9670678" lon="13.5350374"><ele>508.42857142857144</ele><time>2026-04-12T09:56:21.133Z</time></trkpt><trkpt lat="42.9670549" lon="13.5351256"><ele>510.0</ele><time>2026-04-12T09:56:22.137Z</time></trkpt><trkpt lat="42.9670434" lon="13.5352237"><ele>510.0</ele><time>2026-04-12T09:56:23.139Z</time></trkpt><trkpt lat="42.9670303" lon="13.5353269"><ele>510.0</ele><time>2026-04-12T09:56:24.127Z</time></trkpt><trkpt lat="42.9670152" lon="13.5354389"><ele>510.0</ele><time>2026-04-12T09:56:25.139Z</time></trkpt><trkpt lat="42.9669995" lon="13.535552"><ele>510.0</ele><time>2026-04-12T09:56:26.132Z</time></trkpt><trkpt lat="42.9669814" lon="13.5356648"><ele>510.0</ele><time>2026-04-12T09:56:27.136Z</time></trkpt><trkpt lat="42.9669596" lon="13.5357698"><ele>510.0</ele><time>2026-04-12T09:56:28.139Z</time></trkpt><trkpt lat="42.966932" lon="13.535867"><ele>511.4</ele><time>2026-04-12T09:56:29.129Z</time></trkpt><trkpt lat="42.9668972" lon="13.5359632"><ele>512.8</ele><time>2026-04-12T09:56:30.138Z</time></trkpt><trkpt lat="42.9668588" lon="13.536054"><ele>514.2</ele><time>2026-04-12T09:56:31.132Z</time></trkpt><trkpt lat="42.9668199" lon="13.5361416"><ele>515.6</ele><time>2026-04-12T09:56:32.13Z</time></trkpt><trkpt lat="42.9667861" lon="13.5362284"><ele>517.0</ele><time>2026-04-12T09:56:33.129Z</time></trkpt><trkpt lat="42.966717" lon="13.5364509"><ele>514.0</ele><time>2026-04-12T09:56:36.125Z</time></trkpt><trkpt lat="42.9666721" lon="13.5366108"><ele>511.00000000000006</ele><time>2026-04-12T09:56:38.136Z</time></trkpt><trkpt lat="42.966651" lon="13.5367084"><ele>508.00000000000006</ele><time>2026-04-12T09:56:39.131Z</time></trkpt><trkpt lat="42.9666326" lon="13.5368148"><ele>505.0</ele><time>2026-04-12T09:56:40.162Z</time></trkpt><trkpt lat="42.9666161" lon="13.5369258"><ele>502.0</ele><time>2026-04-12T09:56:41.133Z</time></trkpt><trkpt lat="42.9666005" lon="13.5370437"><ele>504.6</ele><time>2026-04-12T09:56:42.129Z</time></trkpt><trkpt lat="42.9665868" lon="13.5371671"><ele>507.20000000000005</ele><time>2026-04-12T09:56:43.128Z</time></trkpt><trkpt lat="42.9665734" lon="13.5372942"><ele>509.8</ele><time>2026-04-12T09:56:44.143Z</time></trkpt><trkpt lat="42.9665573" lon="13.5374173"><ele>512.4</ele><time>2026-04-12T09:56:45.123Z</time></trkpt><trkpt lat="42.9665396" lon="13.5375365"><ele>515.0</ele><time>2026-04-12T09:56:46.134Z</time></trkpt><trkpt lat="42.966521" lon="13.5376497"><ele>515.0</ele><time>2026-04-12T09:56:47.13Z</time></trkpt><trkpt lat="42.9664986" lon="13.5377504"><ele>515.0</ele><time>2026-04-12T09:56:48.142Z</time></trkpt><trkpt lat="42.9664743" lon="13.5378481"><ele>515.0</ele><time>2026-04-12T09:56:49.136Z</time></trkpt><trkpt lat="42.9664478" lon="13.5379521"><ele>515.0</ele><time>2026-04-12T09:56:50.135Z</time></trkpt><trkpt lat="42.9664177" lon="13.5380576"><ele>515.0</ele><time>2026-04-12T09:56:51.125Z</time></trkpt><trkpt lat="42.9663872" lon="13.538165"><ele>515.0</ele><time>2026-04-12T09:56:52.143Z</time></trkpt><trkpt lat="42.96636" lon="13.5382697"><ele>518.8</ele><time>2026-04-12T09:56:53.141Z</time></trkpt><trkpt lat="42.9663355" lon="13.5383737"><ele>522.6</ele><time>2026-04-12T09:56:54.136Z</time></trkpt><trkpt lat="42.9662833" lon="13.5385768"><ele>526.4</ele><time>2026-04-12T09:56:56.133Z</time></trkpt><trkpt lat="42.9662546" lon="13.5386821"><ele>530.2</ele><time>2026-04-12T09:56:57.134Z</time></trkpt><trkpt lat="42.9662235" lon="13.5387909"><ele>534.0</ele><time>2026-04-12T09:56:58.127Z</time></trkpt><trkpt lat="42.9661868" lon="13.5389022"><ele>533.8571428571429</ele><time>2026-04-12T09:56:59.159Z</time></trkpt><trkpt lat="42.9661483" lon="13.5390061"><ele>533.7142857142858</ele><time>2026-04-12T09:57:00.155Z</time></trkpt><trkpt lat="42.9661097" lon="13.5390945"><ele>533.5714285714286</ele><time>2026-04-12T09:57:01.127Z</time></trkpt><trkpt lat="42.9660655" lon="13.539166"><ele>533.4285714285714</ele><time>2026-04-12T09:57:02.163Z</time></trkpt><trkpt lat="42.966014" lon="13.5392182"><ele>533.2857142857142</ele><time>2026-04-12T09:57:03.166Z</time></trkpt><trkpt lat="42.9659558" lon="13.539269"><ele>533.1428571428571</ele><time>2026-04-12T09:57:04.132Z</time></trkpt><trkpt lat="42.9658958" lon="13.5393214"><ele>533.0</ele><time>2026-04-12T09:57:05.133Z</time></trkpt><trkpt lat="42.9658361" lon="13.5393729"><ele>533.0</ele><time>2026-04-12T09:57:06.131Z</time></trkpt><trkpt lat="42.9657835" lon="13.5394273"><ele>533.0</ele><time>2026-04-12T09:57:07.142Z</time></trkpt><trkpt lat="42.965716" lon="13.5395331"><ele>533.0</ele><time>2026-04-12T09:57:09.126Z</time></trkpt><trkpt lat="42.9656756" lon="13.5396372"><ele>533.0</ele><time>2026-04-12T09:57:20.121Z</time></trkpt><trkpt lat="42.9655258" lon="13.5398161"><ele>536.5</ele><time>2026-04-12T09:57:23.133Z</time></trkpt><trkpt lat="42.9654597" lon="13.5398857"><ele>540.0</ele><time>2026-04-12T09:57:24.129Z</time></trkpt><trkpt lat="42.9653943" lon="13.5399566"><ele>543.5</ele><time>2026-04-12T09:57:25.13Z</time></trkpt><trkpt lat="42.9653327" lon="13.5400193"><ele>547.0</ele><time>2026-04-12T09:57:26.128Z</time></trkpt><trkpt lat="42.9652768" lon="13.5400633"><ele>550.5</ele><time>2026-04-12T09:57:27.165Z</time></trkpt><trkpt lat="42.9651718" lon="13.5400685"><ele>554.0</ele><time>2026-04-12T09:57:29.17Z</time></trkpt><trkpt lat="42.9651049" lon="13.5400431"><ele>554.0</ele><time>2026-04-12T09:57:30.162Z</time></trkpt><trkpt lat="42.9650353" lon="13.5400051"><ele>554.0</ele><time>2026-04-12T09:57:31.12Z</time></trkpt><trkpt lat="42.9649693" lon="13.539959"><ele>554.0</ele><time>2026-04-12T09:57:32.14Z</time></trkpt><trkpt lat="42.964903" lon="13.5398968"><ele>554.0</ele><time>2026-04-12T09:57:33.14Z</time></trkpt><trkpt lat="42.9648328" lon="13.5398298"><ele>554.0</ele><time>2026-04-12T09:57:34.163Z</time></trkpt><trkpt lat="42.9647626" lon="13.5397561"><ele>554.0</ele><time>2026-04-12T09:57:35.161Z</time></trkpt><trkpt lat="42.9646984" lon="13.5396772"><ele>553.2</ele><time>2026-04-12T09:57:36.163Z</time></trkpt><trkpt lat="42.9646412" lon="13.5395931"><ele>552.4</ele><time>2026-04-12T09:57:37.136Z</time></trkpt><trkpt lat="42.9645862" lon="13.5394967"><ele>551.6</ele><time>2026-04-12T09:57:38.138Z</time></trkpt><trkpt lat="42.9645342" lon="13.5393815"><ele>550.8</ele><time>2026-04-12T09:57:39.142Z</time></trkpt><trkpt lat="42.9644851" lon="13.539234"><ele>550.0</ele><time>2026-04-12T09:57:40.127Z</time></trkpt><trkpt lat="42.964439" lon="13.5390632"><ele>543.0</ele><time>2026-04-12T09:57:41.141Z</time></trkpt><trkpt lat="42.9643475" lon="13.5386924"><ele>536.0</ele><time>2026-04-12T09:57:43.134Z</time></trkpt><trkpt lat="42.9643042" lon="13.5385279"><ele>529.0</ele><time>2026-04-12T09:57:44.133Z</time></trkpt><trkpt lat="42.9642574" lon="13.538396"><ele>529.0</ele><time>2026-04-12T09:57:45.131Z</time></trkpt><trkpt lat="42.9642016" lon="13.538297"><ele>529.0</ele><time>2026-04-12T09:57:46.133Z</time></trkpt><trkpt lat="42.9641294" lon="13.5382179"><ele>529.0</ele><time>2026-04-12T09:57:47.133Z</time></trkpt><trkpt lat="42.9640318" lon="13.5381354"><ele>529.0</ele><time>2026-04-12T09:57:48.129Z</time></trkpt><trkpt lat="42.9639002" lon="13.5380444"><ele>529.0</ele><time>2026-04-12T09:57:49.134Z</time></trkpt><trkpt lat="42.96376" lon="13.5379488"><ele>532.25</ele><time>2026-04-12T09:57:50.135Z</time></trkpt><trkpt lat="42.9636327" lon="13.537871"><ele>535.5</ele><time>2026-04-12T09:57:51.132Z</time></trkpt><trkpt lat="42.9635075" lon="13.5378201"><ele>538.75</ele><time>2026-04-12T09:57:52.138Z</time></trkpt><trkpt lat="42.9633789" lon="13.5377946"><ele>542.0</ele><time>2026-04-12T09:57:53.13Z</time></trkpt><trkpt lat="42.9632395" lon="13.5377812"><ele>548.0</ele><time>2026-04-12T09:57:54.133Z</time></trkpt><trkpt lat="42.9630849" lon="13.5377697"><ele>554.0</ele><time>2026-04-12T09:57:55.132Z</time></trkpt><trkpt lat="42.9629319" lon="13.5377511"><ele>560.0</ele><time>2026-04-12T09:57:56.133Z</time></trkpt><trkpt lat="42.9627938" lon="13.5377302"><ele>566.0</ele><time>2026-04-12T09:57:57.121Z</time></trkpt><trkpt lat="42.9626803" lon="13.5377022"><ele>566.0</ele><time>2026-04-12T09:57:58.143Z</time></trkpt><trkpt lat="42.9625927" lon="13.5376611"><ele>566.0</ele><time>2026-04-12T09:57:59.135Z</time></trkpt><trkpt lat="42.9625192" lon="13.5376192"><ele>566.0</ele><time>2026-04-12T09:58:00.121Z</time></trkpt><trkpt lat="42.9624597" lon="13.5375727"><ele>566.0</ele><time>2026-04-12T09:58:01.139Z</time></trkpt><trkpt lat="42.9623724" lon="13.5374541"><ele>566.0</ele><time>2026-04-12T09:58:03.133Z</time></trkpt><trkpt lat="42.9622507" lon="13.5373069"><ele>575.0</ele><time>2026-04-12T09:58:06.133Z</time></trkpt><trkpt lat="42.9621874" lon="13.5372833"><ele>575.0</ele><time>2026-04-12T09:58:48.148Z</time></trkpt></trkseg></trk></gpx>